<?xml version="1.0" encoding="UTF-8" standalone="no" ?>
<gpx xmlns="http://www.topografix.com/GPX/1/1" xmlns:xsi="http://www.w3.org/2001/XMLSchema-instance" xsi:schemaLocation="http://www.topografix.com/GPX/1/1 http://www.topografix.com/GPX/1/1/gpx.xsd" version="1.1" creator="VisuGPX - https://www.visugpx.com">
  <metadata>
    <name>samedi-version-2-en-cours _ 216 KM </name>
  </metadata>
  <trk>
    <name><![CDATA[samedi-version-2-en-cours _ 216 KM ]]></name>
    <trkseg>
      <trkpt lat="45.5747" lon="2.92802">
        <ele>888.3</ele>
        <time>2022-03-28T09:07:53Z</time>
      </trkpt>
      <trkpt lat="45.5746" lon="2.92791">
        <ele>888.97</ele>
        <time>2022-03-28T09:07:53Z</time>
      </trkpt>
      <trkpt lat="45.57456" lon="2.92783">
        <ele>889.4</ele>
        <time>2022-03-28T09:07:54Z</time>
      </trkpt>
      <trkpt lat="45.5745" lon="2.9278">
        <ele>889.2</ele>
        <time>2022-03-28T09:07:55Z</time>
      </trkpt>
      <trkpt lat="45.57444" lon="2.92783">
        <ele>888.39</ele>
        <time>2022-03-28T09:07:56Z</time>
      </trkpt>
      <trkpt lat="45.5744" lon="2.9279">
        <ele>887.31</ele>
        <time>2022-03-28T09:07:57Z</time>
      </trkpt>
      <trkpt lat="45.5744" lon="2.92798">
        <ele>886.59</ele>
        <time>2022-03-28T09:07:58Z</time>
      </trkpt>
      <trkpt lat="45.57444" lon="2.92806">
        <ele>885.97</ele>
        <time>2022-03-28T09:07:59Z</time>
      </trkpt>
      <trkpt lat="45.5745" lon="2.92809">
        <ele>886.27</ele>
        <time>2022-03-28T09:08:00Z</time>
      </trkpt>
      <trkpt lat="45.57456" lon="2.92806">
        <ele>887.12</ele>
        <time>2022-03-28T09:08:01Z</time>
      </trkpt>
      <trkpt lat="45.57465" lon="2.92805">
        <ele>888.26</ele>
        <time>2022-03-28T09:08:02Z</time>
      </trkpt>
      <trkpt lat="45.57481" lon="2.92809">
        <ele>887.72</ele>
        <time>2022-03-28T09:08:03Z</time>
      </trkpt>
      <trkpt lat="45.57508" lon="2.92818">
        <ele>884.07</ele>
        <time>2022-03-28T09:08:04Z</time>
      </trkpt>
      <trkpt lat="45.57517" lon="2.92824">
        <ele>882.49</ele>
        <time>2022-03-28T09:08:05Z</time>
      </trkpt>
      <trkpt lat="45.57527" lon="2.92833">
        <ele>880.14</ele>
        <time>2022-03-28T09:08:06Z</time>
      </trkpt>
      <trkpt lat="45.57534" lon="2.92844">
        <ele>880.09</ele>
        <time>2022-03-28T09:08:07Z</time>
      </trkpt>
      <trkpt lat="45.5756" lon="2.92907">
        <ele>880.49</ele>
        <time>2022-03-28T09:08:08Z</time>
      </trkpt>
      <trkpt lat="45.57576" lon="2.92968">
        <ele>876.32</ele>
        <time>2022-03-28T09:08:09Z</time>
      </trkpt>
      <trkpt lat="45.57601" lon="2.93016">
        <ele>875.86</ele>
        <time>2022-03-28T09:08:10Z</time>
      </trkpt>
      <trkpt lat="45.57614" lon="2.93053">
        <ele>871.06</ele>
        <time>2022-03-28T09:08:11Z</time>
      </trkpt>
      <trkpt lat="45.57614" lon="2.93059">
        <ele>869.49</ele>
        <time>2022-03-28T09:08:14Z</time>
      </trkpt>
      <trkpt lat="45.57611" lon="2.93074">
        <ele>865.37</ele>
        <time>2022-03-28T09:08:17Z</time>
      </trkpt>
      <trkpt lat="45.576" lon="2.93099">
        <ele>863.06</ele>
        <time>2022-03-28T09:08:20Z</time>
      </trkpt>
      <trkpt lat="45.57598" lon="2.9311">
        <ele>862.48</ele>
        <time>2022-03-28T09:08:23Z</time>
      </trkpt>
      <trkpt lat="45.57597" lon="2.93144">
        <ele>861.24</ele>
        <time>2022-03-28T09:08:26Z</time>
      </trkpt>
      <trkpt lat="45.576" lon="2.93293">
        <ele>858.06</ele>
        <time>2022-03-28T09:08:29Z</time>
      </trkpt>
      <trkpt lat="45.57599" lon="2.93319">
        <ele>857.29</ele>
        <time>2022-03-28T09:08:32Z</time>
      </trkpt>
      <trkpt lat="45.57594" lon="2.93344">
        <ele>856.57</ele>
        <time>2022-03-28T09:08:35Z</time>
      </trkpt>
      <trkpt lat="45.57585" lon="2.93365">
        <ele>856.56</ele>
        <time>2022-03-28T09:08:38Z</time>
      </trkpt>
      <trkpt lat="45.57553" lon="2.93425">
        <ele>857.61</ele>
        <time>2022-03-28T09:08:41Z</time>
      </trkpt>
      <trkpt lat="45.57543" lon="2.93451">
        <ele>859.23</ele>
        <time>2022-03-28T09:08:44Z</time>
      </trkpt>
      <trkpt lat="45.5754" lon="2.93465">
        <ele>859.98</ele>
        <time>2022-03-28T09:08:47Z</time>
      </trkpt>
      <trkpt lat="45.57539" lon="2.9348">
        <ele>860.59</ele>
        <time>2022-03-28T09:08:50Z</time>
      </trkpt>
      <trkpt lat="45.5754" lon="2.93516">
        <ele>862.67</ele>
        <time>2022-03-28T09:08:53Z</time>
      </trkpt>
      <trkpt lat="45.57544" lon="2.93542">
        <ele>862.84</ele>
        <time>2022-03-28T09:08:56Z</time>
      </trkpt>
      <trkpt lat="45.57561" lon="2.93592">
        <ele>856.17</ele>
        <time>2022-03-28T09:08:59Z</time>
      </trkpt>
      <trkpt lat="45.57565" lon="2.93614">
        <ele>855.02</ele>
        <time>2022-03-28T09:09:02Z</time>
      </trkpt>
      <trkpt lat="45.57565" lon="2.93638">
        <ele>855.72</ele>
        <time>2022-03-28T09:09:05Z</time>
      </trkpt>
      <trkpt lat="45.57555" lon="2.93725">
        <ele>853.2</ele>
        <time>2022-03-28T09:09:08Z</time>
      </trkpt>
      <trkpt lat="45.57551" lon="2.93748">
        <ele>852.91</ele>
        <time>2022-03-28T09:09:11Z</time>
      </trkpt>
      <trkpt lat="45.57544" lon="2.9377">
        <ele>853.56</ele>
        <time>2022-03-28T09:09:13Z</time>
      </trkpt>
      <trkpt lat="45.57538" lon="2.93781">
        <ele>854.54</ele>
        <time>2022-03-28T09:09:16Z</time>
      </trkpt>
      <trkpt lat="45.57531" lon="2.9379">
        <ele>855.16</ele>
        <time>2022-03-28T09:09:19Z</time>
      </trkpt>
      <trkpt lat="45.5751" lon="2.93802">
        <ele>857.46</ele>
        <time>2022-03-28T09:09:22Z</time>
      </trkpt>
      <trkpt lat="45.57497" lon="2.93815">
        <ele>857.18</ele>
        <time>2022-03-28T09:09:25Z</time>
      </trkpt>
      <trkpt lat="45.57482" lon="2.93839">
        <ele>860.15</ele>
        <time>2022-03-28T09:09:28Z</time>
      </trkpt>
      <trkpt lat="45.57478" lon="2.93854">
        <ele>858.69</ele>
        <time>2022-03-28T09:09:31Z</time>
      </trkpt>
      <trkpt lat="45.5747" lon="2.93916">
        <ele>840.28</ele>
        <time>2022-03-28T09:09:34Z</time>
      </trkpt>
      <trkpt lat="45.57468" lon="2.93919">
        <ele>840.34</ele>
        <time>2022-03-28T09:09:38Z</time>
      </trkpt>
      <trkpt lat="45.57469" lon="2.93925">
        <ele>839.3</ele>
        <time>2022-03-28T09:09:41Z</time>
      </trkpt>
      <trkpt lat="45.57473" lon="2.93928">
        <ele>837.84</ele>
        <time>2022-03-28T09:09:44Z</time>
      </trkpt>
      <trkpt lat="45.57479" lon="2.93942">
        <ele>836.91</ele>
        <time>2022-03-28T09:09:47Z</time>
      </trkpt>
      <trkpt lat="45.57487" lon="2.93974">
        <ele>836.49</ele>
        <time>2022-03-28T09:09:51Z</time>
      </trkpt>
      <trkpt lat="45.57474" lon="2.9407">
        <ele>834.72</ele>
        <time>2022-03-28T09:09:54Z</time>
      </trkpt>
      <trkpt lat="45.5747" lon="2.94101">
        <ele>835.41</ele>
        <time>2022-03-28T09:09:57Z</time>
      </trkpt>
      <trkpt lat="45.57464" lon="2.94125">
        <ele>835.09</ele>
        <time>2022-03-28T09:10:00Z</time>
      </trkpt>
      <trkpt lat="45.57422" lon="2.94203">
        <ele>831.36</ele>
        <time>2022-03-28T09:10:04Z</time>
      </trkpt>
      <trkpt lat="45.57419" lon="2.9421">
        <ele>831.14</ele>
        <time>2022-03-28T09:10:07Z</time>
      </trkpt>
      <trkpt lat="45.57417" lon="2.94224">
        <ele>831.02</ele>
        <time>2022-03-28T09:10:10Z</time>
      </trkpt>
      <trkpt lat="45.57421" lon="2.9425">
        <ele>831.5</ele>
        <time>2022-03-28T09:10:13Z</time>
      </trkpt>
      <trkpt lat="45.57426" lon="2.94267">
        <ele>832.45</ele>
        <time>2022-03-28T09:10:17Z</time>
      </trkpt>
      <trkpt lat="45.57439" lon="2.94283">
        <ele>833.3</ele>
        <time>2022-03-28T09:10:20Z</time>
      </trkpt>
      <trkpt lat="45.5752" lon="2.94364">
        <ele>836.16</ele>
        <time>2022-03-28T09:10:23Z</time>
      </trkpt>
      <trkpt lat="45.57526" lon="2.94374">
        <ele>836.27</ele>
        <time>2022-03-28T09:10:26Z</time>
      </trkpt>
      <trkpt lat="45.57532" lon="2.94388">
        <ele>834.62</ele>
        <time>2022-03-28T09:10:30Z</time>
      </trkpt>
      <trkpt lat="45.57555" lon="2.94456">
        <ele>834.56</ele>
        <time>2022-03-28T09:10:33Z</time>
      </trkpt>
      <trkpt lat="45.57561" lon="2.94475">
        <ele>835.59</ele>
        <time>2022-03-28T09:10:36Z</time>
      </trkpt>
      <trkpt lat="45.57563" lon="2.94497">
        <ele>836.36</ele>
        <time>2022-03-28T09:10:39Z</time>
      </trkpt>
      <trkpt lat="45.57562" lon="2.94527">
        <ele>837.02</ele>
        <time>2022-03-28T09:10:43Z</time>
      </trkpt>
      <trkpt lat="45.57558" lon="2.94549">
        <ele>835.78</ele>
        <time>2022-03-28T09:10:46Z</time>
      </trkpt>
      <trkpt lat="45.57544" lon="2.94602">
        <ele>830.57</ele>
        <time>2022-03-28T09:10:49Z</time>
      </trkpt>
      <trkpt lat="45.57543" lon="2.94618">
        <ele>830.29</ele>
        <time>2022-03-28T09:10:52Z</time>
      </trkpt>
      <trkpt lat="45.57545" lon="2.94637">
        <ele>830.27</ele>
        <time>2022-03-28T09:10:56Z</time>
      </trkpt>
      <trkpt lat="45.5756" lon="2.94719">
        <ele>824.54</ele>
        <time>2022-03-28T09:10:59Z</time>
      </trkpt>
      <trkpt lat="45.57566" lon="2.94733">
        <ele>824.11</ele>
        <time>2022-03-28T09:11:02Z</time>
      </trkpt>
      <trkpt lat="45.57575" lon="2.94745">
        <ele>824.29</ele>
        <time>2022-03-28T09:11:05Z</time>
      </trkpt>
      <trkpt lat="45.57597" lon="2.94767">
        <ele>826.37</ele>
        <time>2022-03-28T09:11:09Z</time>
      </trkpt>
      <trkpt lat="45.57607" lon="2.94784">
        <ele>826.42</ele>
        <time>2022-03-28T09:11:12Z</time>
      </trkpt>
      <trkpt lat="45.57612" lon="2.94799">
        <ele>825.28</ele>
        <time>2022-03-28T09:11:15Z</time>
      </trkpt>
      <trkpt lat="45.57621" lon="2.94853">
        <ele>821.3</ele>
        <time>2022-03-28T09:11:19Z</time>
      </trkpt>
      <trkpt lat="45.57627" lon="2.94876">
        <ele>820.61</ele>
        <time>2022-03-28T09:11:22Z</time>
      </trkpt>
      <trkpt lat="45.57641" lon="2.94899">
        <ele>820.57</ele>
        <time>2022-03-28T09:11:25Z</time>
      </trkpt>
      <trkpt lat="45.5766" lon="2.94928">
        <ele>820.78</ele>
        <time>2022-03-28T09:11:28Z</time>
      </trkpt>
      <trkpt lat="45.57673" lon="2.94951">
        <ele>819.34</ele>
        <time>2022-03-28T09:11:32Z</time>
      </trkpt>
      <trkpt lat="45.57683" lon="2.94976">
        <ele>818.34</ele>
        <time>2022-03-28T09:11:35Z</time>
      </trkpt>
      <trkpt lat="45.5776" lon="2.95233">
        <ele>807.93</ele>
        <time>2022-03-28T09:11:38Z</time>
      </trkpt>
      <trkpt lat="45.57769" lon="2.95255">
        <ele>808.57</ele>
        <time>2022-03-28T09:11:41Z</time>
      </trkpt>
      <trkpt lat="45.57782" lon="2.95274">
        <ele>808.65</ele>
        <time>2022-03-28T09:11:45Z</time>
      </trkpt>
      <trkpt lat="45.57842" lon="2.95351">
        <ele>811.61</ele>
        <time>2022-03-28T09:11:48Z</time>
      </trkpt>
      <trkpt lat="45.57861" lon="2.95379">
        <ele>813.71</ele>
        <time>2022-03-28T09:11:51Z</time>
      </trkpt>
      <trkpt lat="45.57893" lon="2.95444">
        <ele>809.29</ele>
        <time>2022-03-28T09:11:54Z</time>
      </trkpt>
      <trkpt lat="45.57915" lon="2.95512">
        <ele>804.9</ele>
        <time>2022-03-28T09:11:58Z</time>
      </trkpt>
      <trkpt lat="45.57923" lon="2.95528">
        <ele>804.26</ele>
        <time>2022-03-28T09:12:01Z</time>
      </trkpt>
      <trkpt lat="45.57943" lon="2.95556">
        <ele>802.92</ele>
        <time>2022-03-28T09:12:04Z</time>
      </trkpt>
      <trkpt lat="45.57954" lon="2.95569">
        <ele>802.87</ele>
        <time>2022-03-28T09:12:07Z</time>
      </trkpt>
      <trkpt lat="45.57966" lon="2.95579">
        <ele>802.93</ele>
        <time>2022-03-28T09:12:11Z</time>
      </trkpt>
      <trkpt lat="45.5839" lon="2.95838">
        <ele>798.27</ele>
        <time>2022-03-28T09:12:14Z</time>
      </trkpt>
      <trkpt lat="45.58407" lon="2.9585">
        <ele>798.95</ele>
        <time>2022-03-28T09:12:17Z</time>
      </trkpt>
      <trkpt lat="45.58438" lon="2.9588">
        <ele>799.74</ele>
        <time>2022-03-28T09:12:20Z</time>
      </trkpt>
      <trkpt lat="45.58451" lon="2.95895">
        <ele>799.52</ele>
        <time>2022-03-28T09:12:24Z</time>
      </trkpt>
      <trkpt lat="45.58624" lon="2.96122">
        <ele>802.1</ele>
        <time>2022-03-28T09:12:27Z</time>
      </trkpt>
      <trkpt lat="45.58639" lon="2.96138">
        <ele>802.94</ele>
        <time>2022-03-28T09:12:30Z</time>
      </trkpt>
      <trkpt lat="45.58672" lon="2.96165">
        <ele>804.42</ele>
        <time>2022-03-28T09:12:33Z</time>
      </trkpt>
      <trkpt lat="45.58892" lon="2.96267">
        <ele>803.63</ele>
        <time>2022-03-28T09:12:37Z</time>
      </trkpt>
      <trkpt lat="45.58919" lon="2.96284">
        <ele>801.79</ele>
        <time>2022-03-28T09:12:40Z</time>
      </trkpt>
      <trkpt lat="45.58935" lon="2.96303">
        <ele>801.1</ele>
        <time>2022-03-28T09:12:43Z</time>
      </trkpt>
      <trkpt lat="45.58945" lon="2.9632">
        <ele>800.49</ele>
        <time>2022-03-28T09:12:46Z</time>
      </trkpt>
      <trkpt lat="45.58953" lon="2.96341">
        <ele>799.34</ele>
        <time>2022-03-28T09:12:50Z</time>
      </trkpt>
      <trkpt lat="45.58959" lon="2.96365">
        <ele>797.91</ele>
        <time>2022-03-28T09:12:53Z</time>
      </trkpt>
      <trkpt lat="45.58959" lon="2.96403">
        <ele>797.83</ele>
        <time>2022-03-28T09:12:56Z</time>
      </trkpt>
      <trkpt lat="45.58957" lon="2.96421">
        <ele>798.57</ele>
        <time>2022-03-28T09:12:59Z</time>
      </trkpt>
      <trkpt lat="45.58933" lon="2.96521">
        <ele>794.36</ele>
        <time>2022-03-28T09:13:03Z</time>
      </trkpt>
      <trkpt lat="45.58931" lon="2.96541">
        <ele>793.03</ele>
        <time>2022-03-28T09:13:06Z</time>
      </trkpt>
      <trkpt lat="45.58932" lon="2.96561">
        <ele>792.43</ele>
        <time>2022-03-28T09:13:09Z</time>
      </trkpt>
      <trkpt lat="45.58935" lon="2.96581">
        <ele>792.07</ele>
        <time>2022-03-28T09:13:13Z</time>
      </trkpt>
      <trkpt lat="45.5894" lon="2.96599">
        <ele>792.08</ele>
        <time>2022-03-28T09:13:16Z</time>
      </trkpt>
      <trkpt lat="45.58976" lon="2.96692">
        <ele>790.81</ele>
        <time>2022-03-28T09:13:19Z</time>
      </trkpt>
      <trkpt lat="45.58995" lon="2.96745">
        <ele>787.09</ele>
        <time>2022-03-28T09:13:22Z</time>
      </trkpt>
      <trkpt lat="45.59" lon="2.96769">
        <ele>785.62</ele>
        <time>2022-03-28T09:13:26Z</time>
      </trkpt>
      <trkpt lat="45.59002" lon="2.96789">
        <ele>785.27</ele>
        <time>2022-03-28T09:13:29Z</time>
      </trkpt>
      <trkpt lat="45.59001" lon="2.96811">
        <ele>784.91</ele>
        <time>2022-03-28T09:13:32Z</time>
      </trkpt>
      <trkpt lat="45.58997" lon="2.96833">
        <ele>783.84</ele>
        <time>2022-03-28T09:13:35Z</time>
      </trkpt>
      <trkpt lat="45.58992" lon="2.96853">
        <ele>783.93</ele>
        <time>2022-03-28T09:13:39Z</time>
      </trkpt>
      <trkpt lat="45.58983" lon="2.96873">
        <ele>784.13</ele>
        <time>2022-03-28T09:13:42Z</time>
      </trkpt>
      <trkpt lat="45.58938" lon="2.96944">
        <ele>783.55</ele>
        <time>2022-03-28T09:13:45Z</time>
      </trkpt>
      <trkpt lat="45.58927" lon="2.96972">
        <ele>782.43</ele>
        <time>2022-03-28T09:13:48Z</time>
      </trkpt>
      <trkpt lat="45.58917" lon="2.97003">
        <ele>782.3</ele>
        <time>2022-03-28T09:13:52Z</time>
      </trkpt>
      <trkpt lat="45.58893" lon="2.97109">
        <ele>776.99</ele>
        <time>2022-03-28T09:13:55Z</time>
      </trkpt>
      <trkpt lat="45.58888" lon="2.97134">
        <ele>776.06</ele>
        <time>2022-03-28T09:13:58Z</time>
      </trkpt>
      <trkpt lat="45.58887" lon="2.97159">
        <ele>776.82</ele>
        <time>2022-03-28T09:14:01Z</time>
      </trkpt>
      <trkpt lat="45.5889" lon="2.97189">
        <ele>778.1</ele>
        <time>2022-03-28T09:14:05Z</time>
      </trkpt>
      <trkpt lat="45.58895" lon="2.97209">
        <ele>778.93</ele>
        <time>2022-03-28T09:14:08Z</time>
      </trkpt>
      <trkpt lat="45.58967" lon="2.97434">
        <ele>773.39</ele>
        <time>2022-03-28T09:14:11Z</time>
      </trkpt>
      <trkpt lat="45.58974" lon="2.97485">
        <ele>767.29</ele>
        <time>2022-03-28T09:14:14Z</time>
      </trkpt>
      <trkpt lat="45.58974" lon="2.97512">
        <ele>765.03</ele>
        <time>2022-03-28T09:14:18Z</time>
      </trkpt>
      <trkpt lat="45.58972" lon="2.9754">
        <ele>762.6</ele>
        <time>2022-03-28T09:14:21Z</time>
      </trkpt>
      <trkpt lat="45.58939" lon="2.97744">
        <ele>762.99</ele>
        <time>2022-03-28T09:14:24Z</time>
      </trkpt>
      <trkpt lat="45.5893" lon="2.97779">
        <ele>763.06</ele>
        <time>2022-03-28T09:14:27Z</time>
      </trkpt>
      <trkpt lat="45.5886" lon="2.98025">
        <ele>757.95</ele>
        <time>2022-03-28T09:14:31Z</time>
      </trkpt>
      <trkpt lat="45.58856" lon="2.98049">
        <ele>756.35</ele>
        <time>2022-03-28T09:14:34Z</time>
      </trkpt>
      <trkpt lat="45.58855" lon="2.9807">
        <ele>754.5</ele>
        <time>2022-03-28T09:14:37Z</time>
      </trkpt>
      <trkpt lat="45.58857" lon="2.98085">
        <ele>752.81</ele>
        <time>2022-03-28T09:14:40Z</time>
      </trkpt>
      <trkpt lat="45.58861" lon="2.98102">
        <ele>750.05</ele>
        <time>2022-03-28T09:14:44Z</time>
      </trkpt>
      <trkpt lat="45.58894" lon="2.98173">
        <ele>742.69</ele>
        <time>2022-03-28T09:14:47Z</time>
      </trkpt>
      <trkpt lat="45.5894" lon="2.98293">
        <ele>742.18</ele>
        <time>2022-03-28T09:14:50Z</time>
      </trkpt>
      <trkpt lat="45.58947" lon="2.9832">
        <ele>739.67</ele>
        <time>2022-03-28T09:14:53Z</time>
      </trkpt>
      <trkpt lat="45.58973" lon="2.98447">
        <ele>740.31</ele>
        <time>2022-03-28T09:14:57Z</time>
      </trkpt>
      <trkpt lat="45.58974" lon="2.9846">
        <ele>740.84</ele>
        <time>2022-03-28T09:15:00Z</time>
      </trkpt>
      <trkpt lat="45.58973" lon="2.98476">
        <ele>740.39</ele>
        <time>2022-03-28T09:15:03Z</time>
      </trkpt>
      <trkpt lat="45.58964" lon="2.98499">
        <ele>739.15</ele>
        <time>2022-03-28T09:15:07Z</time>
      </trkpt>
      <trkpt lat="45.58934" lon="2.98543">
        <ele>736.54</ele>
        <time>2022-03-28T09:15:10Z</time>
      </trkpt>
      <trkpt lat="45.58923" lon="2.98566">
        <ele>736.96</ele>
        <time>2022-03-28T09:15:13Z</time>
      </trkpt>
      <trkpt lat="45.58906" lon="2.98612">
        <ele>736.43</ele>
        <time>2022-03-28T09:15:16Z</time>
      </trkpt>
      <trkpt lat="45.58897" lon="2.9863">
        <ele>733.91</ele>
        <time>2022-03-28T09:15:20Z</time>
      </trkpt>
      <trkpt lat="45.58856" lon="2.98695">
        <ele>730.38</ele>
        <time>2022-03-28T09:15:23Z</time>
      </trkpt>
      <trkpt lat="45.58843" lon="2.98716">
        <ele>730.62</ele>
        <time>2022-03-28T09:15:26Z</time>
      </trkpt>
      <trkpt lat="45.58838" lon="2.98728">
        <ele>729.54</ele>
        <time>2022-03-28T09:15:29Z</time>
      </trkpt>
      <trkpt lat="45.58831" lon="2.9876">
        <ele>727.64</ele>
        <time>2022-03-28T09:15:33Z</time>
      </trkpt>
      <trkpt lat="45.58831" lon="2.9879">
        <ele>725.63</ele>
        <time>2022-03-28T09:15:36Z</time>
      </trkpt>
      <trkpt lat="45.5884" lon="2.98847">
        <ele>723.18</ele>
        <time>2022-03-28T09:15:39Z</time>
      </trkpt>
      <trkpt lat="45.58841" lon="2.98874">
        <ele>722.2</ele>
        <time>2022-03-28T09:15:42Z</time>
      </trkpt>
      <trkpt lat="45.58839" lon="2.98896">
        <ele>721.63</ele>
        <time>2022-03-28T09:15:46Z</time>
      </trkpt>
      <trkpt lat="45.58833" lon="2.9892">
        <ele>721.33</ele>
        <time>2022-03-28T09:15:49Z</time>
      </trkpt>
      <trkpt lat="45.58789" lon="2.99007">
        <ele>715.79</ele>
        <time>2022-03-28T09:15:52Z</time>
      </trkpt>
      <trkpt lat="45.58783" lon="2.99022">
        <ele>713.64</ele>
        <time>2022-03-28T09:15:55Z</time>
      </trkpt>
      <trkpt lat="45.5878" lon="2.9904">
        <ele>712.08</ele>
        <time>2022-03-28T09:15:59Z</time>
      </trkpt>
      <trkpt lat="45.58782" lon="2.99087">
        <ele>711.61</ele>
        <time>2022-03-28T09:16:02Z</time>
      </trkpt>
      <trkpt lat="45.5878" lon="2.99113">
        <ele>710.29</ele>
        <time>2022-03-28T09:16:05Z</time>
      </trkpt>
      <trkpt lat="45.58774" lon="2.99128">
        <ele>711.34</ele>
        <time>2022-03-28T09:16:08Z</time>
      </trkpt>
      <trkpt lat="45.58769" lon="2.99135">
        <ele>714</ele>
        <time>2022-03-28T09:16:12Z</time>
      </trkpt>
      <trkpt lat="45.58769" lon="2.99135">
        <ele>714</ele>
        <time>2022-03-28T09:16:12Z</time>
      </trkpt>
      <trkpt lat="45.5875" lon="2.99159">
        <ele>716.66</ele>
        <time>2022-03-28T09:16:16Z</time>
      </trkpt>
      <trkpt lat="45.58736" lon="2.99186">
        <ele>717.08</ele>
        <time>2022-03-28T09:16:20Z</time>
      </trkpt>
      <trkpt lat="45.58716" lon="2.99235">
        <ele>709.8</ele>
        <time>2022-03-28T09:16:24Z</time>
      </trkpt>
      <trkpt lat="45.58708" lon="2.99247">
        <ele>707.87</ele>
        <time>2022-03-28T09:16:28Z</time>
      </trkpt>
      <trkpt lat="45.58698" lon="2.99254">
        <ele>706.78</ele>
        <time>2022-03-28T09:16:32Z</time>
      </trkpt>
      <trkpt lat="45.58691" lon="2.99256">
        <ele>705.91</ele>
        <time>2022-03-28T09:16:36Z</time>
      </trkpt>
      <trkpt lat="45.58683" lon="2.99257">
        <ele>704.92</ele>
        <time>2022-03-28T09:16:40Z</time>
      </trkpt>
      <trkpt lat="45.58667" lon="2.9925">
        <ele>703.09</ele>
        <time>2022-03-28T09:16:44Z</time>
      </trkpt>
      <trkpt lat="45.58658" lon="2.9924">
        <ele>704.22</ele>
        <time>2022-03-28T09:16:48Z</time>
      </trkpt>
      <trkpt lat="45.58639" lon="2.99201">
        <ele>704.51</ele>
        <time>2022-03-28T09:16:52Z</time>
      </trkpt>
      <trkpt lat="45.58629" lon="2.99188">
        <ele>704.33</ele>
        <time>2022-03-28T09:16:56Z</time>
      </trkpt>
      <trkpt lat="45.58618" lon="2.99181">
        <ele>703.34</ele>
        <time>2022-03-28T09:17:00Z</time>
      </trkpt>
      <trkpt lat="45.58599" lon="2.99178">
        <ele>702.94</ele>
        <time>2022-03-28T09:17:04Z</time>
      </trkpt>
      <trkpt lat="45.58557" lon="2.99186">
        <ele>703.42</ele>
        <time>2022-03-28T09:17:09Z</time>
      </trkpt>
      <trkpt lat="45.58526" lon="2.99193">
        <ele>701.94</ele>
        <time>2022-03-28T09:17:13Z</time>
      </trkpt>
      <trkpt lat="45.58509" lon="2.99199">
        <ele>701.62</ele>
        <time>2022-03-28T09:17:17Z</time>
      </trkpt>
      <trkpt lat="45.58461" lon="2.99225">
        <ele>698.24</ele>
        <time>2022-03-28T09:17:21Z</time>
      </trkpt>
      <trkpt lat="45.58448" lon="2.99227">
        <ele>696.98</ele>
        <time>2022-03-28T09:17:25Z</time>
      </trkpt>
      <trkpt lat="45.58434" lon="2.99222">
        <ele>695.63</ele>
        <time>2022-03-28T09:17:29Z</time>
      </trkpt>
      <trkpt lat="45.58381" lon="2.99197">
        <ele>693.6</ele>
        <time>2022-03-28T09:17:33Z</time>
      </trkpt>
      <trkpt lat="45.58366" lon="2.99194">
        <ele>693.8</ele>
        <time>2022-03-28T09:17:37Z</time>
      </trkpt>
      <trkpt lat="45.58355" lon="2.99195">
        <ele>693.13</ele>
        <time>2022-03-28T09:17:41Z</time>
      </trkpt>
      <trkpt lat="45.58344" lon="2.99198">
        <ele>691.57</ele>
        <time>2022-03-28T09:17:45Z</time>
      </trkpt>
      <trkpt lat="45.58335" lon="2.99204">
        <ele>690.2</ele>
        <time>2022-03-28T09:17:49Z</time>
      </trkpt>
      <trkpt lat="45.58324" lon="2.99212">
        <ele>688.47</ele>
        <time>2022-03-28T09:17:53Z</time>
      </trkpt>
      <trkpt lat="45.58279" lon="2.99262">
        <ele>685.08</ele>
        <time>2022-03-28T09:17:57Z</time>
      </trkpt>
      <trkpt lat="45.58254" lon="2.9929">
        <ele>685.17</ele>
        <time>2022-03-28T09:18:01Z</time>
      </trkpt>
      <trkpt lat="45.58215" lon="2.99323">
        <ele>686.83</ele>
        <time>2022-03-28T09:18:05Z</time>
      </trkpt>
      <trkpt lat="45.58204" lon="2.99327">
        <ele>687.26</ele>
        <time>2022-03-28T09:18:09Z</time>
      </trkpt>
      <trkpt lat="45.58186" lon="2.99327">
        <ele>687.23</ele>
        <time>2022-03-28T09:18:13Z</time>
      </trkpt>
      <trkpt lat="45.58164" lon="2.99322">
        <ele>685.99</ele>
        <time>2022-03-28T09:18:18Z</time>
      </trkpt>
      <trkpt lat="45.58107" lon="2.99295">
        <ele>683.77</ele>
        <time>2022-03-28T09:18:22Z</time>
      </trkpt>
      <trkpt lat="45.581" lon="2.99294">
        <ele>683.96</ele>
        <time>2022-03-28T09:18:26Z</time>
      </trkpt>
      <trkpt lat="45.58086" lon="2.99299">
        <ele>684.65</ele>
        <time>2022-03-28T09:18:30Z</time>
      </trkpt>
      <trkpt lat="45.58077" lon="2.99307">
        <ele>684.82</ele>
        <time>2022-03-28T09:18:34Z</time>
      </trkpt>
      <trkpt lat="45.5803" lon="2.99378">
        <ele>684.28</ele>
        <time>2022-03-28T09:18:38Z</time>
      </trkpt>
      <trkpt lat="45.58015" lon="2.99395">
        <ele>684.56</ele>
        <time>2022-03-28T09:18:42Z</time>
      </trkpt>
      <trkpt lat="45.58005" lon="2.99401">
        <ele>684.01</ele>
        <time>2022-03-28T09:18:46Z</time>
      </trkpt>
      <trkpt lat="45.5797" lon="2.9941">
        <ele>680.52</ele>
        <time>2022-03-28T09:18:50Z</time>
      </trkpt>
      <trkpt lat="45.57959" lon="2.99415">
        <ele>681.65</ele>
        <time>2022-03-28T09:18:54Z</time>
      </trkpt>
      <trkpt lat="45.57949" lon="2.99426">
        <ele>681.58</ele>
        <time>2022-03-28T09:18:58Z</time>
      </trkpt>
      <trkpt lat="45.5794" lon="2.99439">
        <ele>681.4</ele>
        <time>2022-03-28T09:19:02Z</time>
      </trkpt>
      <trkpt lat="45.57929" lon="2.99461">
        <ele>684.06</ele>
        <time>2022-03-28T09:19:06Z</time>
      </trkpt>
      <trkpt lat="45.57922" lon="2.99483">
        <ele>684.24</ele>
        <time>2022-03-28T09:19:10Z</time>
      </trkpt>
      <trkpt lat="45.57919" lon="2.99546">
        <ele>678.52</ele>
        <time>2022-03-28T09:19:14Z</time>
      </trkpt>
      <trkpt lat="45.57923" lon="2.99651">
        <ele>675.82</ele>
        <time>2022-03-28T09:19:18Z</time>
      </trkpt>
      <trkpt lat="45.5792" lon="2.99673">
        <ele>674.73</ele>
        <time>2022-03-28T09:19:22Z</time>
      </trkpt>
      <trkpt lat="45.57893" lon="2.99812">
        <ele>673.18</ele>
        <time>2022-03-28T09:19:27Z</time>
      </trkpt>
      <trkpt lat="45.57875" lon="2.99868">
        <ele>669.87</ele>
        <time>2022-03-28T09:19:31Z</time>
      </trkpt>
      <trkpt lat="45.57868" lon="2.99884">
        <ele>668.1</ele>
        <time>2022-03-28T09:19:35Z</time>
      </trkpt>
      <trkpt lat="45.57852" lon="2.99904">
        <ele>667.08</ele>
        <time>2022-03-28T09:19:39Z</time>
      </trkpt>
      <trkpt lat="45.57815" lon="2.99928">
        <ele>667.36</ele>
        <time>2022-03-28T09:19:43Z</time>
      </trkpt>
      <trkpt lat="45.57796" lon="2.9995">
        <ele>665.26</ele>
        <time>2022-03-28T09:19:47Z</time>
      </trkpt>
      <trkpt lat="45.57782" lon="2.99969">
        <ele>664.14</ele>
        <time>2022-03-28T09:19:51Z</time>
      </trkpt>
      <trkpt lat="45.57749" lon="3.00042">
        <ele>664.39</ele>
        <time>2022-03-28T09:19:55Z</time>
      </trkpt>
      <trkpt lat="45.5773" lon="3.00088">
        <ele>663.02</ele>
        <time>2022-03-28T09:19:59Z</time>
      </trkpt>
      <trkpt lat="45.57723" lon="3.00101">
        <ele>662.69</ele>
        <time>2022-03-28T09:20:03Z</time>
      </trkpt>
      <trkpt lat="45.57703" lon="3.00124">
        <ele>661.89</ele>
        <time>2022-03-28T09:20:07Z</time>
      </trkpt>
      <trkpt lat="45.57638" lon="3.0018">
        <ele>658.84</ele>
        <time>2022-03-28T09:20:11Z</time>
      </trkpt>
      <trkpt lat="45.57631" lon="3.0019">
        <ele>658.78</ele>
        <time>2022-03-28T09:20:15Z</time>
      </trkpt>
      <trkpt lat="45.57624" lon="3.00204">
        <ele>658.77</ele>
        <time>2022-03-28T09:20:19Z</time>
      </trkpt>
      <trkpt lat="45.57588" lon="3.00402">
        <ele>657.24</ele>
        <time>2022-03-28T09:20:23Z</time>
      </trkpt>
      <trkpt lat="45.57569" lon="3.00506">
        <ele>650.42</ele>
        <time>2022-03-28T09:20:27Z</time>
      </trkpt>
      <trkpt lat="45.57563" lon="3.00548">
        <ele>649.97</ele>
        <time>2022-03-28T09:20:31Z</time>
      </trkpt>
      <trkpt lat="45.57547" lon="3.00774">
        <ele>644.42</ele>
        <time>2022-03-28T09:20:36Z</time>
      </trkpt>
      <trkpt lat="45.57542" lon="3.00818">
        <ele>643.79</ele>
        <time>2022-03-28T09:20:40Z</time>
      </trkpt>
      <trkpt lat="45.57537" lon="3.00847">
        <ele>643.32</ele>
        <time>2022-03-28T09:20:44Z</time>
      </trkpt>
      <trkpt lat="45.57518" lon="3.00904">
        <ele>642.66</ele>
        <time>2022-03-28T09:20:48Z</time>
      </trkpt>
      <trkpt lat="45.57466" lon="3.01045">
        <ele>643.4</ele>
        <time>2022-03-28T09:20:52Z</time>
      </trkpt>
      <trkpt lat="45.57452" lon="3.01071">
        <ele>643.12</ele>
        <time>2022-03-28T09:20:56Z</time>
      </trkpt>
      <trkpt lat="45.57439" lon="3.0109">
        <ele>642.55</ele>
        <time>2022-03-28T09:21:00Z</time>
      </trkpt>
      <trkpt lat="45.57353" lon="3.01183">
        <ele>637.7</ele>
        <time>2022-03-28T09:21:04Z</time>
      </trkpt>
      <trkpt lat="45.57329" lon="3.01197">
        <ele>637.17</ele>
        <time>2022-03-28T09:21:08Z</time>
      </trkpt>
      <trkpt lat="45.57319" lon="3.01209">
        <ele>637.53</ele>
        <time>2022-03-28T09:21:12Z</time>
      </trkpt>
      <trkpt lat="45.57313" lon="3.01222">
        <ele>637.74</ele>
        <time>2022-03-28T09:21:16Z</time>
      </trkpt>
      <trkpt lat="45.57313" lon="3.01222">
        <ele>637.74</ele>
        <time>2022-03-28T09:21:16Z</time>
      </trkpt>
      <trkpt lat="45.57305" lon="3.01268">
        <ele>637.4</ele>
        <time>2022-03-28T09:21:22Z</time>
      </trkpt>
      <trkpt lat="45.57293" lon="3.01406">
        <ele>636.35</ele>
        <time>2022-03-28T09:21:27Z</time>
      </trkpt>
      <trkpt lat="45.57291" lon="3.01449">
        <ele>636.65</ele>
        <time>2022-03-28T09:21:33Z</time>
      </trkpt>
      <trkpt lat="45.57291" lon="3.01449">
        <ele>636.65</ele>
        <time>2022-03-28T09:21:33Z</time>
      </trkpt>
      <trkpt lat="45.57291" lon="3.01454">
        <ele>636.96</ele>
        <time>2022-03-28T09:21:33Z</time>
      </trkpt>
      <trkpt lat="45.57285" lon="3.01453">
        <ele>636.52</ele>
        <time>2022-03-28T09:21:37Z</time>
      </trkpt>
      <trkpt lat="45.57273" lon="3.01449">
        <ele>635.67</ele>
        <time>2022-03-28T09:21:41Z</time>
      </trkpt>
      <trkpt lat="45.57235" lon="3.01436">
        <ele>634.32</ele>
        <time>2022-03-28T09:21:45Z</time>
      </trkpt>
      <trkpt lat="45.57202" lon="3.01421">
        <ele>635.67</ele>
        <time>2022-03-28T09:21:49Z</time>
      </trkpt>
      <trkpt lat="45.57194" lon="3.01415">
        <ele>636.17</ele>
        <time>2022-03-28T09:21:53Z</time>
      </trkpt>
      <trkpt lat="45.57145" lon="3.0136">
        <ele>642.4</ele>
        <time>2022-03-28T09:21:57Z</time>
      </trkpt>
      <trkpt lat="45.57094" lon="3.01318">
        <ele>646.68</ele>
        <time>2022-03-28T09:22:01Z</time>
      </trkpt>
      <trkpt lat="45.57061" lon="3.01267">
        <ele>648.97</ele>
        <time>2022-03-28T09:22:04Z</time>
      </trkpt>
      <trkpt lat="45.57043" lon="3.01253">
        <ele>650.09</ele>
        <time>2022-03-28T09:22:08Z</time>
      </trkpt>
      <trkpt lat="45.57027" lon="3.0125">
        <ele>651.08</ele>
        <time>2022-03-28T09:22:12Z</time>
      </trkpt>
      <trkpt lat="45.57012" lon="3.01257">
        <ele>652.66</ele>
        <time>2022-03-28T09:22:16Z</time>
      </trkpt>
      <trkpt lat="45.56986" lon="3.01289">
        <ele>655.91</ele>
        <time>2022-03-28T09:22:20Z</time>
      </trkpt>
      <trkpt lat="45.56964" lon="3.01329">
        <ele>659.62</ele>
        <time>2022-03-28T09:22:24Z</time>
      </trkpt>
      <trkpt lat="45.56943" lon="3.01372">
        <ele>663.42</ele>
        <time>2022-03-28T09:22:28Z</time>
      </trkpt>
      <trkpt lat="45.56921" lon="3.01452">
        <ele>665.11</ele>
        <time>2022-03-28T09:22:32Z</time>
      </trkpt>
      <trkpt lat="45.56906" lon="3.01497">
        <ele>667.34</ele>
        <time>2022-03-28T09:22:36Z</time>
      </trkpt>
      <trkpt lat="45.56877" lon="3.01558">
        <ele>668.93</ele>
        <time>2022-03-28T09:22:40Z</time>
      </trkpt>
      <trkpt lat="45.56851" lon="3.016">
        <ele>671.91</ele>
        <time>2022-03-28T09:22:44Z</time>
      </trkpt>
      <trkpt lat="45.56818" lon="3.01646">
        <ele>672</ele>
        <time>2022-03-28T09:22:48Z</time>
      </trkpt>
      <trkpt lat="45.56794" lon="3.01676">
        <ele>672.62</ele>
        <time>2022-03-28T09:22:52Z</time>
      </trkpt>
      <trkpt lat="45.56755" lon="3.01715">
        <ele>675.4</ele>
        <time>2022-03-28T09:22:56Z</time>
      </trkpt>
      <trkpt lat="45.56548" lon="3.01885">
        <ele>683.99</ele>
        <time>2022-03-28T09:23:00Z</time>
      </trkpt>
      <trkpt lat="45.56441" lon="3.0195">
        <ele>692.36</ele>
        <time>2022-03-28T09:23:04Z</time>
      </trkpt>
      <trkpt lat="45.5641" lon="3.01961">
        <ele>693.52</ele>
        <time>2022-03-28T09:23:08Z</time>
      </trkpt>
      <trkpt lat="45.5641" lon="3.01961">
        <ele>693.52</ele>
        <time>2022-03-28T09:23:08Z</time>
      </trkpt>
      <trkpt lat="45.56347" lon="3.01978">
        <ele>697.2</ele>
        <time>2022-03-28T09:23:11Z</time>
      </trkpt>
      <trkpt lat="45.56275" lon="3.01985">
        <ele>701.57</ele>
        <time>2022-03-28T09:23:15Z</time>
      </trkpt>
      <trkpt lat="45.56232" lon="3.01983">
        <ele>702.38</ele>
        <time>2022-03-28T09:23:19Z</time>
      </trkpt>
      <trkpt lat="45.56128" lon="3.01953">
        <ele>706.53</ele>
        <time>2022-03-28T09:23:22Z</time>
      </trkpt>
      <trkpt lat="45.5605" lon="3.01896">
        <ele>704.84</ele>
        <time>2022-03-28T09:23:26Z</time>
      </trkpt>
      <trkpt lat="45.56033" lon="3.01878">
        <ele>705.61</ele>
        <time>2022-03-28T09:23:30Z</time>
      </trkpt>
      <trkpt lat="45.55953" lon="3.01775">
        <ele>708.34</ele>
        <time>2022-03-28T09:23:34Z</time>
      </trkpt>
      <trkpt lat="45.55931" lon="3.0174">
        <ele>708.91</ele>
        <time>2022-03-28T09:23:37Z</time>
      </trkpt>
      <trkpt lat="45.55918" lon="3.01711">
        <ele>708.13</ele>
        <time>2022-03-28T09:23:41Z</time>
      </trkpt>
      <trkpt lat="45.55904" lon="3.01662">
        <ele>708.4</ele>
        <time>2022-03-28T09:23:45Z</time>
      </trkpt>
      <trkpt lat="45.55889" lon="3.01587">
        <ele>708.63</ele>
        <time>2022-03-28T09:23:49Z</time>
      </trkpt>
      <trkpt lat="45.55879" lon="3.01556">
        <ele>709.7</ele>
        <time>2022-03-28T09:23:52Z</time>
      </trkpt>
      <trkpt lat="45.55849" lon="3.01483">
        <ele>712.62</ele>
        <time>2022-03-28T09:23:56Z</time>
      </trkpt>
      <trkpt lat="45.55843" lon="3.0146">
        <ele>714.39</ele>
        <time>2022-03-28T09:24:00Z</time>
      </trkpt>
      <trkpt lat="45.55823" lon="3.01311">
        <ele>720.52</ele>
        <time>2022-03-28T09:24:04Z</time>
      </trkpt>
      <trkpt lat="45.55806" lon="3.01233">
        <ele>723.34</ele>
        <time>2022-03-28T09:24:07Z</time>
      </trkpt>
      <trkpt lat="45.55773" lon="3.01112">
        <ele>724.19</ele>
        <time>2022-03-28T09:24:11Z</time>
      </trkpt>
      <trkpt lat="45.55744" lon="3.01022">
        <ele>722.61</ele>
        <time>2022-03-28T09:24:15Z</time>
      </trkpt>
      <trkpt lat="45.5573" lon="3.00918">
        <ele>723.25</ele>
        <time>2022-03-28T09:24:18Z</time>
      </trkpt>
      <trkpt lat="45.55728" lon="3.00822">
        <ele>726.55</ele>
        <time>2022-03-28T09:24:22Z</time>
      </trkpt>
      <trkpt lat="45.55725" lon="3.00806">
        <ele>725.88</ele>
        <time>2022-03-28T09:24:26Z</time>
      </trkpt>
      <trkpt lat="45.55715" lon="3.00784">
        <ele>724.35</ele>
        <time>2022-03-28T09:24:30Z</time>
      </trkpt>
      <trkpt lat="45.55701" lon="3.00773">
        <ele>723.76</ele>
        <time>2022-03-28T09:24:33Z</time>
      </trkpt>
      <trkpt lat="45.55683" lon="3.00775">
        <ele>724</ele>
        <time>2022-03-28T09:24:37Z</time>
      </trkpt>
      <trkpt lat="45.55656" lon="3.0081">
        <ele>722.19</ele>
        <time>2022-03-28T09:24:41Z</time>
      </trkpt>
      <trkpt lat="45.5564" lon="3.00818">
        <ele>722.91</ele>
        <time>2022-03-28T09:24:45Z</time>
      </trkpt>
      <trkpt lat="45.55622" lon="3.00819">
        <ele>724.53</ele>
        <time>2022-03-28T09:24:48Z</time>
      </trkpt>
      <trkpt lat="45.55468" lon="3.00754">
        <ele>742.7</ele>
        <time>2022-03-28T09:24:52Z</time>
      </trkpt>
      <trkpt lat="45.5539" lon="3.00699">
        <ele>751.42</ele>
        <time>2022-03-28T09:24:56Z</time>
      </trkpt>
      <trkpt lat="45.55372" lon="3.00671">
        <ele>755.18</ele>
        <time>2022-03-28T09:24:59Z</time>
      </trkpt>
      <trkpt lat="45.55363" lon="3.00642">
        <ele>756.9</ele>
        <time>2022-03-28T09:25:03Z</time>
      </trkpt>
      <trkpt lat="45.55358" lon="3.00618">
        <ele>758.14</ele>
        <time>2022-03-28T09:25:07Z</time>
      </trkpt>
      <trkpt lat="45.55362" lon="3.00545">
        <ele>763.6</ele>
        <time>2022-03-28T09:25:11Z</time>
      </trkpt>
      <trkpt lat="45.55358" lon="3.00529">
        <ele>765.91</ele>
        <time>2022-03-28T09:25:14Z</time>
      </trkpt>
      <trkpt lat="45.55349" lon="3.00522">
        <ele>766.78</ele>
        <time>2022-03-28T09:25:18Z</time>
      </trkpt>
      <trkpt lat="45.5534" lon="3.00527">
        <ele>766.89</ele>
        <time>2022-03-28T09:25:22Z</time>
      </trkpt>
      <trkpt lat="45.5534" lon="3.00527">
        <ele>766.89</ele>
        <time>2022-03-28T09:25:22Z</time>
      </trkpt>
      <trkpt lat="45.55333" lon="3.0053">
        <ele>766.99</ele>
        <time>2022-03-28T09:25:27Z</time>
      </trkpt>
      <trkpt lat="45.5533" lon="3.00553">
        <ele>767.75</ele>
        <time>2022-03-28T09:25:31Z</time>
      </trkpt>
      <trkpt lat="45.55337" lon="3.0068">
        <ele>757.85</ele>
        <time>2022-03-28T09:25:36Z</time>
      </trkpt>
      <trkpt lat="45.5537" lon="3.0083">
        <ele>763.32</ele>
        <time>2022-03-28T09:25:41Z</time>
      </trkpt>
      <trkpt lat="45.55367" lon="3.00915">
        <ele>768.58</ele>
        <time>2022-03-28T09:25:45Z</time>
      </trkpt>
      <trkpt lat="45.55369" lon="3.00976">
        <ele>768.87</ele>
        <time>2022-03-28T09:25:50Z</time>
      </trkpt>
      <trkpt lat="45.55348" lon="3.01087">
        <ele>769.47</ele>
        <time>2022-03-28T09:25:55Z</time>
      </trkpt>
      <trkpt lat="45.55309" lon="3.01201">
        <ele>775.76</ele>
        <time>2022-03-28T09:25:59Z</time>
      </trkpt>
      <trkpt lat="45.55285" lon="3.01336">
        <ele>779.29</ele>
        <time>2022-03-28T09:26:04Z</time>
      </trkpt>
      <trkpt lat="45.55278" lon="3.01459">
        <ele>780.53</ele>
        <time>2022-03-28T09:26:09Z</time>
      </trkpt>
      <trkpt lat="45.55272" lon="3.01492">
        <ele>780.28</ele>
        <time>2022-03-28T09:26:14Z</time>
      </trkpt>
      <trkpt lat="45.55214" lon="3.0159">
        <ele>777.37</ele>
        <time>2022-03-28T09:26:18Z</time>
      </trkpt>
      <trkpt lat="45.55193" lon="3.01602">
        <ele>775.6</ele>
        <time>2022-03-28T09:26:23Z</time>
      </trkpt>
      <trkpt lat="45.55177" lon="3.01597">
        <ele>774.46</ele>
        <time>2022-03-28T09:26:28Z</time>
      </trkpt>
      <trkpt lat="45.55141" lon="3.01569">
        <ele>771.71</ele>
        <time>2022-03-28T09:26:32Z</time>
      </trkpt>
      <trkpt lat="45.55112" lon="3.01534">
        <ele>769.65</ele>
        <time>2022-03-28T09:26:37Z</time>
      </trkpt>
      <trkpt lat="45.55093" lon="3.01522">
        <ele>767.87</ele>
        <time>2022-03-28T09:26:42Z</time>
      </trkpt>
      <trkpt lat="45.55061" lon="3.01518">
        <ele>766.2</ele>
        <time>2022-03-28T09:26:46Z</time>
      </trkpt>
      <trkpt lat="45.55028" lon="3.0153">
        <ele>765.84</ele>
        <time>2022-03-28T09:26:51Z</time>
      </trkpt>
      <trkpt lat="45.55017" lon="3.01553">
        <ele>763.82</ele>
        <time>2022-03-28T09:26:56Z</time>
      </trkpt>
      <trkpt lat="45.55016" lon="3.01578">
        <ele>761.95</ele>
        <time>2022-03-28T09:27:00Z</time>
      </trkpt>
      <trkpt lat="45.55055" lon="3.01672">
        <ele>755.78</ele>
        <time>2022-03-28T09:27:05Z</time>
      </trkpt>
      <trkpt lat="45.55071" lon="3.01721">
        <ele>756.13</ele>
        <time>2022-03-28T09:27:10Z</time>
      </trkpt>
      <trkpt lat="45.55074" lon="3.01752">
        <ele>755.33</ele>
        <time>2022-03-28T09:27:15Z</time>
      </trkpt>
      <trkpt lat="45.55071" lon="3.01801">
        <ele>754.16</ele>
        <time>2022-03-28T09:27:19Z</time>
      </trkpt>
      <trkpt lat="45.55065" lon="3.01827">
        <ele>752.88</ele>
        <time>2022-03-28T09:27:24Z</time>
      </trkpt>
      <trkpt lat="45.55051" lon="3.01863">
        <ele>749.86</ele>
        <time>2022-03-28T09:27:29Z</time>
      </trkpt>
      <trkpt lat="45.55034" lon="3.01935">
        <ele>746.79</ele>
        <time>2022-03-28T09:27:33Z</time>
      </trkpt>
      <trkpt lat="45.54973" lon="3.02077">
        <ele>744.18</ele>
        <time>2022-03-28T09:27:38Z</time>
      </trkpt>
      <trkpt lat="45.54957" lon="3.02085">
        <ele>745.09</ele>
        <time>2022-03-28T09:27:43Z</time>
      </trkpt>
      <trkpt lat="45.54892" lon="3.02083">
        <ele>743.45</ele>
        <time>2022-03-28T09:27:47Z</time>
      </trkpt>
      <trkpt lat="45.54741" lon="3.02052">
        <ele>757.76</ele>
        <time>2022-03-28T09:27:52Z</time>
      </trkpt>
      <trkpt lat="45.54573" lon="3.02046">
        <ele>772.28</ele>
        <time>2022-03-28T09:27:57Z</time>
      </trkpt>
      <trkpt lat="45.54569" lon="3.02045">
        <ele>772.47</ele>
        <time>2022-03-28T09:28:01Z</time>
      </trkpt>
      <trkpt lat="45.54529" lon="3.02056">
        <ele>771</ele>
        <time>2022-03-28T09:28:05Z</time>
      </trkpt>
      <trkpt lat="45.54504" lon="3.02037">
        <ele>769.16</ele>
        <time>2022-03-28T09:28:09Z</time>
      </trkpt>
      <trkpt lat="45.5449" lon="3.01996">
        <ele>767.46</ele>
        <time>2022-03-28T09:28:13Z</time>
      </trkpt>
      <trkpt lat="45.54465" lon="3.02005">
        <ele>760.95</ele>
        <time>2022-03-28T09:28:18Z</time>
      </trkpt>
      <trkpt lat="45.54461" lon="3.02">
        <ele>760.54</ele>
        <time>2022-03-28T09:28:20Z</time>
      </trkpt>
      <trkpt lat="45.54441" lon="3.01994">
        <ele>757.49</ele>
        <time>2022-03-28T09:28:22Z</time>
      </trkpt>
      <trkpt lat="45.54424" lon="3.02053">
        <ele>751.72</ele>
        <time>2022-03-28T09:28:25Z</time>
      </trkpt>
      <trkpt lat="45.54395" lon="3.02127">
        <ele>743.21</ele>
        <time>2022-03-28T09:28:29Z</time>
      </trkpt>
      <trkpt lat="45.5438" lon="3.02189">
        <ele>738.42</ele>
        <time>2022-03-28T09:28:33Z</time>
      </trkpt>
      <trkpt lat="45.54379" lon="3.02217">
        <ele>736.13</ele>
        <time>2022-03-28T09:28:36Z</time>
      </trkpt>
      <trkpt lat="45.54383" lon="3.02247">
        <ele>734.22</ele>
        <time>2022-03-28T09:28:40Z</time>
      </trkpt>
      <trkpt lat="45.54403" lon="3.02313">
        <ele>727.62</ele>
        <time>2022-03-28T09:28:43Z</time>
      </trkpt>
      <trkpt lat="45.54403" lon="3.02341">
        <ele>724.68</ele>
        <time>2022-03-28T09:28:47Z</time>
      </trkpt>
      <trkpt lat="45.54395" lon="3.02393">
        <ele>719.04</ele>
        <time>2022-03-28T09:28:50Z</time>
      </trkpt>
      <trkpt lat="45.54391" lon="3.02406">
        <ele>717.53</ele>
        <time>2022-03-28T09:28:54Z</time>
      </trkpt>
      <trkpt lat="45.54363" lon="3.02435">
        <ele>715.54</ele>
        <time>2022-03-28T09:28:58Z</time>
      </trkpt>
      <trkpt lat="45.54336" lon="3.02454">
        <ele>714.25</ele>
        <time>2022-03-28T09:29:01Z</time>
      </trkpt>
      <trkpt lat="45.54311" lon="3.02464">
        <ele>712.76</ele>
        <time>2022-03-28T09:29:05Z</time>
      </trkpt>
      <trkpt lat="45.5426" lon="3.0248">
        <ele>710.99</ele>
        <time>2022-03-28T09:29:08Z</time>
      </trkpt>
      <trkpt lat="45.54204" lon="3.02515">
        <ele>703.83</ele>
        <time>2022-03-28T09:29:12Z</time>
      </trkpt>
      <trkpt lat="45.5418" lon="3.02528">
        <ele>700.95</ele>
        <time>2022-03-28T09:29:15Z</time>
      </trkpt>
      <trkpt lat="45.54172" lon="3.0253">
        <ele>700.39</ele>
        <time>2022-03-28T09:29:19Z</time>
      </trkpt>
      <trkpt lat="45.5413" lon="3.02555">
        <ele>699.92</ele>
        <time>2022-03-28T09:29:23Z</time>
      </trkpt>
      <trkpt lat="45.5413" lon="3.02555">
        <ele>699.92</ele>
        <time>2022-03-28T09:29:23Z</time>
      </trkpt>
      <trkpt lat="45.54126" lon="3.02557">
        <ele>699.45</ele>
        <time>2022-03-28T09:29:23Z</time>
      </trkpt>
      <trkpt lat="45.54113" lon="3.02494">
        <ele>699.19</ele>
        <time>2022-03-28T09:29:27Z</time>
      </trkpt>
      <trkpt lat="45.54095" lon="3.02357">
        <ele>705.77</ele>
        <time>2022-03-28T09:29:30Z</time>
      </trkpt>
      <trkpt lat="45.54032" lon="3.02213">
        <ele>704.9</ele>
        <time>2022-03-28T09:29:34Z</time>
      </trkpt>
      <trkpt lat="45.53984" lon="3.02081">
        <ele>704.73</ele>
        <time>2022-03-28T09:29:38Z</time>
      </trkpt>
      <trkpt lat="45.53976" lon="3.02054">
        <ele>705.2</ele>
        <time>2022-03-28T09:29:41Z</time>
      </trkpt>
      <trkpt lat="45.53958" lon="3.01953">
        <ele>701.16</ele>
        <time>2022-03-28T09:29:45Z</time>
      </trkpt>
      <trkpt lat="45.53956" lon="3.01904">
        <ele>699.43</ele>
        <time>2022-03-28T09:29:49Z</time>
      </trkpt>
      <trkpt lat="45.53962" lon="3.01857">
        <ele>698.49</ele>
        <time>2022-03-28T09:29:53Z</time>
      </trkpt>
      <trkpt lat="45.53981" lon="3.01777">
        <ele>700.51</ele>
        <time>2022-03-28T09:29:56Z</time>
      </trkpt>
      <trkpt lat="45.53983" lon="3.01755">
        <ele>703.43</ele>
        <time>2022-03-28T09:30:00Z</time>
      </trkpt>
      <trkpt lat="45.53977" lon="3.01729">
        <ele>703.88</ele>
        <time>2022-03-28T09:30:04Z</time>
      </trkpt>
      <trkpt lat="45.53953" lon="3.01676">
        <ele>702.79</ele>
        <time>2022-03-28T09:30:07Z</time>
      </trkpt>
      <trkpt lat="45.53947" lon="3.01652">
        <ele>701.89</ele>
        <time>2022-03-28T09:30:11Z</time>
      </trkpt>
      <trkpt lat="45.5395" lon="3.01523">
        <ele>703.66</ele>
        <time>2022-03-28T09:30:15Z</time>
      </trkpt>
      <trkpt lat="45.53947" lon="3.01473">
        <ele>701.24</ele>
        <time>2022-03-28T09:30:18Z</time>
      </trkpt>
      <trkpt lat="45.53939" lon="3.01393">
        <ele>698.31</ele>
        <time>2022-03-28T09:30:22Z</time>
      </trkpt>
      <trkpt lat="45.53942" lon="3.01365">
        <ele>696.55</ele>
        <time>2022-03-28T09:30:26Z</time>
      </trkpt>
      <trkpt lat="45.53969" lon="3.01287">
        <ele>699.41</ele>
        <time>2022-03-28T09:30:29Z</time>
      </trkpt>
      <trkpt lat="45.53971" lon="3.01259">
        <ele>698.89</ele>
        <time>2022-03-28T09:30:33Z</time>
      </trkpt>
      <trkpt lat="45.53965" lon="3.01229">
        <ele>696.25</ele>
        <time>2022-03-28T09:30:37Z</time>
      </trkpt>
      <trkpt lat="45.53949" lon="3.01191">
        <ele>691.54</ele>
        <time>2022-03-28T09:30:41Z</time>
      </trkpt>
      <trkpt lat="45.53942" lon="3.01166">
        <ele>691.53</ele>
        <time>2022-03-28T09:30:44Z</time>
      </trkpt>
      <trkpt lat="45.53931" lon="3.01111">
        <ele>690.19</ele>
        <time>2022-03-28T09:30:48Z</time>
      </trkpt>
      <trkpt lat="45.53934" lon="3.01065">
        <ele>691.33</ele>
        <time>2022-03-28T09:30:52Z</time>
      </trkpt>
      <trkpt lat="45.53952" lon="3.0101">
        <ele>692.29</ele>
        <time>2022-03-28T09:30:55Z</time>
      </trkpt>
      <trkpt lat="45.53985" lon="3.00953">
        <ele>693.07</ele>
        <time>2022-03-28T09:30:59Z</time>
      </trkpt>
      <trkpt lat="45.54004" lon="3.00897">
        <ele>691.51</ele>
        <time>2022-03-28T09:31:03Z</time>
      </trkpt>
      <trkpt lat="45.54021" lon="3.00842">
        <ele>687.16</ele>
        <time>2022-03-28T09:31:06Z</time>
      </trkpt>
      <trkpt lat="45.54145" lon="3.00711">
        <ele>691.27</ele>
        <time>2022-03-28T09:31:10Z</time>
      </trkpt>
      <trkpt lat="45.54166" lon="3.00677">
        <ele>691.02</ele>
        <time>2022-03-28T09:31:14Z</time>
      </trkpt>
      <trkpt lat="45.54179" lon="3.00645">
        <ele>688.92</ele>
        <time>2022-03-28T09:31:17Z</time>
      </trkpt>
      <trkpt lat="45.54184" lon="3.00628">
        <ele>687.99</ele>
        <time>2022-03-28T09:31:21Z</time>
      </trkpt>
      <trkpt lat="45.54201" lon="3.00516">
        <ele>683.49</ele>
        <time>2022-03-28T09:31:25Z</time>
      </trkpt>
      <trkpt lat="45.54213" lon="3.00476">
        <ele>681.67</ele>
        <time>2022-03-28T09:31:28Z</time>
      </trkpt>
      <trkpt lat="45.54239" lon="3.00432">
        <ele>680.23</ele>
        <time>2022-03-28T09:31:32Z</time>
      </trkpt>
      <trkpt lat="45.54275" lon="3.00383">
        <ele>679.61</ele>
        <time>2022-03-28T09:31:36Z</time>
      </trkpt>
      <trkpt lat="45.54336" lon="3.00296">
        <ele>679.78</ele>
        <time>2022-03-28T09:31:40Z</time>
      </trkpt>
      <trkpt lat="45.54358" lon="3.00261">
        <ele>680.85</ele>
        <time>2022-03-28T09:31:43Z</time>
      </trkpt>
      <trkpt lat="45.54388" lon="3.00151">
        <ele>680.11</ele>
        <time>2022-03-28T09:31:47Z</time>
      </trkpt>
      <trkpt lat="45.54398" lon="3.00127">
        <ele>677.46</ele>
        <time>2022-03-28T09:31:51Z</time>
      </trkpt>
      <trkpt lat="45.54448" lon="3.00067">
        <ele>682.07</ele>
        <time>2022-03-28T09:31:54Z</time>
      </trkpt>
      <trkpt lat="45.54476" lon="3.00023">
        <ele>682.27</ele>
        <time>2022-03-28T09:31:58Z</time>
      </trkpt>
      <trkpt lat="45.54514" lon="2.99958">
        <ele>682.17</ele>
        <time>2022-03-28T09:32:02Z</time>
      </trkpt>
      <trkpt lat="45.54534" lon="2.99918">
        <ele>682.09</ele>
        <time>2022-03-28T09:32:05Z</time>
      </trkpt>
      <trkpt lat="45.54571" lon="2.99816">
        <ele>685.84</ele>
        <time>2022-03-28T09:32:09Z</time>
      </trkpt>
      <trkpt lat="45.54584" lon="2.99792">
        <ele>686.08</ele>
        <time>2022-03-28T09:32:13Z</time>
      </trkpt>
      <trkpt lat="45.54617" lon="2.99746">
        <ele>688.54</ele>
        <time>2022-03-28T09:32:16Z</time>
      </trkpt>
      <trkpt lat="45.54626" lon="2.9973">
        <ele>689.73</ele>
        <time>2022-03-28T09:32:20Z</time>
      </trkpt>
      <trkpt lat="45.5464" lon="2.99695">
        <ele>689.53</ele>
        <time>2022-03-28T09:32:24Z</time>
      </trkpt>
      <trkpt lat="45.54691" lon="2.99446">
        <ele>701.35</ele>
        <time>2022-03-28T09:32:28Z</time>
      </trkpt>
      <trkpt lat="45.54694" lon="2.99399">
        <ele>695.77</ele>
        <time>2022-03-28T09:32:31Z</time>
      </trkpt>
      <trkpt lat="45.54693" lon="2.99377">
        <ele>693.74</ele>
        <time>2022-03-28T09:32:35Z</time>
      </trkpt>
      <trkpt lat="45.54681" lon="2.99225">
        <ele>690.95</ele>
        <time>2022-03-28T09:32:39Z</time>
      </trkpt>
      <trkpt lat="45.5468" lon="2.99177">
        <ele>693.56</ele>
        <time>2022-03-28T09:32:42Z</time>
      </trkpt>
      <trkpt lat="45.54684" lon="2.99026">
        <ele>701.91</ele>
        <time>2022-03-28T09:32:46Z</time>
      </trkpt>
      <trkpt lat="45.54683" lon="2.98998">
        <ele>702.52</ele>
        <time>2022-03-28T09:32:50Z</time>
      </trkpt>
      <trkpt lat="45.54681" lon="2.9897">
        <ele>704.07</ele>
        <time>2022-03-28T09:32:53Z</time>
      </trkpt>
      <trkpt lat="45.54676" lon="2.98938">
        <ele>707.73</ele>
        <time>2022-03-28T09:32:57Z</time>
      </trkpt>
      <trkpt lat="45.54671" lon="2.9892">
        <ele>708.57</ele>
        <time>2022-03-28T09:33:01Z</time>
      </trkpt>
      <trkpt lat="45.54671" lon="2.9892">
        <ele>708.57</ele>
        <time>2022-03-28T09:33:01Z</time>
      </trkpt>
      <trkpt lat="45.54662" lon="2.98895">
        <ele>709.61</ele>
        <time>2022-03-28T09:33:03Z</time>
      </trkpt>
      <trkpt lat="45.54651" lon="2.98874">
        <ele>711.19</ele>
        <time>2022-03-28T09:33:06Z</time>
      </trkpt>
      <trkpt lat="45.54625" lon="2.98842">
        <ele>712.58</ele>
        <time>2022-03-28T09:33:09Z</time>
      </trkpt>
      <trkpt lat="45.54599" lon="2.98824">
        <ele>712.45</ele>
        <time>2022-03-28T09:33:11Z</time>
      </trkpt>
      <trkpt lat="45.54544" lon="2.98793">
        <ele>715.09</ele>
        <time>2022-03-28T09:33:14Z</time>
      </trkpt>
      <trkpt lat="45.54532" lon="2.98784">
        <ele>714.81</ele>
        <time>2022-03-28T09:33:17Z</time>
      </trkpt>
      <trkpt lat="45.5452" lon="2.98772">
        <ele>714.65</ele>
        <time>2022-03-28T09:33:19Z</time>
      </trkpt>
      <trkpt lat="45.5449" lon="2.98728">
        <ele>717.83</ele>
        <time>2022-03-28T09:33:22Z</time>
      </trkpt>
      <trkpt lat="45.54468" lon="2.98693">
        <ele>716.37</ele>
        <time>2022-03-28T09:33:25Z</time>
      </trkpt>
      <trkpt lat="45.54458" lon="2.98674">
        <ele>716.94</ele>
        <time>2022-03-28T09:33:27Z</time>
      </trkpt>
      <trkpt lat="45.54452" lon="2.98655">
        <ele>718.28</ele>
        <time>2022-03-28T09:33:30Z</time>
      </trkpt>
      <trkpt lat="45.54446" lon="2.98608">
        <ele>720.8</ele>
        <time>2022-03-28T09:33:33Z</time>
      </trkpt>
      <trkpt lat="45.54443" lon="2.9859">
        <ele>721.4</ele>
        <time>2022-03-28T09:33:35Z</time>
      </trkpt>
      <trkpt lat="45.54437" lon="2.98573">
        <ele>721.98</ele>
        <time>2022-03-28T09:33:38Z</time>
      </trkpt>
      <trkpt lat="45.54425" lon="2.98559">
        <ele>722.34</ele>
        <time>2022-03-28T09:33:41Z</time>
      </trkpt>
      <trkpt lat="45.54394" lon="2.98529">
        <ele>724.62</ele>
        <time>2022-03-28T09:33:43Z</time>
      </trkpt>
      <trkpt lat="45.54383" lon="2.98515">
        <ele>726.43</ele>
        <time>2022-03-28T09:33:46Z</time>
      </trkpt>
      <trkpt lat="45.54346" lon="2.98452">
        <ele>730.65</ele>
        <time>2022-03-28T09:33:49Z</time>
      </trkpt>
      <trkpt lat="45.54336" lon="2.98439">
        <ele>732.06</ele>
        <time>2022-03-28T09:33:51Z</time>
      </trkpt>
      <trkpt lat="45.54324" lon="2.98428">
        <ele>735.34</ele>
        <time>2022-03-28T09:33:54Z</time>
      </trkpt>
      <trkpt lat="45.542" lon="2.98336">
        <ele>739.33</ele>
        <time>2022-03-28T09:33:56Z</time>
      </trkpt>
      <trkpt lat="45.54185" lon="2.98322">
        <ele>737.05</ele>
        <time>2022-03-28T09:33:59Z</time>
      </trkpt>
      <trkpt lat="45.54173" lon="2.98307">
        <ele>735.47</ele>
        <time>2022-03-28T09:34:02Z</time>
      </trkpt>
      <trkpt lat="45.54162" lon="2.98289">
        <ele>735.14</ele>
        <time>2022-03-28T09:34:04Z</time>
      </trkpt>
      <trkpt lat="45.54108" lon="2.98181">
        <ele>744</ele>
        <time>2022-03-28T09:34:07Z</time>
      </trkpt>
      <trkpt lat="45.54096" lon="2.98162">
        <ele>745.6</ele>
        <time>2022-03-28T09:34:10Z</time>
      </trkpt>
      <trkpt lat="45.54083" lon="2.98146">
        <ele>745.44</ele>
        <time>2022-03-28T09:34:12Z</time>
      </trkpt>
      <trkpt lat="45.54055" lon="2.98126">
        <ele>742.77</ele>
        <time>2022-03-28T09:34:15Z</time>
      </trkpt>
      <trkpt lat="45.54038" lon="2.98118">
        <ele>743.51</ele>
        <time>2022-03-28T09:34:18Z</time>
      </trkpt>
      <trkpt lat="45.53976" lon="2.98101">
        <ele>744.78</ele>
        <time>2022-03-28T09:34:20Z</time>
      </trkpt>
      <trkpt lat="45.53941" lon="2.98088">
        <ele>747.89</ele>
        <time>2022-03-28T09:34:23Z</time>
      </trkpt>
      <trkpt lat="45.53922" lon="2.98072">
        <ele>750.03</ele>
        <time>2022-03-28T09:34:26Z</time>
      </trkpt>
      <trkpt lat="45.53893" lon="2.98034">
        <ele>750.9</ele>
        <time>2022-03-28T09:34:28Z</time>
      </trkpt>
      <trkpt lat="45.53877" lon="2.98017">
        <ele>751.03</ele>
        <time>2022-03-28T09:34:31Z</time>
      </trkpt>
      <trkpt lat="45.53828" lon="2.97989">
        <ele>749.59</ele>
        <time>2022-03-28T09:34:34Z</time>
      </trkpt>
      <trkpt lat="45.53815" lon="2.97979">
        <ele>749.8</ele>
        <time>2022-03-28T09:34:36Z</time>
      </trkpt>
      <trkpt lat="45.53799" lon="2.97961">
        <ele>750.86</ele>
        <time>2022-03-28T09:34:39Z</time>
      </trkpt>
      <trkpt lat="45.53791" lon="2.97948">
        <ele>750.66</ele>
        <time>2022-03-28T09:34:42Z</time>
      </trkpt>
      <trkpt lat="45.53753" lon="2.97852">
        <ele>755.87</ele>
        <time>2022-03-28T09:34:44Z</time>
      </trkpt>
      <trkpt lat="45.53739" lon="2.97832">
        <ele>756.43</ele>
        <time>2022-03-28T09:34:47Z</time>
      </trkpt>
      <trkpt lat="45.53723" lon="2.97817">
        <ele>757.39</ele>
        <time>2022-03-28T09:34:50Z</time>
      </trkpt>
      <trkpt lat="45.53649" lon="2.97777">
        <ele>756.88</ele>
        <time>2022-03-28T09:34:52Z</time>
      </trkpt>
      <trkpt lat="45.53632" lon="2.97766">
        <ele>758.12</ele>
        <time>2022-03-28T09:34:55Z</time>
      </trkpt>
      <trkpt lat="45.53613" lon="2.97743">
        <ele>760.04</ele>
        <time>2022-03-28T09:34:57Z</time>
      </trkpt>
      <trkpt lat="45.536" lon="2.97721">
        <ele>762.34</ele>
        <time>2022-03-28T09:35:00Z</time>
      </trkpt>
      <trkpt lat="45.53533" lon="2.97556">
        <ele>771.38</ele>
        <time>2022-03-28T09:35:03Z</time>
      </trkpt>
      <trkpt lat="45.53477" lon="2.97445">
        <ele>778.2</ele>
        <time>2022-03-28T09:35:05Z</time>
      </trkpt>
      <trkpt lat="45.53462" lon="2.97418">
        <ele>776.69</ele>
        <time>2022-03-28T09:35:08Z</time>
      </trkpt>
      <trkpt lat="45.53452" lon="2.97402">
        <ele>775.7</ele>
        <time>2022-03-28T09:35:11Z</time>
      </trkpt>
      <trkpt lat="45.5344" lon="2.97389">
        <ele>774.11</ele>
        <time>2022-03-28T09:35:13Z</time>
      </trkpt>
      <trkpt lat="45.53425" lon="2.97377">
        <ele>773.52</ele>
        <time>2022-03-28T09:35:16Z</time>
      </trkpt>
      <trkpt lat="45.53409" lon="2.97368">
        <ele>771.93</ele>
        <time>2022-03-28T09:35:19Z</time>
      </trkpt>
      <trkpt lat="45.53394" lon="2.97364">
        <ele>770.32</ele>
        <time>2022-03-28T09:35:21Z</time>
      </trkpt>
      <trkpt lat="45.53366" lon="2.97363">
        <ele>772.87</ele>
        <time>2022-03-28T09:35:24Z</time>
      </trkpt>
      <trkpt lat="45.53322" lon="2.97373">
        <ele>783.03</ele>
        <time>2022-03-28T09:35:27Z</time>
      </trkpt>
      <trkpt lat="45.53228" lon="2.97405">
        <ele>797.83</ele>
        <time>2022-03-28T09:35:29Z</time>
      </trkpt>
      <trkpt lat="45.53166" lon="2.97414">
        <ele>791.76</ele>
        <time>2022-03-28T09:35:32Z</time>
      </trkpt>
      <trkpt lat="45.53105" lon="2.97416">
        <ele>796.98</ele>
        <time>2022-03-28T09:35:35Z</time>
      </trkpt>
      <trkpt lat="45.53077" lon="2.9741">
        <ele>801.68</ele>
        <time>2022-03-28T09:35:37Z</time>
      </trkpt>
      <trkpt lat="45.5302" lon="2.97391">
        <ele>816.52</ele>
        <time>2022-03-28T09:35:40Z</time>
      </trkpt>
      <trkpt lat="45.52975" lon="2.97387">
        <ele>812.92</ele>
        <time>2022-03-28T09:35:43Z</time>
      </trkpt>
      <trkpt lat="45.52948" lon="2.97379">
        <ele>814.9</ele>
        <time>2022-03-28T09:35:45Z</time>
      </trkpt>
      <trkpt lat="45.52923" lon="2.97368">
        <ele>813.02</ele>
        <time>2022-03-28T09:35:48Z</time>
      </trkpt>
      <trkpt lat="45.52878" lon="2.97324">
        <ele>814.61</ele>
        <time>2022-03-28T09:35:50Z</time>
      </trkpt>
      <trkpt lat="45.52806" lon="2.97249">
        <ele>826.81</ele>
        <time>2022-03-28T09:35:53Z</time>
      </trkpt>
      <trkpt lat="45.52769" lon="2.97225">
        <ele>824.89</ele>
        <time>2022-03-28T09:35:56Z</time>
      </trkpt>
      <trkpt lat="45.52596" lon="2.97065">
        <ele>834.91</ele>
        <time>2022-03-28T09:35:58Z</time>
      </trkpt>
      <trkpt lat="45.52528" lon="2.97015">
        <ele>837.33</ele>
        <time>2022-03-28T09:36:01Z</time>
      </trkpt>
      <trkpt lat="45.52475" lon="2.96944">
        <ele>836.34</ele>
        <time>2022-03-28T09:36:04Z</time>
      </trkpt>
      <trkpt lat="45.52441" lon="2.96886">
        <ele>843.34</ele>
        <time>2022-03-28T09:36:06Z</time>
      </trkpt>
      <trkpt lat="45.52435" lon="2.9687">
        <ele>841.52</ele>
        <time>2022-03-28T09:36:09Z</time>
      </trkpt>
      <trkpt lat="45.52435" lon="2.9687">
        <ele>841.52</ele>
        <time>2022-03-28T09:36:09Z</time>
      </trkpt>
      <trkpt lat="45.52421" lon="2.96834">
        <ele>839.69</ele>
        <time>2022-03-28T09:36:12Z</time>
      </trkpt>
      <trkpt lat="45.5242" lon="2.96671">
        <ele>851.12</ele>
        <time>2022-03-28T09:36:15Z</time>
      </trkpt>
      <trkpt lat="45.52411" lon="2.96626">
        <ele>855.09</ele>
        <time>2022-03-28T09:36:18Z</time>
      </trkpt>
      <trkpt lat="45.52395" lon="2.96604">
        <ele>854.71</ele>
        <time>2022-03-28T09:36:21Z</time>
      </trkpt>
      <trkpt lat="45.52365" lon="2.96567">
        <ele>849.07</ele>
        <time>2022-03-28T09:36:23Z</time>
      </trkpt>
      <trkpt lat="45.52357" lon="2.96548">
        <ele>848.04</ele>
        <time>2022-03-28T09:36:26Z</time>
      </trkpt>
      <trkpt lat="45.52354" lon="2.96535">
        <ele>848.34</ele>
        <time>2022-03-28T09:36:29Z</time>
      </trkpt>
      <trkpt lat="45.52338" lon="2.9643">
        <ele>849.45</ele>
        <time>2022-03-28T09:36:32Z</time>
      </trkpt>
      <trkpt lat="45.52341" lon="2.96394">
        <ele>851.36</ele>
        <time>2022-03-28T09:36:35Z</time>
      </trkpt>
      <trkpt lat="45.52368" lon="2.96321">
        <ele>866.72</ele>
        <time>2022-03-28T09:36:38Z</time>
      </trkpt>
      <trkpt lat="45.52373" lon="2.96284">
        <ele>867.84</ele>
        <time>2022-03-28T09:36:41Z</time>
      </trkpt>
      <trkpt lat="45.52372" lon="2.9624">
        <ele>865.98</ele>
        <time>2022-03-28T09:36:43Z</time>
      </trkpt>
      <trkpt lat="45.52366" lon="2.96203">
        <ele>865.93</ele>
        <time>2022-03-28T09:36:46Z</time>
      </trkpt>
      <trkpt lat="45.52348" lon="2.96162">
        <ele>865</ele>
        <time>2022-03-28T09:36:49Z</time>
      </trkpt>
      <trkpt lat="45.52338" lon="2.96115">
        <ele>862.83</ele>
        <time>2022-03-28T09:36:52Z</time>
      </trkpt>
      <trkpt lat="45.52335" lon="2.96078">
        <ele>862.95</ele>
        <time>2022-03-28T09:36:55Z</time>
      </trkpt>
      <trkpt lat="45.5234" lon="2.96005">
        <ele>869.39</ele>
        <time>2022-03-28T09:36:58Z</time>
      </trkpt>
      <trkpt lat="45.52336" lon="2.95946">
        <ele>869.02</ele>
        <time>2022-03-28T09:37:01Z</time>
      </trkpt>
      <trkpt lat="45.52339" lon="2.95896">
        <ele>870.44</ele>
        <time>2022-03-28T09:37:03Z</time>
      </trkpt>
      <trkpt lat="45.5236" lon="2.95762">
        <ele>879.55</ele>
        <time>2022-03-28T09:37:06Z</time>
      </trkpt>
      <trkpt lat="45.52373" lon="2.95716">
        <ele>883.56</ele>
        <time>2022-03-28T09:37:09Z</time>
      </trkpt>
      <trkpt lat="45.52389" lon="2.95673">
        <ele>887.97</ele>
        <time>2022-03-28T09:37:12Z</time>
      </trkpt>
      <trkpt lat="45.52446" lon="2.95566">
        <ele>895.29</ele>
        <time>2022-03-28T09:37:15Z</time>
      </trkpt>
      <trkpt lat="45.52457" lon="2.95526">
        <ele>896.9</ele>
        <time>2022-03-28T09:37:18Z</time>
      </trkpt>
      <trkpt lat="45.52457" lon="2.95481">
        <ele>897.47</ele>
        <time>2022-03-28T09:37:21Z</time>
      </trkpt>
      <trkpt lat="45.5245" lon="2.95411">
        <ele>900.99</ele>
        <time>2022-03-28T09:37:23Z</time>
      </trkpt>
      <trkpt lat="45.52438" lon="2.95378">
        <ele>900.82</ele>
        <time>2022-03-28T09:37:26Z</time>
      </trkpt>
      <trkpt lat="45.52419" lon="2.95341">
        <ele>900.81</ele>
        <time>2022-03-28T09:37:29Z</time>
      </trkpt>
      <trkpt lat="45.52402" lon="2.953">
        <ele>901.85</ele>
        <time>2022-03-28T09:37:32Z</time>
      </trkpt>
      <trkpt lat="45.52394" lon="2.95263">
        <ele>908.42</ele>
        <time>2022-03-28T09:37:35Z</time>
      </trkpt>
      <trkpt lat="45.52384" lon="2.95191">
        <ele>914.14</ele>
        <time>2022-03-28T09:37:38Z</time>
      </trkpt>
      <trkpt lat="45.52383" lon="2.95155">
        <ele>913.68</ele>
        <time>2022-03-28T09:37:41Z</time>
      </trkpt>
      <trkpt lat="45.52392" lon="2.95101">
        <ele>916.65</ele>
        <time>2022-03-28T09:37:43Z</time>
      </trkpt>
      <trkpt lat="45.52406" lon="2.95064">
        <ele>919.64</ele>
        <time>2022-03-28T09:37:46Z</time>
      </trkpt>
      <trkpt lat="45.52412" lon="2.95039">
        <ele>920.86</ele>
        <time>2022-03-28T09:37:49Z</time>
      </trkpt>
      <trkpt lat="45.52413" lon="2.95001">
        <ele>919.53</ele>
        <time>2022-03-28T09:37:52Z</time>
      </trkpt>
      <trkpt lat="45.5241" lon="2.94977">
        <ele>920.66</ele>
        <time>2022-03-28T09:37:55Z</time>
      </trkpt>
      <trkpt lat="45.52405" lon="2.94963">
        <ele>921.9</ele>
        <time>2022-03-28T09:37:58Z</time>
      </trkpt>
      <trkpt lat="45.52391" lon="2.9494">
        <ele>923.61</ele>
        <time>2022-03-28T09:38:01Z</time>
      </trkpt>
      <trkpt lat="45.5236" lon="2.94906">
        <ele>922.91</ele>
        <time>2022-03-28T09:38:03Z</time>
      </trkpt>
      <trkpt lat="45.52345" lon="2.94881">
        <ele>926.53</ele>
        <time>2022-03-28T09:38:06Z</time>
      </trkpt>
      <trkpt lat="45.52291" lon="2.94767">
        <ele>932.47</ele>
        <time>2022-03-28T09:38:09Z</time>
      </trkpt>
      <trkpt lat="45.52278" lon="2.94727">
        <ele>933.06</ele>
        <time>2022-03-28T09:38:12Z</time>
      </trkpt>
      <trkpt lat="45.52269" lon="2.94681">
        <ele>935.24</ele>
        <time>2022-03-28T09:38:15Z</time>
      </trkpt>
      <trkpt lat="45.5226" lon="2.94651">
        <ele>936.85</ele>
        <time>2022-03-28T09:38:18Z</time>
      </trkpt>
      <trkpt lat="45.52238" lon="2.94612">
        <ele>937.76</ele>
        <time>2022-03-28T09:38:21Z</time>
      </trkpt>
      <trkpt lat="45.52095" lon="2.94399">
        <ele>950.25</ele>
        <time>2022-03-28T09:38:23Z</time>
      </trkpt>
      <trkpt lat="45.52077" lon="2.94378">
        <ele>950.24</ele>
        <time>2022-03-28T09:38:26Z</time>
      </trkpt>
      <trkpt lat="45.5206" lon="2.94363">
        <ele>949.1</ele>
        <time>2022-03-28T09:38:29Z</time>
      </trkpt>
      <trkpt lat="45.52044" lon="2.94354">
        <ele>947.16</ele>
        <time>2022-03-28T09:38:32Z</time>
      </trkpt>
      <trkpt lat="45.52009" lon="2.94343">
        <ele>944.69</ele>
        <time>2022-03-28T09:38:35Z</time>
      </trkpt>
      <trkpt lat="45.51978" lon="2.94342">
        <ele>944.02</ele>
        <time>2022-03-28T09:38:38Z</time>
      </trkpt>
      <trkpt lat="45.51951" lon="2.94352">
        <ele>944.75</ele>
        <time>2022-03-28T09:38:41Z</time>
      </trkpt>
      <trkpt lat="45.51899" lon="2.9439">
        <ele>946.89</ele>
        <time>2022-03-28T09:38:44Z</time>
      </trkpt>
      <trkpt lat="45.51879" lon="2.94399">
        <ele>948.87</ele>
        <time>2022-03-28T09:38:46Z</time>
      </trkpt>
      <trkpt lat="45.51843" lon="2.94405">
        <ele>953.54</ele>
        <time>2022-03-28T09:38:49Z</time>
      </trkpt>
      <trkpt lat="45.51816" lon="2.944">
        <ele>959.23</ele>
        <time>2022-03-28T09:38:52Z</time>
      </trkpt>
      <trkpt lat="45.51793" lon="2.94389">
        <ele>961.88</ele>
        <time>2022-03-28T09:38:55Z</time>
      </trkpt>
      <trkpt lat="45.51764" lon="2.94362">
        <ele>961.54</ele>
        <time>2022-03-28T09:38:58Z</time>
      </trkpt>
      <trkpt lat="45.51724" lon="2.94315">
        <ele>963.94</ele>
        <time>2022-03-28T09:39:01Z</time>
      </trkpt>
      <trkpt lat="45.51653" lon="2.94225">
        <ele>971.04</ele>
        <time>2022-03-28T09:39:04Z</time>
      </trkpt>
      <trkpt lat="45.51634" lon="2.94189">
        <ele>973.5</ele>
        <time>2022-03-28T09:39:06Z</time>
      </trkpt>
      <trkpt lat="45.51622" lon="2.94159">
        <ele>974.89</ele>
        <time>2022-03-28T09:39:09Z</time>
      </trkpt>
      <trkpt lat="45.51615" lon="2.94133">
        <ele>975.74</ele>
        <time>2022-03-28T09:39:12Z</time>
      </trkpt>
      <trkpt lat="45.51606" lon="2.94119">
        <ele>975.68</ele>
        <time>2022-03-28T09:39:18Z</time>
      </trkpt>
      <trkpt lat="45.5157" lon="2.94091">
        <ele>978.55</ele>
        <time>2022-03-28T09:39:23Z</time>
      </trkpt>
      <trkpt lat="45.51528" lon="2.94039">
        <ele>987.53</ele>
        <time>2022-03-28T09:39:29Z</time>
      </trkpt>
      <trkpt lat="45.51501" lon="2.94012">
        <ele>992.34</ele>
        <time>2022-03-28T09:39:34Z</time>
      </trkpt>
      <trkpt lat="45.51482" lon="2.93995">
        <ele>992.49</ele>
        <time>2022-03-28T09:39:40Z</time>
      </trkpt>
      <trkpt lat="45.51455" lon="2.93976">
        <ele>992.76</ele>
        <time>2022-03-28T09:39:46Z</time>
      </trkpt>
      <trkpt lat="45.51426" lon="2.93958">
        <ele>994.35</ele>
        <time>2022-03-28T09:39:51Z</time>
      </trkpt>
      <trkpt lat="45.51291" lon="2.93905">
        <ele>1003.58</ele>
        <time>2022-03-28T09:39:57Z</time>
      </trkpt>
      <trkpt lat="45.51279" lon="2.93903">
        <ele>1004.92</ele>
        <time>2022-03-28T09:40:02Z</time>
      </trkpt>
      <trkpt lat="45.51277" lon="2.93893">
        <ele>1005.1</ele>
        <time>2022-03-28T09:40:06Z</time>
      </trkpt>
      <trkpt lat="45.51271" lon="2.93886">
        <ele>1005.72</ele>
        <time>2022-03-28T09:40:10Z</time>
      </trkpt>
      <trkpt lat="45.51263" lon="2.93887">
        <ele>1006.53</ele>
        <time>2022-03-28T09:40:14Z</time>
      </trkpt>
      <trkpt lat="45.51258" lon="2.93895">
        <ele>1007.25</ele>
        <time>2022-03-28T09:40:18Z</time>
      </trkpt>
      <trkpt lat="45.51247" lon="2.93889">
        <ele>1008.11</ele>
        <time>2022-03-28T09:40:22Z</time>
      </trkpt>
      <trkpt lat="45.51119" lon="2.93838">
        <ele>1016.43</ele>
        <time>2022-03-28T09:40:26Z</time>
      </trkpt>
      <trkpt lat="45.51081" lon="2.93813">
        <ele>1021.39</ele>
        <time>2022-03-28T09:40:30Z</time>
      </trkpt>
      <trkpt lat="45.51064" lon="2.93796">
        <ele>1025.55</ele>
        <time>2022-03-28T09:40:34Z</time>
      </trkpt>
      <trkpt lat="45.51033" lon="2.9376">
        <ele>1030.2</ele>
        <time>2022-03-28T09:40:38Z</time>
      </trkpt>
      <trkpt lat="45.51015" lon="2.9373">
        <ele>1030.61</ele>
        <time>2022-03-28T09:40:42Z</time>
      </trkpt>
      <trkpt lat="45.51" lon="2.93699">
        <ele>1030.18</ele>
        <time>2022-03-28T09:40:46Z</time>
      </trkpt>
      <trkpt lat="45.50987" lon="2.93664">
        <ele>1032.31</ele>
        <time>2022-03-28T09:40:50Z</time>
      </trkpt>
      <trkpt lat="45.50987" lon="2.93664">
        <ele>1032.31</ele>
        <time>2022-03-28T09:40:50Z</time>
      </trkpt>
      <trkpt lat="45.50973" lon="2.93617">
        <ele>1033.87</ele>
        <time>2022-03-28T09:40:54Z</time>
      </trkpt>
      <trkpt lat="45.50965" lon="2.93559">
        <ele>1034.32</ele>
        <time>2022-03-28T09:40:58Z</time>
      </trkpt>
      <trkpt lat="45.50963" lon="2.93527">
        <ele>1036.42</ele>
        <time>2022-03-28T09:41:02Z</time>
      </trkpt>
      <trkpt lat="45.50963" lon="2.93497">
        <ele>1038.48</ele>
        <time>2022-03-28T09:41:06Z</time>
      </trkpt>
      <trkpt lat="45.50967" lon="2.93454">
        <ele>1040.11</ele>
        <time>2022-03-28T09:41:10Z</time>
      </trkpt>
      <trkpt lat="45.5097" lon="2.93454">
        <ele>1039.85</ele>
        <time>2022-03-28T09:41:13Z</time>
      </trkpt>
      <trkpt lat="45.50975" lon="2.93449">
        <ele>1039.69</ele>
        <time>2022-03-28T09:41:16Z</time>
      </trkpt>
      <trkpt lat="45.50978" lon="2.93439">
        <ele>1040.04</ele>
        <time>2022-03-28T09:41:19Z</time>
      </trkpt>
      <trkpt lat="45.50975" lon="2.9343">
        <ele>1040.47</ele>
        <time>2022-03-28T09:41:22Z</time>
      </trkpt>
      <trkpt lat="45.50969" lon="2.93426">
        <ele>1040.75</ele>
        <time>2022-03-28T09:41:25Z</time>
      </trkpt>
      <trkpt lat="45.50989" lon="2.93286">
        <ele>1045.1</ele>
        <time>2022-03-28T09:41:28Z</time>
      </trkpt>
      <trkpt lat="45.50994" lon="2.93264">
        <ele>1046.65</ele>
        <time>2022-03-28T09:41:31Z</time>
      </trkpt>
      <trkpt lat="45.5101" lon="2.93229">
        <ele>1049.05</ele>
        <time>2022-03-28T09:41:34Z</time>
      </trkpt>
      <trkpt lat="45.51029" lon="2.9319">
        <ele>1049.89</ele>
        <time>2022-03-28T09:41:37Z</time>
      </trkpt>
      <trkpt lat="45.51035" lon="2.9319">
        <ele>1049.52</ele>
        <time>2022-03-28T09:41:41Z</time>
      </trkpt>
      <trkpt lat="45.5104" lon="2.93185">
        <ele>1049.13</ele>
        <time>2022-03-28T09:41:45Z</time>
      </trkpt>
      <trkpt lat="45.51042" lon="2.93179">
        <ele>1049.01</ele>
        <time>2022-03-28T09:41:49Z</time>
      </trkpt>
      <trkpt lat="45.5104" lon="2.9317">
        <ele>1049.09</ele>
        <time>2022-03-28T09:41:52Z</time>
      </trkpt>
      <trkpt lat="45.51053" lon="2.93135">
        <ele>1050.17</ele>
        <time>2022-03-28T09:41:56Z</time>
      </trkpt>
      <trkpt lat="45.51059" lon="2.93125">
        <ele>1050.51</ele>
        <time>2022-03-28T09:42:00Z</time>
      </trkpt>
      <trkpt lat="45.51084" lon="2.93068">
        <ele>1054.63</ele>
        <time>2022-03-28T09:42:04Z</time>
      </trkpt>
      <trkpt lat="45.51137" lon="2.92945">
        <ele>1061.03</ele>
        <time>2022-03-28T09:42:08Z</time>
      </trkpt>
      <trkpt lat="45.51164" lon="2.92888">
        <ele>1062.3</ele>
        <time>2022-03-28T09:42:12Z</time>
      </trkpt>
      <trkpt lat="45.51169" lon="2.92861">
        <ele>1061.86</ele>
        <time>2022-03-28T09:42:15Z</time>
      </trkpt>
      <trkpt lat="45.51178" lon="2.92736">
        <ele>1070.68</ele>
        <time>2022-03-28T09:42:19Z</time>
      </trkpt>
      <trkpt lat="45.51191" lon="2.92549">
        <ele>1081.99</ele>
        <time>2022-03-28T09:42:23Z</time>
      </trkpt>
      <trkpt lat="45.51198" lon="2.9251">
        <ele>1082.23</ele>
        <time>2022-03-28T09:42:27Z</time>
      </trkpt>
      <trkpt lat="45.51215" lon="2.92439">
        <ele>1078.88</ele>
        <time>2022-03-28T09:42:31Z</time>
      </trkpt>
      <trkpt lat="45.51221" lon="2.92386">
        <ele>1079.55</ele>
        <time>2022-03-28T09:42:34Z</time>
      </trkpt>
      <trkpt lat="45.51222" lon="2.92307">
        <ele>1084.01</ele>
        <time>2022-03-28T09:42:38Z</time>
      </trkpt>
      <trkpt lat="45.51214" lon="2.92211">
        <ele>1086.03</ele>
        <time>2022-03-28T09:42:42Z</time>
      </trkpt>
      <trkpt lat="45.51194" lon="2.92104">
        <ele>1090.11</ele>
        <time>2022-03-28T09:42:46Z</time>
      </trkpt>
      <trkpt lat="45.51167" lon="2.9198">
        <ele>1095.11</ele>
        <time>2022-03-28T09:42:50Z</time>
      </trkpt>
      <trkpt lat="45.51099" lon="2.91737">
        <ele>1106.25</ele>
        <time>2022-03-28T09:42:53Z</time>
      </trkpt>
      <trkpt lat="45.51083" lon="2.91686">
        <ele>1108.32</ele>
        <time>2022-03-28T09:42:57Z</time>
      </trkpt>
      <trkpt lat="45.51052" lon="2.91614">
        <ele>1115.99</ele>
        <time>2022-03-28T09:43:01Z</time>
      </trkpt>
      <trkpt lat="45.51034" lon="2.91561">
        <ele>1119.27</ele>
        <time>2022-03-28T09:43:05Z</time>
      </trkpt>
      <trkpt lat="45.51017" lon="2.91491">
        <ele>1114.94</ele>
        <time>2022-03-28T09:43:09Z</time>
      </trkpt>
      <trkpt lat="45.50981" lon="2.91418">
        <ele>1125.34</ele>
        <time>2022-03-28T09:43:13Z</time>
      </trkpt>
      <trkpt lat="45.50956" lon="2.9135">
        <ele>1132.93</ele>
        <time>2022-03-28T09:43:16Z</time>
      </trkpt>
      <trkpt lat="45.50936" lon="2.91277">
        <ele>1133.36</ele>
        <time>2022-03-28T09:43:20Z</time>
      </trkpt>
      <trkpt lat="45.50917" lon="2.91188">
        <ele>1121.43</ele>
        <time>2022-03-28T09:43:24Z</time>
      </trkpt>
      <trkpt lat="45.50877" lon="2.91059">
        <ele>1129.07</ele>
        <time>2022-03-28T09:43:28Z</time>
      </trkpt>
      <trkpt lat="45.50871" lon="2.9102">
        <ele>1128.03</ele>
        <time>2022-03-28T09:43:32Z</time>
      </trkpt>
      <trkpt lat="45.5086" lon="2.90982">
        <ele>1128.56</ele>
        <time>2022-03-28T09:43:35Z</time>
      </trkpt>
      <trkpt lat="45.50853" lon="2.90819">
        <ele>1128.9</ele>
        <time>2022-03-28T09:43:39Z</time>
      </trkpt>
      <trkpt lat="45.50834" lon="2.90685">
        <ele>1135.94</ele>
        <time>2022-03-28T09:43:43Z</time>
      </trkpt>
      <trkpt lat="45.5083" lon="2.90553">
        <ele>1138.76</ele>
        <time>2022-03-28T09:43:47Z</time>
      </trkpt>
      <trkpt lat="45.50832" lon="2.90476">
        <ele>1121.62</ele>
        <time>2022-03-28T09:43:51Z</time>
      </trkpt>
      <trkpt lat="45.50819" lon="2.90402">
        <ele>1124.07</ele>
        <time>2022-03-28T09:43:54Z</time>
      </trkpt>
      <trkpt lat="45.50808" lon="2.90367">
        <ele>1128.09</ele>
        <time>2022-03-28T09:43:58Z</time>
      </trkpt>
      <trkpt lat="45.50785" lon="2.90317">
        <ele>1132.21</ele>
        <time>2022-03-28T09:44:02Z</time>
      </trkpt>
      <trkpt lat="45.5068" lon="2.9019">
        <ele>1142.69</ele>
        <time>2022-03-28T09:44:06Z</time>
      </trkpt>
      <trkpt lat="45.50659" lon="2.9014">
        <ele>1142.27</ele>
        <time>2022-03-28T09:44:10Z</time>
      </trkpt>
      <trkpt lat="45.50649" lon="2.90117">
        <ele>1142.04</ele>
        <time>2022-03-28T09:44:14Z</time>
      </trkpt>
      <trkpt lat="45.50633" lon="2.90098">
        <ele>1142.46</ele>
        <time>2022-03-28T09:44:17Z</time>
      </trkpt>
      <trkpt lat="45.50598" lon="2.90065">
        <ele>1145.75</ele>
        <time>2022-03-28T09:44:21Z</time>
      </trkpt>
      <trkpt lat="45.50589" lon="2.90053">
        <ele>1146.63</ele>
        <time>2022-03-28T09:44:25Z</time>
      </trkpt>
      <trkpt lat="45.50484" lon="2.8987">
        <ele>1147.73</ele>
        <time>2022-03-28T09:44:29Z</time>
      </trkpt>
      <trkpt lat="45.50468" lon="2.89838">
        <ele>1148.51</ele>
        <time>2022-03-28T09:44:33Z</time>
      </trkpt>
      <trkpt lat="45.5046" lon="2.89814">
        <ele>1149.87</ele>
        <time>2022-03-28T09:44:36Z</time>
      </trkpt>
      <trkpt lat="45.50456" lon="2.89779">
        <ele>1151.69</ele>
        <time>2022-03-28T09:44:40Z</time>
      </trkpt>
      <trkpt lat="45.50451" lon="2.89676">
        <ele>1155.73</ele>
        <time>2022-03-28T09:44:44Z</time>
      </trkpt>
      <trkpt lat="45.50434" lon="2.89553">
        <ele>1161.98</ele>
        <time>2022-03-28T09:44:48Z</time>
      </trkpt>
      <trkpt lat="45.50426" lon="2.89513">
        <ele>1162.15</ele>
        <time>2022-03-28T09:44:52Z</time>
      </trkpt>
      <trkpt lat="45.50416" lon="2.89471">
        <ele>1163.16</ele>
        <time>2022-03-28T09:44:55Z</time>
      </trkpt>
      <trkpt lat="45.50365" lon="2.89313">
        <ele>1165.01</ele>
        <time>2022-03-28T09:44:59Z</time>
      </trkpt>
      <trkpt lat="45.50339" lon="2.89245">
        <ele>1161.83</ele>
        <time>2022-03-28T09:45:03Z</time>
      </trkpt>
      <trkpt lat="45.50323" lon="2.89187">
        <ele>1160.19</ele>
        <time>2022-03-28T09:45:07Z</time>
      </trkpt>
      <trkpt lat="45.50322" lon="2.89161">
        <ele>1157.82</ele>
        <time>2022-03-28T09:45:11Z</time>
      </trkpt>
      <trkpt lat="45.50325" lon="2.89152">
        <ele>1156.91</ele>
        <time>2022-03-28T09:45:12Z</time>
      </trkpt>
      <trkpt lat="45.50323" lon="2.89138">
        <ele>1156.01</ele>
        <time>2022-03-28T09:45:13Z</time>
      </trkpt>
      <trkpt lat="45.50321" lon="2.89131">
        <ele>1155.94</ele>
        <time>2022-03-28T09:45:14Z</time>
      </trkpt>
      <trkpt lat="45.50312" lon="2.89123">
        <ele>1156.54</ele>
        <time>2022-03-28T09:45:16Z</time>
      </trkpt>
      <trkpt lat="45.503" lon="2.89123">
        <ele>1158.29</ele>
        <time>2022-03-28T09:45:17Z</time>
      </trkpt>
      <trkpt lat="45.50291" lon="2.89132">
        <ele>1159.81</ele>
        <time>2022-03-28T09:45:18Z</time>
      </trkpt>
      <trkpt lat="45.50287" lon="2.89147">
        <ele>1161.23</ele>
        <time>2022-03-28T09:45:19Z</time>
      </trkpt>
      <trkpt lat="45.50279" lon="2.89158">
        <ele>1163.29</ele>
        <time>2022-03-28T09:45:20Z</time>
      </trkpt>
      <trkpt lat="45.50273" lon="2.89161">
        <ele>1164.46</ele>
        <time>2022-03-28T09:45:22Z</time>
      </trkpt>
      <trkpt lat="45.50254" lon="2.89159">
        <ele>1168.11</ele>
        <time>2022-03-28T09:45:23Z</time>
      </trkpt>
      <trkpt lat="45.50225" lon="2.89139">
        <ele>1172.32</ele>
        <time>2022-03-28T09:45:24Z</time>
      </trkpt>
      <trkpt lat="45.50214" lon="2.8912">
        <ele>1173.3</ele>
        <time>2022-03-28T09:45:25Z</time>
      </trkpt>
      <trkpt lat="45.502" lon="2.89096">
        <ele>1174.84</ele>
        <time>2022-03-28T09:45:30Z</time>
      </trkpt>
      <trkpt lat="45.50163" lon="2.89019">
        <ele>1176.22</ele>
        <time>2022-03-28T09:45:36Z</time>
      </trkpt>
      <trkpt lat="45.50096" lon="2.8886">
        <ele>1186.65</ele>
        <time>2022-03-28T09:45:41Z</time>
      </trkpt>
      <trkpt lat="45.50077" lon="2.88807">
        <ele>1188.92</ele>
        <time>2022-03-28T09:45:46Z</time>
      </trkpt>
      <trkpt lat="45.50049" lon="2.88713">
        <ele>1192.44</ele>
        <time>2022-03-28T09:45:51Z</time>
      </trkpt>
      <trkpt lat="45.5004" lon="2.88691">
        <ele>1189.07</ele>
        <time>2022-03-28T09:45:56Z</time>
      </trkpt>
      <trkpt lat="45.5003" lon="2.88677">
        <ele>1188.58</ele>
        <time>2022-03-28T09:46:01Z</time>
      </trkpt>
      <trkpt lat="45.49979" lon="2.88655">
        <ele>1201.93</ele>
        <time>2022-03-28T09:46:06Z</time>
      </trkpt>
      <trkpt lat="45.49964" lon="2.88643">
        <ele>1203.98</ele>
        <time>2022-03-28T09:46:12Z</time>
      </trkpt>
      <trkpt lat="45.49958" lon="2.88628">
        <ele>1206.44</ele>
        <time>2022-03-28T09:46:17Z</time>
      </trkpt>
      <trkpt lat="45.49958" lon="2.88628">
        <ele>1206.44</ele>
        <time>2022-03-28T09:46:17Z</time>
      </trkpt>
      <trkpt lat="45.49955" lon="2.88605">
        <ele>1207.78</ele>
        <time>2022-03-28T09:46:20Z</time>
      </trkpt>
      <trkpt lat="45.49971" lon="2.88577">
        <ele>1204.14</ele>
        <time>2022-03-28T09:46:24Z</time>
      </trkpt>
      <trkpt lat="45.49993" lon="2.88557">
        <ele>1197.78</ele>
        <time>2022-03-28T09:46:28Z</time>
      </trkpt>
      <trkpt lat="45.49999" lon="2.88548">
        <ele>1195.32</ele>
        <time>2022-03-28T09:46:31Z</time>
      </trkpt>
      <trkpt lat="45.50002" lon="2.88536">
        <ele>1193.34</ele>
        <time>2022-03-28T09:46:35Z</time>
      </trkpt>
      <trkpt lat="45.50001" lon="2.88516">
        <ele>1190.97</ele>
        <time>2022-03-28T09:46:39Z</time>
      </trkpt>
      <trkpt lat="45.49989" lon="2.88422">
        <ele>1182.43</ele>
        <time>2022-03-28T09:46:42Z</time>
      </trkpt>
      <trkpt lat="45.4997" lon="2.88355">
        <ele>1183.33</ele>
        <time>2022-03-28T09:46:46Z</time>
      </trkpt>
      <trkpt lat="45.49972" lon="2.88334">
        <ele>1182.23</ele>
        <time>2022-03-28T09:46:50Z</time>
      </trkpt>
      <trkpt lat="45.49985" lon="2.88325">
        <ele>1178.73</ele>
        <time>2022-03-28T09:46:53Z</time>
      </trkpt>
      <trkpt lat="45.49993" lon="2.88329">
        <ele>1176.82</ele>
        <time>2022-03-28T09:46:57Z</time>
      </trkpt>
      <trkpt lat="45.50077" lon="2.88475">
        <ele>1169.54</ele>
        <time>2022-03-28T09:47:00Z</time>
      </trkpt>
      <trkpt lat="45.50095" lon="2.88492">
        <ele>1168.61</ele>
        <time>2022-03-28T09:47:04Z</time>
      </trkpt>
      <trkpt lat="45.5009" lon="2.88475">
        <ele>1168.61</ele>
        <time>2022-03-28T09:47:05Z</time>
      </trkpt>
      <trkpt lat="45.50113" lon="2.88486">
        <ele>1166.78</ele>
        <time>2022-03-28T09:47:07Z</time>
      </trkpt>
      <trkpt lat="45.50146" lon="2.88499">
        <ele>1163.53</ele>
        <time>2022-03-28T09:47:09Z</time>
      </trkpt>
      <trkpt lat="45.50269" lon="2.88455">
        <ele>1159.37</ele>
        <time>2022-03-28T09:47:11Z</time>
      </trkpt>
      <trkpt lat="45.50284" lon="2.88459">
        <ele>1159.67</ele>
        <time>2022-03-28T09:47:13Z</time>
      </trkpt>
      <trkpt lat="45.5031" lon="2.88475">
        <ele>1160.84</ele>
        <time>2022-03-28T09:47:16Z</time>
      </trkpt>
      <trkpt lat="45.50323" lon="2.8849">
        <ele>1160.36</ele>
        <time>2022-03-28T09:47:18Z</time>
      </trkpt>
      <trkpt lat="45.50331" lon="2.88505">
        <ele>1160.07</ele>
        <time>2022-03-28T09:47:20Z</time>
      </trkpt>
      <trkpt lat="45.50347" lon="2.88529">
        <ele>1159.97</ele>
        <time>2022-03-28T09:47:22Z</time>
      </trkpt>
      <trkpt lat="45.50352" lon="2.88531">
        <ele>1159.92</ele>
        <time>2022-03-28T09:47:24Z</time>
      </trkpt>
      <trkpt lat="45.50361" lon="2.88421">
        <ele>1161.84</ele>
        <time>2022-03-28T09:47:27Z</time>
      </trkpt>
      <trkpt lat="45.50362" lon="2.88376">
        <ele>1165.02</ele>
        <time>2022-03-28T09:47:30Z</time>
      </trkpt>
      <trkpt lat="45.50358" lon="2.8833">
        <ele>1168.84</ele>
        <time>2022-03-28T09:47:34Z</time>
      </trkpt>
      <trkpt lat="45.50314" lon="2.87973">
        <ele>1202.88</ele>
        <time>2022-03-28T09:47:37Z</time>
      </trkpt>
      <trkpt lat="45.50274" lon="2.87717">
        <ele>1224.96</ele>
        <time>2022-03-28T09:47:40Z</time>
      </trkpt>
      <trkpt lat="45.50269" lon="2.87697">
        <ele>1227.98</ele>
        <time>2022-03-28T09:47:43Z</time>
      </trkpt>
      <trkpt lat="45.50259" lon="2.87677">
        <ele>1229.58</ele>
        <time>2022-03-28T09:47:47Z</time>
      </trkpt>
      <trkpt lat="45.50234" lon="2.87646">
        <ele>1228.2</ele>
        <time>2022-03-28T09:47:50Z</time>
      </trkpt>
      <trkpt lat="45.50227" lon="2.87628">
        <ele>1229.08</ele>
        <time>2022-03-28T09:47:53Z</time>
      </trkpt>
      <trkpt lat="45.50224" lon="2.87607">
        <ele>1230.99</ele>
        <time>2022-03-28T09:47:56Z</time>
      </trkpt>
      <trkpt lat="45.50224" lon="2.87499">
        <ele>1244.55</ele>
        <time>2022-03-28T09:48:00Z</time>
      </trkpt>
      <trkpt lat="45.50231" lon="2.87365">
        <ele>1257.69</ele>
        <time>2022-03-28T09:48:03Z</time>
      </trkpt>
      <trkpt lat="45.50228" lon="2.87348">
        <ele>1259.33</ele>
        <time>2022-03-28T09:48:06Z</time>
      </trkpt>
      <trkpt lat="45.50224" lon="2.87332">
        <ele>1260.65</ele>
        <time>2022-03-28T09:48:09Z</time>
      </trkpt>
      <trkpt lat="45.50203" lon="2.87297">
        <ele>1258.14</ele>
        <time>2022-03-28T09:48:13Z</time>
      </trkpt>
      <trkpt lat="45.50196" lon="2.87282">
        <ele>1256.45</ele>
        <time>2022-03-28T09:48:16Z</time>
      </trkpt>
      <trkpt lat="45.50192" lon="2.87266">
        <ele>1255.25</ele>
        <time>2022-03-28T09:48:19Z</time>
      </trkpt>
      <trkpt lat="45.50183" lon="2.87187">
        <ele>1263.81</ele>
        <time>2022-03-28T09:48:23Z</time>
      </trkpt>
      <trkpt lat="45.50169" lon="2.8715">
        <ele>1261.5</ele>
        <time>2022-03-28T09:48:26Z</time>
      </trkpt>
      <trkpt lat="45.50149" lon="2.87111">
        <ele>1259.19</ele>
        <time>2022-03-28T09:48:29Z</time>
      </trkpt>
      <trkpt lat="45.501" lon="2.8702">
        <ele>1257.67</ele>
        <time>2022-03-28T09:48:32Z</time>
      </trkpt>
      <trkpt lat="45.50087" lon="2.86991">
        <ele>1257.23</ele>
        <time>2022-03-28T09:48:36Z</time>
      </trkpt>
      <trkpt lat="45.50077" lon="2.86963">
        <ele>1257.31</ele>
        <time>2022-03-28T09:48:39Z</time>
      </trkpt>
      <trkpt lat="45.50072" lon="2.86933">
        <ele>1257.96</ele>
        <time>2022-03-28T09:48:42Z</time>
      </trkpt>
      <trkpt lat="45.5007" lon="2.86901">
        <ele>1259.02</ele>
        <time>2022-03-28T09:48:45Z</time>
      </trkpt>
      <trkpt lat="45.50075" lon="2.86862">
        <ele>1261.89</ele>
        <time>2022-03-28T09:48:49Z</time>
      </trkpt>
      <trkpt lat="45.50091" lon="2.86808">
        <ele>1268.13</ele>
        <time>2022-03-28T09:48:52Z</time>
      </trkpt>
      <trkpt lat="45.50111" lon="2.86758">
        <ele>1273.09</ele>
        <time>2022-03-28T09:48:55Z</time>
      </trkpt>
      <trkpt lat="45.50132" lon="2.86713">
        <ele>1277.18</ele>
        <time>2022-03-28T09:48:58Z</time>
      </trkpt>
      <trkpt lat="45.5017" lon="2.8665">
        <ele>1280.16</ele>
        <time>2022-03-28T09:49:02Z</time>
      </trkpt>
      <trkpt lat="45.50182" lon="2.86639">
        <ele>1281.06</ele>
        <time>2022-03-28T09:49:05Z</time>
      </trkpt>
      <trkpt lat="45.50194" lon="2.8662">
        <ele>1281.94</ele>
        <time>2022-03-28T09:49:08Z</time>
      </trkpt>
      <trkpt lat="45.5026" lon="2.8651">
        <ele>1284.11</ele>
        <time>2022-03-28T09:49:11Z</time>
      </trkpt>
      <trkpt lat="45.50279" lon="2.86477">
        <ele>1285.08</ele>
        <time>2022-03-28T09:49:15Z</time>
      </trkpt>
      <trkpt lat="45.50284" lon="2.86472">
        <ele>1285.62</ele>
        <time>2022-03-28T09:49:19Z</time>
      </trkpt>
      <trkpt lat="45.50285" lon="2.86461">
        <ele>1285.64</ele>
        <time>2022-03-28T09:49:22Z</time>
      </trkpt>
      <trkpt lat="45.50299" lon="2.86447">
        <ele>1286.57</ele>
        <time>2022-03-28T09:49:26Z</time>
      </trkpt>
      <trkpt lat="45.50412" lon="2.86258">
        <ele>1288.59</ele>
        <time>2022-03-28T09:49:30Z</time>
      </trkpt>
      <trkpt lat="45.5043" lon="2.86235">
        <ele>1288.97</ele>
        <time>2022-03-28T09:49:34Z</time>
      </trkpt>
      <trkpt lat="45.50451" lon="2.86217">
        <ele>1291.19</ele>
        <time>2022-03-28T09:49:38Z</time>
      </trkpt>
      <trkpt lat="45.5047" lon="2.86204">
        <ele>1294.66</ele>
        <time>2022-03-28T09:49:42Z</time>
      </trkpt>
      <trkpt lat="45.50497" lon="2.86193">
        <ele>1298.44</ele>
        <time>2022-03-28T09:49:46Z</time>
      </trkpt>
      <trkpt lat="45.50505" lon="2.86218">
        <ele>1299.33</ele>
        <time>2022-03-28T09:49:55Z</time>
      </trkpt>
      <trkpt lat="45.50513" lon="2.86255">
        <ele>1301.07</ele>
        <time>2022-03-28T09:50:03Z</time>
      </trkpt>
      <trkpt lat="45.50532" lon="2.8641">
        <ele>1310.28</ele>
        <time>2022-03-28T09:50:12Z</time>
      </trkpt>
      <trkpt lat="45.50541" lon="2.8645">
        <ele>1313.33</ele>
        <time>2022-03-28T09:50:20Z</time>
      </trkpt>
      <trkpt lat="45.50542" lon="2.86471">
        <ele>1313.12</ele>
        <time>2022-03-28T09:50:28Z</time>
      </trkpt>
      <trkpt lat="45.50551" lon="2.86475">
        <ele>1314.31</ele>
        <time>2022-03-28T09:50:35Z</time>
      </trkpt>
      <trkpt lat="45.50575" lon="2.86477">
        <ele>1317.23</ele>
        <time>2022-03-28T09:50:42Z</time>
      </trkpt>
      <trkpt lat="45.50598" lon="2.86484">
        <ele>1321.06</ele>
        <time>2022-03-28T09:50:49Z</time>
      </trkpt>
      <trkpt lat="45.50633" lon="2.86429">
        <ele>1325.23</ele>
        <time>2022-03-28T09:50:56Z</time>
      </trkpt>
      <trkpt lat="45.5064" lon="2.86411">
        <ele>1324.74</ele>
        <time>2022-03-28T09:51:03Z</time>
      </trkpt>
      <trkpt lat="45.50647" lon="2.86408">
        <ele>1326.34</ele>
        <time>2022-03-28T09:51:10Z</time>
      </trkpt>
      <trkpt lat="45.50665" lon="2.8638">
        <ele>1328.08</ele>
        <time>2022-03-28T09:51:17Z</time>
      </trkpt>
      <trkpt lat="45.50776" lon="2.86172">
        <ele>1326.42</ele>
        <time>2022-03-28T09:51:24Z</time>
      </trkpt>
      <trkpt lat="45.50801" lon="2.8615">
        <ele>1331.41</ele>
        <time>2022-03-28T09:51:32Z</time>
      </trkpt>
      <trkpt lat="45.50801" lon="2.8615">
        <ele>1331.41</ele>
        <time>2022-03-28T09:51:32Z</time>
      </trkpt>
      <trkpt lat="45.50776" lon="2.86172">
        <ele>1326.42</ele>
        <time>2022-03-28T09:51:43Z</time>
      </trkpt>
      <trkpt lat="45.50665" lon="2.8638">
        <ele>1328.08</ele>
        <time>2022-03-28T09:51:54Z</time>
      </trkpt>
      <trkpt lat="45.50647" lon="2.86408">
        <ele>1326.34</ele>
        <time>2022-03-28T09:52:06Z</time>
      </trkpt>
      <trkpt lat="45.5064" lon="2.86411">
        <ele>1324.74</ele>
        <time>2022-03-28T09:52:17Z</time>
      </trkpt>
      <trkpt lat="45.50635" lon="2.86394">
        <ele>1323.04</ele>
        <time>2022-03-28T09:52:21Z</time>
      </trkpt>
      <trkpt lat="45.50627" lon="2.86383">
        <ele>1322.14</ele>
        <time>2022-03-28T09:52:26Z</time>
      </trkpt>
      <trkpt lat="45.50614" lon="2.86383">
        <ele>1321.17</ele>
        <time>2022-03-28T09:52:30Z</time>
      </trkpt>
      <trkpt lat="45.50568" lon="2.86395">
        <ele>1314.95</ele>
        <time>2022-03-28T09:52:35Z</time>
      </trkpt>
      <trkpt lat="45.50541" lon="2.8645">
        <ele>1313.33</ele>
        <time>2022-03-28T09:52:39Z</time>
      </trkpt>
      <trkpt lat="45.50542" lon="2.86471">
        <ele>1313.12</ele>
        <time>2022-03-28T09:52:43Z</time>
      </trkpt>
      <trkpt lat="45.50513" lon="2.86498">
        <ele>1309.9</ele>
        <time>2022-03-28T09:52:48Z</time>
      </trkpt>
      <trkpt lat="45.50484" lon="2.86516">
        <ele>1307.51</ele>
        <time>2022-03-28T09:52:52Z</time>
      </trkpt>
      <trkpt lat="45.50474" lon="2.86524">
        <ele>1306.89</ele>
        <time>2022-03-28T09:52:56Z</time>
      </trkpt>
      <trkpt lat="45.5045" lon="2.86534">
        <ele>1305.14</ele>
        <time>2022-03-28T09:53:01Z</time>
      </trkpt>
      <trkpt lat="45.50409" lon="2.86543">
        <ele>1300.06</ele>
        <time>2022-03-28T09:53:05Z</time>
      </trkpt>
      <trkpt lat="45.50395" lon="2.86549">
        <ele>1298.54</ele>
        <time>2022-03-28T09:53:09Z</time>
      </trkpt>
      <trkpt lat="45.50361" lon="2.86589">
        <ele>1297.14</ele>
        <time>2022-03-28T09:53:14Z</time>
      </trkpt>
      <trkpt lat="45.50356" lon="2.86593">
        <ele>1296.62</ele>
        <time>2022-03-28T09:53:18Z</time>
      </trkpt>
      <trkpt lat="45.50349" lon="2.86592">
        <ele>1295.69</ele>
        <time>2022-03-28T09:53:23Z</time>
      </trkpt>
      <trkpt lat="45.50339" lon="2.86582">
        <ele>1294.56</ele>
        <time>2022-03-28T09:53:27Z</time>
      </trkpt>
      <trkpt lat="45.50327" lon="2.86554">
        <ele>1293.06</ele>
        <time>2022-03-28T09:53:31Z</time>
      </trkpt>
      <trkpt lat="45.50316" lon="2.86507">
        <ele>1290.28</ele>
        <time>2022-03-28T09:53:36Z</time>
      </trkpt>
      <trkpt lat="45.5031" lon="2.86495">
        <ele>1289.34</ele>
        <time>2022-03-28T09:53:40Z</time>
      </trkpt>
      <trkpt lat="45.50284" lon="2.86472">
        <ele>1285.62</ele>
        <time>2022-03-28T09:53:44Z</time>
      </trkpt>
      <trkpt lat="45.50285" lon="2.86461">
        <ele>1285.64</ele>
        <time>2022-03-28T09:53:48Z</time>
      </trkpt>
      <trkpt lat="45.50279" lon="2.86453">
        <ele>1285.09</ele>
        <time>2022-03-28T09:53:51Z</time>
      </trkpt>
      <trkpt lat="45.50276" lon="2.86452">
        <ele>1284.86</ele>
        <time>2022-03-28T09:53:54Z</time>
      </trkpt>
      <trkpt lat="45.50271" lon="2.86454">
        <ele>1284.51</ele>
        <time>2022-03-28T09:53:57Z</time>
      </trkpt>
      <trkpt lat="45.50268" lon="2.8646">
        <ele>1284.27</ele>
        <time>2022-03-28T09:54:00Z</time>
      </trkpt>
      <trkpt lat="45.50268" lon="2.86469">
        <ele>1284.26</ele>
        <time>2022-03-28T09:54:04Z</time>
      </trkpt>
      <trkpt lat="45.50207" lon="2.86584">
        <ele>1281.44</ele>
        <time>2022-03-28T09:54:07Z</time>
      </trkpt>
      <trkpt lat="45.50132" lon="2.86713">
        <ele>1277.18</ele>
        <time>2022-03-28T09:54:10Z</time>
      </trkpt>
      <trkpt lat="45.50111" lon="2.86758">
        <ele>1273.09</ele>
        <time>2022-03-28T09:54:13Z</time>
      </trkpt>
      <trkpt lat="45.50091" lon="2.86808">
        <ele>1268.13</ele>
        <time>2022-03-28T09:54:16Z</time>
      </trkpt>
      <trkpt lat="45.50075" lon="2.86862">
        <ele>1261.89</ele>
        <time>2022-03-28T09:54:20Z</time>
      </trkpt>
      <trkpt lat="45.5007" lon="2.86901">
        <ele>1259.02</ele>
        <time>2022-03-28T09:54:23Z</time>
      </trkpt>
      <trkpt lat="45.50072" lon="2.86933">
        <ele>1257.96</ele>
        <time>2022-03-28T09:54:26Z</time>
      </trkpt>
      <trkpt lat="45.50077" lon="2.86963">
        <ele>1257.31</ele>
        <time>2022-03-28T09:54:29Z</time>
      </trkpt>
      <trkpt lat="45.50087" lon="2.86991">
        <ele>1257.23</ele>
        <time>2022-03-28T09:54:32Z</time>
      </trkpt>
      <trkpt lat="45.501" lon="2.8702">
        <ele>1257.67</ele>
        <time>2022-03-28T09:54:36Z</time>
      </trkpt>
      <trkpt lat="45.50169" lon="2.8715">
        <ele>1261.5</ele>
        <time>2022-03-28T09:54:39Z</time>
      </trkpt>
      <trkpt lat="45.50183" lon="2.87187">
        <ele>1263.81</ele>
        <time>2022-03-28T09:54:42Z</time>
      </trkpt>
      <trkpt lat="45.50192" lon="2.87266">
        <ele>1255.25</ele>
        <time>2022-03-28T09:54:45Z</time>
      </trkpt>
      <trkpt lat="45.50196" lon="2.87282">
        <ele>1256.45</ele>
        <time>2022-03-28T09:54:48Z</time>
      </trkpt>
      <trkpt lat="45.50203" lon="2.87297">
        <ele>1258.14</ele>
        <time>2022-03-28T09:54:52Z</time>
      </trkpt>
      <trkpt lat="45.50224" lon="2.87332">
        <ele>1260.65</ele>
        <time>2022-03-28T09:54:55Z</time>
      </trkpt>
      <trkpt lat="45.50228" lon="2.87348">
        <ele>1259.33</ele>
        <time>2022-03-28T09:54:58Z</time>
      </trkpt>
      <trkpt lat="45.50231" lon="2.87365">
        <ele>1257.69</ele>
        <time>2022-03-28T09:55:01Z</time>
      </trkpt>
      <trkpt lat="45.50224" lon="2.87499">
        <ele>1244.55</ele>
        <time>2022-03-28T09:55:04Z</time>
      </trkpt>
      <trkpt lat="45.50224" lon="2.87607">
        <ele>1230.99</ele>
        <time>2022-03-28T09:55:08Z</time>
      </trkpt>
      <trkpt lat="45.50227" lon="2.87628">
        <ele>1229.08</ele>
        <time>2022-03-28T09:55:11Z</time>
      </trkpt>
      <trkpt lat="45.50234" lon="2.87646">
        <ele>1228.2</ele>
        <time>2022-03-28T09:55:14Z</time>
      </trkpt>
      <trkpt lat="45.50259" lon="2.87677">
        <ele>1229.58</ele>
        <time>2022-03-28T09:55:17Z</time>
      </trkpt>
      <trkpt lat="45.50269" lon="2.87697">
        <ele>1227.98</ele>
        <time>2022-03-28T09:55:20Z</time>
      </trkpt>
      <trkpt lat="45.50274" lon="2.87717">
        <ele>1224.96</ele>
        <time>2022-03-28T09:55:24Z</time>
      </trkpt>
      <trkpt lat="45.50314" lon="2.87973">
        <ele>1202.88</ele>
        <time>2022-03-28T09:55:27Z</time>
      </trkpt>
      <trkpt lat="45.50358" lon="2.8833">
        <ele>1168.84</ele>
        <time>2022-03-28T09:55:30Z</time>
      </trkpt>
      <trkpt lat="45.50353" lon="2.88334">
        <ele>1167.84</ele>
        <time>2022-03-28T09:55:33Z</time>
      </trkpt>
      <trkpt lat="45.50337" lon="2.88371">
        <ele>1163.59</ele>
        <time>2022-03-28T09:55:36Z</time>
      </trkpt>
      <trkpt lat="45.50315" lon="2.88408">
        <ele>1159.94</ele>
        <time>2022-03-28T09:55:38Z</time>
      </trkpt>
      <trkpt lat="45.50292" lon="2.88436">
        <ele>1158.84</ele>
        <time>2022-03-28T09:55:41Z</time>
      </trkpt>
      <trkpt lat="45.50269" lon="2.88455">
        <ele>1159.37</ele>
        <time>2022-03-28T09:55:44Z</time>
      </trkpt>
      <trkpt lat="45.50146" lon="2.88499">
        <ele>1163.53</ele>
        <time>2022-03-28T09:55:47Z</time>
      </trkpt>
      <trkpt lat="45.5014" lon="2.88504">
        <ele>1164.48</ele>
        <time>2022-03-28T09:55:47Z</time>
      </trkpt>
      <trkpt lat="45.5014" lon="2.88504">
        <ele>1164.48</ele>
        <time>2022-03-28T09:55:47Z</time>
      </trkpt>
      <trkpt lat="45.50146" lon="2.88499">
        <ele>1163.53</ele>
        <time>2022-03-28T09:55:48Z</time>
      </trkpt>
      <trkpt lat="45.50113" lon="2.88486">
        <ele>1166.78</ele>
        <time>2022-03-28T09:55:50Z</time>
      </trkpt>
      <trkpt lat="45.5009" lon="2.88475">
        <ele>1168.61</ele>
        <time>2022-03-28T09:55:52Z</time>
      </trkpt>
      <trkpt lat="45.49916" lon="2.87901">
        <ele>1177.78</ele>
        <time>2022-03-28T09:55:55Z</time>
      </trkpt>
      <trkpt lat="45.49902" lon="2.87836">
        <ele>1180.76</ele>
        <time>2022-03-28T09:55:59Z</time>
      </trkpt>
      <trkpt lat="45.49887" lon="2.87749">
        <ele>1184.19</ele>
        <time>2022-03-28T09:56:02Z</time>
      </trkpt>
      <trkpt lat="45.49881" lon="2.87726">
        <ele>1184.35</ele>
        <time>2022-03-28T09:56:06Z</time>
      </trkpt>
      <trkpt lat="45.49867" lon="2.87689">
        <ele>1183.64</ele>
        <time>2022-03-28T09:56:09Z</time>
      </trkpt>
      <trkpt lat="45.49854" lon="2.8767">
        <ele>1184.03</ele>
        <time>2022-03-28T09:56:13Z</time>
      </trkpt>
      <trkpt lat="45.49833" lon="2.87644">
        <ele>1184</ele>
        <time>2022-03-28T09:56:17Z</time>
      </trkpt>
      <trkpt lat="45.49807" lon="2.87623">
        <ele>1184.56</ele>
        <time>2022-03-28T09:56:20Z</time>
      </trkpt>
      <trkpt lat="45.49715" lon="2.87587">
        <ele>1188.15</ele>
        <time>2022-03-28T09:56:24Z</time>
      </trkpt>
      <trkpt lat="45.49686" lon="2.87566">
        <ele>1190.7</ele>
        <time>2022-03-28T09:56:27Z</time>
      </trkpt>
      <trkpt lat="45.49579" lon="2.87452">
        <ele>1191.17</ele>
        <time>2022-03-28T09:56:31Z</time>
      </trkpt>
      <trkpt lat="45.49563" lon="2.8743">
        <ele>1192.08</ele>
        <time>2022-03-28T09:56:34Z</time>
      </trkpt>
      <trkpt lat="45.4955" lon="2.87405">
        <ele>1193.49</ele>
        <time>2022-03-28T09:56:38Z</time>
      </trkpt>
      <trkpt lat="45.49542" lon="2.87383">
        <ele>1194.5</ele>
        <time>2022-03-28T09:56:42Z</time>
      </trkpt>
      <trkpt lat="45.49529" lon="2.87325">
        <ele>1196.8</ele>
        <time>2022-03-28T09:56:45Z</time>
      </trkpt>
      <trkpt lat="45.49494" lon="2.87115">
        <ele>1210.39</ele>
        <time>2022-03-28T09:56:49Z</time>
      </trkpt>
      <trkpt lat="45.49462" lon="2.86967">
        <ele>1204.93</ele>
        <time>2022-03-28T09:56:52Z</time>
      </trkpt>
      <trkpt lat="45.49457" lon="2.86914">
        <ele>1207.74</ele>
        <time>2022-03-28T09:56:56Z</time>
      </trkpt>
      <trkpt lat="45.49455" lon="2.86832">
        <ele>1209.56</ele>
        <time>2022-03-28T09:56:59Z</time>
      </trkpt>
      <trkpt lat="45.4944" lon="2.86738">
        <ele>1204.07</ele>
        <time>2022-03-28T09:57:03Z</time>
      </trkpt>
      <trkpt lat="45.49425" lon="2.86695">
        <ele>1205.73</ele>
        <time>2022-03-28T09:57:07Z</time>
      </trkpt>
      <trkpt lat="45.49374" lon="2.86582">
        <ele>1213.53</ele>
        <time>2022-03-28T09:57:10Z</time>
      </trkpt>
      <trkpt lat="45.49359" lon="2.86528">
        <ele>1216.55</ele>
        <time>2022-03-28T09:57:14Z</time>
      </trkpt>
      <trkpt lat="45.49352" lon="2.86465">
        <ele>1217.76</ele>
        <time>2022-03-28T09:57:17Z</time>
      </trkpt>
      <trkpt lat="45.49332" lon="2.86206">
        <ele>1210.61</ele>
        <time>2022-03-28T09:57:21Z</time>
      </trkpt>
      <trkpt lat="45.49325" lon="2.86167">
        <ele>1207.7</ele>
        <time>2022-03-28T09:57:24Z</time>
      </trkpt>
      <trkpt lat="45.49319" lon="2.86147">
        <ele>1207.14</ele>
        <time>2022-03-28T09:57:28Z</time>
      </trkpt>
      <trkpt lat="45.49311" lon="2.86132">
        <ele>1206.58</ele>
        <time>2022-03-28T09:57:32Z</time>
      </trkpt>
      <trkpt lat="45.493" lon="2.86115">
        <ele>1206.09</ele>
        <time>2022-03-28T09:57:35Z</time>
      </trkpt>
      <trkpt lat="45.49286" lon="2.86101">
        <ele>1206.25</ele>
        <time>2022-03-28T09:57:39Z</time>
      </trkpt>
      <trkpt lat="45.49272" lon="2.86093">
        <ele>1206.29</ele>
        <time>2022-03-28T09:57:42Z</time>
      </trkpt>
      <trkpt lat="45.49251" lon="2.86085">
        <ele>1206.14</ele>
        <time>2022-03-28T09:57:46Z</time>
      </trkpt>
      <trkpt lat="45.49224" lon="2.86086">
        <ele>1205.26</ele>
        <time>2022-03-28T09:57:49Z</time>
      </trkpt>
      <trkpt lat="45.49105" lon="2.86122">
        <ele>1205.6</ele>
        <time>2022-03-28T09:57:53Z</time>
      </trkpt>
      <trkpt lat="45.49068" lon="2.86129">
        <ele>1204.27</ele>
        <time>2022-03-28T09:57:57Z</time>
      </trkpt>
      <trkpt lat="45.4904" lon="2.86129">
        <ele>1204.31</ele>
        <time>2022-03-28T09:58:00Z</time>
      </trkpt>
      <trkpt lat="45.48934" lon="2.86117">
        <ele>1208.23</ele>
        <time>2022-03-28T09:58:04Z</time>
      </trkpt>
      <trkpt lat="45.48758" lon="2.86125">
        <ele>1209.51</ele>
        <time>2022-03-28T09:58:07Z</time>
      </trkpt>
      <trkpt lat="45.48718" lon="2.86141">
        <ele>1208.9</ele>
        <time>2022-03-28T09:58:11Z</time>
      </trkpt>
      <trkpt lat="45.48661" lon="2.86192">
        <ele>1207.94</ele>
        <time>2022-03-28T09:58:14Z</time>
      </trkpt>
      <trkpt lat="45.48633" lon="2.86208">
        <ele>1205.48</ele>
        <time>2022-03-28T09:58:18Z</time>
      </trkpt>
      <trkpt lat="45.48604" lon="2.86215">
        <ele>1202.73</ele>
        <time>2022-03-28T09:58:22Z</time>
      </trkpt>
      <trkpt lat="45.48586" lon="2.86215">
        <ele>1202.02</ele>
        <time>2022-03-28T09:58:25Z</time>
      </trkpt>
      <trkpt lat="45.48563" lon="2.86204">
        <ele>1199.86</ele>
        <time>2022-03-28T09:58:29Z</time>
      </trkpt>
      <trkpt lat="45.48536" lon="2.86182">
        <ele>1197.73</ele>
        <time>2022-03-28T09:58:32Z</time>
      </trkpt>
      <trkpt lat="45.48353" lon="2.86013">
        <ele>1193.96</ele>
        <time>2022-03-28T09:58:36Z</time>
      </trkpt>
      <trkpt lat="45.48338" lon="2.86004">
        <ele>1193.3</ele>
        <time>2022-03-28T09:58:39Z</time>
      </trkpt>
      <trkpt lat="45.48322" lon="2.85999">
        <ele>1193.79</ele>
        <time>2022-03-28T09:58:43Z</time>
      </trkpt>
      <trkpt lat="45.48292" lon="2.85999">
        <ele>1195.89</ele>
        <time>2022-03-28T09:58:47Z</time>
      </trkpt>
      <trkpt lat="45.48236" lon="2.86015">
        <ele>1194.02</ele>
        <time>2022-03-28T09:58:50Z</time>
      </trkpt>
      <trkpt lat="45.48196" lon="2.86016">
        <ele>1194.47</ele>
        <time>2022-03-28T09:58:54Z</time>
      </trkpt>
      <trkpt lat="45.48154" lon="2.86005">
        <ele>1196.74</ele>
        <time>2022-03-28T09:58:57Z</time>
      </trkpt>
      <trkpt lat="45.48117" lon="2.85992">
        <ele>1196.64</ele>
        <time>2022-03-28T09:59:01Z</time>
      </trkpt>
      <trkpt lat="45.48109" lon="2.85986">
        <ele>1196.59</ele>
        <time>2022-03-28T09:59:04Z</time>
      </trkpt>
      <trkpt lat="45.4809" lon="2.85969">
        <ele>1196.64</ele>
        <time>2022-03-28T09:59:08Z</time>
      </trkpt>
      <trkpt lat="45.48046" lon="2.85914">
        <ele>1196.22</ele>
        <time>2022-03-28T09:59:12Z</time>
      </trkpt>
      <trkpt lat="45.48028" lon="2.85898">
        <ele>1196.34</ele>
        <time>2022-03-28T09:59:15Z</time>
      </trkpt>
      <trkpt lat="45.4791" lon="2.8584">
        <ele>1193.88</ele>
        <time>2022-03-28T09:59:19Z</time>
      </trkpt>
      <trkpt lat="45.47878" lon="2.85816">
        <ele>1194.25</ele>
        <time>2022-03-28T09:59:22Z</time>
      </trkpt>
      <trkpt lat="45.4777" lon="2.85712">
        <ele>1191.59</ele>
        <time>2022-03-28T09:59:26Z</time>
      </trkpt>
      <trkpt lat="45.47693" lon="2.85665">
        <ele>1196</ele>
        <time>2022-03-28T09:59:30Z</time>
      </trkpt>
      <trkpt lat="45.47633" lon="2.85583">
        <ele>1193.91</ele>
        <time>2022-03-28T09:59:33Z</time>
      </trkpt>
      <trkpt lat="45.47617" lon="2.85564">
        <ele>1191.14</ele>
        <time>2022-03-28T09:59:37Z</time>
      </trkpt>
      <trkpt lat="45.47583" lon="2.85534">
        <ele>1189.46</ele>
        <time>2022-03-28T09:59:40Z</time>
      </trkpt>
      <trkpt lat="45.47574" lon="2.85523">
        <ele>1190.07</ele>
        <time>2022-03-28T09:59:44Z</time>
      </trkpt>
      <trkpt lat="45.47567" lon="2.85513">
        <ele>1191.07</ele>
        <time>2022-03-28T09:59:47Z</time>
      </trkpt>
      <trkpt lat="45.47555" lon="2.8549">
        <ele>1192.65</ele>
        <time>2022-03-28T09:59:51Z</time>
      </trkpt>
      <trkpt lat="45.47532" lon="2.85424">
        <ele>1190.34</ele>
        <time>2022-03-28T09:59:55Z</time>
      </trkpt>
      <trkpt lat="45.47525" lon="2.85388">
        <ele>1189.29</ele>
        <time>2022-03-28T09:59:58Z</time>
      </trkpt>
      <trkpt lat="45.4752" lon="2.85338">
        <ele>1190.71</ele>
        <time>2022-03-28T10:00:02Z</time>
      </trkpt>
      <trkpt lat="45.47511" lon="2.85303">
        <ele>1191.26</ele>
        <time>2022-03-28T10:00:05Z</time>
      </trkpt>
      <trkpt lat="45.47503" lon="2.85283">
        <ele>1191.06</ele>
        <time>2022-03-28T10:00:09Z</time>
      </trkpt>
      <trkpt lat="45.47491" lon="2.85263">
        <ele>1191.42</ele>
        <time>2022-03-28T10:00:12Z</time>
      </trkpt>
      <trkpt lat="45.47448" lon="2.85213">
        <ele>1192.78</ele>
        <time>2022-03-28T10:00:16Z</time>
      </trkpt>
      <trkpt lat="45.47438" lon="2.85195">
        <ele>1190.77</ele>
        <time>2022-03-28T10:00:20Z</time>
      </trkpt>
      <trkpt lat="45.47431" lon="2.85174">
        <ele>1189.05</ele>
        <time>2022-03-28T10:00:23Z</time>
      </trkpt>
      <trkpt lat="45.47382" lon="2.84993">
        <ele>1191.49</ele>
        <time>2022-03-28T10:00:27Z</time>
      </trkpt>
      <trkpt lat="45.47374" lon="2.84971">
        <ele>1189.92</ele>
        <time>2022-03-28T10:00:30Z</time>
      </trkpt>
      <trkpt lat="45.47358" lon="2.84944">
        <ele>1187.97</ele>
        <time>2022-03-28T10:00:34Z</time>
      </trkpt>
      <trkpt lat="45.47352" lon="2.84928">
        <ele>1187.6</ele>
        <time>2022-03-28T10:00:38Z</time>
      </trkpt>
      <trkpt lat="45.47333" lon="2.84885">
        <ele>1188.87</ele>
        <time>2022-03-28T10:00:41Z</time>
      </trkpt>
      <trkpt lat="45.47272" lon="2.84765">
        <ele>1186.17</ele>
        <time>2022-03-28T10:00:45Z</time>
      </trkpt>
      <trkpt lat="45.47258" lon="2.84727">
        <ele>1187.14</ele>
        <time>2022-03-28T10:00:49Z</time>
      </trkpt>
      <trkpt lat="45.47248" lon="2.84682">
        <ele>1186.63</ele>
        <time>2022-03-28T10:00:53Z</time>
      </trkpt>
      <trkpt lat="45.47243" lon="2.84639">
        <ele>1184.03</ele>
        <time>2022-03-28T10:00:56Z</time>
      </trkpt>
      <trkpt lat="45.47242" lon="2.84618">
        <ele>1181.72</ele>
        <time>2022-03-28T10:01:00Z</time>
      </trkpt>
      <trkpt lat="45.47243" lon="2.84531">
        <ele>1179.24</ele>
        <time>2022-03-28T10:01:04Z</time>
      </trkpt>
      <trkpt lat="45.47238" lon="2.84497">
        <ele>1180.25</ele>
        <time>2022-03-28T10:01:08Z</time>
      </trkpt>
      <trkpt lat="45.47234" lon="2.84487">
        <ele>1180.95</ele>
        <time>2022-03-28T10:01:11Z</time>
      </trkpt>
      <trkpt lat="45.47228" lon="2.84476">
        <ele>1181.71</ele>
        <time>2022-03-28T10:01:15Z</time>
      </trkpt>
      <trkpt lat="45.47173" lon="2.8441">
        <ele>1186.75</ele>
        <time>2022-03-28T10:01:19Z</time>
      </trkpt>
      <trkpt lat="45.47156" lon="2.84381">
        <ele>1188</ele>
        <time>2022-03-28T10:01:23Z</time>
      </trkpt>
      <trkpt lat="45.47149" lon="2.84366">
        <ele>1188</ele>
        <time>2022-03-28T10:01:26Z</time>
      </trkpt>
      <trkpt lat="45.47137" lon="2.84331">
        <ele>1186.71</ele>
        <time>2022-03-28T10:01:30Z</time>
      </trkpt>
      <trkpt lat="45.47121" lon="2.84257">
        <ele>1185.83</ele>
        <time>2022-03-28T10:01:34Z</time>
      </trkpt>
      <trkpt lat="45.47115" lon="2.84237">
        <ele>1185.83</ele>
        <time>2022-03-28T10:01:38Z</time>
      </trkpt>
      <trkpt lat="45.47105" lon="2.8422">
        <ele>1185.33</ele>
        <time>2022-03-28T10:01:41Z</time>
      </trkpt>
      <trkpt lat="45.47094" lon="2.84208">
        <ele>1185.35</ele>
        <time>2022-03-28T10:01:45Z</time>
      </trkpt>
      <trkpt lat="45.47046" lon="2.84166">
        <ele>1186.67</ele>
        <time>2022-03-28T10:01:49Z</time>
      </trkpt>
      <trkpt lat="45.47016" lon="2.84133">
        <ele>1186.68</ele>
        <time>2022-03-28T10:01:53Z</time>
      </trkpt>
      <trkpt lat="45.46944" lon="2.84028">
        <ele>1188.03</ele>
        <time>2022-03-28T10:01:56Z</time>
      </trkpt>
      <trkpt lat="45.46902" lon="2.83958">
        <ele>1187.26</ele>
        <time>2022-03-28T10:02:00Z</time>
      </trkpt>
      <trkpt lat="45.4689" lon="2.83933">
        <ele>1186.57</ele>
        <time>2022-03-28T10:02:04Z</time>
      </trkpt>
      <trkpt lat="45.46871" lon="2.83886">
        <ele>1185.53</ele>
        <time>2022-03-28T10:02:08Z</time>
      </trkpt>
      <trkpt lat="45.4685" lon="2.83823">
        <ele>1184.66</ele>
        <time>2022-03-28T10:02:11Z</time>
      </trkpt>
      <trkpt lat="45.46838" lon="2.83771">
        <ele>1188.21</ele>
        <time>2022-03-28T10:02:15Z</time>
      </trkpt>
      <trkpt lat="45.46719" lon="2.83058">
        <ele>1180.39</ele>
        <time>2022-03-28T10:02:19Z</time>
      </trkpt>
      <trkpt lat="45.46708" lon="2.83015">
        <ele>1179.77</ele>
        <time>2022-03-28T10:02:23Z</time>
      </trkpt>
      <trkpt lat="45.46701" lon="2.82996">
        <ele>1179.33</ele>
        <time>2022-03-28T10:02:26Z</time>
      </trkpt>
      <trkpt lat="45.46683" lon="2.82961">
        <ele>1175.56</ele>
        <time>2022-03-28T10:02:30Z</time>
      </trkpt>
      <trkpt lat="45.4661" lon="2.82848">
        <ele>1168.68</ele>
        <time>2022-03-28T10:02:34Z</time>
      </trkpt>
      <trkpt lat="45.46589" lon="2.82804">
        <ele>1169.85</ele>
        <time>2022-03-28T10:02:38Z</time>
      </trkpt>
      <trkpt lat="45.46494" lon="2.82464">
        <ele>1160.9</ele>
        <time>2022-03-28T10:02:41Z</time>
      </trkpt>
      <trkpt lat="45.46489" lon="2.82421">
        <ele>1159.54</ele>
        <time>2022-03-28T10:02:45Z</time>
      </trkpt>
      <trkpt lat="45.46488" lon="2.82397">
        <ele>1157.55</ele>
        <time>2022-03-28T10:02:49Z</time>
      </trkpt>
      <trkpt lat="45.46488" lon="2.82397">
        <ele>1157.55</ele>
        <time>2022-03-28T10:02:49Z</time>
      </trkpt>
      <trkpt lat="45.46489" lon="2.82421">
        <ele>1159.54</ele>
        <time>2022-03-28T10:02:53Z</time>
      </trkpt>
      <trkpt lat="45.46494" lon="2.82464">
        <ele>1160.9</ele>
        <time>2022-03-28T10:02:56Z</time>
      </trkpt>
      <trkpt lat="45.46589" lon="2.82804">
        <ele>1169.85</ele>
        <time>2022-03-28T10:03:00Z</time>
      </trkpt>
      <trkpt lat="45.4661" lon="2.82848">
        <ele>1168.68</ele>
        <time>2022-03-28T10:03:03Z</time>
      </trkpt>
      <trkpt lat="45.46683" lon="2.82961">
        <ele>1175.56</ele>
        <time>2022-03-28T10:03:07Z</time>
      </trkpt>
      <trkpt lat="45.46701" lon="2.82996">
        <ele>1179.33</ele>
        <time>2022-03-28T10:03:10Z</time>
      </trkpt>
      <trkpt lat="45.46708" lon="2.83015">
        <ele>1179.77</ele>
        <time>2022-03-28T10:03:14Z</time>
      </trkpt>
      <trkpt lat="45.46719" lon="2.83058">
        <ele>1180.39</ele>
        <time>2022-03-28T10:03:18Z</time>
      </trkpt>
      <trkpt lat="45.46838" lon="2.83771">
        <ele>1188.21</ele>
        <time>2022-03-28T10:03:21Z</time>
      </trkpt>
      <trkpt lat="45.4685" lon="2.83823">
        <ele>1184.66</ele>
        <time>2022-03-28T10:03:25Z</time>
      </trkpt>
      <trkpt lat="45.46871" lon="2.83886">
        <ele>1185.53</ele>
        <time>2022-03-28T10:03:28Z</time>
      </trkpt>
      <trkpt lat="45.4689" lon="2.83933">
        <ele>1186.57</ele>
        <time>2022-03-28T10:03:32Z</time>
      </trkpt>
      <trkpt lat="45.46902" lon="2.83958">
        <ele>1187.26</ele>
        <time>2022-03-28T10:03:35Z</time>
      </trkpt>
      <trkpt lat="45.46944" lon="2.84028">
        <ele>1188.03</ele>
        <time>2022-03-28T10:03:39Z</time>
      </trkpt>
      <trkpt lat="45.47016" lon="2.84133">
        <ele>1186.68</ele>
        <time>2022-03-28T10:03:43Z</time>
      </trkpt>
      <trkpt lat="45.47046" lon="2.84166">
        <ele>1186.67</ele>
        <time>2022-03-28T10:03:46Z</time>
      </trkpt>
      <trkpt lat="45.47094" lon="2.84208">
        <ele>1185.35</ele>
        <time>2022-03-28T10:03:50Z</time>
      </trkpt>
      <trkpt lat="45.47105" lon="2.8422">
        <ele>1185.33</ele>
        <time>2022-03-28T10:03:53Z</time>
      </trkpt>
      <trkpt lat="45.47115" lon="2.84237">
        <ele>1185.83</ele>
        <time>2022-03-28T10:03:57Z</time>
      </trkpt>
      <trkpt lat="45.47121" lon="2.84257">
        <ele>1185.83</ele>
        <time>2022-03-28T10:04:01Z</time>
      </trkpt>
      <trkpt lat="45.47137" lon="2.84331">
        <ele>1186.71</ele>
        <time>2022-03-28T10:04:04Z</time>
      </trkpt>
      <trkpt lat="45.47149" lon="2.84366">
        <ele>1188</ele>
        <time>2022-03-28T10:04:08Z</time>
      </trkpt>
      <trkpt lat="45.47156" lon="2.84381">
        <ele>1188</ele>
        <time>2022-03-28T10:04:11Z</time>
      </trkpt>
      <trkpt lat="45.47173" lon="2.8441">
        <ele>1186.75</ele>
        <time>2022-03-28T10:04:15Z</time>
      </trkpt>
      <trkpt lat="45.47228" lon="2.84476">
        <ele>1181.71</ele>
        <time>2022-03-28T10:04:18Z</time>
      </trkpt>
      <trkpt lat="45.47234" lon="2.84487">
        <ele>1180.95</ele>
        <time>2022-03-28T10:04:22Z</time>
      </trkpt>
      <trkpt lat="45.47238" lon="2.84497">
        <ele>1180.25</ele>
        <time>2022-03-28T10:04:26Z</time>
      </trkpt>
      <trkpt lat="45.47243" lon="2.84531">
        <ele>1179.24</ele>
        <time>2022-03-28T10:04:29Z</time>
      </trkpt>
      <trkpt lat="45.47242" lon="2.84618">
        <ele>1181.72</ele>
        <time>2022-03-28T10:04:33Z</time>
      </trkpt>
      <trkpt lat="45.47243" lon="2.84639">
        <ele>1184.03</ele>
        <time>2022-03-28T10:04:36Z</time>
      </trkpt>
      <trkpt lat="45.47248" lon="2.84682">
        <ele>1186.63</ele>
        <time>2022-03-28T10:04:40Z</time>
      </trkpt>
      <trkpt lat="45.47258" lon="2.84727">
        <ele>1187.14</ele>
        <time>2022-03-28T10:04:43Z</time>
      </trkpt>
      <trkpt lat="45.47272" lon="2.84765">
        <ele>1186.17</ele>
        <time>2022-03-28T10:04:47Z</time>
      </trkpt>
      <trkpt lat="45.47323" lon="2.84866">
        <ele>1188.87</ele>
        <time>2022-03-28T10:04:51Z</time>
      </trkpt>
      <trkpt lat="45.47326" lon="2.84876">
        <ele>1188.93</ele>
        <time>2022-03-28T10:04:54Z</time>
      </trkpt>
      <trkpt lat="45.47327" lon="2.84892">
        <ele>1189.13</ele>
        <time>2022-03-28T10:04:58Z</time>
      </trkpt>
      <trkpt lat="45.47323" lon="2.84906">
        <ele>1188.77</ele>
        <time>2022-03-28T10:05:01Z</time>
      </trkpt>
      <trkpt lat="45.47322" lon="2.84905">
        <ele>1189.34</ele>
        <time>2022-03-28T10:05:01Z</time>
      </trkpt>
      <trkpt lat="45.47322" lon="2.84905">
        <ele>1189.34</ele>
        <time>2022-03-28T10:05:01Z</time>
      </trkpt>
      <trkpt lat="45.47305" lon="2.84893">
        <ele>1189.9</ele>
        <time>2022-03-28T10:05:05Z</time>
      </trkpt>
      <trkpt lat="45.47289" lon="2.84886">
        <ele>1191.14</ele>
        <time>2022-03-28T10:05:08Z</time>
      </trkpt>
      <trkpt lat="45.47265" lon="2.84881">
        <ele>1192.16</ele>
        <time>2022-03-28T10:05:11Z</time>
      </trkpt>
      <trkpt lat="45.47242" lon="2.8488">
        <ele>1192.88</ele>
        <time>2022-03-28T10:05:14Z</time>
      </trkpt>
      <trkpt lat="45.47208" lon="2.84889">
        <ele>1193.48</ele>
        <time>2022-03-28T10:05:17Z</time>
      </trkpt>
      <trkpt lat="45.47097" lon="2.84927">
        <ele>1190.55</ele>
        <time>2022-03-28T10:05:20Z</time>
      </trkpt>
      <trkpt lat="45.47067" lon="2.84932">
        <ele>1190.86</ele>
        <time>2022-03-28T10:05:24Z</time>
      </trkpt>
      <trkpt lat="45.4705" lon="2.84932">
        <ele>1190.6</ele>
        <time>2022-03-28T10:05:27Z</time>
      </trkpt>
      <trkpt lat="45.47018" lon="2.84928">
        <ele>1190.05</ele>
        <time>2022-03-28T10:05:30Z</time>
      </trkpt>
      <trkpt lat="45.46987" lon="2.84916">
        <ele>1189.7</ele>
        <time>2022-03-28T10:05:33Z</time>
      </trkpt>
      <trkpt lat="45.46969" lon="2.84906">
        <ele>1189.11</ele>
        <time>2022-03-28T10:05:36Z</time>
      </trkpt>
      <trkpt lat="45.46882" lon="2.84831">
        <ele>1189.95</ele>
        <time>2022-03-28T10:05:39Z</time>
      </trkpt>
      <trkpt lat="45.46853" lon="2.84814">
        <ele>1185.44</ele>
        <time>2022-03-28T10:05:43Z</time>
      </trkpt>
      <trkpt lat="45.46821" lon="2.84802">
        <ele>1183.06</ele>
        <time>2022-03-28T10:05:46Z</time>
      </trkpt>
      <trkpt lat="45.4665" lon="2.84754">
        <ele>1177.19</ele>
        <time>2022-03-28T10:05:49Z</time>
      </trkpt>
      <trkpt lat="45.46629" lon="2.84747">
        <ele>1178.09</ele>
        <time>2022-03-28T10:05:52Z</time>
      </trkpt>
      <trkpt lat="45.46608" lon="2.84736">
        <ele>1179.22</ele>
        <time>2022-03-28T10:05:55Z</time>
      </trkpt>
      <trkpt lat="45.46371" lon="2.84587">
        <ele>1171.51</ele>
        <time>2022-03-28T10:05:59Z</time>
      </trkpt>
      <trkpt lat="45.4624" lon="2.84485">
        <ele>1163.77</ele>
        <time>2022-03-28T10:06:02Z</time>
      </trkpt>
      <trkpt lat="45.46185" lon="2.8445">
        <ele>1162.24</ele>
        <time>2022-03-28T10:06:05Z</time>
      </trkpt>
      <trkpt lat="45.46151" lon="2.84435">
        <ele>1161.4</ele>
        <time>2022-03-28T10:06:08Z</time>
      </trkpt>
      <trkpt lat="45.46077" lon="2.84411">
        <ele>1162.84</ele>
        <time>2022-03-28T10:06:11Z</time>
      </trkpt>
      <trkpt lat="45.46032" lon="2.84403">
        <ele>1161.36</ele>
        <time>2022-03-28T10:06:14Z</time>
      </trkpt>
      <trkpt lat="45.45962" lon="2.844">
        <ele>1160.35</ele>
        <time>2022-03-28T10:06:18Z</time>
      </trkpt>
      <trkpt lat="45.45945" lon="2.84397">
        <ele>1160.19</ele>
        <time>2022-03-28T10:06:21Z</time>
      </trkpt>
      <trkpt lat="45.45914" lon="2.84386">
        <ele>1159.66</ele>
        <time>2022-03-28T10:06:24Z</time>
      </trkpt>
      <trkpt lat="45.45824" lon="2.84349">
        <ele>1155.97</ele>
        <time>2022-03-28T10:06:27Z</time>
      </trkpt>
      <trkpt lat="45.45789" lon="2.84331">
        <ele>1154.39</ele>
        <time>2022-03-28T10:06:30Z</time>
      </trkpt>
      <trkpt lat="45.45765" lon="2.84314">
        <ele>1154.13</ele>
        <time>2022-03-28T10:06:33Z</time>
      </trkpt>
      <trkpt lat="45.45733" lon="2.84283">
        <ele>1154.42</ele>
        <time>2022-03-28T10:06:37Z</time>
      </trkpt>
      <trkpt lat="45.45704" lon="2.84257">
        <ele>1153.4</ele>
        <time>2022-03-28T10:06:40Z</time>
      </trkpt>
      <trkpt lat="45.45691" lon="2.8425">
        <ele>1153.46</ele>
        <time>2022-03-28T10:06:43Z</time>
      </trkpt>
      <trkpt lat="45.45657" lon="2.84235">
        <ele>1155.34</ele>
        <time>2022-03-28T10:06:46Z</time>
      </trkpt>
      <trkpt lat="45.45628" lon="2.84229">
        <ele>1153.57</ele>
        <time>2022-03-28T10:06:49Z</time>
      </trkpt>
      <trkpt lat="45.45599" lon="2.84229">
        <ele>1151.21</ele>
        <time>2022-03-28T10:06:52Z</time>
      </trkpt>
      <trkpt lat="45.45564" lon="2.84238">
        <ele>1149.16</ele>
        <time>2022-03-28T10:06:56Z</time>
      </trkpt>
      <trkpt lat="45.45504" lon="2.84263">
        <ele>1150.76</ele>
        <time>2022-03-28T10:06:59Z</time>
      </trkpt>
      <trkpt lat="45.45433" lon="2.84277">
        <ele>1150.49</ele>
        <time>2022-03-28T10:07:02Z</time>
      </trkpt>
      <trkpt lat="45.45406" lon="2.84278">
        <ele>1150.07</ele>
        <time>2022-03-28T10:07:05Z</time>
      </trkpt>
      <trkpt lat="45.45386" lon="2.84275">
        <ele>1149.56</ele>
        <time>2022-03-28T10:07:08Z</time>
      </trkpt>
      <trkpt lat="45.4537" lon="2.8427">
        <ele>1149.38</ele>
        <time>2022-03-28T10:07:11Z</time>
      </trkpt>
      <trkpt lat="45.45297" lon="2.84235">
        <ele>1147.26</ele>
        <time>2022-03-28T10:07:15Z</time>
      </trkpt>
      <trkpt lat="45.45283" lon="2.84226">
        <ele>1147.9</ele>
        <time>2022-03-28T10:07:18Z</time>
      </trkpt>
      <trkpt lat="45.45258" lon="2.84206">
        <ele>1147.24</ele>
        <time>2022-03-28T10:07:21Z</time>
      </trkpt>
      <trkpt lat="45.45139" lon="2.8407">
        <ele>1138.6</ele>
        <time>2022-03-28T10:07:24Z</time>
      </trkpt>
      <trkpt lat="45.45108" lon="2.84038">
        <ele>1141.87</ele>
        <time>2022-03-28T10:07:27Z</time>
      </trkpt>
      <trkpt lat="45.45086" lon="2.84023">
        <ele>1143.76</ele>
        <time>2022-03-28T10:07:30Z</time>
      </trkpt>
      <trkpt lat="45.45056" lon="2.84012">
        <ele>1142.47</ele>
        <time>2022-03-28T10:07:34Z</time>
      </trkpt>
      <trkpt lat="45.44875" lon="2.84">
        <ele>1131.45</ele>
        <time>2022-03-28T10:07:37Z</time>
      </trkpt>
      <trkpt lat="45.44864" lon="2.83998">
        <ele>1132.29</ele>
        <time>2022-03-28T10:07:40Z</time>
      </trkpt>
      <trkpt lat="45.44853" lon="2.83993">
        <ele>1133.31</ele>
        <time>2022-03-28T10:07:43Z</time>
      </trkpt>
      <trkpt lat="45.44842" lon="2.83986">
        <ele>1134.04</ele>
        <time>2022-03-28T10:07:46Z</time>
      </trkpt>
      <trkpt lat="45.44762" lon="2.83927">
        <ele>1125.1</ele>
        <time>2022-03-28T10:07:49Z</time>
      </trkpt>
      <trkpt lat="45.44665" lon="2.8385">
        <ele>1121.1</ele>
        <time>2022-03-28T10:07:53Z</time>
      </trkpt>
      <trkpt lat="45.44634" lon="2.8383">
        <ele>1119.85</ele>
        <time>2022-03-28T10:07:56Z</time>
      </trkpt>
      <trkpt lat="45.44609" lon="2.83815">
        <ele>1119.34</ele>
        <time>2022-03-28T10:07:59Z</time>
      </trkpt>
      <trkpt lat="45.44496" lon="2.83758">
        <ele>1111.41</ele>
        <time>2022-03-28T10:08:02Z</time>
      </trkpt>
      <trkpt lat="45.44476" lon="2.83749">
        <ele>1111.65</ele>
        <time>2022-03-28T10:08:05Z</time>
      </trkpt>
      <trkpt lat="45.44458" lon="2.83745">
        <ele>1111.64</ele>
        <time>2022-03-28T10:08:09Z</time>
      </trkpt>
      <trkpt lat="45.44427" lon="2.83744">
        <ele>1111.6</ele>
        <time>2022-03-28T10:08:12Z</time>
      </trkpt>
      <trkpt lat="45.44245" lon="2.83768">
        <ele>1108.56</ele>
        <time>2022-03-28T10:08:15Z</time>
      </trkpt>
      <trkpt lat="45.44221" lon="2.83768">
        <ele>1106.87</ele>
        <time>2022-03-28T10:08:18Z</time>
      </trkpt>
      <trkpt lat="45.44182" lon="2.83758">
        <ele>1105.02</ele>
        <time>2022-03-28T10:08:21Z</time>
      </trkpt>
      <trkpt lat="45.44082" lon="2.83717">
        <ele>1109.88</ele>
        <time>2022-03-28T10:08:24Z</time>
      </trkpt>
      <trkpt lat="45.44065" lon="2.83709">
        <ele>1109.2</ele>
        <time>2022-03-28T10:08:28Z</time>
      </trkpt>
      <trkpt lat="45.4403" lon="2.83681">
        <ele>1105.93</ele>
        <time>2022-03-28T10:08:31Z</time>
      </trkpt>
      <trkpt lat="45.43974" lon="2.83633">
        <ele>1099.51</ele>
        <time>2022-03-28T10:08:34Z</time>
      </trkpt>
      <trkpt lat="45.43952" lon="2.8362">
        <ele>1099.55</ele>
        <time>2022-03-28T10:08:37Z</time>
      </trkpt>
      <trkpt lat="45.43943" lon="2.83616">
        <ele>1099.59</ele>
        <time>2022-03-28T10:08:40Z</time>
      </trkpt>
      <trkpt lat="45.4392" lon="2.83615">
        <ele>1100.38</ele>
        <time>2022-03-28T10:08:43Z</time>
      </trkpt>
      <trkpt lat="45.43896" lon="2.83621">
        <ele>1102.36</ele>
        <time>2022-03-28T10:08:47Z</time>
      </trkpt>
      <trkpt lat="45.43872" lon="2.83623">
        <ele>1103.43</ele>
        <time>2022-03-28T10:08:50Z</time>
      </trkpt>
      <trkpt lat="45.43864" lon="2.83622">
        <ele>1103.35</ele>
        <time>2022-03-28T10:08:53Z</time>
      </trkpt>
      <trkpt lat="45.43819" lon="2.83609">
        <ele>1100.22</ele>
        <time>2022-03-28T10:08:56Z</time>
      </trkpt>
      <trkpt lat="45.43795" lon="2.83607">
        <ele>1097.89</ele>
        <time>2022-03-28T10:08:59Z</time>
      </trkpt>
      <trkpt lat="45.43783" lon="2.8361">
        <ele>1095.9</ele>
        <time>2022-03-28T10:09:02Z</time>
      </trkpt>
      <trkpt lat="45.43772" lon="2.83615">
        <ele>1094.77</ele>
        <time>2022-03-28T10:09:06Z</time>
      </trkpt>
      <trkpt lat="45.43707" lon="2.83663">
        <ele>1089.68</ele>
        <time>2022-03-28T10:09:09Z</time>
      </trkpt>
      <trkpt lat="45.43686" lon="2.83671">
        <ele>1089.13</ele>
        <time>2022-03-28T10:09:12Z</time>
      </trkpt>
      <trkpt lat="45.43674" lon="2.83672">
        <ele>1088.81</ele>
        <time>2022-03-28T10:09:15Z</time>
      </trkpt>
      <trkpt lat="45.43653" lon="2.83668">
        <ele>1088.67</ele>
        <time>2022-03-28T10:09:18Z</time>
      </trkpt>
      <trkpt lat="45.43593" lon="2.83636">
        <ele>1086.99</ele>
        <time>2022-03-28T10:09:21Z</time>
      </trkpt>
      <trkpt lat="45.43582" lon="2.83632">
        <ele>1086.03</ele>
        <time>2022-03-28T10:09:25Z</time>
      </trkpt>
      <trkpt lat="45.43551" lon="2.83631">
        <ele>1081.39</ele>
        <time>2022-03-28T10:09:28Z</time>
      </trkpt>
      <trkpt lat="45.43412" lon="2.83634">
        <ele>1075.67</ele>
        <time>2022-03-28T10:09:31Z</time>
      </trkpt>
      <trkpt lat="45.43394" lon="2.83631">
        <ele>1074.91</ele>
        <time>2022-03-28T10:09:34Z</time>
      </trkpt>
      <trkpt lat="45.43377" lon="2.83622">
        <ele>1074.55</ele>
        <time>2022-03-28T10:09:37Z</time>
      </trkpt>
      <trkpt lat="45.4336" lon="2.83604">
        <ele>1073.45</ele>
        <time>2022-03-28T10:09:40Z</time>
      </trkpt>
      <trkpt lat="45.43324" lon="2.8354">
        <ele>1069.25</ele>
        <time>2022-03-28T10:09:44Z</time>
      </trkpt>
      <trkpt lat="45.43304" lon="2.83515">
        <ele>1068.79</ele>
        <time>2022-03-28T10:09:47Z</time>
      </trkpt>
      <trkpt lat="45.4328" lon="2.835">
        <ele>1069.66</ele>
        <time>2022-03-28T10:09:50Z</time>
      </trkpt>
      <trkpt lat="45.43243" lon="2.83483">
        <ele>1066.26</ele>
        <time>2022-03-28T10:09:53Z</time>
      </trkpt>
      <trkpt lat="45.4323" lon="2.83475">
        <ele>1064.65</ele>
        <time>2022-03-28T10:09:56Z</time>
      </trkpt>
      <trkpt lat="45.43204" lon="2.83452">
        <ele>1062.86</ele>
        <time>2022-03-28T10:10:00Z</time>
      </trkpt>
      <trkpt lat="45.43159" lon="2.83407">
        <ele>1060.09</ele>
        <time>2022-03-28T10:10:03Z</time>
      </trkpt>
      <trkpt lat="45.43139" lon="2.83392">
        <ele>1059.22</ele>
        <time>2022-03-28T10:10:06Z</time>
      </trkpt>
      <trkpt lat="45.43115" lon="2.83382">
        <ele>1060.35</ele>
        <time>2022-03-28T10:10:09Z</time>
      </trkpt>
      <trkpt lat="45.43091" lon="2.83378">
        <ele>1060.69</ele>
        <time>2022-03-28T10:10:12Z</time>
      </trkpt>
      <trkpt lat="45.43043" lon="2.83375">
        <ele>1057.39</ele>
        <time>2022-03-28T10:10:15Z</time>
      </trkpt>
      <trkpt lat="45.43016" lon="2.83378">
        <ele>1055.51</ele>
        <time>2022-03-28T10:10:19Z</time>
      </trkpt>
      <trkpt lat="45.42994" lon="2.83377">
        <ele>1054.25</ele>
        <time>2022-03-28T10:10:22Z</time>
      </trkpt>
      <trkpt lat="45.42972" lon="2.83369">
        <ele>1052.74</ele>
        <time>2022-03-28T10:10:25Z</time>
      </trkpt>
      <trkpt lat="45.4291" lon="2.83319">
        <ele>1042.5</ele>
        <time>2022-03-28T10:10:28Z</time>
      </trkpt>
      <trkpt lat="45.42873" lon="2.83297">
        <ele>1043.65</ele>
        <time>2022-03-28T10:10:31Z</time>
      </trkpt>
      <trkpt lat="45.42841" lon="2.83286">
        <ele>1042.97</ele>
        <time>2022-03-28T10:10:34Z</time>
      </trkpt>
      <trkpt lat="45.42828" lon="2.83285">
        <ele>1042.25</ele>
        <time>2022-03-28T10:10:38Z</time>
      </trkpt>
      <trkpt lat="45.42718" lon="2.83295">
        <ele>1039.09</ele>
        <time>2022-03-28T10:10:41Z</time>
      </trkpt>
      <trkpt lat="45.42688" lon="2.83305">
        <ele>1037.62</ele>
        <time>2022-03-28T10:10:44Z</time>
      </trkpt>
      <trkpt lat="45.42587" lon="2.83354">
        <ele>1031.85</ele>
        <time>2022-03-28T10:10:47Z</time>
      </trkpt>
      <trkpt lat="45.42555" lon="2.83364">
        <ele>1030.79</ele>
        <time>2022-03-28T10:10:50Z</time>
      </trkpt>
      <trkpt lat="45.42395" lon="2.83399">
        <ele>1025.08</ele>
        <time>2022-03-28T10:10:53Z</time>
      </trkpt>
      <trkpt lat="45.42374" lon="2.83409">
        <ele>1024.19</ele>
        <time>2022-03-28T10:10:57Z</time>
      </trkpt>
      <trkpt lat="45.42231" lon="2.83494">
        <ele>1015.56</ele>
        <time>2022-03-28T10:11:00Z</time>
      </trkpt>
      <trkpt lat="45.42175" lon="2.8352">
        <ele>1009.37</ele>
        <time>2022-03-28T10:11:03Z</time>
      </trkpt>
      <trkpt lat="45.42115" lon="2.83537">
        <ele>1009.71</ele>
        <time>2022-03-28T10:11:06Z</time>
      </trkpt>
      <trkpt lat="45.42067" lon="2.83543">
        <ele>1008.04</ele>
        <time>2022-03-28T10:11:09Z</time>
      </trkpt>
      <trkpt lat="45.41974" lon="2.83548">
        <ele>1002.82</ele>
        <time>2022-03-28T10:11:12Z</time>
      </trkpt>
      <trkpt lat="45.41932" lon="2.83547">
        <ele>1000.64</ele>
        <time>2022-03-28T10:11:16Z</time>
      </trkpt>
      <trkpt lat="45.41904" lon="2.83533">
        <ele>997.39</ele>
        <time>2022-03-28T10:11:19Z</time>
      </trkpt>
      <trkpt lat="45.41886" lon="2.83518">
        <ele>996.07</ele>
        <time>2022-03-28T10:11:22Z</time>
      </trkpt>
      <trkpt lat="45.41848" lon="2.83476">
        <ele>993.9</ele>
        <time>2022-03-28T10:11:25Z</time>
      </trkpt>
      <trkpt lat="45.41848" lon="2.83476">
        <ele>993.9</ele>
        <time>2022-03-28T10:11:25Z</time>
      </trkpt>
      <trkpt lat="45.41848" lon="2.83477">
        <ele>994.84</ele>
        <time>2022-03-28T10:11:25Z</time>
      </trkpt>
      <trkpt lat="45.41845" lon="2.83486">
        <ele>993.73</ele>
        <time>2022-03-28T10:11:29Z</time>
      </trkpt>
      <trkpt lat="45.41829" lon="2.83715">
        <ele>995.04</ele>
        <time>2022-03-28T10:11:33Z</time>
      </trkpt>
      <trkpt lat="45.41829" lon="2.83736">
        <ele>994.3</ele>
        <time>2022-03-28T10:11:37Z</time>
      </trkpt>
      <trkpt lat="45.41832" lon="2.83749">
        <ele>993.97</ele>
        <time>2022-03-28T10:11:40Z</time>
      </trkpt>
      <trkpt lat="45.41836" lon="2.83758">
        <ele>993.51</ele>
        <time>2022-03-28T10:11:44Z</time>
      </trkpt>
      <trkpt lat="45.42017" lon="2.84083">
        <ele>996.83</ele>
        <time>2022-03-28T10:11:48Z</time>
      </trkpt>
      <trkpt lat="45.42031" lon="2.84121">
        <ele>997.27</ele>
        <time>2022-03-28T10:11:52Z</time>
      </trkpt>
      <trkpt lat="45.42033" lon="2.84154">
        <ele>996.83</ele>
        <time>2022-03-28T10:11:55Z</time>
      </trkpt>
      <trkpt lat="45.42031" lon="2.84178">
        <ele>995.82</ele>
        <time>2022-03-28T10:11:59Z</time>
      </trkpt>
      <trkpt lat="45.42035" lon="2.84209">
        <ele>995.67</ele>
        <time>2022-03-28T10:12:03Z</time>
      </trkpt>
      <trkpt lat="45.4204" lon="2.84233">
        <ele>996.57</ele>
        <time>2022-03-28T10:12:07Z</time>
      </trkpt>
      <trkpt lat="45.42071" lon="2.84327">
        <ele>999.98</ele>
        <time>2022-03-28T10:12:10Z</time>
      </trkpt>
      <trkpt lat="45.42097" lon="2.84457">
        <ele>1004.89</ele>
        <time>2022-03-28T10:12:14Z</time>
      </trkpt>
      <trkpt lat="45.42096" lon="2.84521">
        <ele>1005.08</ele>
        <time>2022-03-28T10:12:18Z</time>
      </trkpt>
      <trkpt lat="45.421" lon="2.84564">
        <ele>1007.68</ele>
        <time>2022-03-28T10:12:22Z</time>
      </trkpt>
      <trkpt lat="45.42096" lon="2.84584">
        <ele>1008.39</ele>
        <time>2022-03-28T10:12:25Z</time>
      </trkpt>
      <trkpt lat="45.42085" lon="2.8461">
        <ele>1008.17</ele>
        <time>2022-03-28T10:12:29Z</time>
      </trkpt>
      <trkpt lat="45.42081" lon="2.84644">
        <ele>1006.98</ele>
        <time>2022-03-28T10:12:33Z</time>
      </trkpt>
      <trkpt lat="45.42077" lon="2.84933">
        <ele>1018.14</ele>
        <time>2022-03-28T10:12:37Z</time>
      </trkpt>
      <trkpt lat="45.42083" lon="2.84961">
        <ele>1019.52</ele>
        <time>2022-03-28T10:12:41Z</time>
      </trkpt>
      <trkpt lat="45.42099" lon="2.85003">
        <ele>1022.85</ele>
        <time>2022-03-28T10:12:44Z</time>
      </trkpt>
      <trkpt lat="45.42107" lon="2.8503">
        <ele>1024.1</ele>
        <time>2022-03-28T10:12:48Z</time>
      </trkpt>
      <trkpt lat="45.42142" lon="2.85196">
        <ele>1026.71</ele>
        <time>2022-03-28T10:12:52Z</time>
      </trkpt>
      <trkpt lat="45.42156" lon="2.85231">
        <ele>1028.26</ele>
        <time>2022-03-28T10:12:56Z</time>
      </trkpt>
      <trkpt lat="45.42183" lon="2.8528">
        <ele>1029.9</ele>
        <time>2022-03-28T10:12:59Z</time>
      </trkpt>
      <trkpt lat="45.42197" lon="2.85341">
        <ele>1030.98</ele>
        <time>2022-03-28T10:13:03Z</time>
      </trkpt>
      <trkpt lat="45.42217" lon="2.85388">
        <ele>1031.62</ele>
        <time>2022-03-28T10:13:07Z</time>
      </trkpt>
      <trkpt lat="45.42238" lon="2.8542">
        <ele>1032.36</ele>
        <time>2022-03-28T10:13:11Z</time>
      </trkpt>
      <trkpt lat="45.42384" lon="2.85558">
        <ele>1043.23</ele>
        <time>2022-03-28T10:13:14Z</time>
      </trkpt>
      <trkpt lat="45.42408" lon="2.85596">
        <ele>1045.79</ele>
        <time>2022-03-28T10:13:18Z</time>
      </trkpt>
      <trkpt lat="45.42484" lon="2.85771">
        <ele>1047.61</ele>
        <time>2022-03-28T10:13:22Z</time>
      </trkpt>
      <trkpt lat="45.42514" lon="2.85821">
        <ele>1050.45</ele>
        <time>2022-03-28T10:13:26Z</time>
      </trkpt>
      <trkpt lat="45.4255" lon="2.85864">
        <ele>1051.49</ele>
        <time>2022-03-28T10:13:29Z</time>
      </trkpt>
      <trkpt lat="45.4259" lon="2.85884">
        <ele>1056.07</ele>
        <time>2022-03-28T10:13:33Z</time>
      </trkpt>
      <trkpt lat="45.42601" lon="2.85898">
        <ele>1056.82</ele>
        <time>2022-03-28T10:13:37Z</time>
      </trkpt>
      <trkpt lat="45.42604" lon="2.85917">
        <ele>1057.03</ele>
        <time>2022-03-28T10:13:41Z</time>
      </trkpt>
      <trkpt lat="45.42604" lon="2.85939">
        <ele>1057.95</ele>
        <time>2022-03-28T10:13:44Z</time>
      </trkpt>
      <trkpt lat="45.42591" lon="2.85958">
        <ele>1057.81</ele>
        <time>2022-03-28T10:13:48Z</time>
      </trkpt>
      <trkpt lat="45.42479" lon="2.86069">
        <ele>1062.82</ele>
        <time>2022-03-28T10:13:52Z</time>
      </trkpt>
      <trkpt lat="45.42461" lon="2.86093">
        <ele>1063.1</ele>
        <time>2022-03-28T10:13:56Z</time>
      </trkpt>
      <trkpt lat="45.42437" lon="2.86155">
        <ele>1065.24</ele>
        <time>2022-03-28T10:14:00Z</time>
      </trkpt>
      <trkpt lat="45.42424" lon="2.86198">
        <ele>1066.76</ele>
        <time>2022-03-28T10:14:03Z</time>
      </trkpt>
      <trkpt lat="45.42421" lon="2.86232">
        <ele>1069.41</ele>
        <time>2022-03-28T10:14:07Z</time>
      </trkpt>
      <trkpt lat="45.42423" lon="2.86349">
        <ele>1073.98</ele>
        <time>2022-03-28T10:14:11Z</time>
      </trkpt>
      <trkpt lat="45.42433" lon="2.86395">
        <ele>1077.07</ele>
        <time>2022-03-28T10:14:15Z</time>
      </trkpt>
      <trkpt lat="45.42432" lon="2.86418">
        <ele>1077.74</ele>
        <time>2022-03-28T10:14:18Z</time>
      </trkpt>
      <trkpt lat="45.42423" lon="2.86475">
        <ele>1078.46</ele>
        <time>2022-03-28T10:14:22Z</time>
      </trkpt>
      <trkpt lat="45.42424" lon="2.86505">
        <ele>1078.85</ele>
        <time>2022-03-28T10:14:26Z</time>
      </trkpt>
      <trkpt lat="45.4243" lon="2.86531">
        <ele>1080.1</ele>
        <time>2022-03-28T10:14:30Z</time>
      </trkpt>
      <trkpt lat="45.42458" lon="2.86609">
        <ele>1087.38</ele>
        <time>2022-03-28T10:14:33Z</time>
      </trkpt>
      <trkpt lat="45.42466" lon="2.86639">
        <ele>1088.83</ele>
        <time>2022-03-28T10:14:37Z</time>
      </trkpt>
      <trkpt lat="45.42465" lon="2.86697">
        <ele>1089.52</ele>
        <time>2022-03-28T10:14:41Z</time>
      </trkpt>
      <trkpt lat="45.42488" lon="2.86864">
        <ele>1097.51</ele>
        <time>2022-03-28T10:14:45Z</time>
      </trkpt>
      <trkpt lat="45.42502" lon="2.8704">
        <ele>1105.77</ele>
        <time>2022-03-28T10:14:48Z</time>
      </trkpt>
      <trkpt lat="45.42507" lon="2.87061">
        <ele>1107.25</ele>
        <time>2022-03-28T10:14:52Z</time>
      </trkpt>
      <trkpt lat="45.42521" lon="2.87099">
        <ele>1108.95</ele>
        <time>2022-03-28T10:14:56Z</time>
      </trkpt>
      <trkpt lat="45.42521" lon="2.87116">
        <ele>1109.23</ele>
        <time>2022-03-28T10:15:00Z</time>
      </trkpt>
      <trkpt lat="45.42515" lon="2.87133">
        <ele>1109.98</ele>
        <time>2022-03-28T10:15:04Z</time>
      </trkpt>
      <trkpt lat="45.42509" lon="2.87143">
        <ele>1110.57</ele>
        <time>2022-03-28T10:15:07Z</time>
      </trkpt>
      <trkpt lat="45.42505" lon="2.87147">
        <ele>1110.71</ele>
        <time>2022-03-28T10:15:11Z</time>
      </trkpt>
      <trkpt lat="45.42493" lon="2.87152">
        <ele>1111.38</ele>
        <time>2022-03-28T10:15:15Z</time>
      </trkpt>
      <trkpt lat="45.42481" lon="2.8715">
        <ele>1112.19</ele>
        <time>2022-03-28T10:15:19Z</time>
      </trkpt>
      <trkpt lat="45.42446" lon="2.87097">
        <ele>1112.22</ele>
        <time>2022-03-28T10:15:22Z</time>
      </trkpt>
      <trkpt lat="45.42409" lon="2.87052">
        <ele>1115.09</ele>
        <time>2022-03-28T10:15:26Z</time>
      </trkpt>
      <trkpt lat="45.42394" lon="2.8703">
        <ele>1113.68</ele>
        <time>2022-03-28T10:15:30Z</time>
      </trkpt>
      <trkpt lat="45.42372" lon="2.86974">
        <ele>1113.66</ele>
        <time>2022-03-28T10:15:34Z</time>
      </trkpt>
      <trkpt lat="45.42354" lon="2.86947">
        <ele>1112.14</ele>
        <time>2022-03-28T10:15:37Z</time>
      </trkpt>
      <trkpt lat="45.42337" lon="2.86949">
        <ele>1111.81</ele>
        <time>2022-03-28T10:15:41Z</time>
      </trkpt>
      <trkpt lat="45.42325" lon="2.86994">
        <ele>1115.73</ele>
        <time>2022-03-28T10:15:45Z</time>
      </trkpt>
      <trkpt lat="45.42313" lon="2.87066">
        <ele>1120.1</ele>
        <time>2022-03-28T10:15:49Z</time>
      </trkpt>
      <trkpt lat="45.42303" lon="2.87111">
        <ele>1124.2</ele>
        <time>2022-03-28T10:15:52Z</time>
      </trkpt>
      <trkpt lat="45.42297" lon="2.87189">
        <ele>1126.86</ele>
        <time>2022-03-28T10:15:56Z</time>
      </trkpt>
      <trkpt lat="45.42293" lon="2.87221">
        <ele>1127.53</ele>
        <time>2022-03-28T10:16:00Z</time>
      </trkpt>
      <trkpt lat="45.42266" lon="2.87344">
        <ele>1134.92</ele>
        <time>2022-03-28T10:16:04Z</time>
      </trkpt>
      <trkpt lat="45.42258" lon="2.8737">
        <ele>1136.21</ele>
        <time>2022-03-28T10:16:07Z</time>
      </trkpt>
      <trkpt lat="45.42237" lon="2.87407">
        <ele>1137.5</ele>
        <time>2022-03-28T10:16:11Z</time>
      </trkpt>
      <trkpt lat="45.42232" lon="2.87443">
        <ele>1138.6</ele>
        <time>2022-03-28T10:16:15Z</time>
      </trkpt>
      <trkpt lat="45.42228" lon="2.8749">
        <ele>1139.96</ele>
        <time>2022-03-28T10:16:19Z</time>
      </trkpt>
      <trkpt lat="45.42223" lon="2.87515">
        <ele>1141.64</ele>
        <time>2022-03-28T10:16:23Z</time>
      </trkpt>
      <trkpt lat="45.42211" lon="2.87527">
        <ele>1142.91</ele>
        <time>2022-03-28T10:16:26Z</time>
      </trkpt>
      <trkpt lat="45.42077" lon="2.87635">
        <ele>1151.57</ele>
        <time>2022-03-28T10:16:30Z</time>
      </trkpt>
      <trkpt lat="45.42065" lon="2.87651">
        <ele>1152.97</ele>
        <time>2022-03-28T10:16:34Z</time>
      </trkpt>
      <trkpt lat="45.42054" lon="2.87669">
        <ele>1153.98</ele>
        <time>2022-03-28T10:16:38Z</time>
      </trkpt>
      <trkpt lat="45.42043" lon="2.87711">
        <ele>1154.81</ele>
        <time>2022-03-28T10:16:41Z</time>
      </trkpt>
      <trkpt lat="45.4203" lon="2.87801">
        <ele>1156.24</ele>
        <time>2022-03-28T10:16:45Z</time>
      </trkpt>
      <trkpt lat="45.41986" lon="2.87911">
        <ele>1162.61</ele>
        <time>2022-03-28T10:16:49Z</time>
      </trkpt>
      <trkpt lat="45.41976" lon="2.87927">
        <ele>1163.67</ele>
        <time>2022-03-28T10:16:53Z</time>
      </trkpt>
      <trkpt lat="45.41963" lon="2.87938">
        <ele>1164.22</ele>
        <time>2022-03-28T10:16:56Z</time>
      </trkpt>
      <trkpt lat="45.41779" lon="2.8804">
        <ele>1166.42</ele>
        <time>2022-03-28T10:17:00Z</time>
      </trkpt>
      <trkpt lat="45.41721" lon="2.88102">
        <ele>1170.19</ele>
        <time>2022-03-28T10:17:04Z</time>
      </trkpt>
      <trkpt lat="45.41683" lon="2.8818">
        <ele>1169.97</ele>
        <time>2022-03-28T10:17:08Z</time>
      </trkpt>
      <trkpt lat="45.41675" lon="2.88209">
        <ele>1170.41</ele>
        <time>2022-03-28T10:17:11Z</time>
      </trkpt>
      <trkpt lat="45.41671" lon="2.88289">
        <ele>1170.98</ele>
        <time>2022-03-28T10:17:15Z</time>
      </trkpt>
      <trkpt lat="45.41675" lon="2.88325">
        <ele>1169.67</ele>
        <time>2022-03-28T10:17:19Z</time>
      </trkpt>
      <trkpt lat="45.41688" lon="2.88358">
        <ele>1168.89</ele>
        <time>2022-03-28T10:17:23Z</time>
      </trkpt>
      <trkpt lat="45.41746" lon="2.88464">
        <ele>1167.48</ele>
        <time>2022-03-28T10:17:26Z</time>
      </trkpt>
      <trkpt lat="45.41805" lon="2.88553">
        <ele>1166.27</ele>
        <time>2022-03-28T10:17:30Z</time>
      </trkpt>
      <trkpt lat="45.41824" lon="2.88572">
        <ele>1167.03</ele>
        <time>2022-03-28T10:17:34Z</time>
      </trkpt>
      <trkpt lat="45.41867" lon="2.88633">
        <ele>1165.76</ele>
        <time>2022-03-28T10:17:38Z</time>
      </trkpt>
      <trkpt lat="45.41905" lon="2.88699">
        <ele>1166.34</ele>
        <time>2022-03-28T10:17:42Z</time>
      </trkpt>
      <trkpt lat="45.4192" lon="2.88729">
        <ele>1164.89</ele>
        <time>2022-03-28T10:17:45Z</time>
      </trkpt>
      <trkpt lat="45.41933" lon="2.88774">
        <ele>1163.7</ele>
        <time>2022-03-28T10:17:49Z</time>
      </trkpt>
      <trkpt lat="45.41941" lon="2.8883">
        <ele>1162.56</ele>
        <time>2022-03-28T10:17:53Z</time>
      </trkpt>
      <trkpt lat="45.41942" lon="2.88889">
        <ele>1161.47</ele>
        <time>2022-03-28T10:17:57Z</time>
      </trkpt>
      <trkpt lat="45.41931" lon="2.88966">
        <ele>1160.4</ele>
        <time>2022-03-28T10:18:00Z</time>
      </trkpt>
      <trkpt lat="45.41932" lon="2.89">
        <ele>1160.66</ele>
        <time>2022-03-28T10:18:04Z</time>
      </trkpt>
      <trkpt lat="45.41938" lon="2.89031">
        <ele>1160.21</ele>
        <time>2022-03-28T10:18:08Z</time>
      </trkpt>
      <trkpt lat="45.42" lon="2.89229">
        <ele>1158.29</ele>
        <time>2022-03-28T10:18:12Z</time>
      </trkpt>
      <trkpt lat="45.42005" lon="2.89257">
        <ele>1155.99</ele>
        <time>2022-03-28T10:18:15Z</time>
      </trkpt>
      <trkpt lat="45.42002" lon="2.89399">
        <ele>1155.84</ele>
        <time>2022-03-28T10:18:19Z</time>
      </trkpt>
      <trkpt lat="45.41998" lon="2.89523">
        <ele>1155.52</ele>
        <time>2022-03-28T10:18:23Z</time>
      </trkpt>
      <trkpt lat="45.41998" lon="2.89523">
        <ele>1155.52</ele>
        <time>2022-03-28T10:18:23Z</time>
      </trkpt>
      <trkpt lat="45.41997" lon="2.89535">
        <ele>1155.21</ele>
        <time>2022-03-28T10:18:24Z</time>
      </trkpt>
      <trkpt lat="45.41858" lon="2.89377">
        <ele>1153.54</ele>
        <time>2022-03-28T10:18:26Z</time>
      </trkpt>
      <trkpt lat="45.41831" lon="2.89361">
        <ele>1151.13</ele>
        <time>2022-03-28T10:18:28Z</time>
      </trkpt>
      <trkpt lat="45.41811" lon="2.89354">
        <ele>1151.41</ele>
        <time>2022-03-28T10:18:31Z</time>
      </trkpt>
      <trkpt lat="45.41782" lon="2.89357">
        <ele>1152.39</ele>
        <time>2022-03-28T10:18:33Z</time>
      </trkpt>
      <trkpt lat="45.4176" lon="2.89366">
        <ele>1151.73</ele>
        <time>2022-03-28T10:18:36Z</time>
      </trkpt>
      <trkpt lat="45.41705" lon="2.89418">
        <ele>1151.64</ele>
        <time>2022-03-28T10:18:38Z</time>
      </trkpt>
      <trkpt lat="45.41679" lon="2.8943">
        <ele>1151.41</ele>
        <time>2022-03-28T10:18:40Z</time>
      </trkpt>
      <trkpt lat="45.41662" lon="2.89432">
        <ele>1151.58</ele>
        <time>2022-03-28T10:18:43Z</time>
      </trkpt>
      <trkpt lat="45.41638" lon="2.89421">
        <ele>1150.4</ele>
        <time>2022-03-28T10:18:45Z</time>
      </trkpt>
      <trkpt lat="45.41525" lon="2.89339">
        <ele>1145.8</ele>
        <time>2022-03-28T10:18:47Z</time>
      </trkpt>
      <trkpt lat="45.41511" lon="2.89327">
        <ele>1145.45</ele>
        <time>2022-03-28T10:18:50Z</time>
      </trkpt>
      <trkpt lat="45.41502" lon="2.89314">
        <ele>1144.93</ele>
        <time>2022-03-28T10:18:52Z</time>
      </trkpt>
      <trkpt lat="45.41495" lon="2.893">
        <ele>1144.94</ele>
        <time>2022-03-28T10:18:55Z</time>
      </trkpt>
      <trkpt lat="45.41491" lon="2.89286">
        <ele>1145.19</ele>
        <time>2022-03-28T10:18:57Z</time>
      </trkpt>
      <trkpt lat="45.41488" lon="2.89269">
        <ele>1144.91</ele>
        <time>2022-03-28T10:18:59Z</time>
      </trkpt>
      <trkpt lat="45.41484" lon="2.89198">
        <ele>1142.5</ele>
        <time>2022-03-28T10:19:02Z</time>
      </trkpt>
      <trkpt lat="45.4148" lon="2.89172">
        <ele>1141.53</ele>
        <time>2022-03-28T10:19:04Z</time>
      </trkpt>
      <trkpt lat="45.41473" lon="2.89151">
        <ele>1140.73</ele>
        <time>2022-03-28T10:19:06Z</time>
      </trkpt>
      <trkpt lat="45.41459" lon="2.89127">
        <ele>1140.24</ele>
        <time>2022-03-28T10:19:09Z</time>
      </trkpt>
      <trkpt lat="45.41442" lon="2.89107">
        <ele>1139.61</ele>
        <time>2022-03-28T10:19:11Z</time>
      </trkpt>
      <trkpt lat="45.41363" lon="2.8904">
        <ele>1137.91</ele>
        <time>2022-03-28T10:19:14Z</time>
      </trkpt>
      <trkpt lat="45.41345" lon="2.89028">
        <ele>1137.9</ele>
        <time>2022-03-28T10:19:16Z</time>
      </trkpt>
      <trkpt lat="45.41309" lon="2.89019">
        <ele>1138.57</ele>
        <time>2022-03-28T10:19:18Z</time>
      </trkpt>
      <trkpt lat="45.41254" lon="2.8902">
        <ele>1136.79</ele>
        <time>2022-03-28T10:19:21Z</time>
      </trkpt>
      <trkpt lat="45.4124" lon="2.89016">
        <ele>1136.11</ele>
        <time>2022-03-28T10:19:23Z</time>
      </trkpt>
      <trkpt lat="45.41229" lon="2.89008">
        <ele>1135.55</ele>
        <time>2022-03-28T10:19:25Z</time>
      </trkpt>
      <trkpt lat="45.41205" lon="2.88979">
        <ele>1132</ele>
        <time>2022-03-28T10:19:28Z</time>
      </trkpt>
      <trkpt lat="45.41191" lon="2.88968">
        <ele>1129.99</ele>
        <time>2022-03-28T10:19:30Z</time>
      </trkpt>
      <trkpt lat="45.41178" lon="2.88964">
        <ele>1128.16</ele>
        <time>2022-03-28T10:19:33Z</time>
      </trkpt>
      <trkpt lat="45.41161" lon="2.88963">
        <ele>1126.41</ele>
        <time>2022-03-28T10:19:35Z</time>
      </trkpt>
      <trkpt lat="45.41145" lon="2.88966">
        <ele>1125.13</ele>
        <time>2022-03-28T10:19:37Z</time>
      </trkpt>
      <trkpt lat="45.41106" lon="2.88986">
        <ele>1123.59</ele>
        <time>2022-03-28T10:19:40Z</time>
      </trkpt>
      <trkpt lat="45.41079" lon="2.88991">
        <ele>1122.03</ele>
        <time>2022-03-28T10:19:42Z</time>
      </trkpt>
      <trkpt lat="45.41013" lon="2.88997">
        <ele>1119.32</ele>
        <time>2022-03-28T10:19:44Z</time>
      </trkpt>
      <trkpt lat="45.40995" lon="2.89001">
        <ele>1119.03</ele>
        <time>2022-03-28T10:19:47Z</time>
      </trkpt>
      <trkpt lat="45.40975" lon="2.89009">
        <ele>1119.03</ele>
        <time>2022-03-28T10:19:49Z</time>
      </trkpt>
      <trkpt lat="45.40905" lon="2.89048">
        <ele>1116.45</ele>
        <time>2022-03-28T10:19:52Z</time>
      </trkpt>
      <trkpt lat="45.40886" lon="2.89053">
        <ele>1115.7</ele>
        <time>2022-03-28T10:19:54Z</time>
      </trkpt>
      <trkpt lat="45.40869" lon="2.89051">
        <ele>1114.39</ele>
        <time>2022-03-28T10:19:56Z</time>
      </trkpt>
      <trkpt lat="45.40848" lon="2.89038">
        <ele>1113.99</ele>
        <time>2022-03-28T10:19:59Z</time>
      </trkpt>
      <trkpt lat="45.40788" lon="2.88973">
        <ele>1111.06</ele>
        <time>2022-03-28T10:20:01Z</time>
      </trkpt>
      <trkpt lat="45.40773" lon="2.88964">
        <ele>1110.24</ele>
        <time>2022-03-28T10:20:03Z</time>
      </trkpt>
      <trkpt lat="45.40755" lon="2.8896">
        <ele>1109.64</ele>
        <time>2022-03-28T10:20:06Z</time>
      </trkpt>
      <trkpt lat="45.40737" lon="2.8896">
        <ele>1109.78</ele>
        <time>2022-03-28T10:20:08Z</time>
      </trkpt>
      <trkpt lat="45.40683" lon="2.88971">
        <ele>1109.98</ele>
        <time>2022-03-28T10:20:11Z</time>
      </trkpt>
      <trkpt lat="45.40658" lon="2.88973">
        <ele>1110.02</ele>
        <time>2022-03-28T10:20:13Z</time>
      </trkpt>
      <trkpt lat="45.40635" lon="2.88968">
        <ele>1109.95</ele>
        <time>2022-03-28T10:20:15Z</time>
      </trkpt>
      <trkpt lat="45.40614" lon="2.8896">
        <ele>1109.65</ele>
        <time>2022-03-28T10:20:18Z</time>
      </trkpt>
      <trkpt lat="45.40569" lon="2.8893">
        <ele>1109.48</ele>
        <time>2022-03-28T10:20:20Z</time>
      </trkpt>
      <trkpt lat="45.40551" lon="2.88921">
        <ele>1109.85</ele>
        <time>2022-03-28T10:20:23Z</time>
      </trkpt>
      <trkpt lat="45.40534" lon="2.88916">
        <ele>1110.49</ele>
        <time>2022-03-28T10:20:25Z</time>
      </trkpt>
      <trkpt lat="45.40519" lon="2.88916">
        <ele>1110.98</ele>
        <time>2022-03-28T10:20:27Z</time>
      </trkpt>
      <trkpt lat="45.40501" lon="2.8892">
        <ele>1111.4</ele>
        <time>2022-03-28T10:20:30Z</time>
      </trkpt>
      <trkpt lat="45.40431" lon="2.88967">
        <ele>1108.65</ele>
        <time>2022-03-28T10:20:32Z</time>
      </trkpt>
      <trkpt lat="45.40328" lon="2.89007">
        <ele>1103.92</ele>
        <time>2022-03-28T10:20:34Z</time>
      </trkpt>
      <trkpt lat="45.40235" lon="2.89013">
        <ele>1099.65</ele>
        <time>2022-03-28T10:20:37Z</time>
      </trkpt>
      <trkpt lat="45.40144" lon="2.89026">
        <ele>1092.4</ele>
        <time>2022-03-28T10:20:39Z</time>
      </trkpt>
      <trkpt lat="45.40126" lon="2.89035">
        <ele>1091.35</ele>
        <time>2022-03-28T10:20:42Z</time>
      </trkpt>
      <trkpt lat="45.40123" lon="2.89039">
        <ele>1091.1</ele>
        <time>2022-03-28T10:20:44Z</time>
      </trkpt>
      <trkpt lat="45.40123" lon="2.89039">
        <ele>1091.1</ele>
        <time>2022-03-28T10:20:44Z</time>
      </trkpt>
      <trkpt lat="45.40111" lon="2.89051">
        <ele>1090.85</ele>
        <time>2022-03-28T10:20:45Z</time>
      </trkpt>
      <trkpt lat="45.40089" lon="2.89096">
        <ele>1089.18</ele>
        <time>2022-03-28T10:20:46Z</time>
      </trkpt>
      <trkpt lat="45.40077" lon="2.89113">
        <ele>1088.29</ele>
        <time>2022-03-28T10:20:47Z</time>
      </trkpt>
      <trkpt lat="45.40068" lon="2.8912">
        <ele>1087.49</ele>
        <time>2022-03-28T10:20:49Z</time>
      </trkpt>
      <trkpt lat="45.40058" lon="2.89124">
        <ele>1086.71</ele>
        <time>2022-03-28T10:20:50Z</time>
      </trkpt>
      <trkpt lat="45.40084" lon="2.89257">
        <ele>1092.33</ele>
        <time>2022-03-28T10:20:52Z</time>
      </trkpt>
      <trkpt lat="45.40094" lon="2.89286">
        <ele>1094.53</ele>
        <time>2022-03-28T10:20:55Z</time>
      </trkpt>
      <trkpt lat="45.40119" lon="2.89333">
        <ele>1096.92</ele>
        <time>2022-03-28T10:20:57Z</time>
      </trkpt>
      <trkpt lat="45.40154" lon="2.89436">
        <ele>1098.63</ele>
        <time>2022-03-28T10:21:00Z</time>
      </trkpt>
      <trkpt lat="45.40171" lon="2.89474">
        <ele>1099.92</ele>
        <time>2022-03-28T10:21:02Z</time>
      </trkpt>
      <trkpt lat="45.40186" lon="2.89535">
        <ele>1101.08</ele>
        <time>2022-03-28T10:21:04Z</time>
      </trkpt>
      <trkpt lat="45.40205" lon="2.89578">
        <ele>1103.63</ele>
        <time>2022-03-28T10:21:07Z</time>
      </trkpt>
      <trkpt lat="45.40224" lon="2.89697">
        <ele>1105.23</ele>
        <time>2022-03-28T10:21:09Z</time>
      </trkpt>
      <trkpt lat="45.40229" lon="2.89723">
        <ele>1106.22</ele>
        <time>2022-03-28T10:21:12Z</time>
      </trkpt>
      <trkpt lat="45.40249" lon="2.89756">
        <ele>1107.64</ele>
        <time>2022-03-28T10:21:14Z</time>
      </trkpt>
      <trkpt lat="45.40256" lon="2.89774">
        <ele>1108.37</ele>
        <time>2022-03-28T10:21:17Z</time>
      </trkpt>
      <trkpt lat="45.40272" lon="2.89834">
        <ele>1112.3</ele>
        <time>2022-03-28T10:21:19Z</time>
      </trkpt>
      <trkpt lat="45.40283" lon="2.89854">
        <ele>1111.54</ele>
        <time>2022-03-28T10:21:21Z</time>
      </trkpt>
      <trkpt lat="45.4032" lon="2.89894">
        <ele>1114.37</ele>
        <time>2022-03-28T10:21:24Z</time>
      </trkpt>
      <trkpt lat="45.40327" lon="2.89912">
        <ele>1115.05</ele>
        <time>2022-03-28T10:21:26Z</time>
      </trkpt>
      <trkpt lat="45.40331" lon="2.89938">
        <ele>1114.92</ele>
        <time>2022-03-28T10:21:29Z</time>
      </trkpt>
      <trkpt lat="45.40332" lon="2.89979">
        <ele>1114.63</ele>
        <time>2022-03-28T10:21:31Z</time>
      </trkpt>
      <trkpt lat="45.40329" lon="2.89997">
        <ele>1113.81</ele>
        <time>2022-03-28T10:21:34Z</time>
      </trkpt>
      <trkpt lat="45.40307" lon="2.90059">
        <ele>1113.04</ele>
        <time>2022-03-28T10:21:36Z</time>
      </trkpt>
      <trkpt lat="45.40303" lon="2.90077">
        <ele>1114.16</ele>
        <time>2022-03-28T10:21:39Z</time>
      </trkpt>
      <trkpt lat="45.403" lon="2.90096">
        <ele>1115.28</ele>
        <time>2022-03-28T10:21:41Z</time>
      </trkpt>
      <trkpt lat="45.40298" lon="2.90136">
        <ele>1116.42</ele>
        <time>2022-03-28T10:21:43Z</time>
      </trkpt>
      <trkpt lat="45.40296" lon="2.90341">
        <ele>1122.81</ele>
        <time>2022-03-28T10:21:46Z</time>
      </trkpt>
      <trkpt lat="45.40297" lon="2.90368">
        <ele>1124.96</ele>
        <time>2022-03-28T10:21:48Z</time>
      </trkpt>
      <trkpt lat="45.40302" lon="2.90393">
        <ele>1126.17</ele>
        <time>2022-03-28T10:21:51Z</time>
      </trkpt>
      <trkpt lat="45.40308" lon="2.90406">
        <ele>1125.89</ele>
        <time>2022-03-28T10:21:53Z</time>
      </trkpt>
      <trkpt lat="45.40313" lon="2.90429">
        <ele>1126.74</ele>
        <time>2022-03-28T10:21:56Z</time>
      </trkpt>
      <trkpt lat="45.40313" lon="2.9044">
        <ele>1127.42</ele>
        <time>2022-03-28T10:21:58Z</time>
      </trkpt>
      <trkpt lat="45.40306" lon="2.90458">
        <ele>1128.41</ele>
        <time>2022-03-28T10:22:00Z</time>
      </trkpt>
      <trkpt lat="45.40299" lon="2.90468">
        <ele>1128.82</ele>
        <time>2022-03-28T10:22:03Z</time>
      </trkpt>
      <trkpt lat="45.40283" lon="2.90478">
        <ele>1129.84</ele>
        <time>2022-03-28T10:22:05Z</time>
      </trkpt>
      <trkpt lat="45.40167" lon="2.9052">
        <ele>1133.03</ele>
        <time>2022-03-28T10:22:08Z</time>
      </trkpt>
      <trkpt lat="45.40153" lon="2.90528">
        <ele>1132.89</ele>
        <time>2022-03-28T10:22:10Z</time>
      </trkpt>
      <trkpt lat="45.40145" lon="2.90535">
        <ele>1132.46</ele>
        <time>2022-03-28T10:22:13Z</time>
      </trkpt>
      <trkpt lat="45.4014" lon="2.90543">
        <ele>1131.68</ele>
        <time>2022-03-28T10:22:15Z</time>
      </trkpt>
      <trkpt lat="45.40126" lon="2.9059">
        <ele>1129.3</ele>
        <time>2022-03-28T10:22:18Z</time>
      </trkpt>
      <trkpt lat="45.40115" lon="2.90617">
        <ele>1130.45</ele>
        <time>2022-03-28T10:22:20Z</time>
      </trkpt>
      <trkpt lat="45.40099" lon="2.90637">
        <ele>1132.27</ele>
        <time>2022-03-28T10:22:22Z</time>
      </trkpt>
      <trkpt lat="45.40083" lon="2.90644">
        <ele>1134.4</ele>
        <time>2022-03-28T10:22:25Z</time>
      </trkpt>
      <trkpt lat="45.40052" lon="2.90645">
        <ele>1137.39</ele>
        <time>2022-03-28T10:22:27Z</time>
      </trkpt>
      <trkpt lat="45.40035" lon="2.90649">
        <ele>1140.18</ele>
        <time>2022-03-28T10:22:30Z</time>
      </trkpt>
      <trkpt lat="45.39981" lon="2.90686">
        <ele>1143.4</ele>
        <time>2022-03-28T10:22:32Z</time>
      </trkpt>
      <trkpt lat="45.39925" lon="2.90708">
        <ele>1146.94</ele>
        <time>2022-03-28T10:22:35Z</time>
      </trkpt>
      <trkpt lat="45.39907" lon="2.90718">
        <ele>1148.95</ele>
        <time>2022-03-28T10:22:37Z</time>
      </trkpt>
      <trkpt lat="45.39896" lon="2.90728">
        <ele>1150.25</ele>
        <time>2022-03-28T10:22:39Z</time>
      </trkpt>
      <trkpt lat="45.39881" lon="2.90744">
        <ele>1151.7</ele>
        <time>2022-03-28T10:22:42Z</time>
      </trkpt>
      <trkpt lat="45.39859" lon="2.9078">
        <ele>1152.42</ele>
        <time>2022-03-28T10:22:44Z</time>
      </trkpt>
      <trkpt lat="45.3985" lon="2.90797">
        <ele>1153.73</ele>
        <time>2022-03-28T10:22:47Z</time>
      </trkpt>
      <trkpt lat="45.39846" lon="2.90809">
        <ele>1154.16</ele>
        <time>2022-03-28T10:22:49Z</time>
      </trkpt>
      <trkpt lat="45.39843" lon="2.90834">
        <ele>1155.7</ele>
        <time>2022-03-28T10:22:52Z</time>
      </trkpt>
      <trkpt lat="45.39843" lon="2.90876">
        <ele>1157.18</ele>
        <time>2022-03-28T10:22:54Z</time>
      </trkpt>
      <trkpt lat="45.39844" lon="2.90887">
        <ele>1157.36</ele>
        <time>2022-03-28T10:22:57Z</time>
      </trkpt>
      <trkpt lat="45.3986" lon="2.90928">
        <ele>1158.97</ele>
        <time>2022-03-28T10:22:59Z</time>
      </trkpt>
      <trkpt lat="45.39861" lon="2.90949">
        <ele>1159.19</ele>
        <time>2022-03-28T10:23:01Z</time>
      </trkpt>
      <trkpt lat="45.39852" lon="2.9099">
        <ele>1160.17</ele>
        <time>2022-03-28T10:23:04Z</time>
      </trkpt>
      <trkpt lat="45.39852" lon="2.91">
        <ele>1160.65</ele>
        <time>2022-03-28T10:23:06Z</time>
      </trkpt>
      <trkpt lat="45.39857" lon="2.91032">
        <ele>1163.02</ele>
        <time>2022-03-28T10:23:09Z</time>
      </trkpt>
      <trkpt lat="45.39857" lon="2.91043">
        <ele>1163.46</ele>
        <time>2022-03-28T10:23:11Z</time>
      </trkpt>
      <trkpt lat="45.39846" lon="2.91094">
        <ele>1163.85</ele>
        <time>2022-03-28T10:23:14Z</time>
      </trkpt>
      <trkpt lat="45.39846" lon="2.91104">
        <ele>1164.2</ele>
        <time>2022-03-28T10:23:16Z</time>
      </trkpt>
      <trkpt lat="45.39851" lon="2.91121">
        <ele>1165.33</ele>
        <time>2022-03-28T10:23:18Z</time>
      </trkpt>
      <trkpt lat="45.39866" lon="2.91148">
        <ele>1168.33</ele>
        <time>2022-03-28T10:23:21Z</time>
      </trkpt>
      <trkpt lat="45.39882" lon="2.91185">
        <ele>1171.44</ele>
        <time>2022-03-28T10:23:23Z</time>
      </trkpt>
      <trkpt lat="45.39911" lon="2.91277">
        <ele>1171</ele>
        <time>2022-03-28T10:23:26Z</time>
      </trkpt>
      <trkpt lat="45.39914" lon="2.9129">
        <ele>1171.4</ele>
        <time>2022-03-28T10:23:28Z</time>
      </trkpt>
      <trkpt lat="45.39915" lon="2.91304">
        <ele>1171.86</ele>
        <time>2022-03-28T10:23:31Z</time>
      </trkpt>
      <trkpt lat="45.3991" lon="2.91327">
        <ele>1173.15</ele>
        <time>2022-03-28T10:23:33Z</time>
      </trkpt>
      <trkpt lat="45.39874" lon="2.91405">
        <ele>1176.04</ele>
        <time>2022-03-28T10:23:36Z</time>
      </trkpt>
      <trkpt lat="45.39867" lon="2.9142">
        <ele>1176.43</ele>
        <time>2022-03-28T10:23:38Z</time>
      </trkpt>
      <trkpt lat="45.39849" lon="2.91458">
        <ele>1176.49</ele>
        <time>2022-03-28T10:23:40Z</time>
      </trkpt>
      <trkpt lat="45.39831" lon="2.91492">
        <ele>1176.52</ele>
        <time>2022-03-28T10:23:43Z</time>
      </trkpt>
      <trkpt lat="45.39713" lon="2.91655">
        <ele>1183.51</ele>
        <time>2022-03-28T10:23:45Z</time>
      </trkpt>
      <trkpt lat="45.39694" lon="2.91675">
        <ele>1184.71</ele>
        <time>2022-03-28T10:23:48Z</time>
      </trkpt>
      <trkpt lat="45.39679" lon="2.91682">
        <ele>1184.68</ele>
        <time>2022-03-28T10:23:50Z</time>
      </trkpt>
      <trkpt lat="45.3959" lon="2.91708">
        <ele>1185.35</ele>
        <time>2022-03-28T10:23:53Z</time>
      </trkpt>
      <trkpt lat="45.3958" lon="2.91713">
        <ele>1185.05</ele>
        <time>2022-03-28T10:23:55Z</time>
      </trkpt>
      <trkpt lat="45.39566" lon="2.91727">
        <ele>1184.45</ele>
        <time>2022-03-28T10:23:57Z</time>
      </trkpt>
      <trkpt lat="45.39544" lon="2.91774">
        <ele>1183.52</ele>
        <time>2022-03-28T10:24:00Z</time>
      </trkpt>
      <trkpt lat="45.3942" lon="2.92063">
        <ele>1188.76</ele>
        <time>2022-03-28T10:24:02Z</time>
      </trkpt>
      <trkpt lat="45.39411" lon="2.92079">
        <ele>1189.41</ele>
        <time>2022-03-28T10:24:05Z</time>
      </trkpt>
      <trkpt lat="45.39404" lon="2.92089">
        <ele>1189.94</ele>
        <time>2022-03-28T10:24:07Z</time>
      </trkpt>
      <trkpt lat="45.39395" lon="2.92096">
        <ele>1190.56</ele>
        <time>2022-03-28T10:24:10Z</time>
      </trkpt>
      <trkpt lat="45.3937" lon="2.92111">
        <ele>1191.02</ele>
        <time>2022-03-28T10:24:12Z</time>
      </trkpt>
      <trkpt lat="45.39066" lon="2.92263">
        <ele>1197.65</ele>
        <time>2022-03-28T10:24:15Z</time>
      </trkpt>
      <trkpt lat="45.3903" lon="2.92271">
        <ele>1200.35</ele>
        <time>2022-03-28T10:24:17Z</time>
      </trkpt>
      <trkpt lat="45.38943" lon="2.92277">
        <ele>1206.16</ele>
        <time>2022-03-28T10:24:19Z</time>
      </trkpt>
      <trkpt lat="45.38923" lon="2.92285">
        <ele>1205.48</ele>
        <time>2022-03-28T10:24:22Z</time>
      </trkpt>
      <trkpt lat="45.38913" lon="2.92292">
        <ele>1204.81</ele>
        <time>2022-03-28T10:24:24Z</time>
      </trkpt>
      <trkpt lat="45.38877" lon="2.92328">
        <ele>1204.15</ele>
        <time>2022-03-28T10:24:27Z</time>
      </trkpt>
      <trkpt lat="45.38866" lon="2.92337">
        <ele>1205.68</ele>
        <time>2022-03-28T10:24:29Z</time>
      </trkpt>
      <trkpt lat="45.38864" lon="2.92328">
        <ele>1206.71</ele>
        <time>2022-03-28T10:24:31Z</time>
      </trkpt>
      <trkpt lat="45.38873" lon="2.92297">
        <ele>1208.69</ele>
        <time>2022-03-28T10:24:33Z</time>
      </trkpt>
      <trkpt lat="45.38873" lon="2.92285">
        <ele>1210.52</ele>
        <time>2022-03-28T10:24:35Z</time>
      </trkpt>
      <trkpt lat="45.3887" lon="2.92265">
        <ele>1214.04</ele>
        <time>2022-03-28T10:24:37Z</time>
      </trkpt>
      <trkpt lat="45.38865" lon="2.92257">
        <ele>1215.74</ele>
        <time>2022-03-28T10:24:39Z</time>
      </trkpt>
      <trkpt lat="45.38858" lon="2.9225">
        <ele>1216.91</ele>
        <time>2022-03-28T10:24:41Z</time>
      </trkpt>
      <trkpt lat="45.38842" lon="2.92241">
        <ele>1217.18</ele>
        <time>2022-03-28T10:24:43Z</time>
      </trkpt>
      <trkpt lat="45.38843" lon="2.92234">
        <ele>1217.86</ele>
        <time>2022-03-28T10:24:44Z</time>
      </trkpt>
      <trkpt lat="45.38848" lon="2.92226">
        <ele>1218.65</ele>
        <time>2022-03-28T10:24:46Z</time>
      </trkpt>
      <trkpt lat="45.38851" lon="2.92214">
        <ele>1219.67</ele>
        <time>2022-03-28T10:24:48Z</time>
      </trkpt>
      <trkpt lat="45.38851" lon="2.922">
        <ele>1220.85</ele>
        <time>2022-03-28T10:24:50Z</time>
      </trkpt>
      <trkpt lat="45.38848" lon="2.92187">
        <ele>1221.89</ele>
        <time>2022-03-28T10:24:52Z</time>
      </trkpt>
      <trkpt lat="45.38842" lon="2.92175">
        <ele>1222.6</ele>
        <time>2022-03-28T10:24:54Z</time>
      </trkpt>
      <trkpt lat="45.3883" lon="2.92167">
        <ele>1222.98</ele>
        <time>2022-03-28T10:24:56Z</time>
      </trkpt>
      <trkpt lat="45.38812" lon="2.92159">
        <ele>1223.55</ele>
        <time>2022-03-28T10:24:58Z</time>
      </trkpt>
      <trkpt lat="45.38804" lon="2.92152">
        <ele>1224.18</ele>
        <time>2022-03-28T10:25:00Z</time>
      </trkpt>
      <trkpt lat="45.38804" lon="2.92152">
        <ele>1224.18</ele>
        <time>2022-03-28T10:25:00Z</time>
      </trkpt>
      <trkpt lat="45.38812" lon="2.92159">
        <ele>1223.55</ele>
        <time>2022-03-28T10:25:02Z</time>
      </trkpt>
      <trkpt lat="45.3883" lon="2.92167">
        <ele>1222.98</ele>
        <time>2022-03-28T10:25:04Z</time>
      </trkpt>
      <trkpt lat="45.38842" lon="2.92175">
        <ele>1222.6</ele>
        <time>2022-03-28T10:25:05Z</time>
      </trkpt>
      <trkpt lat="45.38848" lon="2.92187">
        <ele>1221.89</ele>
        <time>2022-03-28T10:25:07Z</time>
      </trkpt>
      <trkpt lat="45.38851" lon="2.922">
        <ele>1220.85</ele>
        <time>2022-03-28T10:25:09Z</time>
      </trkpt>
      <trkpt lat="45.38851" lon="2.92214">
        <ele>1219.67</ele>
        <time>2022-03-28T10:25:11Z</time>
      </trkpt>
      <trkpt lat="45.38848" lon="2.92226">
        <ele>1218.65</ele>
        <time>2022-03-28T10:25:13Z</time>
      </trkpt>
      <trkpt lat="45.38843" lon="2.92234">
        <ele>1217.86</ele>
        <time>2022-03-28T10:25:15Z</time>
      </trkpt>
      <trkpt lat="45.38842" lon="2.92241">
        <ele>1217.18</ele>
        <time>2022-03-28T10:25:17Z</time>
      </trkpt>
      <trkpt lat="45.38858" lon="2.9225">
        <ele>1216.91</ele>
        <time>2022-03-28T10:25:19Z</time>
      </trkpt>
      <trkpt lat="45.38865" lon="2.92257">
        <ele>1215.74</ele>
        <time>2022-03-28T10:25:21Z</time>
      </trkpt>
      <trkpt lat="45.3887" lon="2.92265">
        <ele>1214.04</ele>
        <time>2022-03-28T10:25:23Z</time>
      </trkpt>
      <trkpt lat="45.38873" lon="2.92285">
        <ele>1210.52</ele>
        <time>2022-03-28T10:25:24Z</time>
      </trkpt>
      <trkpt lat="45.38873" lon="2.92297">
        <ele>1208.69</ele>
        <time>2022-03-28T10:25:26Z</time>
      </trkpt>
      <trkpt lat="45.38864" lon="2.92328">
        <ele>1206.71</ele>
        <time>2022-03-28T10:25:28Z</time>
      </trkpt>
      <trkpt lat="45.38866" lon="2.92337">
        <ele>1205.68</ele>
        <time>2022-03-28T10:25:30Z</time>
      </trkpt>
      <trkpt lat="45.38849" lon="2.92363">
        <ele>1205.2</ele>
        <time>2022-03-28T10:25:32Z</time>
      </trkpt>
      <trkpt lat="45.38846" lon="2.9237">
        <ele>1204.98</ele>
        <time>2022-03-28T10:25:35Z</time>
      </trkpt>
      <trkpt lat="45.38846" lon="2.92377">
        <ele>1204.44</ele>
        <time>2022-03-28T10:25:37Z</time>
      </trkpt>
      <trkpt lat="45.38847" lon="2.9239">
        <ele>1203.5</ele>
        <time>2022-03-28T10:25:39Z</time>
      </trkpt>
      <trkpt lat="45.38856" lon="2.92411">
        <ele>1203.17</ele>
        <time>2022-03-28T10:25:41Z</time>
      </trkpt>
      <trkpt lat="45.38863" lon="2.92422">
        <ele>1203.45</ele>
        <time>2022-03-28T10:25:43Z</time>
      </trkpt>
      <trkpt lat="45.38873" lon="2.92428">
        <ele>1204.26</ele>
        <time>2022-03-28T10:25:45Z</time>
      </trkpt>
      <trkpt lat="45.3888" lon="2.92427">
        <ele>1204.45</ele>
        <time>2022-03-28T10:25:48Z</time>
      </trkpt>
      <trkpt lat="45.389" lon="2.92415">
        <ele>1204.72</ele>
        <time>2022-03-28T10:25:50Z</time>
      </trkpt>
      <trkpt lat="45.38908" lon="2.92411">
        <ele>1205.2</ele>
        <time>2022-03-28T10:25:52Z</time>
      </trkpt>
      <trkpt lat="45.38916" lon="2.92411">
        <ele>1205.7</ele>
        <time>2022-03-28T10:25:54Z</time>
      </trkpt>
      <trkpt lat="45.38932" lon="2.92416">
        <ele>1207.07</ele>
        <time>2022-03-28T10:25:56Z</time>
      </trkpt>
      <trkpt lat="45.38992" lon="2.92456">
        <ele>1209.83</ele>
        <time>2022-03-28T10:25:58Z</time>
      </trkpt>
      <trkpt lat="45.39019" lon="2.92484">
        <ele>1211.18</ele>
        <time>2022-03-28T10:26:01Z</time>
      </trkpt>
      <trkpt lat="45.39134" lon="2.92633">
        <ele>1215.82</ele>
        <time>2022-03-28T10:26:03Z</time>
      </trkpt>
      <trkpt lat="45.39196" lon="2.92697">
        <ele>1211.33</ele>
        <time>2022-03-28T10:26:05Z</time>
      </trkpt>
      <trkpt lat="45.39231" lon="2.92753">
        <ele>1214.55</ele>
        <time>2022-03-28T10:26:07Z</time>
      </trkpt>
      <trkpt lat="45.39269" lon="2.928">
        <ele>1214.41</ele>
        <time>2022-03-28T10:26:09Z</time>
      </trkpt>
      <trkpt lat="45.39378" lon="2.92947">
        <ele>1219.7</ele>
        <time>2022-03-28T10:26:11Z</time>
      </trkpt>
      <trkpt lat="45.39421" lon="2.93008">
        <ele>1221.13</ele>
        <time>2022-03-28T10:26:14Z</time>
      </trkpt>
      <trkpt lat="45.39483" lon="2.93122">
        <ele>1221.21</ele>
        <time>2022-03-28T10:26:16Z</time>
      </trkpt>
      <trkpt lat="45.39491" lon="2.93139">
        <ele>1220.67</ele>
        <time>2022-03-28T10:26:18Z</time>
      </trkpt>
      <trkpt lat="45.39496" lon="2.93156">
        <ele>1220.41</ele>
        <time>2022-03-28T10:26:20Z</time>
      </trkpt>
      <trkpt lat="45.39504" lon="2.93196">
        <ele>1219.83</ele>
        <time>2022-03-28T10:26:22Z</time>
      </trkpt>
      <trkpt lat="45.39508" lon="2.93209">
        <ele>1220</ele>
        <time>2022-03-28T10:26:24Z</time>
      </trkpt>
      <trkpt lat="45.39519" lon="2.9323">
        <ele>1219.21</ele>
        <time>2022-03-28T10:26:27Z</time>
      </trkpt>
      <trkpt lat="45.39535" lon="2.93275">
        <ele>1220</ele>
        <time>2022-03-28T10:26:29Z</time>
      </trkpt>
      <trkpt lat="45.39539" lon="2.9329">
        <ele>1219.43</ele>
        <time>2022-03-28T10:26:31Z</time>
      </trkpt>
      <trkpt lat="45.3954" lon="2.93303">
        <ele>1219.3</ele>
        <time>2022-03-28T10:26:33Z</time>
      </trkpt>
      <trkpt lat="45.39541" lon="2.93334">
        <ele>1219.7</ele>
        <time>2022-03-28T10:26:35Z</time>
      </trkpt>
      <trkpt lat="45.39554" lon="2.93402">
        <ele>1215.72</ele>
        <time>2022-03-28T10:26:37Z</time>
      </trkpt>
      <trkpt lat="45.39556" lon="2.93427">
        <ele>1214.16</ele>
        <time>2022-03-28T10:26:40Z</time>
      </trkpt>
      <trkpt lat="45.39556" lon="2.93446">
        <ele>1212.97</ele>
        <time>2022-03-28T10:26:42Z</time>
      </trkpt>
      <trkpt lat="45.39549" lon="2.93521">
        <ele>1213.59</ele>
        <time>2022-03-28T10:26:44Z</time>
      </trkpt>
      <trkpt lat="45.39549" lon="2.93537">
        <ele>1214.42</ele>
        <time>2022-03-28T10:26:46Z</time>
      </trkpt>
      <trkpt lat="45.39559" lon="2.93583">
        <ele>1216.76</ele>
        <time>2022-03-28T10:26:48Z</time>
      </trkpt>
      <trkpt lat="45.3956" lon="2.93623">
        <ele>1217.64</ele>
        <time>2022-03-28T10:26:50Z</time>
      </trkpt>
      <trkpt lat="45.39558" lon="2.93675">
        <ele>1217.77</ele>
        <time>2022-03-28T10:26:53Z</time>
      </trkpt>
      <trkpt lat="45.3956" lon="2.93698">
        <ele>1218.12</ele>
        <time>2022-03-28T10:26:55Z</time>
      </trkpt>
      <trkpt lat="45.39564" lon="2.9371">
        <ele>1219.29</ele>
        <time>2022-03-28T10:26:57Z</time>
      </trkpt>
      <trkpt lat="45.39584" lon="2.93746">
        <ele>1220.51</ele>
        <time>2022-03-28T10:26:59Z</time>
      </trkpt>
      <trkpt lat="45.396" lon="2.93791">
        <ele>1222.3</ele>
        <time>2022-03-28T10:27:01Z</time>
      </trkpt>
      <trkpt lat="45.39632" lon="2.93848">
        <ele>1218.39</ele>
        <time>2022-03-28T10:27:03Z</time>
      </trkpt>
      <trkpt lat="45.39651" lon="2.93916">
        <ele>1218.56</ele>
        <time>2022-03-28T10:27:06Z</time>
      </trkpt>
      <trkpt lat="45.39666" lon="2.93954">
        <ele>1220.23</ele>
        <time>2022-03-28T10:27:08Z</time>
      </trkpt>
      <trkpt lat="45.39745" lon="2.94137">
        <ele>1218.46</ele>
        <time>2022-03-28T10:27:10Z</time>
      </trkpt>
      <trkpt lat="45.39753" lon="2.94161">
        <ele>1218.34</ele>
        <time>2022-03-28T10:27:12Z</time>
      </trkpt>
      <trkpt lat="45.39757" lon="2.94178">
        <ele>1218.04</ele>
        <time>2022-03-28T10:27:14Z</time>
      </trkpt>
      <trkpt lat="45.39758" lon="2.94196">
        <ele>1217.89</ele>
        <time>2022-03-28T10:27:16Z</time>
      </trkpt>
      <trkpt lat="45.39758" lon="2.94213">
        <ele>1218.86</ele>
        <time>2022-03-28T10:27:19Z</time>
      </trkpt>
      <trkpt lat="45.39755" lon="2.94228">
        <ele>1220</ele>
        <time>2022-03-28T10:27:21Z</time>
      </trkpt>
      <trkpt lat="45.39743" lon="2.94266">
        <ele>1220.75</ele>
        <time>2022-03-28T10:27:23Z</time>
      </trkpt>
      <trkpt lat="45.39742" lon="2.9428">
        <ele>1220.17</ele>
        <time>2022-03-28T10:27:25Z</time>
      </trkpt>
      <trkpt lat="45.39743" lon="2.94295">
        <ele>1220.34</ele>
        <time>2022-03-28T10:27:27Z</time>
      </trkpt>
      <trkpt lat="45.39757" lon="2.94346">
        <ele>1218.4</ele>
        <time>2022-03-28T10:27:29Z</time>
      </trkpt>
      <trkpt lat="45.39757" lon="2.94358">
        <ele>1218.36</ele>
        <time>2022-03-28T10:27:32Z</time>
      </trkpt>
      <trkpt lat="45.39754" lon="2.94367">
        <ele>1218.3</ele>
        <time>2022-03-28T10:27:34Z</time>
      </trkpt>
      <trkpt lat="45.39748" lon="2.94379">
        <ele>1218.67</ele>
        <time>2022-03-28T10:27:36Z</time>
      </trkpt>
      <trkpt lat="45.39685" lon="2.94469">
        <ele>1221.77</ele>
        <time>2022-03-28T10:27:38Z</time>
      </trkpt>
      <trkpt lat="45.39681" lon="2.94485">
        <ele>1222.64</ele>
        <time>2022-03-28T10:27:40Z</time>
      </trkpt>
      <trkpt lat="45.39684" lon="2.94505">
        <ele>1222.23</ele>
        <time>2022-03-28T10:27:42Z</time>
      </trkpt>
      <trkpt lat="45.39745" lon="2.94646">
        <ele>1220.48</ele>
        <time>2022-03-28T10:27:45Z</time>
      </trkpt>
      <trkpt lat="45.39749" lon="2.9466">
        <ele>1220.73</ele>
        <time>2022-03-28T10:27:47Z</time>
      </trkpt>
      <trkpt lat="45.39751" lon="2.94684">
        <ele>1220.89</ele>
        <time>2022-03-28T10:27:49Z</time>
      </trkpt>
      <trkpt lat="45.39741" lon="2.94754">
        <ele>1220.59</ele>
        <time>2022-03-28T10:27:51Z</time>
      </trkpt>
      <trkpt lat="45.39737" lon="2.94764">
        <ele>1220.44</ele>
        <time>2022-03-28T10:27:53Z</time>
      </trkpt>
      <trkpt lat="45.39728" lon="2.94781">
        <ele>1219.87</ele>
        <time>2022-03-28T10:27:55Z</time>
      </trkpt>
      <trkpt lat="45.39686" lon="2.94818">
        <ele>1220.03</ele>
        <time>2022-03-28T10:27:58Z</time>
      </trkpt>
      <trkpt lat="45.39675" lon="2.94834">
        <ele>1220.15</ele>
        <time>2022-03-28T10:28:00Z</time>
      </trkpt>
      <trkpt lat="45.39656" lon="2.94893">
        <ele>1219.49</ele>
        <time>2022-03-28T10:28:02Z</time>
      </trkpt>
      <trkpt lat="45.39647" lon="2.94912">
        <ele>1218.78</ele>
        <time>2022-03-28T10:28:04Z</time>
      </trkpt>
      <trkpt lat="45.39641" lon="2.94917">
        <ele>1218.75</ele>
        <time>2022-03-28T10:28:06Z</time>
      </trkpt>
      <trkpt lat="45.39635" lon="2.94921">
        <ele>1218.74</ele>
        <time>2022-03-28T10:28:08Z</time>
      </trkpt>
      <trkpt lat="45.39601" lon="2.94923">
        <ele>1220.59</ele>
        <time>2022-03-28T10:28:11Z</time>
      </trkpt>
      <trkpt lat="45.39591" lon="2.94932">
        <ele>1221.05</ele>
        <time>2022-03-28T10:28:13Z</time>
      </trkpt>
      <trkpt lat="45.39586" lon="2.9495">
        <ele>1220.51</ele>
        <time>2022-03-28T10:28:15Z</time>
      </trkpt>
      <trkpt lat="45.3958" lon="2.95">
        <ele>1219.14</ele>
        <time>2022-03-28T10:28:17Z</time>
      </trkpt>
      <trkpt lat="45.39566" lon="2.95053">
        <ele>1223.13</ele>
        <time>2022-03-28T10:28:19Z</time>
      </trkpt>
      <trkpt lat="45.39567" lon="2.95077">
        <ele>1222.56</ele>
        <time>2022-03-28T10:28:21Z</time>
      </trkpt>
      <trkpt lat="45.39587" lon="2.95181">
        <ele>1218.19</ele>
        <time>2022-03-28T10:28:24Z</time>
      </trkpt>
      <trkpt lat="45.396" lon="2.95265">
        <ele>1219</ele>
        <time>2022-03-28T10:28:26Z</time>
      </trkpt>
      <trkpt lat="45.39605" lon="2.95289">
        <ele>1217.63</ele>
        <time>2022-03-28T10:28:28Z</time>
      </trkpt>
      <trkpt lat="45.3964" lon="2.95424">
        <ele>1213.53</ele>
        <time>2022-03-28T10:28:30Z</time>
      </trkpt>
      <trkpt lat="45.39649" lon="2.95448">
        <ele>1213.7</ele>
        <time>2022-03-28T10:28:32Z</time>
      </trkpt>
      <trkpt lat="45.3968" lon="2.95516">
        <ele>1212.07</ele>
        <time>2022-03-28T10:28:34Z</time>
      </trkpt>
      <trkpt lat="45.39683" lon="2.95529">
        <ele>1211.77</ele>
        <time>2022-03-28T10:28:37Z</time>
      </trkpt>
      <trkpt lat="45.39685" lon="2.95539">
        <ele>1211.29</ele>
        <time>2022-03-28T10:28:39Z</time>
      </trkpt>
      <trkpt lat="45.39685" lon="2.95559">
        <ele>1210.6</ele>
        <time>2022-03-28T10:28:41Z</time>
      </trkpt>
      <trkpt lat="45.39671" lon="2.95611">
        <ele>1211.81</ele>
        <time>2022-03-28T10:28:43Z</time>
      </trkpt>
      <trkpt lat="45.39672" lon="2.95633">
        <ele>1213.96</ele>
        <time>2022-03-28T10:28:45Z</time>
      </trkpt>
      <trkpt lat="45.39676" lon="2.95644">
        <ele>1214.93</ele>
        <time>2022-03-28T10:28:47Z</time>
      </trkpt>
      <trkpt lat="45.39712" lon="2.95732">
        <ele>1212.21</ele>
        <time>2022-03-28T10:28:50Z</time>
      </trkpt>
      <trkpt lat="45.39717" lon="2.95754">
        <ele>1212.21</ele>
        <time>2022-03-28T10:28:52Z</time>
      </trkpt>
      <trkpt lat="45.39718" lon="2.9577">
        <ele>1213.97</ele>
        <time>2022-03-28T10:28:54Z</time>
      </trkpt>
      <trkpt lat="45.39718" lon="2.959">
        <ele>1221.52</ele>
        <time>2022-03-28T10:28:56Z</time>
      </trkpt>
      <trkpt lat="45.3972" lon="2.95918">
        <ele>1221.44</ele>
        <time>2022-03-28T10:28:58Z</time>
      </trkpt>
      <trkpt lat="45.39728" lon="2.95945">
        <ele>1221.62</ele>
        <time>2022-03-28T10:29:00Z</time>
      </trkpt>
      <trkpt lat="45.39735" lon="2.95957">
        <ele>1221.97</ele>
        <time>2022-03-28T10:29:03Z</time>
      </trkpt>
      <trkpt lat="45.39817" lon="2.9608">
        <ele>1220.59</ele>
        <time>2022-03-28T10:29:05Z</time>
      </trkpt>
      <trkpt lat="45.39832" lon="2.96107">
        <ele>1219.21</ele>
        <time>2022-03-28T10:29:07Z</time>
      </trkpt>
      <trkpt lat="45.39902" lon="2.96306">
        <ele>1211.04</ele>
        <time>2022-03-28T10:29:09Z</time>
      </trkpt>
      <trkpt lat="45.39917" lon="2.96326">
        <ele>1209.27</ele>
        <time>2022-03-28T10:29:11Z</time>
      </trkpt>
      <trkpt lat="45.39945" lon="2.96347">
        <ele>1210.04</ele>
        <time>2022-03-28T10:29:13Z</time>
      </trkpt>
      <trkpt lat="45.39953" lon="2.96357">
        <ele>1210.37</ele>
        <time>2022-03-28T10:29:16Z</time>
      </trkpt>
      <trkpt lat="45.39962" lon="2.96371">
        <ele>1210.13</ele>
        <time>2022-03-28T10:29:18Z</time>
      </trkpt>
      <trkpt lat="45.3998" lon="2.96418">
        <ele>1208.78</ele>
        <time>2022-03-28T10:29:20Z</time>
      </trkpt>
      <trkpt lat="45.39988" lon="2.96433">
        <ele>1208.73</ele>
        <time>2022-03-28T10:29:22Z</time>
      </trkpt>
      <trkpt lat="45.39997" lon="2.96447">
        <ele>1208.62</ele>
        <time>2022-03-28T10:29:24Z</time>
      </trkpt>
      <trkpt lat="45.40029" lon="2.96486">
        <ele>1205.59</ele>
        <time>2022-03-28T10:29:26Z</time>
      </trkpt>
      <trkpt lat="45.40039" lon="2.96502">
        <ele>1204.28</ele>
        <time>2022-03-28T10:29:29Z</time>
      </trkpt>
      <trkpt lat="45.40052" lon="2.96526">
        <ele>1202.18</ele>
        <time>2022-03-28T10:29:31Z</time>
      </trkpt>
      <trkpt lat="45.40062" lon="2.96543">
        <ele>1201.81</ele>
        <time>2022-03-28T10:29:33Z</time>
      </trkpt>
      <trkpt lat="45.40085" lon="2.96572">
        <ele>1202.09</ele>
        <time>2022-03-28T10:29:35Z</time>
      </trkpt>
      <trkpt lat="45.40104" lon="2.96609">
        <ele>1202.05</ele>
        <time>2022-03-28T10:29:37Z</time>
      </trkpt>
      <trkpt lat="45.40111" lon="2.96629">
        <ele>1201.38</ele>
        <time>2022-03-28T10:29:39Z</time>
      </trkpt>
      <trkpt lat="45.40123" lon="2.96679">
        <ele>1201</ele>
        <time>2022-03-28T10:29:42Z</time>
      </trkpt>
      <trkpt lat="45.40128" lon="2.96692">
        <ele>1201.31</ele>
        <time>2022-03-28T10:29:44Z</time>
      </trkpt>
      <trkpt lat="45.40139" lon="2.96707">
        <ele>1201.92</ele>
        <time>2022-03-28T10:29:46Z</time>
      </trkpt>
      <trkpt lat="45.40182" lon="2.96738">
        <ele>1198.88</ele>
        <time>2022-03-28T10:29:48Z</time>
      </trkpt>
      <trkpt lat="45.40191" lon="2.96747">
        <ele>1198.28</ele>
        <time>2022-03-28T10:29:50Z</time>
      </trkpt>
      <trkpt lat="45.40197" lon="2.96759">
        <ele>1198.81</ele>
        <time>2022-03-28T10:29:52Z</time>
      </trkpt>
      <trkpt lat="45.40225" lon="2.96829">
        <ele>1204.17</ele>
        <time>2022-03-28T10:29:55Z</time>
      </trkpt>
      <trkpt lat="45.40241" lon="2.96857">
        <ele>1203.89</ele>
        <time>2022-03-28T10:29:57Z</time>
      </trkpt>
      <trkpt lat="45.40241" lon="2.96857">
        <ele>1203.89</ele>
        <time>2022-03-28T10:29:57Z</time>
      </trkpt>
      <trkpt lat="45.40323" lon="2.96978">
        <ele>1202.91</ele>
        <time>2022-03-28T10:30:02Z</time>
      </trkpt>
      <trkpt lat="45.40337" lon="2.97009">
        <ele>1202.39</ele>
        <time>2022-03-28T10:30:06Z</time>
      </trkpt>
      <trkpt lat="45.40337" lon="2.97009">
        <ele>1202.39</ele>
        <time>2022-03-28T10:30:06Z</time>
      </trkpt>
      <trkpt lat="45.40332" lon="2.96997">
        <ele>1202.96</ele>
        <time>2022-03-28T10:30:07Z</time>
      </trkpt>
      <trkpt lat="45.40327" lon="2.9701">
        <ele>1204.01</ele>
        <time>2022-03-28T10:30:09Z</time>
      </trkpt>
      <trkpt lat="45.40314" lon="2.97087">
        <ele>1210.26</ele>
        <time>2022-03-28T10:30:12Z</time>
      </trkpt>
      <trkpt lat="45.40309" lon="2.97099">
        <ele>1211.28</ele>
        <time>2022-03-28T10:30:15Z</time>
      </trkpt>
      <trkpt lat="45.40303" lon="2.97108">
        <ele>1212.01</ele>
        <time>2022-03-28T10:30:17Z</time>
      </trkpt>
      <trkpt lat="45.40286" lon="2.9712">
        <ele>1212.72</ele>
        <time>2022-03-28T10:30:20Z</time>
      </trkpt>
      <trkpt lat="45.40175" lon="2.97163">
        <ele>1218.97</ele>
        <time>2022-03-28T10:30:22Z</time>
      </trkpt>
      <trkpt lat="45.40157" lon="2.97179">
        <ele>1220.67</ele>
        <time>2022-03-28T10:30:25Z</time>
      </trkpt>
      <trkpt lat="45.40149" lon="2.972">
        <ele>1221.53</ele>
        <time>2022-03-28T10:30:27Z</time>
      </trkpt>
      <trkpt lat="45.40146" lon="2.97243">
        <ele>1224.06</ele>
        <time>2022-03-28T10:30:30Z</time>
      </trkpt>
      <trkpt lat="45.40138" lon="2.97268">
        <ele>1225</ele>
        <time>2022-03-28T10:30:32Z</time>
      </trkpt>
      <trkpt lat="45.40132" lon="2.97277">
        <ele>1225</ele>
        <time>2022-03-28T10:30:35Z</time>
      </trkpt>
      <trkpt lat="45.40054" lon="2.9734">
        <ele>1220.04</ele>
        <time>2022-03-28T10:30:37Z</time>
      </trkpt>
      <trkpt lat="45.40034" lon="2.97345">
        <ele>1220.41</ele>
        <time>2022-03-28T10:30:40Z</time>
      </trkpt>
      <trkpt lat="45.40006" lon="2.97344">
        <ele>1224.02</ele>
        <time>2022-03-28T10:30:42Z</time>
      </trkpt>
      <trkpt lat="45.39983" lon="2.97348">
        <ele>1223.25</ele>
        <time>2022-03-28T10:30:45Z</time>
      </trkpt>
      <trkpt lat="45.39898" lon="2.97388">
        <ele>1218.21</ele>
        <time>2022-03-28T10:30:47Z</time>
      </trkpt>
      <trkpt lat="45.39877" lon="2.974">
        <ele>1217.61</ele>
        <time>2022-03-28T10:30:50Z</time>
      </trkpt>
      <trkpt lat="45.39869" lon="2.97406">
        <ele>1216.94</ele>
        <time>2022-03-28T10:30:52Z</time>
      </trkpt>
      <trkpt lat="45.39852" lon="2.97429">
        <ele>1215.8</ele>
        <time>2022-03-28T10:30:55Z</time>
      </trkpt>
      <trkpt lat="45.39724" lon="2.97626">
        <ele>1210.71</ele>
        <time>2022-03-28T10:30:57Z</time>
      </trkpt>
      <trkpt lat="45.3971" lon="2.97643">
        <ele>1210.17</ele>
        <time>2022-03-28T10:31:00Z</time>
      </trkpt>
      <trkpt lat="45.39702" lon="2.97648">
        <ele>1210.42</ele>
        <time>2022-03-28T10:31:02Z</time>
      </trkpt>
      <trkpt lat="45.39687" lon="2.97652">
        <ele>1210.05</ele>
        <time>2022-03-28T10:31:05Z</time>
      </trkpt>
      <trkpt lat="45.39602" lon="2.97658">
        <ele>1206.46</ele>
        <time>2022-03-28T10:31:07Z</time>
      </trkpt>
      <trkpt lat="45.39572" lon="2.97666">
        <ele>1206.96</ele>
        <time>2022-03-28T10:31:10Z</time>
      </trkpt>
      <trkpt lat="45.39547" lon="2.97682">
        <ele>1205.54</ele>
        <time>2022-03-28T10:31:12Z</time>
      </trkpt>
      <trkpt lat="45.39488" lon="2.97725">
        <ele>1202.12</ele>
        <time>2022-03-28T10:31:15Z</time>
      </trkpt>
      <trkpt lat="45.39475" lon="2.97731">
        <ele>1201.84</ele>
        <time>2022-03-28T10:31:17Z</time>
      </trkpt>
      <trkpt lat="45.39422" lon="2.97748">
        <ele>1204.93</ele>
        <time>2022-03-28T10:31:20Z</time>
      </trkpt>
      <trkpt lat="45.39372" lon="2.9778">
        <ele>1199.44</ele>
        <time>2022-03-28T10:31:22Z</time>
      </trkpt>
      <trkpt lat="45.39256" lon="2.97825">
        <ele>1192.21</ele>
        <time>2022-03-28T10:31:25Z</time>
      </trkpt>
      <trkpt lat="45.39241" lon="2.97835">
        <ele>1191.34</ele>
        <time>2022-03-28T10:31:27Z</time>
      </trkpt>
      <trkpt lat="45.3923" lon="2.97853">
        <ele>1190.56</ele>
        <time>2022-03-28T10:31:30Z</time>
      </trkpt>
      <trkpt lat="45.39225" lon="2.97865">
        <ele>1189.98</ele>
        <time>2022-03-28T10:31:32Z</time>
      </trkpt>
      <trkpt lat="45.39199" lon="2.9795">
        <ele>1183.74</ele>
        <time>2022-03-28T10:31:35Z</time>
      </trkpt>
      <trkpt lat="45.39152" lon="2.98075">
        <ele>1179.59</ele>
        <time>2022-03-28T10:31:37Z</time>
      </trkpt>
      <trkpt lat="45.39142" lon="2.98098">
        <ele>1178.6</ele>
        <time>2022-03-28T10:31:40Z</time>
      </trkpt>
      <trkpt lat="45.39133" lon="2.98111">
        <ele>1178.18</ele>
        <time>2022-03-28T10:31:43Z</time>
      </trkpt>
      <trkpt lat="45.39087" lon="2.98174">
        <ele>1175.28</ele>
        <time>2022-03-28T10:31:45Z</time>
      </trkpt>
      <trkpt lat="45.39026" lon="2.98236">
        <ele>1170.77</ele>
        <time>2022-03-28T10:31:48Z</time>
      </trkpt>
      <trkpt lat="45.39008" lon="2.98246">
        <ele>1168.17</ele>
        <time>2022-03-28T10:31:50Z</time>
      </trkpt>
      <trkpt lat="45.38957" lon="2.98252">
        <ele>1165.4</ele>
        <time>2022-03-28T10:31:53Z</time>
      </trkpt>
      <trkpt lat="45.38945" lon="2.98256">
        <ele>1164.83</ele>
        <time>2022-03-28T10:31:55Z</time>
      </trkpt>
      <trkpt lat="45.38934" lon="2.98264">
        <ele>1163.59</ele>
        <time>2022-03-28T10:31:58Z</time>
      </trkpt>
      <trkpt lat="45.38927" lon="2.98274">
        <ele>1162.8</ele>
        <time>2022-03-28T10:32:00Z</time>
      </trkpt>
      <trkpt lat="45.38922" lon="2.98288">
        <ele>1162.71</ele>
        <time>2022-03-28T10:32:03Z</time>
      </trkpt>
      <trkpt lat="45.38917" lon="2.98307">
        <ele>1163.06</ele>
        <time>2022-03-28T10:32:05Z</time>
      </trkpt>
      <trkpt lat="45.38913" lon="2.98331">
        <ele>1163.41</ele>
        <time>2022-03-28T10:32:08Z</time>
      </trkpt>
      <trkpt lat="45.38907" lon="2.98401">
        <ele>1160.37</ele>
        <time>2022-03-28T10:32:10Z</time>
      </trkpt>
      <trkpt lat="45.389" lon="2.98444">
        <ele>1157.69</ele>
        <time>2022-03-28T10:32:13Z</time>
      </trkpt>
      <trkpt lat="45.38897" lon="2.98438">
        <ele>1157.29</ele>
        <time>2022-03-28T10:32:13Z</time>
      </trkpt>
      <trkpt lat="45.38897" lon="2.98438">
        <ele>1157.29</ele>
        <time>2022-03-28T10:32:13Z</time>
      </trkpt>
      <trkpt lat="45.38891" lon="2.98429">
        <ele>1156.9</ele>
        <time>2022-03-28T10:32:17Z</time>
      </trkpt>
      <trkpt lat="45.38597" lon="2.97782">
        <ele>1141.65</ele>
        <time>2022-03-28T10:32:20Z</time>
      </trkpt>
      <trkpt lat="45.38578" lon="2.97743">
        <ele>1139.31</ele>
        <time>2022-03-28T10:32:24Z</time>
      </trkpt>
      <trkpt lat="45.38564" lon="2.9772">
        <ele>1138.14</ele>
        <time>2022-03-28T10:32:27Z</time>
      </trkpt>
      <trkpt lat="45.38498" lon="2.97639">
        <ele>1134.64</ele>
        <time>2022-03-28T10:32:31Z</time>
      </trkpt>
      <trkpt lat="45.38485" lon="2.97617">
        <ele>1134.34</ele>
        <time>2022-03-28T10:32:35Z</time>
      </trkpt>
      <trkpt lat="45.38469" lon="2.97582">
        <ele>1133.28</ele>
        <time>2022-03-28T10:32:38Z</time>
      </trkpt>
      <trkpt lat="45.38457" lon="2.97546">
        <ele>1133.75</ele>
        <time>2022-03-28T10:32:42Z</time>
      </trkpt>
      <trkpt lat="45.38448" lon="2.97514">
        <ele>1136.74</ele>
        <time>2022-03-28T10:32:45Z</time>
      </trkpt>
      <trkpt lat="45.3844" lon="2.97492">
        <ele>1138.26</ele>
        <time>2022-03-28T10:32:49Z</time>
      </trkpt>
      <trkpt lat="45.3843" lon="2.97472">
        <ele>1138.84</ele>
        <time>2022-03-28T10:32:53Z</time>
      </trkpt>
      <trkpt lat="45.38415" lon="2.97447">
        <ele>1137.49</ele>
        <time>2022-03-28T10:32:56Z</time>
      </trkpt>
      <trkpt lat="45.38399" lon="2.97425">
        <ele>1135.94</ele>
        <time>2022-03-28T10:33:00Z</time>
      </trkpt>
      <trkpt lat="45.38381" lon="2.97405">
        <ele>1136.12</ele>
        <time>2022-03-28T10:33:04Z</time>
      </trkpt>
      <trkpt lat="45.38363" lon="2.97389">
        <ele>1137.08</ele>
        <time>2022-03-28T10:33:07Z</time>
      </trkpt>
      <trkpt lat="45.38277" lon="2.97326">
        <ele>1143.77</ele>
        <time>2022-03-28T10:33:11Z</time>
      </trkpt>
      <trkpt lat="45.38262" lon="2.97314">
        <ele>1145.05</ele>
        <time>2022-03-28T10:33:14Z</time>
      </trkpt>
      <trkpt lat="45.38181" lon="2.97219">
        <ele>1149.46</ele>
        <time>2022-03-28T10:33:18Z</time>
      </trkpt>
      <trkpt lat="45.38159" lon="2.9719">
        <ele>1151.56</ele>
        <time>2022-03-28T10:33:22Z</time>
      </trkpt>
      <trkpt lat="45.38113" lon="2.97117">
        <ele>1153.91</ele>
        <time>2022-03-28T10:33:25Z</time>
      </trkpt>
      <trkpt lat="45.38096" lon="2.97087">
        <ele>1154.73</ele>
        <time>2022-03-28T10:33:29Z</time>
      </trkpt>
      <trkpt lat="45.3807" lon="2.97024">
        <ele>1155.72</ele>
        <time>2022-03-28T10:33:32Z</time>
      </trkpt>
      <trkpt lat="45.38055" lon="2.96975">
        <ele>1155.99</ele>
        <time>2022-03-28T10:33:36Z</time>
      </trkpt>
      <trkpt lat="45.38032" lon="2.96921">
        <ele>1157.16</ele>
        <time>2022-03-28T10:33:40Z</time>
      </trkpt>
      <trkpt lat="45.38023" lon="2.96911">
        <ele>1156.78</ele>
        <time>2022-03-28T10:33:43Z</time>
      </trkpt>
      <trkpt lat="45.37984" lon="2.96892">
        <ele>1155.11</ele>
        <time>2022-03-28T10:33:47Z</time>
      </trkpt>
      <trkpt lat="45.37941" lon="2.96879">
        <ele>1156.08</ele>
        <time>2022-03-28T10:33:50Z</time>
      </trkpt>
      <trkpt lat="45.37933" lon="2.96879">
        <ele>1156.27</ele>
        <time>2022-03-28T10:33:54Z</time>
      </trkpt>
      <trkpt lat="45.37921" lon="2.96885">
        <ele>1156.72</ele>
        <time>2022-03-28T10:33:58Z</time>
      </trkpt>
      <trkpt lat="45.37905" lon="2.96871">
        <ele>1157.3</ele>
        <time>2022-03-28T10:34:00Z</time>
      </trkpt>
      <trkpt lat="45.37889" lon="2.9686">
        <ele>1157.98</ele>
        <time>2022-03-28T10:34:03Z</time>
      </trkpt>
      <trkpt lat="45.37881" lon="2.96851">
        <ele>1158.7</ele>
        <time>2022-03-28T10:34:06Z</time>
      </trkpt>
      <trkpt lat="45.37876" lon="2.96842">
        <ele>1158.85</ele>
        <time>2022-03-28T10:34:09Z</time>
      </trkpt>
      <trkpt lat="45.37856" lon="2.96788">
        <ele>1158.46</ele>
        <time>2022-03-28T10:34:12Z</time>
      </trkpt>
      <trkpt lat="45.37847" lon="2.9677">
        <ele>1158.63</ele>
        <time>2022-03-28T10:34:15Z</time>
      </trkpt>
      <trkpt lat="45.3782" lon="2.96723">
        <ele>1159.07</ele>
        <time>2022-03-28T10:34:18Z</time>
      </trkpt>
      <trkpt lat="45.37816" lon="2.96713">
        <ele>1159.32</ele>
        <time>2022-03-28T10:34:21Z</time>
      </trkpt>
      <trkpt lat="45.37815" lon="2.96701">
        <ele>1159.19</ele>
        <time>2022-03-28T10:34:24Z</time>
      </trkpt>
      <trkpt lat="45.3782" lon="2.96639">
        <ele>1159.49</ele>
        <time>2022-03-28T10:34:26Z</time>
      </trkpt>
      <trkpt lat="45.37815" lon="2.96597">
        <ele>1161.15</ele>
        <time>2022-03-28T10:34:29Z</time>
      </trkpt>
      <trkpt lat="45.37814" lon="2.96562">
        <ele>1161.98</ele>
        <time>2022-03-28T10:34:32Z</time>
      </trkpt>
      <trkpt lat="45.37812" lon="2.96548">
        <ele>1162.46</ele>
        <time>2022-03-28T10:34:35Z</time>
      </trkpt>
      <trkpt lat="45.37789" lon="2.96473">
        <ele>1163.53</ele>
        <time>2022-03-28T10:34:38Z</time>
      </trkpt>
      <trkpt lat="45.37745" lon="2.96359">
        <ele>1172.29</ele>
        <time>2022-03-28T10:34:41Z</time>
      </trkpt>
      <trkpt lat="45.37732" lon="2.96318">
        <ele>1173.68</ele>
        <time>2022-03-28T10:34:44Z</time>
      </trkpt>
      <trkpt lat="45.37679" lon="2.96146">
        <ele>1184.64</ele>
        <time>2022-03-28T10:34:47Z</time>
      </trkpt>
      <trkpt lat="45.37653" lon="2.96027">
        <ele>1194.33</ele>
        <time>2022-03-28T10:34:50Z</time>
      </trkpt>
      <trkpt lat="45.37637" lon="2.95984">
        <ele>1195.49</ele>
        <time>2022-03-28T10:34:52Z</time>
      </trkpt>
      <trkpt lat="45.3763" lon="2.95968">
        <ele>1193.8</ele>
        <time>2022-03-28T10:34:55Z</time>
      </trkpt>
      <trkpt lat="45.37622" lon="2.95958">
        <ele>1192.77</ele>
        <time>2022-03-28T10:34:58Z</time>
      </trkpt>
      <trkpt lat="45.37575" lon="2.95917">
        <ele>1189.52</ele>
        <time>2022-03-28T10:35:01Z</time>
      </trkpt>
      <trkpt lat="45.37557" lon="2.95887">
        <ele>1186.46</ele>
        <time>2022-03-28T10:35:04Z</time>
      </trkpt>
      <trkpt lat="45.37545" lon="2.95872">
        <ele>1188.33</ele>
        <time>2022-03-28T10:35:07Z</time>
      </trkpt>
      <trkpt lat="45.37532" lon="2.95859">
        <ele>1190.88</ele>
        <time>2022-03-28T10:35:10Z</time>
      </trkpt>
      <trkpt lat="45.37501" lon="2.95834">
        <ele>1193.88</ele>
        <time>2022-03-28T10:35:13Z</time>
      </trkpt>
      <trkpt lat="45.37484" lon="2.95817">
        <ele>1193.61</ele>
        <time>2022-03-28T10:35:16Z</time>
      </trkpt>
      <trkpt lat="45.37473" lon="2.95802">
        <ele>1193.05</ele>
        <time>2022-03-28T10:35:18Z</time>
      </trkpt>
      <trkpt lat="45.3746" lon="2.95778">
        <ele>1189.52</ele>
        <time>2022-03-28T10:35:21Z</time>
      </trkpt>
      <trkpt lat="45.37451" lon="2.95754">
        <ele>1186.96</ele>
        <time>2022-03-28T10:35:24Z</time>
      </trkpt>
      <trkpt lat="45.37451" lon="2.95736">
        <ele>1184.96</ele>
        <time>2022-03-28T10:35:27Z</time>
      </trkpt>
      <trkpt lat="45.37454" lon="2.95719">
        <ele>1182.35</ele>
        <time>2022-03-28T10:35:30Z</time>
      </trkpt>
      <trkpt lat="45.37455" lon="2.95707">
        <ele>1180.4</ele>
        <time>2022-03-28T10:35:33Z</time>
      </trkpt>
      <trkpt lat="45.37455" lon="2.95694">
        <ele>1178.55</ele>
        <time>2022-03-28T10:35:36Z</time>
      </trkpt>
      <trkpt lat="45.37452" lon="2.95682">
        <ele>1176.72</ele>
        <time>2022-03-28T10:35:39Z</time>
      </trkpt>
      <trkpt lat="45.37441" lon="2.95661">
        <ele>1174.38</ele>
        <time>2022-03-28T10:35:42Z</time>
      </trkpt>
      <trkpt lat="45.37432" lon="2.95654">
        <ele>1173.61</ele>
        <time>2022-03-28T10:35:44Z</time>
      </trkpt>
      <trkpt lat="45.3742" lon="2.95649">
        <ele>1173.1</ele>
        <time>2022-03-28T10:35:47Z</time>
      </trkpt>
      <trkpt lat="45.37409" lon="2.95648">
        <ele>1173.05</ele>
        <time>2022-03-28T10:35:50Z</time>
      </trkpt>
      <trkpt lat="45.37393" lon="2.95654">
        <ele>1173.55</ele>
        <time>2022-03-28T10:35:53Z</time>
      </trkpt>
      <trkpt lat="45.37372" lon="2.9568">
        <ele>1173.61</ele>
        <time>2022-03-28T10:35:56Z</time>
      </trkpt>
      <trkpt lat="45.37367" lon="2.95681">
        <ele>1173.15</ele>
        <time>2022-03-28T10:35:59Z</time>
      </trkpt>
      <trkpt lat="45.37363" lon="2.95679">
        <ele>1172.62</ele>
        <time>2022-03-28T10:36:02Z</time>
      </trkpt>
      <trkpt lat="45.3736" lon="2.95675">
        <ele>1172.2</ele>
        <time>2022-03-28T10:36:05Z</time>
      </trkpt>
      <trkpt lat="45.3736" lon="2.95667">
        <ele>1171.91</ele>
        <time>2022-03-28T10:36:08Z</time>
      </trkpt>
      <trkpt lat="45.37364" lon="2.95648">
        <ele>1172.75</ele>
        <time>2022-03-28T10:36:10Z</time>
      </trkpt>
      <trkpt lat="45.37366" lon="2.95633">
        <ele>1173.18</ele>
        <time>2022-03-28T10:36:13Z</time>
      </trkpt>
      <trkpt lat="45.37364" lon="2.95598">
        <ele>1174.87</ele>
        <time>2022-03-28T10:36:16Z</time>
      </trkpt>
      <trkpt lat="45.37355" lon="2.95575">
        <ele>1176.59</ele>
        <time>2022-03-28T10:36:19Z</time>
      </trkpt>
      <trkpt lat="45.37335" lon="2.95547">
        <ele>1179.32</ele>
        <time>2022-03-28T10:36:22Z</time>
      </trkpt>
      <trkpt lat="45.37334" lon="2.95544">
        <ele>1179.74</ele>
        <time>2022-03-28T10:36:25Z</time>
      </trkpt>
      <trkpt lat="45.37335" lon="2.95536">
        <ele>1180.9</ele>
        <time>2022-03-28T10:36:28Z</time>
      </trkpt>
      <trkpt lat="45.37345" lon="2.95527">
        <ele>1182.59</ele>
        <time>2022-03-28T10:36:31Z</time>
      </trkpt>
      <trkpt lat="45.37378" lon="2.95511">
        <ele>1185.08</ele>
        <time>2022-03-28T10:36:34Z</time>
      </trkpt>
      <trkpt lat="45.374" lon="2.95491">
        <ele>1188.08</ele>
        <time>2022-03-28T10:36:36Z</time>
      </trkpt>
      <trkpt lat="45.37412" lon="2.95485">
        <ele>1190.04</ele>
        <time>2022-03-28T10:36:39Z</time>
      </trkpt>
      <trkpt lat="45.37436" lon="2.95483">
        <ele>1192.77</ele>
        <time>2022-03-28T10:36:42Z</time>
      </trkpt>
      <trkpt lat="45.37459" lon="2.9549">
        <ele>1193.17</ele>
        <time>2022-03-28T10:36:45Z</time>
      </trkpt>
      <trkpt lat="45.3747" lon="2.95491">
        <ele>1193.73</ele>
        <time>2022-03-28T10:36:48Z</time>
      </trkpt>
      <trkpt lat="45.37486" lon="2.95488">
        <ele>1195.32</ele>
        <time>2022-03-28T10:36:51Z</time>
      </trkpt>
      <trkpt lat="45.37506" lon="2.95474">
        <ele>1199.76</ele>
        <time>2022-03-28T10:36:54Z</time>
      </trkpt>
      <trkpt lat="45.37546" lon="2.95434">
        <ele>1206.34</ele>
        <time>2022-03-28T10:36:57Z</time>
      </trkpt>
      <trkpt lat="45.37601" lon="2.95345">
        <ele>1217.69</ele>
        <time>2022-03-28T10:37:00Z</time>
      </trkpt>
      <trkpt lat="45.3761" lon="2.95328">
        <ele>1219.1</ele>
        <time>2022-03-28T10:37:02Z</time>
      </trkpt>
      <trkpt lat="45.37618" lon="2.95309">
        <ele>1221.93</ele>
        <time>2022-03-28T10:37:05Z</time>
      </trkpt>
      <trkpt lat="45.37622" lon="2.95291">
        <ele>1223.03</ele>
        <time>2022-03-28T10:37:08Z</time>
      </trkpt>
      <trkpt lat="45.37627" lon="2.95244">
        <ele>1227.17</ele>
        <time>2022-03-28T10:37:11Z</time>
      </trkpt>
      <trkpt lat="45.37638" lon="2.95172">
        <ele>1231.04</ele>
        <time>2022-03-28T10:37:14Z</time>
      </trkpt>
      <trkpt lat="45.37643" lon="2.95156">
        <ele>1230.81</ele>
        <time>2022-03-28T10:37:17Z</time>
      </trkpt>
      <trkpt lat="45.37651" lon="2.95136">
        <ele>1229.93</ele>
        <time>2022-03-28T10:37:20Z</time>
      </trkpt>
      <trkpt lat="45.37668" lon="2.95111">
        <ele>1226.86</ele>
        <time>2022-03-28T10:37:23Z</time>
      </trkpt>
      <trkpt lat="45.37724" lon="2.95057">
        <ele>1216.94</ele>
        <time>2022-03-28T10:37:26Z</time>
      </trkpt>
      <trkpt lat="45.37724" lon="2.95057">
        <ele>1216.94</ele>
        <time>2022-03-28T10:37:26Z</time>
      </trkpt>
      <trkpt lat="45.37668" lon="2.95111">
        <ele>1226.86</ele>
        <time>2022-03-28T10:37:29Z</time>
      </trkpt>
      <trkpt lat="45.37651" lon="2.95136">
        <ele>1229.93</ele>
        <time>2022-03-28T10:37:32Z</time>
      </trkpt>
      <trkpt lat="45.37643" lon="2.95156">
        <ele>1230.81</ele>
        <time>2022-03-28T10:37:35Z</time>
      </trkpt>
      <trkpt lat="45.37638" lon="2.95172">
        <ele>1231.04</ele>
        <time>2022-03-28T10:37:38Z</time>
      </trkpt>
      <trkpt lat="45.37627" lon="2.95244">
        <ele>1227.17</ele>
        <time>2022-03-28T10:37:41Z</time>
      </trkpt>
      <trkpt lat="45.37622" lon="2.95291">
        <ele>1223.03</ele>
        <time>2022-03-28T10:37:44Z</time>
      </trkpt>
      <trkpt lat="45.37618" lon="2.95309">
        <ele>1221.93</ele>
        <time>2022-03-28T10:37:48Z</time>
      </trkpt>
      <trkpt lat="45.3761" lon="2.95328">
        <ele>1219.1</ele>
        <time>2022-03-28T10:37:51Z</time>
      </trkpt>
      <trkpt lat="45.37601" lon="2.95345">
        <ele>1217.69</ele>
        <time>2022-03-28T10:37:54Z</time>
      </trkpt>
      <trkpt lat="45.37546" lon="2.95434">
        <ele>1206.34</ele>
        <time>2022-03-28T10:37:57Z</time>
      </trkpt>
      <trkpt lat="45.37506" lon="2.95474">
        <ele>1199.76</ele>
        <time>2022-03-28T10:38:00Z</time>
      </trkpt>
      <trkpt lat="45.37486" lon="2.95488">
        <ele>1195.32</ele>
        <time>2022-03-28T10:38:03Z</time>
      </trkpt>
      <trkpt lat="45.3747" lon="2.95491">
        <ele>1193.73</ele>
        <time>2022-03-28T10:38:06Z</time>
      </trkpt>
      <trkpt lat="45.37459" lon="2.9549">
        <ele>1193.17</ele>
        <time>2022-03-28T10:38:10Z</time>
      </trkpt>
      <trkpt lat="45.37436" lon="2.95483">
        <ele>1192.77</ele>
        <time>2022-03-28T10:38:13Z</time>
      </trkpt>
      <trkpt lat="45.37412" lon="2.95485">
        <ele>1190.04</ele>
        <time>2022-03-28T10:38:16Z</time>
      </trkpt>
      <trkpt lat="45.374" lon="2.95491">
        <ele>1188.08</ele>
        <time>2022-03-28T10:38:19Z</time>
      </trkpt>
      <trkpt lat="45.37378" lon="2.95511">
        <ele>1185.08</ele>
        <time>2022-03-28T10:38:22Z</time>
      </trkpt>
      <trkpt lat="45.37345" lon="2.95527">
        <ele>1182.59</ele>
        <time>2022-03-28T10:38:25Z</time>
      </trkpt>
      <trkpt lat="45.37335" lon="2.95536">
        <ele>1180.9</ele>
        <time>2022-03-28T10:38:28Z</time>
      </trkpt>
      <trkpt lat="45.37334" lon="2.95544">
        <ele>1179.74</ele>
        <time>2022-03-28T10:38:32Z</time>
      </trkpt>
      <trkpt lat="45.37335" lon="2.95547">
        <ele>1179.32</ele>
        <time>2022-03-28T10:38:34Z</time>
      </trkpt>
      <trkpt lat="45.37355" lon="2.95575">
        <ele>1176.59</ele>
        <time>2022-03-28T10:38:37Z</time>
      </trkpt>
      <trkpt lat="45.37364" lon="2.95598">
        <ele>1174.87</ele>
        <time>2022-03-28T10:38:40Z</time>
      </trkpt>
      <trkpt lat="45.37366" lon="2.95633">
        <ele>1173.18</ele>
        <time>2022-03-28T10:38:43Z</time>
      </trkpt>
      <trkpt lat="45.37364" lon="2.95648">
        <ele>1172.75</ele>
        <time>2022-03-28T10:38:45Z</time>
      </trkpt>
      <trkpt lat="45.3736" lon="2.95667">
        <ele>1171.91</ele>
        <time>2022-03-28T10:38:48Z</time>
      </trkpt>
      <trkpt lat="45.3736" lon="2.95675">
        <ele>1172.2</ele>
        <time>2022-03-28T10:38:51Z</time>
      </trkpt>
      <trkpt lat="45.37363" lon="2.95679">
        <ele>1172.62</ele>
        <time>2022-03-28T10:38:54Z</time>
      </trkpt>
      <trkpt lat="45.37367" lon="2.95681">
        <ele>1173.15</ele>
        <time>2022-03-28T10:38:57Z</time>
      </trkpt>
      <trkpt lat="45.37372" lon="2.9568">
        <ele>1173.61</ele>
        <time>2022-03-28T10:38:59Z</time>
      </trkpt>
      <trkpt lat="45.37393" lon="2.95654">
        <ele>1173.55</ele>
        <time>2022-03-28T10:39:02Z</time>
      </trkpt>
      <trkpt lat="45.37409" lon="2.95648">
        <ele>1173.05</ele>
        <time>2022-03-28T10:39:05Z</time>
      </trkpt>
      <trkpt lat="45.3742" lon="2.95649">
        <ele>1173.1</ele>
        <time>2022-03-28T10:39:08Z</time>
      </trkpt>
      <trkpt lat="45.37432" lon="2.95654">
        <ele>1173.61</ele>
        <time>2022-03-28T10:39:11Z</time>
      </trkpt>
      <trkpt lat="45.37441" lon="2.95661">
        <ele>1174.38</ele>
        <time>2022-03-28T10:39:13Z</time>
      </trkpt>
      <trkpt lat="45.37452" lon="2.95682">
        <ele>1176.72</ele>
        <time>2022-03-28T10:39:16Z</time>
      </trkpt>
      <trkpt lat="45.37455" lon="2.95694">
        <ele>1178.55</ele>
        <time>2022-03-28T10:39:19Z</time>
      </trkpt>
      <trkpt lat="45.37455" lon="2.95707">
        <ele>1180.4</ele>
        <time>2022-03-28T10:39:22Z</time>
      </trkpt>
      <trkpt lat="45.37454" lon="2.95719">
        <ele>1182.35</ele>
        <time>2022-03-28T10:39:24Z</time>
      </trkpt>
      <trkpt lat="45.37451" lon="2.95736">
        <ele>1184.96</ele>
        <time>2022-03-28T10:39:27Z</time>
      </trkpt>
      <trkpt lat="45.37451" lon="2.95754">
        <ele>1186.96</ele>
        <time>2022-03-28T10:39:30Z</time>
      </trkpt>
      <trkpt lat="45.3746" lon="2.95778">
        <ele>1189.52</ele>
        <time>2022-03-28T10:39:33Z</time>
      </trkpt>
      <trkpt lat="45.37473" lon="2.95802">
        <ele>1193.05</ele>
        <time>2022-03-28T10:39:36Z</time>
      </trkpt>
      <trkpt lat="45.37484" lon="2.95817">
        <ele>1193.61</ele>
        <time>2022-03-28T10:39:38Z</time>
      </trkpt>
      <trkpt lat="45.37501" lon="2.95834">
        <ele>1193.88</ele>
        <time>2022-03-28T10:39:41Z</time>
      </trkpt>
      <trkpt lat="45.37532" lon="2.95859">
        <ele>1190.88</ele>
        <time>2022-03-28T10:39:44Z</time>
      </trkpt>
      <trkpt lat="45.37545" lon="2.95872">
        <ele>1188.33</ele>
        <time>2022-03-28T10:39:47Z</time>
      </trkpt>
      <trkpt lat="45.37557" lon="2.95887">
        <ele>1186.46</ele>
        <time>2022-03-28T10:39:50Z</time>
      </trkpt>
      <trkpt lat="45.37575" lon="2.95917">
        <ele>1189.52</ele>
        <time>2022-03-28T10:39:52Z</time>
      </trkpt>
      <trkpt lat="45.37622" lon="2.95958">
        <ele>1192.77</ele>
        <time>2022-03-28T10:39:55Z</time>
      </trkpt>
      <trkpt lat="45.3763" lon="2.95968">
        <ele>1193.8</ele>
        <time>2022-03-28T10:39:58Z</time>
      </trkpt>
      <trkpt lat="45.37637" lon="2.95984">
        <ele>1195.49</ele>
        <time>2022-03-28T10:40:01Z</time>
      </trkpt>
      <trkpt lat="45.37653" lon="2.96027">
        <ele>1194.33</ele>
        <time>2022-03-28T10:40:03Z</time>
      </trkpt>
      <trkpt lat="45.37679" lon="2.96146">
        <ele>1184.64</ele>
        <time>2022-03-28T10:40:06Z</time>
      </trkpt>
      <trkpt lat="45.37732" lon="2.96318">
        <ele>1173.68</ele>
        <time>2022-03-28T10:40:09Z</time>
      </trkpt>
      <trkpt lat="45.37745" lon="2.96359">
        <ele>1172.29</ele>
        <time>2022-03-28T10:40:12Z</time>
      </trkpt>
      <trkpt lat="45.37789" lon="2.96473">
        <ele>1163.53</ele>
        <time>2022-03-28T10:40:15Z</time>
      </trkpt>
      <trkpt lat="45.37812" lon="2.96548">
        <ele>1162.46</ele>
        <time>2022-03-28T10:40:17Z</time>
      </trkpt>
      <trkpt lat="45.37814" lon="2.96562">
        <ele>1161.98</ele>
        <time>2022-03-28T10:40:20Z</time>
      </trkpt>
      <trkpt lat="45.37815" lon="2.96597">
        <ele>1161.15</ele>
        <time>2022-03-28T10:40:23Z</time>
      </trkpt>
      <trkpt lat="45.3782" lon="2.96639">
        <ele>1159.49</ele>
        <time>2022-03-28T10:40:26Z</time>
      </trkpt>
      <trkpt lat="45.37815" lon="2.96701">
        <ele>1159.19</ele>
        <time>2022-03-28T10:40:29Z</time>
      </trkpt>
      <trkpt lat="45.37816" lon="2.96713">
        <ele>1159.32</ele>
        <time>2022-03-28T10:40:31Z</time>
      </trkpt>
      <trkpt lat="45.3782" lon="2.96723">
        <ele>1159.07</ele>
        <time>2022-03-28T10:40:34Z</time>
      </trkpt>
      <trkpt lat="45.37847" lon="2.9677">
        <ele>1158.63</ele>
        <time>2022-03-28T10:40:37Z</time>
      </trkpt>
      <trkpt lat="45.37856" lon="2.96788">
        <ele>1158.46</ele>
        <time>2022-03-28T10:40:40Z</time>
      </trkpt>
      <trkpt lat="45.37876" lon="2.96842">
        <ele>1158.85</ele>
        <time>2022-03-28T10:40:42Z</time>
      </trkpt>
      <trkpt lat="45.37881" lon="2.96851">
        <ele>1158.7</ele>
        <time>2022-03-28T10:40:45Z</time>
      </trkpt>
      <trkpt lat="45.37889" lon="2.9686">
        <ele>1157.98</ele>
        <time>2022-03-28T10:40:48Z</time>
      </trkpt>
      <trkpt lat="45.37905" lon="2.96871">
        <ele>1157.3</ele>
        <time>2022-03-28T10:40:51Z</time>
      </trkpt>
      <trkpt lat="45.37921" lon="2.96885">
        <ele>1156.72</ele>
        <time>2022-03-28T10:40:54Z</time>
      </trkpt>
      <trkpt lat="45.37914" lon="2.96892">
        <ele>1157.21</ele>
        <time>2022-03-28T10:40:55Z</time>
      </trkpt>
      <trkpt lat="45.37907" lon="2.96904">
        <ele>1157.52</ele>
        <time>2022-03-28T10:40:57Z</time>
      </trkpt>
      <trkpt lat="45.37882" lon="2.96971">
        <ele>1157.9</ele>
        <time>2022-03-28T10:40:58Z</time>
      </trkpt>
      <trkpt lat="45.37868" lon="2.97001">
        <ele>1159.44</ele>
        <time>2022-03-28T10:41:00Z</time>
      </trkpt>
      <trkpt lat="45.37861" lon="2.97013">
        <ele>1160.49</ele>
        <time>2022-03-28T10:41:02Z</time>
      </trkpt>
      <trkpt lat="45.37787" lon="2.97105">
        <ele>1165.44</ele>
        <time>2022-03-28T10:41:03Z</time>
      </trkpt>
      <trkpt lat="45.3778" lon="2.97119">
        <ele>1166.09</ele>
        <time>2022-03-28T10:41:05Z</time>
      </trkpt>
      <trkpt lat="45.37775" lon="2.97134">
        <ele>1165.41</ele>
        <time>2022-03-28T10:41:07Z</time>
      </trkpt>
      <trkpt lat="45.37767" lon="2.97177">
        <ele>1165.23</ele>
        <time>2022-03-28T10:41:08Z</time>
      </trkpt>
      <trkpt lat="45.37755" lon="2.97262">
        <ele>1170.12</ele>
        <time>2022-03-28T10:41:10Z</time>
      </trkpt>
      <trkpt lat="45.37748" lon="2.97295">
        <ele>1171.29</ele>
        <time>2022-03-28T10:41:11Z</time>
      </trkpt>
      <trkpt lat="45.37733" lon="2.97326">
        <ele>1173.48</ele>
        <time>2022-03-28T10:41:13Z</time>
      </trkpt>
      <trkpt lat="45.37726" lon="2.97335">
        <ele>1174.35</ele>
        <time>2022-03-28T10:41:15Z</time>
      </trkpt>
      <trkpt lat="45.37716" lon="2.97341">
        <ele>1175.04</ele>
        <time>2022-03-28T10:41:16Z</time>
      </trkpt>
      <trkpt lat="45.37702" lon="2.97338">
        <ele>1176.06</ele>
        <time>2022-03-28T10:41:18Z</time>
      </trkpt>
      <trkpt lat="45.3769" lon="2.97332">
        <ele>1176.92</ele>
        <time>2022-03-28T10:41:19Z</time>
      </trkpt>
      <trkpt lat="45.3765" lon="2.97302">
        <ele>1179.23</ele>
        <time>2022-03-28T10:41:21Z</time>
      </trkpt>
      <trkpt lat="45.37632" lon="2.97298">
        <ele>1179.41</ele>
        <time>2022-03-28T10:41:23Z</time>
      </trkpt>
      <trkpt lat="45.37588" lon="2.97306">
        <ele>1178.01</ele>
        <time>2022-03-28T10:41:24Z</time>
      </trkpt>
      <trkpt lat="45.37544" lon="2.97336">
        <ele>1179.54</ele>
        <time>2022-03-28T10:41:26Z</time>
      </trkpt>
      <trkpt lat="45.37534" lon="2.97338">
        <ele>1179.19</ele>
        <time>2022-03-28T10:41:28Z</time>
      </trkpt>
      <trkpt lat="45.37534" lon="2.97338">
        <ele>1179.19</ele>
        <time>2022-03-28T10:41:28Z</time>
      </trkpt>
      <trkpt lat="45.37528" lon="2.97339">
        <ele>1178.84</ele>
        <time>2022-03-28T10:41:30Z</time>
      </trkpt>
      <trkpt lat="45.37522" lon="2.97336">
        <ele>1178.83</ele>
        <time>2022-03-28T10:41:32Z</time>
      </trkpt>
      <trkpt lat="45.37514" lon="2.9733">
        <ele>1179.41</ele>
        <time>2022-03-28T10:41:34Z</time>
      </trkpt>
      <trkpt lat="45.375" lon="2.97313">
        <ele>1181.18</ele>
        <time>2022-03-28T10:41:36Z</time>
      </trkpt>
      <trkpt lat="45.37474" lon="2.97269">
        <ele>1183.11</ele>
        <time>2022-03-28T10:41:38Z</time>
      </trkpt>
      <trkpt lat="45.37461" lon="2.9725">
        <ele>1183.78</ele>
        <time>2022-03-28T10:41:40Z</time>
      </trkpt>
      <trkpt lat="45.37441" lon="2.97231">
        <ele>1184.56</ele>
        <time>2022-03-28T10:41:42Z</time>
      </trkpt>
      <trkpt lat="45.3742" lon="2.97219">
        <ele>1184.86</ele>
        <time>2022-03-28T10:41:44Z</time>
      </trkpt>
      <trkpt lat="45.37411" lon="2.97219">
        <ele>1184.4</ele>
        <time>2022-03-28T10:41:46Z</time>
      </trkpt>
      <trkpt lat="45.37384" lon="2.97234">
        <ele>1181.26</ele>
        <time>2022-03-28T10:41:48Z</time>
      </trkpt>
      <trkpt lat="45.37366" lon="2.97235">
        <ele>1180.68</ele>
        <time>2022-03-28T10:41:50Z</time>
      </trkpt>
      <trkpt lat="45.37356" lon="2.9723">
        <ele>1180.8</ele>
        <time>2022-03-28T10:41:53Z</time>
      </trkpt>
      <trkpt lat="45.37333" lon="2.97208">
        <ele>1181.44</ele>
        <time>2022-03-28T10:41:55Z</time>
      </trkpt>
      <trkpt lat="45.37303" lon="2.97175">
        <ele>1180.45</ele>
        <time>2022-03-28T10:41:57Z</time>
      </trkpt>
      <trkpt lat="45.3728" lon="2.97137">
        <ele>1179.37</ele>
        <time>2022-03-28T10:41:59Z</time>
      </trkpt>
      <trkpt lat="45.37273" lon="2.97131">
        <ele>1179.29</ele>
        <time>2022-03-28T10:42:01Z</time>
      </trkpt>
      <trkpt lat="45.37265" lon="2.97128">
        <ele>1179.41</ele>
        <time>2022-03-28T10:42:03Z</time>
      </trkpt>
      <trkpt lat="45.37255" lon="2.97128">
        <ele>1179.41</ele>
        <time>2022-03-28T10:42:05Z</time>
      </trkpt>
      <trkpt lat="45.37246" lon="2.97131">
        <ele>1179.52</ele>
        <time>2022-03-28T10:42:07Z</time>
      </trkpt>
      <trkpt lat="45.37185" lon="2.97175">
        <ele>1183.69</ele>
        <time>2022-03-28T10:42:09Z</time>
      </trkpt>
      <trkpt lat="45.37069" lon="2.97227">
        <ele>1185.68</ele>
        <time>2022-03-28T10:42:11Z</time>
      </trkpt>
      <trkpt lat="45.37062" lon="2.97229">
        <ele>1185.51</ele>
        <time>2022-03-28T10:42:13Z</time>
      </trkpt>
      <trkpt lat="45.37043" lon="2.9723">
        <ele>1184.75</ele>
        <time>2022-03-28T10:42:15Z</time>
      </trkpt>
      <trkpt lat="45.37027" lon="2.97227">
        <ele>1184</ele>
        <time>2022-03-28T10:42:17Z</time>
      </trkpt>
      <trkpt lat="45.37003" lon="2.97215">
        <ele>1184.25</ele>
        <time>2022-03-28T10:42:20Z</time>
      </trkpt>
      <trkpt lat="45.36956" lon="2.97184">
        <ele>1188.17</ele>
        <time>2022-03-28T10:42:22Z</time>
      </trkpt>
      <trkpt lat="45.36901" lon="2.97166">
        <ele>1195.18</ele>
        <time>2022-03-28T10:42:24Z</time>
      </trkpt>
      <trkpt lat="45.36875" lon="2.97164">
        <ele>1197.07</ele>
        <time>2022-03-28T10:42:26Z</time>
      </trkpt>
      <trkpt lat="45.36793" lon="2.97165">
        <ele>1200.95</ele>
        <time>2022-03-28T10:42:28Z</time>
      </trkpt>
      <trkpt lat="45.36778" lon="2.97164">
        <ele>1200.89</ele>
        <time>2022-03-28T10:42:30Z</time>
      </trkpt>
      <trkpt lat="45.36685" lon="2.9713">
        <ele>1205.25</ele>
        <time>2022-03-28T10:42:32Z</time>
      </trkpt>
      <trkpt lat="45.36677" lon="2.97122">
        <ele>1205.29</ele>
        <time>2022-03-28T10:42:34Z</time>
      </trkpt>
      <trkpt lat="45.36638" lon="2.97075">
        <ele>1204.76</ele>
        <time>2022-03-28T10:42:36Z</time>
      </trkpt>
      <trkpt lat="45.36623" lon="2.9706">
        <ele>1204.93</ele>
        <time>2022-03-28T10:42:38Z</time>
      </trkpt>
      <trkpt lat="45.36608" lon="2.97055">
        <ele>1205.34</ele>
        <time>2022-03-28T10:42:40Z</time>
      </trkpt>
      <trkpt lat="45.36551" lon="2.97055">
        <ele>1210.38</ele>
        <time>2022-03-28T10:42:42Z</time>
      </trkpt>
      <trkpt lat="45.36533" lon="2.97045">
        <ele>1212.37</ele>
        <time>2022-03-28T10:42:45Z</time>
      </trkpt>
      <trkpt lat="45.36525" lon="2.97034">
        <ele>1213.56</ele>
        <time>2022-03-28T10:42:47Z</time>
      </trkpt>
      <trkpt lat="45.36417" lon="2.96939">
        <ele>1220.4</ele>
        <time>2022-03-28T10:42:49Z</time>
      </trkpt>
      <trkpt lat="45.36404" lon="2.96934">
        <ele>1220.61</ele>
        <time>2022-03-28T10:42:51Z</time>
      </trkpt>
      <trkpt lat="45.36376" lon="2.96944">
        <ele>1220.05</ele>
        <time>2022-03-28T10:42:53Z</time>
      </trkpt>
      <trkpt lat="45.36342" lon="2.96965">
        <ele>1221.4</ele>
        <time>2022-03-28T10:42:55Z</time>
      </trkpt>
      <trkpt lat="45.3631" lon="2.9698">
        <ele>1223.64</ele>
        <time>2022-03-28T10:42:57Z</time>
      </trkpt>
      <trkpt lat="45.36298" lon="2.96991">
        <ele>1224.76</ele>
        <time>2022-03-28T10:42:59Z</time>
      </trkpt>
      <trkpt lat="45.36267" lon="2.97039">
        <ele>1230.36</ele>
        <time>2022-03-28T10:43:01Z</time>
      </trkpt>
      <trkpt lat="45.36261" lon="2.97042">
        <ele>1231.16</ele>
        <time>2022-03-28T10:43:03Z</time>
      </trkpt>
      <trkpt lat="45.36254" lon="2.9704">
        <ele>1232.01</ele>
        <time>2022-03-28T10:43:05Z</time>
      </trkpt>
      <trkpt lat="45.36239" lon="2.9702">
        <ele>1232.22</ele>
        <time>2022-03-28T10:43:08Z</time>
      </trkpt>
      <trkpt lat="45.36209" lon="2.96984">
        <ele>1232.62</ele>
        <time>2022-03-28T10:43:10Z</time>
      </trkpt>
      <trkpt lat="45.3614" lon="2.96928">
        <ele>1235.06</ele>
        <time>2022-03-28T10:43:12Z</time>
      </trkpt>
      <trkpt lat="45.36131" lon="2.96917">
        <ele>1236.44</ele>
        <time>2022-03-28T10:43:14Z</time>
      </trkpt>
      <trkpt lat="45.36121" lon="2.96893">
        <ele>1237.33</ele>
        <time>2022-03-28T10:43:16Z</time>
      </trkpt>
      <trkpt lat="45.36118" lon="2.96877">
        <ele>1236.43</ele>
        <time>2022-03-28T10:43:19Z</time>
      </trkpt>
      <trkpt lat="45.36115" lon="2.96834">
        <ele>1232.8</ele>
        <time>2022-03-28T10:43:21Z</time>
      </trkpt>
      <trkpt lat="45.36105" lon="2.96773">
        <ele>1235.21</ele>
        <time>2022-03-28T10:43:23Z</time>
      </trkpt>
      <trkpt lat="45.3608" lon="2.96674">
        <ele>1237.55</ele>
        <time>2022-03-28T10:43:25Z</time>
      </trkpt>
      <trkpt lat="45.36062" lon="2.96638">
        <ele>1236.75</ele>
        <time>2022-03-28T10:43:27Z</time>
      </trkpt>
      <trkpt lat="45.36028" lon="2.9659">
        <ele>1240.45</ele>
        <time>2022-03-28T10:43:30Z</time>
      </trkpt>
      <trkpt lat="45.36022" lon="2.96576">
        <ele>1242.72</ele>
        <time>2022-03-28T10:43:32Z</time>
      </trkpt>
      <trkpt lat="45.36008" lon="2.9651">
        <ele>1247.31</ele>
        <time>2022-03-28T10:43:34Z</time>
      </trkpt>
      <trkpt lat="45.35993" lon="2.96472">
        <ele>1248.73</ele>
        <time>2022-03-28T10:43:36Z</time>
      </trkpt>
      <trkpt lat="45.35953" lon="2.96399">
        <ele>1251.56</ele>
        <time>2022-03-28T10:43:38Z</time>
      </trkpt>
      <trkpt lat="45.35941" lon="2.96373">
        <ele>1249.71</ele>
        <time>2022-03-28T10:43:41Z</time>
      </trkpt>
      <trkpt lat="45.35923" lon="2.96325">
        <ele>1247.06</ele>
        <time>2022-03-28T10:43:43Z</time>
      </trkpt>
      <trkpt lat="45.35906" lon="2.96258">
        <ele>1244.37</ele>
        <time>2022-03-28T10:43:45Z</time>
      </trkpt>
      <trkpt lat="45.35896" lon="2.96235">
        <ele>1243.05</ele>
        <time>2022-03-28T10:43:47Z</time>
      </trkpt>
      <trkpt lat="45.3589" lon="2.96232">
        <ele>1242.17</ele>
        <time>2022-03-28T10:43:49Z</time>
      </trkpt>
      <trkpt lat="45.35884" lon="2.96232">
        <ele>1241.43</ele>
        <time>2022-03-28T10:43:52Z</time>
      </trkpt>
      <trkpt lat="45.35869" lon="2.96237">
        <ele>1239.81</ele>
        <time>2022-03-28T10:43:54Z</time>
      </trkpt>
      <trkpt lat="45.35838" lon="2.96271">
        <ele>1236.71</ele>
        <time>2022-03-28T10:43:56Z</time>
      </trkpt>
      <trkpt lat="45.35831" lon="2.96274">
        <ele>1236.04</ele>
        <time>2022-03-28T10:43:58Z</time>
      </trkpt>
      <trkpt lat="45.35824" lon="2.96274">
        <ele>1235.75</ele>
        <time>2022-03-28T10:44:01Z</time>
      </trkpt>
      <trkpt lat="45.35816" lon="2.9627">
        <ele>1235.48</ele>
        <time>2022-03-28T10:44:03Z</time>
      </trkpt>
      <trkpt lat="45.35782" lon="2.96236">
        <ele>1233.3</ele>
        <time>2022-03-28T10:44:05Z</time>
      </trkpt>
      <trkpt lat="45.35735" lon="2.96202">
        <ele>1230.59</ele>
        <time>2022-03-28T10:44:07Z</time>
      </trkpt>
      <trkpt lat="45.35671" lon="2.96145">
        <ele>1232.11</ele>
        <time>2022-03-28T10:44:09Z</time>
      </trkpt>
      <trkpt lat="45.35641" lon="2.96104">
        <ele>1231</ele>
        <time>2022-03-28T10:44:12Z</time>
      </trkpt>
      <trkpt lat="45.35626" lon="2.9608">
        <ele>1230.85</ele>
        <time>2022-03-28T10:44:14Z</time>
      </trkpt>
      <trkpt lat="45.35602" lon="2.96035">
        <ele>1228.82</ele>
        <time>2022-03-28T10:44:16Z</time>
      </trkpt>
      <trkpt lat="45.35579" lon="2.95998">
        <ele>1231.68</ele>
        <time>2022-03-28T10:44:18Z</time>
      </trkpt>
      <trkpt lat="45.35571" lon="2.95982">
        <ele>1231.66</ele>
        <time>2022-03-28T10:44:20Z</time>
      </trkpt>
      <trkpt lat="45.35563" lon="2.95965">
        <ele>1231.33</ele>
        <time>2022-03-28T10:44:23Z</time>
      </trkpt>
      <trkpt lat="45.35546" lon="2.9591">
        <ele>1230.42</ele>
        <time>2022-03-28T10:44:25Z</time>
      </trkpt>
      <trkpt lat="45.35537" lon="2.95888">
        <ele>1230.28</ele>
        <time>2022-03-28T10:44:27Z</time>
      </trkpt>
      <trkpt lat="45.35533" lon="2.95881">
        <ele>1230.2</ele>
        <time>2022-03-28T10:44:29Z</time>
      </trkpt>
      <trkpt lat="45.35504" lon="2.95859">
        <ele>1232.39</ele>
        <time>2022-03-28T10:44:31Z</time>
      </trkpt>
      <trkpt lat="45.3549" lon="2.95842">
        <ele>1234.1</ele>
        <time>2022-03-28T10:44:34Z</time>
      </trkpt>
      <trkpt lat="45.35473" lon="2.95794">
        <ele>1235.51</ele>
        <time>2022-03-28T10:44:36Z</time>
      </trkpt>
      <trkpt lat="45.35465" lon="2.95777">
        <ele>1236.32</ele>
        <time>2022-03-28T10:44:38Z</time>
      </trkpt>
      <trkpt lat="45.35446" lon="2.95751">
        <ele>1236.99</ele>
        <time>2022-03-28T10:44:40Z</time>
      </trkpt>
      <trkpt lat="45.35421" lon="2.95725">
        <ele>1236.2</ele>
        <time>2022-03-28T10:44:42Z</time>
      </trkpt>
      <trkpt lat="45.3541" lon="2.95711">
        <ele>1235.85</ele>
        <time>2022-03-28T10:44:45Z</time>
      </trkpt>
      <trkpt lat="45.35372" lon="2.95659">
        <ele>1235.14</ele>
        <time>2022-03-28T10:44:47Z</time>
      </trkpt>
      <trkpt lat="45.3536" lon="2.95637">
        <ele>1234.03</ele>
        <time>2022-03-28T10:44:49Z</time>
      </trkpt>
      <trkpt lat="45.35346" lon="2.95591">
        <ele>1234.51</ele>
        <time>2022-03-28T10:44:51Z</time>
      </trkpt>
      <trkpt lat="45.35334" lon="2.95568">
        <ele>1234.83</ele>
        <time>2022-03-28T10:44:54Z</time>
      </trkpt>
      <trkpt lat="45.35306" lon="2.95544">
        <ele>1237.19</ele>
        <time>2022-03-28T10:44:56Z</time>
      </trkpt>
      <trkpt lat="45.35301" lon="2.95538">
        <ele>1237.19</ele>
        <time>2022-03-28T10:44:58Z</time>
      </trkpt>
      <trkpt lat="45.35297" lon="2.95526">
        <ele>1236.84</ele>
        <time>2022-03-28T10:45:00Z</time>
      </trkpt>
      <trkpt lat="45.35295" lon="2.95498">
        <ele>1236.53</ele>
        <time>2022-03-28T10:45:02Z</time>
      </trkpt>
      <trkpt lat="45.35294" lon="2.95448">
        <ele>1236.01</ele>
        <time>2022-03-28T10:45:05Z</time>
      </trkpt>
      <trkpt lat="45.35289" lon="2.95411">
        <ele>1237.1</ele>
        <time>2022-03-28T10:45:07Z</time>
      </trkpt>
      <trkpt lat="45.35278" lon="2.95384">
        <ele>1237.76</ele>
        <time>2022-03-28T10:45:09Z</time>
      </trkpt>
      <trkpt lat="45.35261" lon="2.95353">
        <ele>1238.72</ele>
        <time>2022-03-28T10:45:11Z</time>
      </trkpt>
      <trkpt lat="45.35258" lon="2.9534">
        <ele>1238.97</ele>
        <time>2022-03-28T10:45:13Z</time>
      </trkpt>
      <trkpt lat="45.35256" lon="2.95289">
        <ele>1239.21</ele>
        <time>2022-03-28T10:45:16Z</time>
      </trkpt>
      <trkpt lat="45.35253" lon="2.95275">
        <ele>1239.71</ele>
        <time>2022-03-28T10:45:18Z</time>
      </trkpt>
      <trkpt lat="45.35243" lon="2.95251">
        <ele>1241.93</ele>
        <time>2022-03-28T10:45:20Z</time>
      </trkpt>
      <trkpt lat="45.35221" lon="2.95212">
        <ele>1242.04</ele>
        <time>2022-03-28T10:45:22Z</time>
      </trkpt>
      <trkpt lat="45.35186" lon="2.95163">
        <ele>1244.23</ele>
        <time>2022-03-28T10:45:24Z</time>
      </trkpt>
      <trkpt lat="45.3517" lon="2.9513">
        <ele>1244.32</ele>
        <time>2022-03-28T10:45:27Z</time>
      </trkpt>
      <trkpt lat="45.35164" lon="2.95122">
        <ele>1244.49</ele>
        <time>2022-03-28T10:45:29Z</time>
      </trkpt>
      <trkpt lat="45.35148" lon="2.9511">
        <ele>1244.98</ele>
        <time>2022-03-28T10:45:31Z</time>
      </trkpt>
      <trkpt lat="45.35137" lon="2.95107">
        <ele>1245.97</ele>
        <time>2022-03-28T10:45:33Z</time>
      </trkpt>
      <trkpt lat="45.35106" lon="2.95104">
        <ele>1250.56</ele>
        <time>2022-03-28T10:45:35Z</time>
      </trkpt>
      <trkpt lat="45.3509" lon="2.95096">
        <ele>1252.51</ele>
        <time>2022-03-28T10:45:38Z</time>
      </trkpt>
      <trkpt lat="45.35068" lon="2.95068">
        <ele>1253.5</ele>
        <time>2022-03-28T10:45:40Z</time>
      </trkpt>
      <trkpt lat="45.35054" lon="2.95052">
        <ele>1254.02</ele>
        <time>2022-03-28T10:45:42Z</time>
      </trkpt>
      <trkpt lat="45.34975" lon="2.94983">
        <ele>1259.7</ele>
        <time>2022-03-28T10:45:44Z</time>
      </trkpt>
      <trkpt lat="45.34958" lon="2.94963">
        <ele>1261.49</ele>
        <time>2022-03-28T10:45:47Z</time>
      </trkpt>
      <trkpt lat="45.34938" lon="2.94927">
        <ele>1262.07</ele>
        <time>2022-03-28T10:45:49Z</time>
      </trkpt>
      <trkpt lat="45.34898" lon="2.94864">
        <ele>1263.12</ele>
        <time>2022-03-28T10:45:51Z</time>
      </trkpt>
      <trkpt lat="45.34881" lon="2.94842">
        <ele>1263.73</ele>
        <time>2022-03-28T10:45:53Z</time>
      </trkpt>
      <trkpt lat="45.34868" lon="2.94831">
        <ele>1263.95</ele>
        <time>2022-03-28T10:45:55Z</time>
      </trkpt>
      <trkpt lat="45.34846" lon="2.94816">
        <ele>1264.35</ele>
        <time>2022-03-28T10:45:58Z</time>
      </trkpt>
      <trkpt lat="45.34824" lon="2.94808">
        <ele>1264.73</ele>
        <time>2022-03-28T10:46:00Z</time>
      </trkpt>
      <trkpt lat="45.34794" lon="2.94802">
        <ele>1265.56</ele>
        <time>2022-03-28T10:46:02Z</time>
      </trkpt>
      <trkpt lat="45.34739" lon="2.94772">
        <ele>1268.16</ele>
        <time>2022-03-28T10:46:04Z</time>
      </trkpt>
      <trkpt lat="45.34716" lon="2.94761">
        <ele>1268.78</ele>
        <time>2022-03-28T10:46:06Z</time>
      </trkpt>
      <trkpt lat="45.34676" lon="2.94744">
        <ele>1271.18</ele>
        <time>2022-03-28T10:46:09Z</time>
      </trkpt>
      <trkpt lat="45.34634" lon="2.94732">
        <ele>1271.85</ele>
        <time>2022-03-28T10:46:11Z</time>
      </trkpt>
      <trkpt lat="45.34603" lon="2.94717">
        <ele>1271.76</ele>
        <time>2022-03-28T10:46:13Z</time>
      </trkpt>
      <trkpt lat="45.34586" lon="2.94707">
        <ele>1271.29</ele>
        <time>2022-03-28T10:46:15Z</time>
      </trkpt>
      <trkpt lat="45.34548" lon="2.94677">
        <ele>1271.28</ele>
        <time>2022-03-28T10:46:17Z</time>
      </trkpt>
      <trkpt lat="45.34479" lon="2.94645">
        <ele>1276.66</ele>
        <time>2022-03-28T10:46:20Z</time>
      </trkpt>
      <trkpt lat="45.3444" lon="2.94608">
        <ele>1276.72</ele>
        <time>2022-03-28T10:46:22Z</time>
      </trkpt>
      <trkpt lat="45.34411" lon="2.94586">
        <ele>1274.07</ele>
        <time>2022-03-28T10:46:24Z</time>
      </trkpt>
      <trkpt lat="45.34395" lon="2.94576">
        <ele>1274.3</ele>
        <time>2022-03-28T10:46:26Z</time>
      </trkpt>
      <trkpt lat="45.34373" lon="2.94568">
        <ele>1274.97</ele>
        <time>2022-03-28T10:46:28Z</time>
      </trkpt>
      <trkpt lat="45.34361" lon="2.94568">
        <ele>1275.77</ele>
        <time>2022-03-28T10:46:31Z</time>
      </trkpt>
      <trkpt lat="45.34316" lon="2.94575">
        <ele>1279.9</ele>
        <time>2022-03-28T10:46:33Z</time>
      </trkpt>
      <trkpt lat="45.34299" lon="2.9457">
        <ele>1280.73</ele>
        <time>2022-03-28T10:46:35Z</time>
      </trkpt>
      <trkpt lat="45.3426" lon="2.94541">
        <ele>1281.58</ele>
        <time>2022-03-28T10:46:37Z</time>
      </trkpt>
      <trkpt lat="45.34234" lon="2.94526">
        <ele>1283.06</ele>
        <time>2022-03-28T10:46:40Z</time>
      </trkpt>
      <trkpt lat="45.3422" lon="2.94504">
        <ele>1283.29</ele>
        <time>2022-03-28T10:46:42Z</time>
      </trkpt>
      <trkpt lat="45.34206" lon="2.94492">
        <ele>1283.05</ele>
        <time>2022-03-28T10:46:44Z</time>
      </trkpt>
      <trkpt lat="45.34193" lon="2.94487">
        <ele>1283.68</ele>
        <time>2022-03-28T10:46:46Z</time>
      </trkpt>
      <trkpt lat="45.34161" lon="2.9448">
        <ele>1286.41</ele>
        <time>2022-03-28T10:46:48Z</time>
      </trkpt>
      <trkpt lat="45.34154" lon="2.94474">
        <ele>1286.9</ele>
        <time>2022-03-28T10:46:51Z</time>
      </trkpt>
      <trkpt lat="45.34137" lon="2.94447">
        <ele>1286.55</ele>
        <time>2022-03-28T10:46:53Z</time>
      </trkpt>
      <trkpt lat="45.34112" lon="2.94426">
        <ele>1288.61</ele>
        <time>2022-03-28T10:46:55Z</time>
      </trkpt>
      <trkpt lat="45.34105" lon="2.94411">
        <ele>1287.83</ele>
        <time>2022-03-28T10:46:57Z</time>
      </trkpt>
      <trkpt lat="45.34101" lon="2.94382">
        <ele>1285.78</ele>
        <time>2022-03-28T10:46:59Z</time>
      </trkpt>
      <trkpt lat="45.34095" lon="2.94361">
        <ele>1284.73</ele>
        <time>2022-03-28T10:47:02Z</time>
      </trkpt>
      <trkpt lat="45.34054" lon="2.94307">
        <ele>1287.16</ele>
        <time>2022-03-28T10:47:04Z</time>
      </trkpt>
      <trkpt lat="45.34047" lon="2.943">
        <ele>1287.85</ele>
        <time>2022-03-28T10:47:06Z</time>
      </trkpt>
      <trkpt lat="45.34039" lon="2.94297">
        <ele>1288.64</ele>
        <time>2022-03-28T10:47:08Z</time>
      </trkpt>
      <trkpt lat="45.34032" lon="2.94296">
        <ele>1289.48</ele>
        <time>2022-03-28T10:47:10Z</time>
      </trkpt>
      <trkpt lat="45.34009" lon="2.94301">
        <ele>1291.35</ele>
        <time>2022-03-28T10:47:13Z</time>
      </trkpt>
      <trkpt lat="45.33998" lon="2.94295">
        <ele>1291.8</ele>
        <time>2022-03-28T10:47:15Z</time>
      </trkpt>
      <trkpt lat="45.33998" lon="2.94295">
        <ele>1291.8</ele>
        <time>2022-03-28T10:47:15Z</time>
      </trkpt>
      <trkpt lat="45.33991" lon="2.94284">
        <ele>1292.65</ele>
        <time>2022-03-28T10:47:17Z</time>
      </trkpt>
      <trkpt lat="45.33988" lon="2.94272">
        <ele>1292.35</ele>
        <time>2022-03-28T10:47:20Z</time>
      </trkpt>
      <trkpt lat="45.33986" lon="2.94241">
        <ele>1289.73</ele>
        <time>2022-03-28T10:47:22Z</time>
      </trkpt>
      <trkpt lat="45.33981" lon="2.94207">
        <ele>1288</ele>
        <time>2022-03-28T10:47:25Z</time>
      </trkpt>
      <trkpt lat="45.33981" lon="2.94184">
        <ele>1287.67</ele>
        <time>2022-03-28T10:47:27Z</time>
      </trkpt>
      <trkpt lat="45.33988" lon="2.9415">
        <ele>1288.38</ele>
        <time>2022-03-28T10:47:30Z</time>
      </trkpt>
      <trkpt lat="45.33991" lon="2.9413">
        <ele>1289.43</ele>
        <time>2022-03-28T10:47:32Z</time>
      </trkpt>
      <trkpt lat="45.33981" lon="2.94106">
        <ele>1290.05</ele>
        <time>2022-03-28T10:47:35Z</time>
      </trkpt>
      <trkpt lat="45.33964" lon="2.94071">
        <ele>1291.74</ele>
        <time>2022-03-28T10:47:38Z</time>
      </trkpt>
      <trkpt lat="45.3396" lon="2.9405">
        <ele>1292.76</ele>
        <time>2022-03-28T10:47:40Z</time>
      </trkpt>
      <trkpt lat="45.33958" lon="2.94028">
        <ele>1293.47</ele>
        <time>2022-03-28T10:47:43Z</time>
      </trkpt>
      <trkpt lat="45.33958" lon="2.94001">
        <ele>1295.41</ele>
        <time>2022-03-28T10:47:45Z</time>
      </trkpt>
      <trkpt lat="45.33956" lon="2.93984">
        <ele>1296.24</ele>
        <time>2022-03-28T10:47:48Z</time>
      </trkpt>
      <trkpt lat="45.33943" lon="2.93967">
        <ele>1295.19</ele>
        <time>2022-03-28T10:47:50Z</time>
      </trkpt>
      <trkpt lat="45.33925" lon="2.93948">
        <ele>1294.03</ele>
        <time>2022-03-28T10:47:53Z</time>
      </trkpt>
      <trkpt lat="45.33892" lon="2.93923">
        <ele>1292.97</ele>
        <time>2022-03-28T10:47:55Z</time>
      </trkpt>
      <trkpt lat="45.33877" lon="2.93901">
        <ele>1292.36</ele>
        <time>2022-03-28T10:47:58Z</time>
      </trkpt>
      <trkpt lat="45.33863" lon="2.93873">
        <ele>1292.64</ele>
        <time>2022-03-28T10:48:00Z</time>
      </trkpt>
      <trkpt lat="45.33837" lon="2.93807">
        <ele>1294.46</ele>
        <time>2022-03-28T10:48:03Z</time>
      </trkpt>
      <trkpt lat="45.33824" lon="2.93781">
        <ele>1293.94</ele>
        <time>2022-03-28T10:48:05Z</time>
      </trkpt>
      <trkpt lat="45.33802" lon="2.93751">
        <ele>1293.67</ele>
        <time>2022-03-28T10:48:08Z</time>
      </trkpt>
      <trkpt lat="45.33793" lon="2.93737">
        <ele>1293.88</ele>
        <time>2022-03-28T10:48:10Z</time>
      </trkpt>
      <trkpt lat="45.33785" lon="2.93712">
        <ele>1294.56</ele>
        <time>2022-03-28T10:48:13Z</time>
      </trkpt>
      <trkpt lat="45.33776" lon="2.93659">
        <ele>1295.9</ele>
        <time>2022-03-28T10:48:15Z</time>
      </trkpt>
      <trkpt lat="45.33771" lon="2.93642">
        <ele>1295.48</ele>
        <time>2022-03-28T10:48:18Z</time>
      </trkpt>
      <trkpt lat="45.33757" lon="2.93625">
        <ele>1294.5</ele>
        <time>2022-03-28T10:48:20Z</time>
      </trkpt>
      <trkpt lat="45.33733" lon="2.93581">
        <ele>1293.95</ele>
        <time>2022-03-28T10:48:23Z</time>
      </trkpt>
      <trkpt lat="45.33714" lon="2.9356">
        <ele>1294.4</ele>
        <time>2022-03-28T10:48:25Z</time>
      </trkpt>
      <trkpt lat="45.33696" lon="2.93546">
        <ele>1294.75</ele>
        <time>2022-03-28T10:48:28Z</time>
      </trkpt>
      <trkpt lat="45.33654" lon="2.93527">
        <ele>1292.56</ele>
        <time>2022-03-28T10:48:30Z</time>
      </trkpt>
      <trkpt lat="45.33613" lon="2.935">
        <ele>1293.05</ele>
        <time>2022-03-28T10:48:33Z</time>
      </trkpt>
      <trkpt lat="45.336" lon="2.93488">
        <ele>1291.33</ele>
        <time>2022-03-28T10:48:35Z</time>
      </trkpt>
      <trkpt lat="45.33585" lon="2.93463">
        <ele>1288.8</ele>
        <time>2022-03-28T10:48:38Z</time>
      </trkpt>
      <trkpt lat="45.33577" lon="2.93439">
        <ele>1286.94</ele>
        <time>2022-03-28T10:48:40Z</time>
      </trkpt>
      <trkpt lat="45.33574" lon="2.93418">
        <ele>1286.07</ele>
        <time>2022-03-28T10:48:43Z</time>
      </trkpt>
      <trkpt lat="45.33568" lon="2.934">
        <ele>1285.94</ele>
        <time>2022-03-28T10:48:45Z</time>
      </trkpt>
      <trkpt lat="45.33559" lon="2.93387">
        <ele>1285.44</ele>
        <time>2022-03-28T10:48:48Z</time>
      </trkpt>
      <trkpt lat="45.33527" lon="2.93353">
        <ele>1281.88</ele>
        <time>2022-03-28T10:48:50Z</time>
      </trkpt>
      <trkpt lat="45.33488" lon="2.93254">
        <ele>1280.56</ele>
        <time>2022-03-28T10:48:53Z</time>
      </trkpt>
      <trkpt lat="45.33458" lon="2.93202">
        <ele>1277.79</ele>
        <time>2022-03-28T10:48:55Z</time>
      </trkpt>
      <trkpt lat="45.33435" lon="2.93138">
        <ele>1275.38</ele>
        <time>2022-03-28T10:48:58Z</time>
      </trkpt>
      <trkpt lat="45.33423" lon="2.93097">
        <ele>1274.7</ele>
        <time>2022-03-28T10:49:00Z</time>
      </trkpt>
      <trkpt lat="45.33423" lon="2.93078">
        <ele>1274.41</ele>
        <time>2022-03-28T10:49:03Z</time>
      </trkpt>
      <trkpt lat="45.33427" lon="2.93061">
        <ele>1274.04</ele>
        <time>2022-03-28T10:49:05Z</time>
      </trkpt>
      <trkpt lat="45.33449" lon="2.93029">
        <ele>1273.24</ele>
        <time>2022-03-28T10:49:08Z</time>
      </trkpt>
      <trkpt lat="45.33464" lon="2.92992">
        <ele>1270.17</ele>
        <time>2022-03-28T10:49:10Z</time>
      </trkpt>
      <trkpt lat="45.33506" lon="2.92938">
        <ele>1267.93</ele>
        <time>2022-03-28T10:49:13Z</time>
      </trkpt>
      <trkpt lat="45.33519" lon="2.92899">
        <ele>1266.09</ele>
        <time>2022-03-28T10:49:15Z</time>
      </trkpt>
      <trkpt lat="45.33529" lon="2.92883">
        <ele>1265.86</ele>
        <time>2022-03-28T10:49:18Z</time>
      </trkpt>
      <trkpt lat="45.33549" lon="2.92867">
        <ele>1266.11</ele>
        <time>2022-03-28T10:49:20Z</time>
      </trkpt>
      <trkpt lat="45.33556" lon="2.92856">
        <ele>1265.69</ele>
        <time>2022-03-28T10:49:23Z</time>
      </trkpt>
      <trkpt lat="45.33563" lon="2.92838">
        <ele>1265.13</ele>
        <time>2022-03-28T10:49:25Z</time>
      </trkpt>
      <trkpt lat="45.33573" lon="2.92789">
        <ele>1262.69</ele>
        <time>2022-03-28T10:49:28Z</time>
      </trkpt>
      <trkpt lat="45.33579" lon="2.92772">
        <ele>1261.7</ele>
        <time>2022-03-28T10:49:30Z</time>
      </trkpt>
      <trkpt lat="45.3359" lon="2.92756">
        <ele>1261.79</ele>
        <time>2022-03-28T10:49:33Z</time>
      </trkpt>
      <trkpt lat="45.33623" lon="2.92717">
        <ele>1264.02</ele>
        <time>2022-03-28T10:49:35Z</time>
      </trkpt>
      <trkpt lat="45.3363" lon="2.92701">
        <ele>1263.24</ele>
        <time>2022-03-28T10:49:38Z</time>
      </trkpt>
      <trkpt lat="45.33642" lon="2.92655">
        <ele>1258.97</ele>
        <time>2022-03-28T10:49:41Z</time>
      </trkpt>
      <trkpt lat="45.33647" lon="2.92641">
        <ele>1258.43</ele>
        <time>2022-03-28T10:49:43Z</time>
      </trkpt>
      <trkpt lat="45.33649" lon="2.92621">
        <ele>1258.06</ele>
        <time>2022-03-28T10:49:46Z</time>
      </trkpt>
      <trkpt lat="45.33637" lon="2.92568">
        <ele>1255.45</ele>
        <time>2022-03-28T10:49:48Z</time>
      </trkpt>
      <trkpt lat="45.33633" lon="2.92521">
        <ele>1252.42</ele>
        <time>2022-03-28T10:49:51Z</time>
      </trkpt>
      <trkpt lat="45.33633" lon="2.92503">
        <ele>1251.91</ele>
        <time>2022-03-28T10:49:53Z</time>
      </trkpt>
      <trkpt lat="45.33643" lon="2.92473">
        <ele>1253.01</ele>
        <time>2022-03-28T10:49:56Z</time>
      </trkpt>
      <trkpt lat="45.33646" lon="2.92457">
        <ele>1253.84</ele>
        <time>2022-03-28T10:49:58Z</time>
      </trkpt>
      <trkpt lat="45.33645" lon="2.92442">
        <ele>1253.57</ele>
        <time>2022-03-28T10:50:01Z</time>
      </trkpt>
      <trkpt lat="45.33633" lon="2.924">
        <ele>1250.53</ele>
        <time>2022-03-28T10:50:03Z</time>
      </trkpt>
      <trkpt lat="45.33629" lon="2.92362">
        <ele>1247.65</ele>
        <time>2022-03-28T10:50:06Z</time>
      </trkpt>
      <trkpt lat="45.33628" lon="2.92329">
        <ele>1245.34</ele>
        <time>2022-03-28T10:50:08Z</time>
      </trkpt>
      <trkpt lat="45.33611" lon="2.92265">
        <ele>1241.98</ele>
        <time>2022-03-28T10:50:11Z</time>
      </trkpt>
      <trkpt lat="45.33592" lon="2.92211">
        <ele>1238.9</ele>
        <time>2022-03-28T10:50:13Z</time>
      </trkpt>
      <trkpt lat="45.33588" lon="2.92157">
        <ele>1236.54</ele>
        <time>2022-03-28T10:50:16Z</time>
      </trkpt>
      <trkpt lat="45.33572" lon="2.9212">
        <ele>1234.17</ele>
        <time>2022-03-28T10:50:18Z</time>
      </trkpt>
      <trkpt lat="45.33568" lon="2.92105">
        <ele>1234</ele>
        <time>2022-03-28T10:50:21Z</time>
      </trkpt>
      <trkpt lat="45.33574" lon="2.92056">
        <ele>1235.3</ele>
        <time>2022-03-28T10:50:23Z</time>
      </trkpt>
      <trkpt lat="45.33573" lon="2.92042">
        <ele>1235.23</ele>
        <time>2022-03-28T10:50:26Z</time>
      </trkpt>
      <trkpt lat="45.33566" lon="2.92024">
        <ele>1234.63</ele>
        <time>2022-03-28T10:50:28Z</time>
      </trkpt>
      <trkpt lat="45.33555" lon="2.92004">
        <ele>1233.07</ele>
        <time>2022-03-28T10:50:31Z</time>
      </trkpt>
      <trkpt lat="45.33531" lon="2.91992">
        <ele>1231.26</ele>
        <time>2022-03-28T10:50:33Z</time>
      </trkpt>
      <trkpt lat="45.33505" lon="2.91981">
        <ele>1230.18</ele>
        <time>2022-03-28T10:50:36Z</time>
      </trkpt>
      <trkpt lat="45.33493" lon="2.91965">
        <ele>1229.46</ele>
        <time>2022-03-28T10:50:38Z</time>
      </trkpt>
      <trkpt lat="45.33484" lon="2.91947">
        <ele>1228.88</ele>
        <time>2022-03-28T10:50:41Z</time>
      </trkpt>
      <trkpt lat="45.3348" lon="2.91931">
        <ele>1228.53</ele>
        <time>2022-03-28T10:50:43Z</time>
      </trkpt>
      <trkpt lat="45.33474" lon="2.91868">
        <ele>1226.39</ele>
        <time>2022-03-28T10:50:46Z</time>
      </trkpt>
      <trkpt lat="45.33466" lon="2.91816">
        <ele>1223.63</ele>
        <time>2022-03-28T10:50:48Z</time>
      </trkpt>
      <trkpt lat="45.3347" lon="2.91803">
        <ele>1222.5</ele>
        <time>2022-03-28T10:50:51Z</time>
      </trkpt>
      <trkpt lat="45.33475" lon="2.91793">
        <ele>1221.81</ele>
        <time>2022-03-28T10:50:53Z</time>
      </trkpt>
      <trkpt lat="45.33495" lon="2.91767">
        <ele>1220.54</ele>
        <time>2022-03-28T10:50:56Z</time>
      </trkpt>
      <trkpt lat="45.33511" lon="2.91735">
        <ele>1218.29</ele>
        <time>2022-03-28T10:50:58Z</time>
      </trkpt>
      <trkpt lat="45.33523" lon="2.91716">
        <ele>1216.35</ele>
        <time>2022-03-28T10:51:01Z</time>
      </trkpt>
      <trkpt lat="45.33534" lon="2.91704">
        <ele>1215.08</ele>
        <time>2022-03-28T10:51:03Z</time>
      </trkpt>
      <trkpt lat="45.33541" lon="2.91701">
        <ele>1214.7</ele>
        <time>2022-03-28T10:51:06Z</time>
      </trkpt>
      <trkpt lat="45.33561" lon="2.91696">
        <ele>1214.14</ele>
        <time>2022-03-28T10:51:08Z</time>
      </trkpt>
      <trkpt lat="45.33577" lon="2.91688">
        <ele>1213.72</ele>
        <time>2022-03-28T10:51:11Z</time>
      </trkpt>
      <trkpt lat="45.33586" lon="2.91673">
        <ele>1213.45</ele>
        <time>2022-03-28T10:51:13Z</time>
      </trkpt>
      <trkpt lat="45.33591" lon="2.91649">
        <ele>1212.01</ele>
        <time>2022-03-28T10:51:16Z</time>
      </trkpt>
      <trkpt lat="45.33593" lon="2.916">
        <ele>1208.38</ele>
        <time>2022-03-28T10:51:18Z</time>
      </trkpt>
      <trkpt lat="45.33591" lon="2.91585">
        <ele>1207.21</ele>
        <time>2022-03-28T10:51:21Z</time>
      </trkpt>
      <trkpt lat="45.33583" lon="2.91558">
        <ele>1205.07</ele>
        <time>2022-03-28T10:51:23Z</time>
      </trkpt>
      <trkpt lat="45.3357" lon="2.91533">
        <ele>1203.6</ele>
        <time>2022-03-28T10:51:26Z</time>
      </trkpt>
      <trkpt lat="45.33563" lon="2.91514">
        <ele>1202.92</ele>
        <time>2022-03-28T10:51:28Z</time>
      </trkpt>
      <trkpt lat="45.33519" lon="2.91294">
        <ele>1192.71</ele>
        <time>2022-03-28T10:51:31Z</time>
      </trkpt>
      <trkpt lat="45.33516" lon="2.91273">
        <ele>1192.15</ele>
        <time>2022-03-28T10:51:33Z</time>
      </trkpt>
      <trkpt lat="45.33517" lon="2.91206">
        <ele>1189</ele>
        <time>2022-03-28T10:51:36Z</time>
      </trkpt>
      <trkpt lat="45.33506" lon="2.91075">
        <ele>1180.44</ele>
        <time>2022-03-28T10:51:38Z</time>
      </trkpt>
      <trkpt lat="45.33496" lon="2.91043">
        <ele>1179.46</ele>
        <time>2022-03-28T10:51:41Z</time>
      </trkpt>
      <trkpt lat="45.3347" lon="2.90984">
        <ele>1175.46</ele>
        <time>2022-03-28T10:51:43Z</time>
      </trkpt>
      <trkpt lat="45.33454" lon="2.90963">
        <ele>1175.44</ele>
        <time>2022-03-28T10:51:46Z</time>
      </trkpt>
      <trkpt lat="45.33426" lon="2.90945">
        <ele>1174.35</ele>
        <time>2022-03-28T10:51:49Z</time>
      </trkpt>
      <trkpt lat="45.33396" lon="2.90914">
        <ele>1172.16</ele>
        <time>2022-03-28T10:51:51Z</time>
      </trkpt>
      <trkpt lat="45.3338" lon="2.90874">
        <ele>1170.32</ele>
        <time>2022-03-28T10:51:54Z</time>
      </trkpt>
      <trkpt lat="45.33363" lon="2.90813">
        <ele>1169.1</ele>
        <time>2022-03-28T10:51:56Z</time>
      </trkpt>
      <trkpt lat="45.33361" lon="2.90789">
        <ele>1168.98</ele>
        <time>2022-03-28T10:51:59Z</time>
      </trkpt>
      <trkpt lat="45.33364" lon="2.90767">
        <ele>1169.07</ele>
        <time>2022-03-28T10:52:01Z</time>
      </trkpt>
      <trkpt lat="45.33337" lon="2.90697">
        <ele>1167.47</ele>
        <time>2022-03-28T10:52:04Z</time>
      </trkpt>
      <trkpt lat="45.33285" lon="2.90595">
        <ele>1163.8</ele>
        <time>2022-03-28T10:52:06Z</time>
      </trkpt>
      <trkpt lat="45.33253" lon="2.90518">
        <ele>1161.9</ele>
        <time>2022-03-28T10:52:09Z</time>
      </trkpt>
      <trkpt lat="45.33238" lon="2.90468">
        <ele>1161.65</ele>
        <time>2022-03-28T10:52:11Z</time>
      </trkpt>
      <trkpt lat="45.33243" lon="2.90419">
        <ele>1161.5</ele>
        <time>2022-03-28T10:52:14Z</time>
      </trkpt>
      <trkpt lat="45.33239" lon="2.90371">
        <ele>1160.79</ele>
        <time>2022-03-28T10:52:16Z</time>
      </trkpt>
      <trkpt lat="45.33246" lon="2.90304">
        <ele>1159.11</ele>
        <time>2022-03-28T10:52:19Z</time>
      </trkpt>
      <trkpt lat="45.33257" lon="2.90253">
        <ele>1160.26</ele>
        <time>2022-03-28T10:52:21Z</time>
      </trkpt>
      <trkpt lat="45.33259" lon="2.90213">
        <ele>1162.49</ele>
        <time>2022-03-28T10:52:24Z</time>
      </trkpt>
      <trkpt lat="45.33211" lon="2.90114">
        <ele>1153.89</ele>
        <time>2022-03-28T10:52:26Z</time>
      </trkpt>
      <trkpt lat="45.33202" lon="2.90063">
        <ele>1151.79</ele>
        <time>2022-03-28T10:52:29Z</time>
      </trkpt>
      <trkpt lat="45.3321" lon="2.89997">
        <ele>1146.42</ele>
        <time>2022-03-28T10:52:31Z</time>
      </trkpt>
      <trkpt lat="45.33239" lon="2.89955">
        <ele>1148</ele>
        <time>2022-03-28T10:52:34Z</time>
      </trkpt>
      <trkpt lat="45.33252" lon="2.89901">
        <ele>1148.08</ele>
        <time>2022-03-28T10:52:36Z</time>
      </trkpt>
      <trkpt lat="45.33245" lon="2.89859">
        <ele>1145.65</ele>
        <time>2022-03-28T10:52:39Z</time>
      </trkpt>
      <trkpt lat="45.33202" lon="2.89724">
        <ele>1135.54</ele>
        <time>2022-03-28T10:52:41Z</time>
      </trkpt>
      <trkpt lat="45.33206" lon="2.89685">
        <ele>1136.49</ele>
        <time>2022-03-28T10:52:44Z</time>
      </trkpt>
      <trkpt lat="45.3321" lon="2.89628">
        <ele>1136.22</ele>
        <time>2022-03-28T10:52:46Z</time>
      </trkpt>
      <trkpt lat="45.33188" lon="2.89533">
        <ele>1131.63</ele>
        <time>2022-03-28T10:52:49Z</time>
      </trkpt>
      <trkpt lat="45.33149" lon="2.89429">
        <ele>1124.62</ele>
        <time>2022-03-28T10:52:51Z</time>
      </trkpt>
      <trkpt lat="45.33107" lon="2.89329">
        <ele>1119.4</ele>
        <time>2022-03-28T10:52:54Z</time>
      </trkpt>
      <trkpt lat="45.33065" lon="2.89249">
        <ele>1120.05</ele>
        <time>2022-03-28T10:52:56Z</time>
      </trkpt>
      <trkpt lat="45.33043" lon="2.89202">
        <ele>1118.13</ele>
        <time>2022-03-28T10:52:59Z</time>
      </trkpt>
      <trkpt lat="45.33" lon="2.89145">
        <ele>1117.73</ele>
        <time>2022-03-28T10:53:01Z</time>
      </trkpt>
      <trkpt lat="45.32984" lon="2.8911">
        <ele>1116.25</ele>
        <time>2022-03-28T10:53:04Z</time>
      </trkpt>
      <trkpt lat="45.3298" lon="2.8909">
        <ele>1116.38</ele>
        <time>2022-03-28T10:53:06Z</time>
      </trkpt>
      <trkpt lat="45.32972" lon="2.89062">
        <ele>1115.97</ele>
        <time>2022-03-28T10:53:09Z</time>
      </trkpt>
      <trkpt lat="45.32961" lon="2.89043">
        <ele>1116.05</ele>
        <time>2022-03-28T10:53:11Z</time>
      </trkpt>
      <trkpt lat="45.32928" lon="2.88993">
        <ele>1114.8</ele>
        <time>2022-03-28T10:53:14Z</time>
      </trkpt>
      <trkpt lat="45.32904" lon="2.88962">
        <ele>1112.51</ele>
        <time>2022-03-28T10:53:16Z</time>
      </trkpt>
      <trkpt lat="45.32895" lon="2.88949">
        <ele>1111.78</ele>
        <time>2022-03-28T10:53:19Z</time>
      </trkpt>
      <trkpt lat="45.32885" lon="2.88918">
        <ele>1110.06</ele>
        <time>2022-03-28T10:53:21Z</time>
      </trkpt>
      <trkpt lat="45.32884" lon="2.88904">
        <ele>1109.51</ele>
        <time>2022-03-28T10:53:24Z</time>
      </trkpt>
      <trkpt lat="45.32899" lon="2.88863">
        <ele>1110.11</ele>
        <time>2022-03-28T10:53:26Z</time>
      </trkpt>
      <trkpt lat="45.32905" lon="2.88816">
        <ele>1108.5</ele>
        <time>2022-03-28T10:53:29Z</time>
      </trkpt>
      <trkpt lat="45.32902" lon="2.88773">
        <ele>1106.72</ele>
        <time>2022-03-28T10:53:31Z</time>
      </trkpt>
      <trkpt lat="45.32885" lon="2.88712">
        <ele>1104.09</ele>
        <time>2022-03-28T10:53:34Z</time>
      </trkpt>
      <trkpt lat="45.32862" lon="2.88657">
        <ele>1099.52</ele>
        <time>2022-03-28T10:53:36Z</time>
      </trkpt>
      <trkpt lat="45.32855" lon="2.88636">
        <ele>1098.51</ele>
        <time>2022-03-28T10:53:39Z</time>
      </trkpt>
      <trkpt lat="45.32853" lon="2.88617">
        <ele>1097.38</ele>
        <time>2022-03-28T10:53:41Z</time>
      </trkpt>
      <trkpt lat="45.3285" lon="2.88539">
        <ele>1091.58</ele>
        <time>2022-03-28T10:53:44Z</time>
      </trkpt>
      <trkpt lat="45.32852" lon="2.88512">
        <ele>1089.74</ele>
        <time>2022-03-28T10:53:46Z</time>
      </trkpt>
      <trkpt lat="45.32865" lon="2.8848">
        <ele>1087.22</ele>
        <time>2022-03-28T10:53:49Z</time>
      </trkpt>
      <trkpt lat="45.3289" lon="2.88437">
        <ele>1084.26</ele>
        <time>2022-03-28T10:53:52Z</time>
      </trkpt>
      <trkpt lat="45.32912" lon="2.88411">
        <ele>1082.07</ele>
        <time>2022-03-28T10:53:54Z</time>
      </trkpt>
      <trkpt lat="45.32949" lon="2.88382">
        <ele>1077.2</ele>
        <time>2022-03-28T10:53:57Z</time>
      </trkpt>
      <trkpt lat="45.32965" lon="2.88377">
        <ele>1076.52</ele>
        <time>2022-03-28T10:53:59Z</time>
      </trkpt>
      <trkpt lat="45.33008" lon="2.88376">
        <ele>1079.77</ele>
        <time>2022-03-28T10:54:02Z</time>
      </trkpt>
      <trkpt lat="45.33023" lon="2.88371">
        <ele>1080.41</ele>
        <time>2022-03-28T10:54:04Z</time>
      </trkpt>
      <trkpt lat="45.33032" lon="2.88357">
        <ele>1080</ele>
        <time>2022-03-28T10:54:07Z</time>
      </trkpt>
      <trkpt lat="45.33037" lon="2.88339">
        <ele>1080.29</ele>
        <time>2022-03-28T10:54:09Z</time>
      </trkpt>
      <trkpt lat="45.33034" lon="2.88319">
        <ele>1078.94</ele>
        <time>2022-03-28T10:54:12Z</time>
      </trkpt>
      <trkpt lat="45.33021" lon="2.88296">
        <ele>1074.66</ele>
        <time>2022-03-28T10:54:14Z</time>
      </trkpt>
      <trkpt lat="45.33017" lon="2.88283">
        <ele>1073.01</ele>
        <time>2022-03-28T10:54:17Z</time>
      </trkpt>
      <trkpt lat="45.33018" lon="2.88265">
        <ele>1072.47</ele>
        <time>2022-03-28T10:54:19Z</time>
      </trkpt>
      <trkpt lat="45.33034" lon="2.88213">
        <ele>1073.37</ele>
        <time>2022-03-28T10:54:22Z</time>
      </trkpt>
      <trkpt lat="45.33059" lon="2.88158">
        <ele>1068.7</ele>
        <time>2022-03-28T10:54:24Z</time>
      </trkpt>
      <trkpt lat="45.33077" lon="2.88125">
        <ele>1064.91</ele>
        <time>2022-03-28T10:54:27Z</time>
      </trkpt>
      <trkpt lat="45.33099" lon="2.88105">
        <ele>1063.91</ele>
        <time>2022-03-28T10:54:29Z</time>
      </trkpt>
      <trkpt lat="45.33123" lon="2.88089">
        <ele>1063.78</ele>
        <time>2022-03-28T10:54:32Z</time>
      </trkpt>
      <trkpt lat="45.33156" lon="2.88074">
        <ele>1063.24</ele>
        <time>2022-03-28T10:54:34Z</time>
      </trkpt>
      <trkpt lat="45.33205" lon="2.8807">
        <ele>1065.29</ele>
        <time>2022-03-28T10:54:37Z</time>
      </trkpt>
      <trkpt lat="45.33218" lon="2.88064">
        <ele>1065.32</ele>
        <time>2022-03-28T10:54:39Z</time>
      </trkpt>
      <trkpt lat="45.33224" lon="2.88051">
        <ele>1064.22</ele>
        <time>2022-03-28T10:54:42Z</time>
      </trkpt>
      <trkpt lat="45.33223" lon="2.88034">
        <ele>1064.13</ele>
        <time>2022-03-28T10:54:44Z</time>
      </trkpt>
      <trkpt lat="45.33218" lon="2.88017">
        <ele>1064.57</ele>
        <time>2022-03-28T10:54:47Z</time>
      </trkpt>
      <trkpt lat="45.33208" lon="2.88006">
        <ele>1064.33</ele>
        <time>2022-03-28T10:54:49Z</time>
      </trkpt>
      <trkpt lat="45.33191" lon="2.87998">
        <ele>1063.41</ele>
        <time>2022-03-28T10:54:52Z</time>
      </trkpt>
      <trkpt lat="45.33128" lon="2.8799">
        <ele>1062.94</ele>
        <time>2022-03-28T10:54:54Z</time>
      </trkpt>
      <trkpt lat="45.33102" lon="2.87984">
        <ele>1062.69</ele>
        <time>2022-03-28T10:54:57Z</time>
      </trkpt>
      <trkpt lat="45.33039" lon="2.87959">
        <ele>1054.58</ele>
        <time>2022-03-28T10:54:59Z</time>
      </trkpt>
      <trkpt lat="45.33009" lon="2.87935">
        <ele>1050.04</ele>
        <time>2022-03-28T10:55:02Z</time>
      </trkpt>
      <trkpt lat="45.32992" lon="2.87908">
        <ele>1048.96</ele>
        <time>2022-03-28T10:55:04Z</time>
      </trkpt>
      <trkpt lat="45.32981" lon="2.87873">
        <ele>1049.17</ele>
        <time>2022-03-28T10:55:07Z</time>
      </trkpt>
      <trkpt lat="45.32955" lon="2.87773">
        <ele>1052.43</ele>
        <time>2022-03-28T10:55:09Z</time>
      </trkpt>
      <trkpt lat="45.32896" lon="2.87568">
        <ele>1051.02</ele>
        <time>2022-03-28T10:55:12Z</time>
      </trkpt>
      <trkpt lat="45.32857" lon="2.87453">
        <ele>1047.96</ele>
        <time>2022-03-28T10:55:14Z</time>
      </trkpt>
      <trkpt lat="45.32717" lon="2.87187">
        <ele>1031.3</ele>
        <time>2022-03-28T10:55:17Z</time>
      </trkpt>
      <trkpt lat="45.32697" lon="2.87109">
        <ele>1030.42</ele>
        <time>2022-03-28T10:55:19Z</time>
      </trkpt>
      <trkpt lat="45.32701" lon="2.87112">
        <ele>1031.36</ele>
        <time>2022-03-28T10:55:20Z</time>
      </trkpt>
      <trkpt lat="45.32701" lon="2.87112">
        <ele>1031.36</ele>
        <time>2022-03-28T10:55:20Z</time>
      </trkpt>
      <trkpt lat="45.32703" lon="2.87114">
        <ele>1032.29</ele>
        <time>2022-03-28T10:55:23Z</time>
      </trkpt>
      <trkpt lat="45.32721" lon="2.87172">
        <ele>1034.2</ele>
        <time>2022-03-28T10:55:26Z</time>
      </trkpt>
      <trkpt lat="45.32736" lon="2.87204">
        <ele>1038.61</ele>
        <time>2022-03-28T10:55:29Z</time>
      </trkpt>
      <trkpt lat="45.3279" lon="2.87284">
        <ele>1051.09</ele>
        <time>2022-03-28T10:55:33Z</time>
      </trkpt>
      <trkpt lat="45.3282" lon="2.87337">
        <ele>1053.37</ele>
        <time>2022-03-28T10:55:36Z</time>
      </trkpt>
      <trkpt lat="45.32846" lon="2.87373">
        <ele>1060.02</ele>
        <time>2022-03-28T10:55:39Z</time>
      </trkpt>
      <trkpt lat="45.32897" lon="2.87476">
        <ele>1059.85</ele>
        <time>2022-03-28T10:55:42Z</time>
      </trkpt>
      <trkpt lat="45.32962" lon="2.87643">
        <ele>1065.69</ele>
        <time>2022-03-28T10:55:46Z</time>
      </trkpt>
      <trkpt lat="45.32986" lon="2.87697">
        <ele>1068.58</ele>
        <time>2022-03-28T10:55:49Z</time>
      </trkpt>
      <trkpt lat="45.33003" lon="2.87753">
        <ele>1071.56</ele>
        <time>2022-03-28T10:55:52Z</time>
      </trkpt>
      <trkpt lat="45.33022" lon="2.87792">
        <ele>1073.48</ele>
        <time>2022-03-28T10:55:55Z</time>
      </trkpt>
      <trkpt lat="45.33043" lon="2.87825">
        <ele>1078.2</ele>
        <time>2022-03-28T10:55:58Z</time>
      </trkpt>
      <trkpt lat="45.33066" lon="2.87853">
        <ele>1082.42</ele>
        <time>2022-03-28T10:56:02Z</time>
      </trkpt>
      <trkpt lat="45.33083" lon="2.87869">
        <ele>1084.42</ele>
        <time>2022-03-28T10:56:05Z</time>
      </trkpt>
      <trkpt lat="45.33102" lon="2.87884">
        <ele>1085.95</ele>
        <time>2022-03-28T10:56:08Z</time>
      </trkpt>
      <trkpt lat="45.33122" lon="2.87891">
        <ele>1086.9</ele>
        <time>2022-03-28T10:56:11Z</time>
      </trkpt>
      <trkpt lat="45.33186" lon="2.87903">
        <ele>1085.76</ele>
        <time>2022-03-28T10:56:15Z</time>
      </trkpt>
      <trkpt lat="45.33219" lon="2.87902">
        <ele>1092.02</ele>
        <time>2022-03-28T10:56:18Z</time>
      </trkpt>
      <trkpt lat="45.33241" lon="2.87895">
        <ele>1097.15</ele>
        <time>2022-03-28T10:56:21Z</time>
      </trkpt>
      <trkpt lat="45.33287" lon="2.87871">
        <ele>1102.61</ele>
        <time>2022-03-28T10:56:24Z</time>
      </trkpt>
      <trkpt lat="45.33306" lon="2.87871">
        <ele>1103.34</ele>
        <time>2022-03-28T10:56:27Z</time>
      </trkpt>
      <trkpt lat="45.3332" lon="2.87875">
        <ele>1105.9</ele>
        <time>2022-03-28T10:56:31Z</time>
      </trkpt>
      <trkpt lat="45.3335" lon="2.87889">
        <ele>1109.47</ele>
        <time>2022-03-28T10:56:34Z</time>
      </trkpt>
      <trkpt lat="45.33369" lon="2.87893">
        <ele>1112.3</ele>
        <time>2022-03-28T10:56:37Z</time>
      </trkpt>
      <trkpt lat="45.33399" lon="2.87892">
        <ele>1116.27</ele>
        <time>2022-03-28T10:56:40Z</time>
      </trkpt>
      <trkpt lat="45.33415" lon="2.87899">
        <ele>1117.08</ele>
        <time>2022-03-28T10:56:43Z</time>
      </trkpt>
      <trkpt lat="45.33428" lon="2.87912">
        <ele>1117.44</ele>
        <time>2022-03-28T10:56:47Z</time>
      </trkpt>
      <trkpt lat="45.33448" lon="2.87945">
        <ele>1117.4</ele>
        <time>2022-03-28T10:56:50Z</time>
      </trkpt>
      <trkpt lat="45.33466" lon="2.87959">
        <ele>1118.43</ele>
        <time>2022-03-28T10:56:53Z</time>
      </trkpt>
      <trkpt lat="45.33483" lon="2.87963">
        <ele>1120.56</ele>
        <time>2022-03-28T10:56:56Z</time>
      </trkpt>
      <trkpt lat="45.335" lon="2.87958">
        <ele>1123.49</ele>
        <time>2022-03-28T10:57:00Z</time>
      </trkpt>
      <trkpt lat="45.33537" lon="2.87944">
        <ele>1127.05</ele>
        <time>2022-03-28T10:57:03Z</time>
      </trkpt>
      <trkpt lat="45.33603" lon="2.87937">
        <ele>1131.45</ele>
        <time>2022-03-28T10:57:06Z</time>
      </trkpt>
      <trkpt lat="45.33623" lon="2.87928">
        <ele>1132.08</ele>
        <time>2022-03-28T10:57:09Z</time>
      </trkpt>
      <trkpt lat="45.33644" lon="2.87905">
        <ele>1134.29</ele>
        <time>2022-03-28T10:57:12Z</time>
      </trkpt>
      <trkpt lat="45.33652" lon="2.87888">
        <ele>1136.22</ele>
        <time>2022-03-28T10:57:16Z</time>
      </trkpt>
      <trkpt lat="45.33665" lon="2.87851">
        <ele>1139.37</ele>
        <time>2022-03-28T10:57:19Z</time>
      </trkpt>
      <trkpt lat="45.33695" lon="2.87749">
        <ele>1145.04</ele>
        <time>2022-03-28T10:57:22Z</time>
      </trkpt>
      <trkpt lat="45.337" lon="2.8772">
        <ele>1147.35</ele>
        <time>2022-03-28T10:57:25Z</time>
      </trkpt>
      <trkpt lat="45.33699" lon="2.87698">
        <ele>1149.08</ele>
        <time>2022-03-28T10:57:28Z</time>
      </trkpt>
      <trkpt lat="45.33681" lon="2.87591">
        <ele>1155.84</ele>
        <time>2022-03-28T10:57:32Z</time>
      </trkpt>
      <trkpt lat="45.33679" lon="2.87488">
        <ele>1165.8</ele>
        <time>2022-03-28T10:57:35Z</time>
      </trkpt>
      <trkpt lat="45.33681" lon="2.87439">
        <ele>1168.9</ele>
        <time>2022-03-28T10:57:38Z</time>
      </trkpt>
      <trkpt lat="45.33688" lon="2.87413">
        <ele>1170.1</ele>
        <time>2022-03-28T10:57:41Z</time>
      </trkpt>
      <trkpt lat="45.33697" lon="2.87392">
        <ele>1171.56</ele>
        <time>2022-03-28T10:57:45Z</time>
      </trkpt>
      <trkpt lat="45.33708" lon="2.87379">
        <ele>1173.15</ele>
        <time>2022-03-28T10:57:48Z</time>
      </trkpt>
      <trkpt lat="45.33727" lon="2.87363">
        <ele>1175.9</ele>
        <time>2022-03-28T10:57:51Z</time>
      </trkpt>
      <trkpt lat="45.33751" lon="2.8735">
        <ele>1179.84</ele>
        <time>2022-03-28T10:57:54Z</time>
      </trkpt>
      <trkpt lat="45.33775" lon="2.87349">
        <ele>1181.06</ele>
        <time>2022-03-28T10:57:57Z</time>
      </trkpt>
      <trkpt lat="45.33827" lon="2.87366">
        <ele>1182.22</ele>
        <time>2022-03-28T10:58:01Z</time>
      </trkpt>
      <trkpt lat="45.33861" lon="2.87367">
        <ele>1184.16</ele>
        <time>2022-03-28T10:58:04Z</time>
      </trkpt>
      <trkpt lat="45.33895" lon="2.87358">
        <ele>1187.89</ele>
        <time>2022-03-28T10:58:07Z</time>
      </trkpt>
      <trkpt lat="45.33958" lon="2.87336">
        <ele>1193.54</ele>
        <time>2022-03-28T10:58:10Z</time>
      </trkpt>
      <trkpt lat="45.33987" lon="2.87322">
        <ele>1194.27</ele>
        <time>2022-03-28T10:58:13Z</time>
      </trkpt>
      <trkpt lat="45.34005" lon="2.87303">
        <ele>1196.27</ele>
        <time>2022-03-28T10:58:17Z</time>
      </trkpt>
      <trkpt lat="45.34122" lon="2.87156">
        <ele>1211.13</ele>
        <time>2022-03-28T10:58:20Z</time>
      </trkpt>
      <trkpt lat="45.34148" lon="2.87132">
        <ele>1216.04</ele>
        <time>2022-03-28T10:58:23Z</time>
      </trkpt>
      <trkpt lat="45.34168" lon="2.87121">
        <ele>1219.22</ele>
        <time>2022-03-28T10:58:26Z</time>
      </trkpt>
      <trkpt lat="45.34193" lon="2.87118">
        <ele>1221</ele>
        <time>2022-03-28T10:58:30Z</time>
      </trkpt>
      <trkpt lat="45.34258" lon="2.87121">
        <ele>1219.09</ele>
        <time>2022-03-28T10:58:33Z</time>
      </trkpt>
      <trkpt lat="45.34391" lon="2.87107">
        <ele>1224.97</ele>
        <time>2022-03-28T10:58:36Z</time>
      </trkpt>
      <trkpt lat="45.34458" lon="2.87173">
        <ele>1224.26</ele>
        <time>2022-03-28T10:58:39Z</time>
      </trkpt>
      <trkpt lat="45.34499" lon="2.87205">
        <ele>1223.4</ele>
        <time>2022-03-28T10:58:42Z</time>
      </trkpt>
      <trkpt lat="45.34566" lon="2.87243">
        <ele>1223.49</ele>
        <time>2022-03-28T10:58:46Z</time>
      </trkpt>
      <trkpt lat="45.34568" lon="2.87258">
        <ele>1222.85</ele>
        <time>2022-03-28T10:58:49Z</time>
      </trkpt>
      <trkpt lat="45.34598" lon="2.8733">
        <ele>1223.94</ele>
        <time>2022-03-28T10:58:52Z</time>
      </trkpt>
      <trkpt lat="45.34605" lon="2.87354">
        <ele>1223.97</ele>
        <time>2022-03-28T10:58:56Z</time>
      </trkpt>
      <trkpt lat="45.34605" lon="2.87354">
        <ele>1223.97</ele>
        <time>2022-03-28T10:58:56Z</time>
      </trkpt>
      <trkpt lat="45.34611" lon="2.87374">
        <ele>1224</ele>
        <time>2022-03-28T10:59:02Z</time>
      </trkpt>
      <trkpt lat="45.34647" lon="2.87549">
        <ele>1224.21</ele>
        <time>2022-03-28T10:59:08Z</time>
      </trkpt>
      <trkpt lat="45.34684" lon="2.87684">
        <ele>1222.53</ele>
        <time>2022-03-28T10:59:15Z</time>
      </trkpt>
      <trkpt lat="45.347" lon="2.87791">
        <ele>1222.39</ele>
        <time>2022-03-28T10:59:21Z</time>
      </trkpt>
      <trkpt lat="45.34706" lon="2.87864">
        <ele>1223.72</ele>
        <time>2022-03-28T10:59:27Z</time>
      </trkpt>
      <trkpt lat="45.34707" lon="2.87934">
        <ele>1226.22</ele>
        <time>2022-03-28T10:59:34Z</time>
      </trkpt>
      <trkpt lat="45.34715" lon="2.87978">
        <ele>1225.96</ele>
        <time>2022-03-28T10:59:40Z</time>
      </trkpt>
      <trkpt lat="45.34734" lon="2.88036">
        <ele>1221.69</ele>
        <time>2022-03-28T10:59:46Z</time>
      </trkpt>
      <trkpt lat="45.34738" lon="2.88067">
        <ele>1220.82</ele>
        <time>2022-03-28T10:59:53Z</time>
      </trkpt>
      <trkpt lat="45.34732" lon="2.88139">
        <ele>1220</ele>
        <time>2022-03-28T10:59:59Z</time>
      </trkpt>
      <trkpt lat="45.34726" lon="2.88223">
        <ele>1218.12</ele>
        <time>2022-03-28T11:00:05Z</time>
      </trkpt>
      <trkpt lat="45.34722" lon="2.883">
        <ele>1215.99</ele>
        <time>2022-03-28T11:00:12Z</time>
      </trkpt>
      <trkpt lat="45.34723" lon="2.88387">
        <ele>1214.92</ele>
        <time>2022-03-28T11:00:18Z</time>
      </trkpt>
      <trkpt lat="45.34714" lon="2.88496">
        <ele>1216.32</ele>
        <time>2022-03-28T11:00:24Z</time>
      </trkpt>
      <trkpt lat="45.34711" lon="2.88628">
        <ele>1213.18</ele>
        <time>2022-03-28T11:00:30Z</time>
      </trkpt>
      <trkpt lat="45.34699" lon="2.88718">
        <ele>1212.54</ele>
        <time>2022-03-28T11:00:37Z</time>
      </trkpt>
      <trkpt lat="45.34698" lon="2.88746">
        <ele>1212</ele>
        <time>2022-03-28T11:00:43Z</time>
      </trkpt>
      <trkpt lat="45.34702" lon="2.88816">
        <ele>1210.35</ele>
        <time>2022-03-28T11:00:49Z</time>
      </trkpt>
      <trkpt lat="45.34703" lon="2.8886">
        <ele>1209.71</ele>
        <time>2022-03-28T11:00:56Z</time>
      </trkpt>
      <trkpt lat="45.34699" lon="2.8888">
        <ele>1210.32</ele>
        <time>2022-03-28T11:01:02Z</time>
      </trkpt>
      <trkpt lat="45.34709" lon="2.88881">
        <ele>1209.65</ele>
        <time>2022-03-28T11:01:03Z</time>
      </trkpt>
      <trkpt lat="45.34709" lon="2.88881">
        <ele>1209.65</ele>
        <time>2022-03-28T11:01:03Z</time>
      </trkpt>
      <trkpt lat="45.34699" lon="2.8888">
        <ele>1210.32</ele>
        <time>2022-03-28T11:01:04Z</time>
      </trkpt>
      <trkpt lat="45.34703" lon="2.8886">
        <ele>1209.71</ele>
        <time>2022-03-28T11:01:11Z</time>
      </trkpt>
      <trkpt lat="45.34702" lon="2.88816">
        <ele>1210.35</ele>
        <time>2022-03-28T11:01:17Z</time>
      </trkpt>
      <trkpt lat="45.34698" lon="2.88746">
        <ele>1212</ele>
        <time>2022-03-28T11:01:23Z</time>
      </trkpt>
      <trkpt lat="45.34699" lon="2.88718">
        <ele>1212.54</ele>
        <time>2022-03-28T11:01:29Z</time>
      </trkpt>
      <trkpt lat="45.34711" lon="2.88628">
        <ele>1213.18</ele>
        <time>2022-03-28T11:01:35Z</time>
      </trkpt>
      <trkpt lat="45.34714" lon="2.88496">
        <ele>1216.32</ele>
        <time>2022-03-28T11:01:42Z</time>
      </trkpt>
      <trkpt lat="45.34723" lon="2.88387">
        <ele>1214.92</ele>
        <time>2022-03-28T11:01:48Z</time>
      </trkpt>
      <trkpt lat="45.34722" lon="2.883">
        <ele>1215.99</ele>
        <time>2022-03-28T11:01:54Z</time>
      </trkpt>
      <trkpt lat="45.34726" lon="2.88223">
        <ele>1218.12</ele>
        <time>2022-03-28T11:02:00Z</time>
      </trkpt>
      <trkpt lat="45.34732" lon="2.88139">
        <ele>1220</ele>
        <time>2022-03-28T11:02:06Z</time>
      </trkpt>
      <trkpt lat="45.34738" lon="2.88067">
        <ele>1220.82</ele>
        <time>2022-03-28T11:02:13Z</time>
      </trkpt>
      <trkpt lat="45.34734" lon="2.88036">
        <ele>1221.69</ele>
        <time>2022-03-28T11:02:19Z</time>
      </trkpt>
      <trkpt lat="45.34715" lon="2.87978">
        <ele>1225.96</ele>
        <time>2022-03-28T11:02:25Z</time>
      </trkpt>
      <trkpt lat="45.34707" lon="2.87934">
        <ele>1226.22</ele>
        <time>2022-03-28T11:02:31Z</time>
      </trkpt>
      <trkpt lat="45.34706" lon="2.87864">
        <ele>1223.72</ele>
        <time>2022-03-28T11:02:37Z</time>
      </trkpt>
      <trkpt lat="45.347" lon="2.87791">
        <ele>1222.39</ele>
        <time>2022-03-28T11:02:44Z</time>
      </trkpt>
      <trkpt lat="45.34684" lon="2.87684">
        <ele>1222.53</ele>
        <time>2022-03-28T11:02:50Z</time>
      </trkpt>
      <trkpt lat="45.34647" lon="2.87549">
        <ele>1224.21</ele>
        <time>2022-03-28T11:02:56Z</time>
      </trkpt>
      <trkpt lat="45.34611" lon="2.87374">
        <ele>1224</ele>
        <time>2022-03-28T11:03:02Z</time>
      </trkpt>
      <trkpt lat="45.34598" lon="2.8733">
        <ele>1223.94</ele>
        <time>2022-03-28T11:03:08Z</time>
      </trkpt>
      <trkpt lat="45.34568" lon="2.87258">
        <ele>1222.85</ele>
        <time>2022-03-28T11:03:15Z</time>
      </trkpt>
      <trkpt lat="45.34566" lon="2.87243">
        <ele>1223.49</ele>
        <time>2022-03-28T11:03:21Z</time>
      </trkpt>
      <trkpt lat="45.34565" lon="2.87243">
        <ele>1223.54</ele>
        <time>2022-03-28T11:03:21Z</time>
      </trkpt>
      <trkpt lat="45.34565" lon="2.87243">
        <ele>1223.54</ele>
        <time>2022-03-28T11:03:21Z</time>
      </trkpt>
      <trkpt lat="45.34499" lon="2.87205">
        <ele>1223.4</ele>
        <time>2022-03-28T11:03:24Z</time>
      </trkpt>
      <trkpt lat="45.34458" lon="2.87173">
        <ele>1224.26</ele>
        <time>2022-03-28T11:03:27Z</time>
      </trkpt>
      <trkpt lat="45.34391" lon="2.87107">
        <ele>1224.97</ele>
        <time>2022-03-28T11:03:30Z</time>
      </trkpt>
      <trkpt lat="45.34258" lon="2.87121">
        <ele>1219.09</ele>
        <time>2022-03-28T11:03:34Z</time>
      </trkpt>
      <trkpt lat="45.34193" lon="2.87118">
        <ele>1221</ele>
        <time>2022-03-28T11:03:37Z</time>
      </trkpt>
      <trkpt lat="45.34168" lon="2.87121">
        <ele>1219.22</ele>
        <time>2022-03-28T11:03:40Z</time>
      </trkpt>
      <trkpt lat="45.34148" lon="2.87132">
        <ele>1216.04</ele>
        <time>2022-03-28T11:03:43Z</time>
      </trkpt>
      <trkpt lat="45.34122" lon="2.87156">
        <ele>1211.13</ele>
        <time>2022-03-28T11:03:46Z</time>
      </trkpt>
      <trkpt lat="45.34005" lon="2.87303">
        <ele>1196.27</ele>
        <time>2022-03-28T11:03:49Z</time>
      </trkpt>
      <trkpt lat="45.33987" lon="2.87322">
        <ele>1194.27</ele>
        <time>2022-03-28T11:03:52Z</time>
      </trkpt>
      <trkpt lat="45.33958" lon="2.87336">
        <ele>1193.54</ele>
        <time>2022-03-28T11:03:56Z</time>
      </trkpt>
      <trkpt lat="45.33895" lon="2.87358">
        <ele>1187.89</ele>
        <time>2022-03-28T11:03:59Z</time>
      </trkpt>
      <trkpt lat="45.33861" lon="2.87367">
        <ele>1184.16</ele>
        <time>2022-03-28T11:04:02Z</time>
      </trkpt>
      <trkpt lat="45.33827" lon="2.87366">
        <ele>1182.22</ele>
        <time>2022-03-28T11:04:05Z</time>
      </trkpt>
      <trkpt lat="45.33775" lon="2.87349">
        <ele>1181.06</ele>
        <time>2022-03-28T11:04:08Z</time>
      </trkpt>
      <trkpt lat="45.33751" lon="2.8735">
        <ele>1179.84</ele>
        <time>2022-03-28T11:04:11Z</time>
      </trkpt>
      <trkpt lat="45.33727" lon="2.87363">
        <ele>1175.9</ele>
        <time>2022-03-28T11:04:15Z</time>
      </trkpt>
      <trkpt lat="45.33708" lon="2.87379">
        <ele>1173.15</ele>
        <time>2022-03-28T11:04:18Z</time>
      </trkpt>
      <trkpt lat="45.33697" lon="2.87392">
        <ele>1171.56</ele>
        <time>2022-03-28T11:04:21Z</time>
      </trkpt>
      <trkpt lat="45.33688" lon="2.87413">
        <ele>1170.1</ele>
        <time>2022-03-28T11:04:24Z</time>
      </trkpt>
      <trkpt lat="45.33681" lon="2.87439">
        <ele>1168.9</ele>
        <time>2022-03-28T11:04:27Z</time>
      </trkpt>
      <trkpt lat="45.33679" lon="2.87488">
        <ele>1165.8</ele>
        <time>2022-03-28T11:04:30Z</time>
      </trkpt>
      <trkpt lat="45.33681" lon="2.87591">
        <ele>1155.84</ele>
        <time>2022-03-28T11:04:34Z</time>
      </trkpt>
      <trkpt lat="45.33699" lon="2.87698">
        <ele>1149.08</ele>
        <time>2022-03-28T11:04:37Z</time>
      </trkpt>
      <trkpt lat="45.337" lon="2.8772">
        <ele>1147.35</ele>
        <time>2022-03-28T11:04:40Z</time>
      </trkpt>
      <trkpt lat="45.33695" lon="2.87749">
        <ele>1145.04</ele>
        <time>2022-03-28T11:04:43Z</time>
      </trkpt>
      <trkpt lat="45.33665" lon="2.87851">
        <ele>1139.37</ele>
        <time>2022-03-28T11:04:46Z</time>
      </trkpt>
      <trkpt lat="45.33652" lon="2.87888">
        <ele>1136.22</ele>
        <time>2022-03-28T11:04:49Z</time>
      </trkpt>
      <trkpt lat="45.33644" lon="2.87905">
        <ele>1134.29</ele>
        <time>2022-03-28T11:04:53Z</time>
      </trkpt>
      <trkpt lat="45.33623" lon="2.87928">
        <ele>1132.08</ele>
        <time>2022-03-28T11:04:56Z</time>
      </trkpt>
      <trkpt lat="45.33603" lon="2.87937">
        <ele>1131.45</ele>
        <time>2022-03-28T11:04:59Z</time>
      </trkpt>
      <trkpt lat="45.33537" lon="2.87944">
        <ele>1127.05</ele>
        <time>2022-03-28T11:05:02Z</time>
      </trkpt>
      <trkpt lat="45.335" lon="2.87958">
        <ele>1123.49</ele>
        <time>2022-03-28T11:05:05Z</time>
      </trkpt>
      <trkpt lat="45.33483" lon="2.87963">
        <ele>1120.56</ele>
        <time>2022-03-28T11:05:08Z</time>
      </trkpt>
      <trkpt lat="45.33466" lon="2.87959">
        <ele>1118.43</ele>
        <time>2022-03-28T11:05:12Z</time>
      </trkpt>
      <trkpt lat="45.33448" lon="2.87945">
        <ele>1117.4</ele>
        <time>2022-03-28T11:05:15Z</time>
      </trkpt>
      <trkpt lat="45.33428" lon="2.87912">
        <ele>1117.44</ele>
        <time>2022-03-28T11:05:18Z</time>
      </trkpt>
      <trkpt lat="45.33415" lon="2.87899">
        <ele>1117.08</ele>
        <time>2022-03-28T11:05:21Z</time>
      </trkpt>
      <trkpt lat="45.33399" lon="2.87892">
        <ele>1116.27</ele>
        <time>2022-03-28T11:05:24Z</time>
      </trkpt>
      <trkpt lat="45.33369" lon="2.87893">
        <ele>1112.3</ele>
        <time>2022-03-28T11:05:27Z</time>
      </trkpt>
      <trkpt lat="45.3335" lon="2.87889">
        <ele>1109.47</ele>
        <time>2022-03-28T11:05:31Z</time>
      </trkpt>
      <trkpt lat="45.3332" lon="2.87875">
        <ele>1105.9</ele>
        <time>2022-03-28T11:05:34Z</time>
      </trkpt>
      <trkpt lat="45.33306" lon="2.87871">
        <ele>1103.34</ele>
        <time>2022-03-28T11:05:37Z</time>
      </trkpt>
      <trkpt lat="45.33287" lon="2.87871">
        <ele>1102.61</ele>
        <time>2022-03-28T11:05:40Z</time>
      </trkpt>
      <trkpt lat="45.33241" lon="2.87895">
        <ele>1097.15</ele>
        <time>2022-03-28T11:05:43Z</time>
      </trkpt>
      <trkpt lat="45.33219" lon="2.87902">
        <ele>1092.02</ele>
        <time>2022-03-28T11:05:46Z</time>
      </trkpt>
      <trkpt lat="45.33186" lon="2.87903">
        <ele>1085.76</ele>
        <time>2022-03-28T11:05:50Z</time>
      </trkpt>
      <trkpt lat="45.33118" lon="2.8789">
        <ele>1086.43</ele>
        <time>2022-03-28T11:05:53Z</time>
      </trkpt>
      <trkpt lat="45.33118" lon="2.8789">
        <ele>1086.43</ele>
        <time>2022-03-28T11:05:53Z</time>
      </trkpt>
      <trkpt lat="45.33102" lon="2.87884">
        <ele>1085.95</ele>
        <time>2022-03-28T11:05:56Z</time>
      </trkpt>
      <trkpt lat="45.33083" lon="2.87869">
        <ele>1084.42</ele>
        <time>2022-03-28T11:05:59Z</time>
      </trkpt>
      <trkpt lat="45.33066" lon="2.87853">
        <ele>1082.42</ele>
        <time>2022-03-28T11:06:02Z</time>
      </trkpt>
      <trkpt lat="45.33043" lon="2.87825">
        <ele>1078.2</ele>
        <time>2022-03-28T11:06:05Z</time>
      </trkpt>
      <trkpt lat="45.33022" lon="2.87792">
        <ele>1073.48</ele>
        <time>2022-03-28T11:06:08Z</time>
      </trkpt>
      <trkpt lat="45.33003" lon="2.87753">
        <ele>1071.56</ele>
        <time>2022-03-28T11:06:11Z</time>
      </trkpt>
      <trkpt lat="45.32986" lon="2.87697">
        <ele>1068.58</ele>
        <time>2022-03-28T11:06:13Z</time>
      </trkpt>
      <trkpt lat="45.32962" lon="2.87643">
        <ele>1065.69</ele>
        <time>2022-03-28T11:06:16Z</time>
      </trkpt>
      <trkpt lat="45.32897" lon="2.87476">
        <ele>1059.85</ele>
        <time>2022-03-28T11:06:19Z</time>
      </trkpt>
      <trkpt lat="45.32846" lon="2.87373">
        <ele>1060.02</ele>
        <time>2022-03-28T11:06:22Z</time>
      </trkpt>
      <trkpt lat="45.3282" lon="2.87337">
        <ele>1053.37</ele>
        <time>2022-03-28T11:06:25Z</time>
      </trkpt>
      <trkpt lat="45.3279" lon="2.87284">
        <ele>1051.09</ele>
        <time>2022-03-28T11:06:28Z</time>
      </trkpt>
      <trkpt lat="45.32736" lon="2.87204">
        <ele>1038.61</ele>
        <time>2022-03-28T11:06:31Z</time>
      </trkpt>
      <trkpt lat="45.32721" lon="2.87172">
        <ele>1034.2</ele>
        <time>2022-03-28T11:06:34Z</time>
      </trkpt>
      <trkpt lat="45.32703" lon="2.87114">
        <ele>1032.29</ele>
        <time>2022-03-28T11:06:37Z</time>
      </trkpt>
      <trkpt lat="45.32697" lon="2.87109">
        <ele>1030.42</ele>
        <time>2022-03-28T11:06:40Z</time>
      </trkpt>
      <trkpt lat="45.32673" lon="2.87057">
        <ele>1028.97</ele>
        <time>2022-03-28T11:06:43Z</time>
      </trkpt>
      <trkpt lat="45.32643" lon="2.86956">
        <ele>1019.89</ele>
        <time>2022-03-28T11:06:46Z</time>
      </trkpt>
      <trkpt lat="45.32623" lon="2.86858">
        <ele>1015.58</ele>
        <time>2022-03-28T11:06:49Z</time>
      </trkpt>
      <trkpt lat="45.32598" lon="2.86642">
        <ele>1008.59</ele>
        <time>2022-03-28T11:06:52Z</time>
      </trkpt>
      <trkpt lat="45.32569" lon="2.86491">
        <ele>1000.93</ele>
        <time>2022-03-28T11:06:55Z</time>
      </trkpt>
      <trkpt lat="45.32541" lon="2.86388">
        <ele>992.92</ele>
        <time>2022-03-28T11:06:58Z</time>
      </trkpt>
      <trkpt lat="45.32534" lon="2.86377">
        <ele>991.52</ele>
        <time>2022-03-28T11:07:01Z</time>
      </trkpt>
      <trkpt lat="45.32514" lon="2.8636">
        <ele>992.52</ele>
        <time>2022-03-28T11:07:04Z</time>
      </trkpt>
      <trkpt lat="45.32503" lon="2.86346">
        <ele>993.43</ele>
        <time>2022-03-28T11:07:07Z</time>
      </trkpt>
      <trkpt lat="45.32495" lon="2.86325">
        <ele>993.8</ele>
        <time>2022-03-28T11:07:10Z</time>
      </trkpt>
      <trkpt lat="45.32485" lon="2.8629">
        <ele>991.74</ele>
        <time>2022-03-28T11:07:13Z</time>
      </trkpt>
      <trkpt lat="45.32475" lon="2.86266">
        <ele>990.75</ele>
        <time>2022-03-28T11:07:16Z</time>
      </trkpt>
      <trkpt lat="45.32454" lon="2.86231">
        <ele>990.66</ele>
        <time>2022-03-28T11:07:19Z</time>
      </trkpt>
      <trkpt lat="45.32345" lon="2.86113">
        <ele>989.76</ele>
        <time>2022-03-28T11:07:22Z</time>
      </trkpt>
      <trkpt lat="45.32337" lon="2.86106">
        <ele>989.75</ele>
        <time>2022-03-28T11:07:24Z</time>
      </trkpt>
      <trkpt lat="45.32328" lon="2.86102">
        <ele>989.8</ele>
        <time>2022-03-28T11:07:27Z</time>
      </trkpt>
      <trkpt lat="45.32319" lon="2.861">
        <ele>989.88</ele>
        <time>2022-03-28T11:07:30Z</time>
      </trkpt>
      <trkpt lat="45.32308" lon="2.86101">
        <ele>990.5</ele>
        <time>2022-03-28T11:07:33Z</time>
      </trkpt>
      <trkpt lat="45.32294" lon="2.86106">
        <ele>990.86</ele>
        <time>2022-03-28T11:07:36Z</time>
      </trkpt>
      <trkpt lat="45.32222" lon="2.86156">
        <ele>1000.53</ele>
        <time>2022-03-28T11:07:39Z</time>
      </trkpt>
      <trkpt lat="45.32216" lon="2.86158">
        <ele>1001.93</ele>
        <time>2022-03-28T11:07:42Z</time>
      </trkpt>
      <trkpt lat="45.32198" lon="2.86156">
        <ele>1005.17</ele>
        <time>2022-03-28T11:07:45Z</time>
      </trkpt>
      <trkpt lat="45.32171" lon="2.86141">
        <ele>1006.67</ele>
        <time>2022-03-28T11:07:48Z</time>
      </trkpt>
      <trkpt lat="45.32151" lon="2.86133">
        <ele>1006.28</ele>
        <time>2022-03-28T11:07:51Z</time>
      </trkpt>
      <trkpt lat="45.32111" lon="2.8613">
        <ele>1008.69</ele>
        <time>2022-03-28T11:07:54Z</time>
      </trkpt>
      <trkpt lat="45.32091" lon="2.8612">
        <ele>1009.52</ele>
        <time>2022-03-28T11:07:57Z</time>
      </trkpt>
      <trkpt lat="45.32029" lon="2.86046">
        <ele>1013.01</ele>
        <time>2022-03-28T11:08:00Z</time>
      </trkpt>
      <trkpt lat="45.32009" lon="2.86029">
        <ele>1012.29</ele>
        <time>2022-03-28T11:08:03Z</time>
      </trkpt>
      <trkpt lat="45.31962" lon="2.86001">
        <ele>1010.08</ele>
        <time>2022-03-28T11:08:06Z</time>
      </trkpt>
      <trkpt lat="45.31943" lon="2.85994">
        <ele>1009.81</ele>
        <time>2022-03-28T11:08:09Z</time>
      </trkpt>
      <trkpt lat="45.31906" lon="2.85992">
        <ele>1014.55</ele>
        <time>2022-03-28T11:08:12Z</time>
      </trkpt>
      <trkpt lat="45.31893" lon="2.85984">
        <ele>1014.66</ele>
        <time>2022-03-28T11:08:15Z</time>
      </trkpt>
      <trkpt lat="45.31867" lon="2.85954">
        <ele>1012.83</ele>
        <time>2022-03-28T11:08:18Z</time>
      </trkpt>
      <trkpt lat="45.31846" lon="2.8594">
        <ele>1012.41</ele>
        <time>2022-03-28T11:08:21Z</time>
      </trkpt>
      <trkpt lat="45.3177" lon="2.8591">
        <ele>1011.32</ele>
        <time>2022-03-28T11:08:24Z</time>
      </trkpt>
      <trkpt lat="45.31722" lon="2.85903">
        <ele>1017.5</ele>
        <time>2022-03-28T11:08:27Z</time>
      </trkpt>
      <trkpt lat="45.31709" lon="2.85897">
        <ele>1020.07</ele>
        <time>2022-03-28T11:08:30Z</time>
      </trkpt>
      <trkpt lat="45.31695" lon="2.85884">
        <ele>1022.45</ele>
        <time>2022-03-28T11:08:33Z</time>
      </trkpt>
      <trkpt lat="45.31679" lon="2.85861">
        <ele>1022.75</ele>
        <time>2022-03-28T11:08:35Z</time>
      </trkpt>
      <trkpt lat="45.31649" lon="2.85792">
        <ele>1021.58</ele>
        <time>2022-03-28T11:08:38Z</time>
      </trkpt>
      <trkpt lat="45.31635" lon="2.85777">
        <ele>1022.33</ele>
        <time>2022-03-28T11:08:41Z</time>
      </trkpt>
      <trkpt lat="45.31626" lon="2.85775">
        <ele>1022.94</ele>
        <time>2022-03-28T11:08:44Z</time>
      </trkpt>
      <trkpt lat="45.31618" lon="2.85779">
        <ele>1024.4</ele>
        <time>2022-03-28T11:08:47Z</time>
      </trkpt>
      <trkpt lat="45.31576" lon="2.85818">
        <ele>1029.12</ele>
        <time>2022-03-28T11:08:50Z</time>
      </trkpt>
      <trkpt lat="45.31568" lon="2.85821">
        <ele>1029.68</ele>
        <time>2022-03-28T11:08:53Z</time>
      </trkpt>
      <trkpt lat="45.31555" lon="2.85815">
        <ele>1029.39</ele>
        <time>2022-03-28T11:08:56Z</time>
      </trkpt>
      <trkpt lat="45.31552" lon="2.85807">
        <ele>1026.93</ele>
        <time>2022-03-28T11:08:59Z</time>
      </trkpt>
      <trkpt lat="45.31552" lon="2.85807">
        <ele>1026.93</ele>
        <time>2022-03-28T11:08:59Z</time>
      </trkpt>
      <trkpt lat="45.31538" lon="2.85772">
        <ele>1024.47</ele>
        <time>2022-03-28T11:09:04Z</time>
      </trkpt>
      <trkpt lat="45.3151" lon="2.85734">
        <ele>1024.91</ele>
        <time>2022-03-28T11:09:09Z</time>
      </trkpt>
      <trkpt lat="45.31505" lon="2.85723">
        <ele>1024.93</ele>
        <time>2022-03-28T11:09:13Z</time>
      </trkpt>
      <trkpt lat="45.31503" lon="2.85695">
        <ele>1025.52</ele>
        <time>2022-03-28T11:09:18Z</time>
      </trkpt>
      <trkpt lat="45.31516" lon="2.85627">
        <ele>1026.83</ele>
        <time>2022-03-28T11:09:23Z</time>
      </trkpt>
      <trkpt lat="45.31514" lon="2.85572">
        <ele>1029.61</ele>
        <time>2022-03-28T11:09:27Z</time>
      </trkpt>
      <trkpt lat="45.3152" lon="2.85486">
        <ele>1033.98</ele>
        <time>2022-03-28T11:09:32Z</time>
      </trkpt>
      <trkpt lat="45.31528" lon="2.85434">
        <ele>1032.45</ele>
        <time>2022-03-28T11:09:37Z</time>
      </trkpt>
      <trkpt lat="45.31527" lon="2.85416">
        <ele>1032.18</ele>
        <time>2022-03-28T11:09:42Z</time>
      </trkpt>
      <trkpt lat="45.31521" lon="2.85404">
        <ele>1032.69</ele>
        <time>2022-03-28T11:09:46Z</time>
      </trkpt>
      <trkpt lat="45.31507" lon="2.85389">
        <ele>1034.41</ele>
        <time>2022-03-28T11:09:51Z</time>
      </trkpt>
      <trkpt lat="45.31484" lon="2.85372">
        <ele>1035.95</ele>
        <time>2022-03-28T11:09:56Z</time>
      </trkpt>
      <trkpt lat="45.31445" lon="2.85361">
        <ele>1035.01</ele>
        <time>2022-03-28T11:10:00Z</time>
      </trkpt>
      <trkpt lat="45.31358" lon="2.85297">
        <ele>1035.35</ele>
        <time>2022-03-28T11:10:05Z</time>
      </trkpt>
      <trkpt lat="45.31341" lon="2.85278">
        <ele>1034.72</ele>
        <time>2022-03-28T11:10:10Z</time>
      </trkpt>
      <trkpt lat="45.31334" lon="2.85259">
        <ele>1034.98</ele>
        <time>2022-03-28T11:10:14Z</time>
      </trkpt>
      <trkpt lat="45.3133" lon="2.8523">
        <ele>1035.25</ele>
        <time>2022-03-28T11:10:19Z</time>
      </trkpt>
      <trkpt lat="45.31336" lon="2.85132">
        <ele>1040.79</ele>
        <time>2022-03-28T11:10:24Z</time>
      </trkpt>
      <trkpt lat="45.31333" lon="2.85075">
        <ele>1043.12</ele>
        <time>2022-03-28T11:10:29Z</time>
      </trkpt>
      <trkpt lat="45.31316" lon="2.85012">
        <ele>1046.59</ele>
        <time>2022-03-28T11:10:33Z</time>
      </trkpt>
      <trkpt lat="45.31314" lon="2.8498">
        <ele>1047.94</ele>
        <time>2022-03-28T11:10:38Z</time>
      </trkpt>
      <trkpt lat="45.3133" lon="2.84896">
        <ele>1048.1</ele>
        <time>2022-03-28T11:10:43Z</time>
      </trkpt>
      <trkpt lat="45.31355" lon="2.84837">
        <ele>1049.1</ele>
        <time>2022-03-28T11:10:47Z</time>
      </trkpt>
      <trkpt lat="45.31371" lon="2.84741">
        <ele>1052.4</ele>
        <time>2022-03-28T11:10:52Z</time>
      </trkpt>
      <trkpt lat="45.31387" lon="2.84691">
        <ele>1052.28</ele>
        <time>2022-03-28T11:10:57Z</time>
      </trkpt>
      <trkpt lat="45.31385" lon="2.84649">
        <ele>1049.66</ele>
        <time>2022-03-28T11:11:02Z</time>
      </trkpt>
      <trkpt lat="45.31371" lon="2.84618">
        <ele>1047.04</ele>
        <time>2022-03-28T11:11:06Z</time>
      </trkpt>
      <trkpt lat="45.31353" lon="2.84607">
        <ele>1049.34</ele>
        <time>2022-03-28T11:11:11Z</time>
      </trkpt>
      <trkpt lat="45.31326" lon="2.84599">
        <ele>1054.39</ele>
        <time>2022-03-28T11:11:16Z</time>
      </trkpt>
      <trkpt lat="45.31316" lon="2.84576">
        <ele>1055.28</ele>
        <time>2022-03-28T11:11:20Z</time>
      </trkpt>
      <trkpt lat="45.31343" lon="2.8449">
        <ele>1054.06</ele>
        <time>2022-03-28T11:11:25Z</time>
      </trkpt>
      <trkpt lat="45.31345" lon="2.84455">
        <ele>1057.05</ele>
        <time>2022-03-28T11:11:30Z</time>
      </trkpt>
      <trkpt lat="45.3133" lon="2.84275">
        <ele>1060.65</ele>
        <time>2022-03-28T11:11:35Z</time>
      </trkpt>
      <trkpt lat="45.31307" lon="2.84044">
        <ele>1063.74</ele>
        <time>2022-03-28T11:11:39Z</time>
      </trkpt>
      <trkpt lat="45.31296" lon="2.83978">
        <ele>1065.15</ele>
        <time>2022-03-28T11:11:44Z</time>
      </trkpt>
      <trkpt lat="45.31259" lon="2.8382">
        <ele>1065.02</ele>
        <time>2022-03-28T11:11:49Z</time>
      </trkpt>
      <trkpt lat="45.30868" lon="2.82924">
        <ele>1055.56</ele>
        <time>2022-03-28T11:11:53Z</time>
      </trkpt>
      <trkpt lat="45.30831" lon="2.82834">
        <ele>1059.23</ele>
        <time>2022-03-28T11:11:58Z</time>
      </trkpt>
      <trkpt lat="45.30805" lon="2.82788">
        <ele>1062.67</ele>
        <time>2022-03-28T11:12:03Z</time>
      </trkpt>
      <trkpt lat="45.30793" lon="2.82773">
        <ele>1063.36</ele>
        <time>2022-03-28T11:12:07Z</time>
      </trkpt>
      <trkpt lat="45.3078" lon="2.82757">
        <ele>1063.88</ele>
        <time>2022-03-28T11:12:12Z</time>
      </trkpt>
      <trkpt lat="45.30776" lon="2.82742">
        <ele>1064.06</ele>
        <time>2022-03-28T11:12:17Z</time>
      </trkpt>
      <trkpt lat="45.3072" lon="2.82722">
        <ele>1065.08</ele>
        <time>2022-03-28T11:12:20Z</time>
      </trkpt>
      <trkpt lat="45.30691" lon="2.82718">
        <ele>1066</ele>
        <time>2022-03-28T11:12:24Z</time>
      </trkpt>
      <trkpt lat="45.3068" lon="2.82719">
        <ele>1066</ele>
        <time>2022-03-28T11:12:27Z</time>
      </trkpt>
      <trkpt lat="45.3068" lon="2.82719">
        <ele>1066</ele>
        <time>2022-03-28T11:12:27Z</time>
      </trkpt>
      <trkpt lat="45.3062" lon="2.82736">
        <ele>1066.67</ele>
        <time>2022-03-28T11:12:31Z</time>
      </trkpt>
      <trkpt lat="45.30579" lon="2.82782">
        <ele>1068.2</ele>
        <time>2022-03-28T11:12:35Z</time>
      </trkpt>
      <trkpt lat="45.30567" lon="2.82797">
        <ele>1068.98</ele>
        <time>2022-03-28T11:12:39Z</time>
      </trkpt>
      <trkpt lat="45.3056" lon="2.82803">
        <ele>1069.63</ele>
        <time>2022-03-28T11:12:43Z</time>
      </trkpt>
      <trkpt lat="45.30497" lon="2.82825">
        <ele>1071.88</ele>
        <time>2022-03-28T11:12:48Z</time>
      </trkpt>
      <trkpt lat="45.30501" lon="2.82889">
        <ele>1071.99</ele>
        <time>2022-03-28T11:12:52Z</time>
      </trkpt>
      <trkpt lat="45.305" lon="2.82908">
        <ele>1071.33</ele>
        <time>2022-03-28T11:12:57Z</time>
      </trkpt>
      <trkpt lat="45.30496" lon="2.82926">
        <ele>1071</ele>
        <time>2022-03-28T11:13:02Z</time>
      </trkpt>
      <trkpt lat="45.30487" lon="2.82948">
        <ele>1071.07</ele>
        <time>2022-03-28T11:13:06Z</time>
      </trkpt>
      <trkpt lat="45.30436" lon="2.83048">
        <ele>1074.32</ele>
        <time>2022-03-28T11:13:11Z</time>
      </trkpt>
      <trkpt lat="45.30396" lon="2.83122">
        <ele>1072.77</ele>
        <time>2022-03-28T11:13:15Z</time>
      </trkpt>
      <trkpt lat="45.30371" lon="2.83176">
        <ele>1072.2</ele>
        <time>2022-03-28T11:13:20Z</time>
      </trkpt>
      <trkpt lat="45.30347" lon="2.83238">
        <ele>1073.7</ele>
        <time>2022-03-28T11:13:25Z</time>
      </trkpt>
      <trkpt lat="45.30203" lon="2.83586">
        <ele>1080.53</ele>
        <time>2022-03-28T11:13:29Z</time>
      </trkpt>
      <trkpt lat="45.30156" lon="2.83721">
        <ele>1084.24</ele>
        <time>2022-03-28T11:13:34Z</time>
      </trkpt>
      <trkpt lat="45.30148" lon="2.83755">
        <ele>1084.44</ele>
        <time>2022-03-28T11:13:39Z</time>
      </trkpt>
      <trkpt lat="45.30137" lon="2.83811">
        <ele>1083.66</ele>
        <time>2022-03-28T11:13:43Z</time>
      </trkpt>
      <trkpt lat="45.3013" lon="2.83905">
        <ele>1083.47</ele>
        <time>2022-03-28T11:13:48Z</time>
      </trkpt>
      <trkpt lat="45.30123" lon="2.83939">
        <ele>1083.44</ele>
        <time>2022-03-28T11:13:52Z</time>
      </trkpt>
      <trkpt lat="45.30108" lon="2.83974">
        <ele>1083.83</ele>
        <time>2022-03-28T11:13:57Z</time>
      </trkpt>
      <trkpt lat="45.30091" lon="2.83998">
        <ele>1085.05</ele>
        <time>2022-03-28T11:14:02Z</time>
      </trkpt>
      <trkpt lat="45.30069" lon="2.84019">
        <ele>1088.14</ele>
        <time>2022-03-28T11:14:06Z</time>
      </trkpt>
      <trkpt lat="45.30036" lon="2.84034">
        <ele>1090.63</ele>
        <time>2022-03-28T11:14:11Z</time>
      </trkpt>
      <trkpt lat="45.29971" lon="2.84048">
        <ele>1092.07</ele>
        <time>2022-03-28T11:14:16Z</time>
      </trkpt>
      <trkpt lat="45.29946" lon="2.8406">
        <ele>1092.96</ele>
        <time>2022-03-28T11:14:20Z</time>
      </trkpt>
      <trkpt lat="45.29921" lon="2.84082">
        <ele>1093.83</ele>
        <time>2022-03-28T11:14:25Z</time>
      </trkpt>
      <trkpt lat="45.29903" lon="2.84114">
        <ele>1093.57</ele>
        <time>2022-03-28T11:14:29Z</time>
      </trkpt>
      <trkpt lat="45.2989" lon="2.84159">
        <ele>1094.53</ele>
        <time>2022-03-28T11:14:34Z</time>
      </trkpt>
      <trkpt lat="45.29859" lon="2.84336">
        <ele>1102.73</ele>
        <time>2022-03-28T11:14:39Z</time>
      </trkpt>
      <trkpt lat="45.29845" lon="2.84382">
        <ele>1103.19</ele>
        <time>2022-03-28T11:14:43Z</time>
      </trkpt>
      <trkpt lat="45.29824" lon="2.84417">
        <ele>1103.35</ele>
        <time>2022-03-28T11:14:48Z</time>
      </trkpt>
      <trkpt lat="45.29804" lon="2.84441">
        <ele>1103.7</ele>
        <time>2022-03-28T11:14:53Z</time>
      </trkpt>
      <trkpt lat="45.29748" lon="2.84488">
        <ele>1106.02</ele>
        <time>2022-03-28T11:14:57Z</time>
      </trkpt>
      <trkpt lat="45.29721" lon="2.84521">
        <ele>1106.7</ele>
        <time>2022-03-28T11:15:02Z</time>
      </trkpt>
      <trkpt lat="45.29697" lon="2.84566">
        <ele>1107.45</ele>
        <time>2022-03-28T11:15:07Z</time>
      </trkpt>
      <trkpt lat="45.29681" lon="2.84628">
        <ele>1109.29</ele>
        <time>2022-03-28T11:15:11Z</time>
      </trkpt>
      <trkpt lat="45.29641" lon="2.85033">
        <ele>1117.28</ele>
        <time>2022-03-28T11:15:16Z</time>
      </trkpt>
      <trkpt lat="45.2963" lon="2.85089">
        <ele>1118.47</ele>
        <time>2022-03-28T11:15:20Z</time>
      </trkpt>
      <trkpt lat="45.29614" lon="2.85141">
        <ele>1119.83</ele>
        <time>2022-03-28T11:15:25Z</time>
      </trkpt>
      <trkpt lat="45.29583" lon="2.8519">
        <ele>1121</ele>
        <time>2022-03-28T11:15:30Z</time>
      </trkpt>
      <trkpt lat="45.29035" lon="2.85876">
        <ele>1142.07</ele>
        <time>2022-03-28T11:15:34Z</time>
      </trkpt>
      <trkpt lat="45.28992" lon="2.85953">
        <ele>1143.81</ele>
        <time>2022-03-28T11:15:39Z</time>
      </trkpt>
      <trkpt lat="45.2867" lon="2.86597">
        <ele>1135</ele>
        <time>2022-03-28T11:15:44Z</time>
      </trkpt>
      <trkpt lat="45.28646" lon="2.86634">
        <ele>1134.89</ele>
        <time>2022-03-28T11:15:48Z</time>
      </trkpt>
      <trkpt lat="45.28624" lon="2.8666">
        <ele>1135.68</ele>
        <time>2022-03-28T11:15:53Z</time>
      </trkpt>
      <trkpt lat="45.28577" lon="2.86694">
        <ele>1136</ele>
        <time>2022-03-28T11:15:57Z</time>
      </trkpt>
      <trkpt lat="45.28365" lon="2.86793">
        <ele>1134.58</ele>
        <time>2022-03-28T11:16:02Z</time>
      </trkpt>
      <trkpt lat="45.28251" lon="2.86818">
        <ele>1136.17</ele>
        <time>2022-03-28T11:16:07Z</time>
      </trkpt>
      <trkpt lat="45.28223" lon="2.86829">
        <ele>1133.64</ele>
        <time>2022-03-28T11:16:11Z</time>
      </trkpt>
      <trkpt lat="45.28129" lon="2.8688">
        <ele>1133.96</ele>
        <time>2022-03-28T11:16:16Z</time>
      </trkpt>
      <trkpt lat="45.28015" lon="2.86953">
        <ele>1133.17</ele>
        <time>2022-03-28T11:16:21Z</time>
      </trkpt>
      <trkpt lat="45.27963" lon="2.86969">
        <ele>1132.11</ele>
        <time>2022-03-28T11:16:25Z</time>
      </trkpt>
      <trkpt lat="45.27778" lon="2.87005">
        <ele>1125.72</ele>
        <time>2022-03-28T11:16:30Z</time>
      </trkpt>
      <trkpt lat="45.27733" lon="2.87019">
        <ele>1123.67</ele>
        <time>2022-03-28T11:16:35Z</time>
      </trkpt>
      <trkpt lat="45.27628" lon="2.8709">
        <ele>1121.19</ele>
        <time>2022-03-28T11:16:39Z</time>
      </trkpt>
      <trkpt lat="45.27603" lon="2.87119">
        <ele>1120.76</ele>
        <time>2022-03-28T11:16:44Z</time>
      </trkpt>
      <trkpt lat="45.27579" lon="2.87164">
        <ele>1119.74</ele>
        <time>2022-03-28T11:16:48Z</time>
      </trkpt>
      <trkpt lat="45.27565" lon="2.87187">
        <ele>1119.69</ele>
        <time>2022-03-28T11:16:53Z</time>
      </trkpt>
      <trkpt lat="45.27542" lon="2.87211">
        <ele>1118.86</ele>
        <time>2022-03-28T11:16:58Z</time>
      </trkpt>
      <trkpt lat="45.27516" lon="2.87226">
        <ele>1116.92</ele>
        <time>2022-03-28T11:17:02Z</time>
      </trkpt>
      <trkpt lat="45.2744" lon="2.87252">
        <ele>1114.77</ele>
        <time>2022-03-28T11:17:07Z</time>
      </trkpt>
      <trkpt lat="45.27422" lon="2.87264">
        <ele>1114.19</ele>
        <time>2022-03-28T11:17:12Z</time>
      </trkpt>
      <trkpt lat="45.27381" lon="2.8732">
        <ele>1115.8</ele>
        <time>2022-03-28T11:17:16Z</time>
      </trkpt>
      <trkpt lat="45.27362" lon="2.87337">
        <ele>1116.17</ele>
        <time>2022-03-28T11:17:21Z</time>
      </trkpt>
      <trkpt lat="45.27304" lon="2.87359">
        <ele>1108.28</ele>
        <time>2022-03-28T11:17:25Z</time>
      </trkpt>
      <trkpt lat="45.2729" lon="2.87368">
        <ele>1106.66</ele>
        <time>2022-03-28T11:17:30Z</time>
      </trkpt>
      <trkpt lat="45.27274" lon="2.87392">
        <ele>1106.54</ele>
        <time>2022-03-28T11:17:35Z</time>
      </trkpt>
      <trkpt lat="45.27237" lon="2.87479">
        <ele>1105.32</ele>
        <time>2022-03-28T11:17:39Z</time>
      </trkpt>
      <trkpt lat="45.27215" lon="2.87516">
        <ele>1104.46</ele>
        <time>2022-03-28T11:17:44Z</time>
      </trkpt>
      <trkpt lat="45.27169" lon="2.87566">
        <ele>1104.07</ele>
        <time>2022-03-28T11:17:49Z</time>
      </trkpt>
      <trkpt lat="45.27043" lon="2.87656">
        <ele>1095.06</ele>
        <time>2022-03-28T11:17:53Z</time>
      </trkpt>
      <trkpt lat="45.27015" lon="2.87683">
        <ele>1093.96</ele>
        <time>2022-03-28T11:17:58Z</time>
      </trkpt>
      <trkpt lat="45.26986" lon="2.87718">
        <ele>1092.01</ele>
        <time>2022-03-28T11:18:03Z</time>
      </trkpt>
      <trkpt lat="45.26895" lon="2.87865">
        <ele>1092.28</ele>
        <time>2022-03-28T11:18:07Z</time>
      </trkpt>
      <trkpt lat="45.2686" lon="2.87945">
        <ele>1089.93</ele>
        <time>2022-03-28T11:18:12Z</time>
      </trkpt>
      <trkpt lat="45.26845" lon="2.87995">
        <ele>1090.66</ele>
        <time>2022-03-28T11:18:16Z</time>
      </trkpt>
      <trkpt lat="45.26835" lon="2.88044">
        <ele>1090.13</ele>
        <time>2022-03-28T11:18:21Z</time>
      </trkpt>
      <trkpt lat="45.26809" lon="2.88203">
        <ele>1091.47</ele>
        <time>2022-03-28T11:18:26Z</time>
      </trkpt>
      <trkpt lat="45.268" lon="2.88244">
        <ele>1090.58</ele>
        <time>2022-03-28T11:18:30Z</time>
      </trkpt>
      <trkpt lat="45.26784" lon="2.88303">
        <ele>1092.54</ele>
        <time>2022-03-28T11:18:35Z</time>
      </trkpt>
      <trkpt lat="45.26756" lon="2.88389">
        <ele>1090.61</ele>
        <time>2022-03-28T11:18:40Z</time>
      </trkpt>
      <trkpt lat="45.26725" lon="2.88456">
        <ele>1090.51</ele>
        <time>2022-03-28T11:18:44Z</time>
      </trkpt>
      <trkpt lat="45.26689" lon="2.88521">
        <ele>1091.8</ele>
        <time>2022-03-28T11:18:49Z</time>
      </trkpt>
      <trkpt lat="45.26558" lon="2.88727">
        <ele>1090.27</ele>
        <time>2022-03-28T11:18:53Z</time>
      </trkpt>
      <trkpt lat="45.26527" lon="2.88785">
        <ele>1089.35</ele>
        <time>2022-03-28T11:18:58Z</time>
      </trkpt>
      <trkpt lat="45.26501" lon="2.88843">
        <ele>1089.45</ele>
        <time>2022-03-28T11:19:03Z</time>
      </trkpt>
      <trkpt lat="45.2643" lon="2.89014">
        <ele>1086.46</ele>
        <time>2022-03-28T11:19:07Z</time>
      </trkpt>
      <trkpt lat="45.26405" lon="2.89054">
        <ele>1085.56</ele>
        <time>2022-03-28T11:19:12Z</time>
      </trkpt>
      <trkpt lat="45.2638" lon="2.89086">
        <ele>1084.72</ele>
        <time>2022-03-28T11:19:17Z</time>
      </trkpt>
      <trkpt lat="45.26383" lon="2.89093">
        <ele>1084.85</ele>
        <time>2022-03-28T11:19:17Z</time>
      </trkpt>
      <trkpt lat="45.26383" lon="2.89093">
        <ele>1084.85</ele>
        <time>2022-03-28T11:19:17Z</time>
      </trkpt>
      <trkpt lat="45.26387" lon="2.89107">
        <ele>1084.99</ele>
        <time>2022-03-28T11:19:24Z</time>
      </trkpt>
      <trkpt lat="45.26407" lon="2.89279">
        <ele>1094.1</ele>
        <time>2022-03-28T11:19:31Z</time>
      </trkpt>
      <trkpt lat="45.26416" lon="2.89331">
        <ele>1097.83</ele>
        <time>2022-03-28T11:19:38Z</time>
      </trkpt>
      <trkpt lat="45.26531" lon="2.89673">
        <ele>1112.57</ele>
        <time>2022-03-28T11:19:44Z</time>
      </trkpt>
      <trkpt lat="45.26558" lon="2.89739">
        <ele>1117.52</ele>
        <time>2022-03-28T11:19:51Z</time>
      </trkpt>
      <trkpt lat="45.26584" lon="2.89777">
        <ele>1117.88</ele>
        <time>2022-03-28T11:19:58Z</time>
      </trkpt>
      <trkpt lat="45.26631" lon="2.8983">
        <ele>1114.81</ele>
        <time>2022-03-28T11:20:05Z</time>
      </trkpt>
      <trkpt lat="45.26655" lon="2.89869">
        <ele>1112.39</ele>
        <time>2022-03-28T11:20:11Z</time>
      </trkpt>
      <trkpt lat="45.26657" lon="2.8991">
        <ele>1110.38</ele>
        <time>2022-03-28T11:20:18Z</time>
      </trkpt>
      <trkpt lat="45.26651" lon="2.89933">
        <ele>1109.78</ele>
        <time>2022-03-28T11:20:25Z</time>
      </trkpt>
      <trkpt lat="45.26599" lon="2.90001">
        <ele>1104.45</ele>
        <time>2022-03-28T11:20:32Z</time>
      </trkpt>
      <trkpt lat="45.26554" lon="2.90048">
        <ele>1100.3</ele>
        <time>2022-03-28T11:20:38Z</time>
      </trkpt>
      <trkpt lat="45.26546" lon="2.90062">
        <ele>1099.82</ele>
        <time>2022-03-28T11:20:45Z</time>
      </trkpt>
      <trkpt lat="45.26499" lon="2.90118">
        <ele>1099.28</ele>
        <time>2022-03-28T11:20:52Z</time>
      </trkpt>
      <trkpt lat="45.26452" lon="2.90165">
        <ele>1097.55</ele>
        <time>2022-03-28T11:20:59Z</time>
      </trkpt>
      <trkpt lat="45.26447" lon="2.90173">
        <ele>1097.07</ele>
        <time>2022-03-28T11:21:05Z</time>
      </trkpt>
      <trkpt lat="45.26445" lon="2.90185">
        <ele>1095.98</ele>
        <time>2022-03-28T11:21:11Z</time>
      </trkpt>
      <trkpt lat="45.26448" lon="2.9023">
        <ele>1091.15</ele>
        <time>2022-03-28T11:21:16Z</time>
      </trkpt>
      <trkpt lat="45.26454" lon="2.90304">
        <ele>1085.05</ele>
        <time>2022-03-28T11:21:21Z</time>
      </trkpt>
      <trkpt lat="45.26461" lon="2.90345">
        <ele>1082.02</ele>
        <time>2022-03-28T11:21:26Z</time>
      </trkpt>
      <trkpt lat="45.26483" lon="2.90393">
        <ele>1080.43</ele>
        <time>2022-03-28T11:21:32Z</time>
      </trkpt>
      <trkpt lat="45.26516" lon="2.90454">
        <ele>1083.14</ele>
        <time>2022-03-28T11:21:37Z</time>
      </trkpt>
      <trkpt lat="45.26526" lon="2.90495">
        <ele>1083.85</ele>
        <time>2022-03-28T11:21:42Z</time>
      </trkpt>
      <trkpt lat="45.26515" lon="2.90541">
        <ele>1083.31</ele>
        <time>2022-03-28T11:21:47Z</time>
      </trkpt>
      <trkpt lat="45.26477" lon="2.90606">
        <ele>1083.83</ele>
        <time>2022-03-28T11:21:53Z</time>
      </trkpt>
      <trkpt lat="45.26442" lon="2.90659">
        <ele>1081.82</ele>
        <time>2022-03-28T11:21:58Z</time>
      </trkpt>
      <trkpt lat="45.26413" lon="2.90708">
        <ele>1079.94</ele>
        <time>2022-03-28T11:22:03Z</time>
      </trkpt>
      <trkpt lat="45.26391" lon="2.9075">
        <ele>1078.08</ele>
        <time>2022-03-28T11:22:08Z</time>
      </trkpt>
      <trkpt lat="45.26389" lon="2.90813">
        <ele>1075.72</ele>
        <time>2022-03-28T11:22:14Z</time>
      </trkpt>
      <trkpt lat="45.26408" lon="2.90895">
        <ele>1074.94</ele>
        <time>2022-03-28T11:22:19Z</time>
      </trkpt>
      <trkpt lat="45.2643" lon="2.90961">
        <ele>1075.05</ele>
        <time>2022-03-28T11:22:24Z</time>
      </trkpt>
      <trkpt lat="45.26433" lon="2.90998">
        <ele>1075.33</ele>
        <time>2022-03-28T11:22:30Z</time>
      </trkpt>
      <trkpt lat="45.26414" lon="2.91099">
        <ele>1075.74</ele>
        <time>2022-03-28T11:22:35Z</time>
      </trkpt>
      <trkpt lat="45.26412" lon="2.91158">
        <ele>1073.92</ele>
        <time>2022-03-28T11:22:40Z</time>
      </trkpt>
      <trkpt lat="45.26414" lon="2.91247">
        <ele>1070.03</ele>
        <time>2022-03-28T11:22:45Z</time>
      </trkpt>
      <trkpt lat="45.2644" lon="2.91344">
        <ele>1066.14</ele>
        <time>2022-03-28T11:22:51Z</time>
      </trkpt>
      <trkpt lat="45.26454" lon="2.91415">
        <ele>1058.54</ele>
        <time>2022-03-28T11:22:56Z</time>
      </trkpt>
      <trkpt lat="45.26512" lon="2.91407">
        <ele>1058.93</ele>
        <time>2022-03-28T11:23:03Z</time>
      </trkpt>
      <trkpt lat="45.26526" lon="2.91437">
        <ele>1060.05</ele>
        <time>2022-03-28T11:23:08Z</time>
      </trkpt>
      <trkpt lat="45.26551" lon="2.91516">
        <ele>1061.61</ele>
        <time>2022-03-28T11:23:13Z</time>
      </trkpt>
      <trkpt lat="45.26555" lon="2.9154">
        <ele>1061.99</ele>
        <time>2022-03-28T11:23:18Z</time>
      </trkpt>
      <trkpt lat="45.26561" lon="2.91623">
        <ele>1065.96</ele>
        <time>2022-03-28T11:23:24Z</time>
      </trkpt>
      <trkpt lat="45.26552" lon="2.91644">
        <ele>1068.68</ele>
        <time>2022-03-28T11:23:29Z</time>
      </trkpt>
      <trkpt lat="45.26531" lon="2.91647">
        <ele>1069.98</ele>
        <time>2022-03-28T11:23:34Z</time>
      </trkpt>
      <trkpt lat="45.26466" lon="2.91635">
        <ele>1073.5</ele>
        <time>2022-03-28T11:23:39Z</time>
      </trkpt>
      <trkpt lat="45.26443" lon="2.9164">
        <ele>1073.19</ele>
        <time>2022-03-28T11:23:44Z</time>
      </trkpt>
      <trkpt lat="45.26412" lon="2.91698">
        <ele>1082.42</ele>
        <time>2022-03-28T11:23:50Z</time>
      </trkpt>
      <trkpt lat="45.26407" lon="2.91724">
        <ele>1087.71</ele>
        <time>2022-03-28T11:23:55Z</time>
      </trkpt>
      <trkpt lat="45.26433" lon="2.91766">
        <ele>1092.86</ele>
        <time>2022-03-28T11:24:00Z</time>
      </trkpt>
      <trkpt lat="45.26466" lon="2.9181">
        <ele>1097.42</ele>
        <time>2022-03-28T11:24:05Z</time>
      </trkpt>
      <trkpt lat="45.26483" lon="2.91842">
        <ele>1100.51</ele>
        <time>2022-03-28T11:24:11Z</time>
      </trkpt>
      <trkpt lat="45.26525" lon="2.91948">
        <ele>1109.58</ele>
        <time>2022-03-28T11:24:16Z</time>
      </trkpt>
      <trkpt lat="45.26526" lon="2.91995">
        <ele>1114.74</ele>
        <time>2022-03-28T11:24:21Z</time>
      </trkpt>
      <trkpt lat="45.26533" lon="2.92059">
        <ele>1120.79</ele>
        <time>2022-03-28T11:24:26Z</time>
      </trkpt>
      <trkpt lat="45.26556" lon="2.92135">
        <ele>1126.64</ele>
        <time>2022-03-28T11:24:32Z</time>
      </trkpt>
      <trkpt lat="45.26594" lon="2.92202">
        <ele>1135.61</ele>
        <time>2022-03-28T11:24:37Z</time>
      </trkpt>
      <trkpt lat="45.26623" lon="2.92246">
        <ele>1142.64</ele>
        <time>2022-03-28T11:24:42Z</time>
      </trkpt>
      <trkpt lat="45.2665" lon="2.92269">
        <ele>1145.29</ele>
        <time>2022-03-28T11:24:47Z</time>
      </trkpt>
      <trkpt lat="45.26685" lon="2.92276">
        <ele>1147.3</ele>
        <time>2022-03-28T11:24:52Z</time>
      </trkpt>
      <trkpt lat="45.26731" lon="2.92291">
        <ele>1149.83</ele>
        <time>2022-03-28T11:24:58Z</time>
      </trkpt>
      <trkpt lat="45.26814" lon="2.92334">
        <ele>1160.84</ele>
        <time>2022-03-28T11:25:03Z</time>
      </trkpt>
      <trkpt lat="45.26883" lon="2.92367">
        <ele>1167.85</ele>
        <time>2022-03-28T11:25:08Z</time>
      </trkpt>
      <trkpt lat="45.26926" lon="2.92402">
        <ele>1170.21</ele>
        <time>2022-03-28T11:25:13Z</time>
      </trkpt>
      <trkpt lat="45.26949" lon="2.92419">
        <ele>1172.15</ele>
        <time>2022-03-28T11:25:18Z</time>
      </trkpt>
      <trkpt lat="45.26967" lon="2.92457">
        <ele>1177.25</ele>
        <time>2022-03-28T11:25:22Z</time>
      </trkpt>
      <trkpt lat="45.26993" lon="2.9246">
        <ele>1177.25</ele>
        <time>2022-03-28T11:25:26Z</time>
      </trkpt>
      <trkpt lat="45.27046" lon="2.925">
        <ele>1179</ele>
        <time>2022-03-28T11:25:30Z</time>
      </trkpt>
      <trkpt lat="45.27088" lon="2.92554">
        <ele>1182.86</ele>
        <time>2022-03-28T11:25:34Z</time>
      </trkpt>
      <trkpt lat="45.27161" lon="2.92632">
        <ele>1192.28</ele>
        <time>2022-03-28T11:25:38Z</time>
      </trkpt>
      <trkpt lat="45.27219" lon="2.927">
        <ele>1194.55</ele>
        <time>2022-03-28T11:25:41Z</time>
      </trkpt>
      <trkpt lat="45.27229" lon="2.92723">
        <ele>1196.43</ele>
        <time>2022-03-28T11:25:45Z</time>
      </trkpt>
      <trkpt lat="45.27242" lon="2.92771">
        <ele>1199.73</ele>
        <time>2022-03-28T11:25:49Z</time>
      </trkpt>
      <trkpt lat="45.27246" lon="2.92789">
        <ele>1201.49</ele>
        <time>2022-03-28T11:25:53Z</time>
      </trkpt>
      <trkpt lat="45.27246" lon="2.92804">
        <ele>1203.46</ele>
        <time>2022-03-28T11:25:57Z</time>
      </trkpt>
      <trkpt lat="45.27241" lon="2.92863">
        <ele>1211.69</ele>
        <time>2022-03-28T11:26:00Z</time>
      </trkpt>
      <trkpt lat="45.27234" lon="2.92921">
        <ele>1216.7</ele>
        <time>2022-03-28T11:26:04Z</time>
      </trkpt>
      <trkpt lat="45.27235" lon="2.92942">
        <ele>1216.78</ele>
        <time>2022-03-28T11:26:08Z</time>
      </trkpt>
      <trkpt lat="45.27235" lon="2.9296">
        <ele>1216.89</ele>
        <time>2022-03-28T11:26:12Z</time>
      </trkpt>
      <trkpt lat="45.2725" lon="2.93028">
        <ele>1218.01</ele>
        <time>2022-03-28T11:26:16Z</time>
      </trkpt>
      <trkpt lat="45.27258" lon="2.93069">
        <ele>1221.51</ele>
        <time>2022-03-28T11:26:19Z</time>
      </trkpt>
      <trkpt lat="45.27261" lon="2.93096">
        <ele>1221.94</ele>
        <time>2022-03-28T11:26:23Z</time>
      </trkpt>
      <trkpt lat="45.2726" lon="2.93162">
        <ele>1223.55</ele>
        <time>2022-03-28T11:26:27Z</time>
      </trkpt>
      <trkpt lat="45.2726" lon="2.93176">
        <ele>1224.71</ele>
        <time>2022-03-28T11:26:31Z</time>
      </trkpt>
      <trkpt lat="45.27267" lon="2.93202">
        <ele>1226.55</ele>
        <time>2022-03-28T11:26:35Z</time>
      </trkpt>
      <trkpt lat="45.27288" lon="2.9327">
        <ele>1229.48</ele>
        <time>2022-03-28T11:26:38Z</time>
      </trkpt>
      <trkpt lat="45.27311" lon="2.93334">
        <ele>1234.24</ele>
        <time>2022-03-28T11:26:42Z</time>
      </trkpt>
      <trkpt lat="45.27347" lon="2.93403">
        <ele>1238.53</ele>
        <time>2022-03-28T11:26:46Z</time>
      </trkpt>
      <trkpt lat="45.27361" lon="2.93465">
        <ele>1240.72</ele>
        <time>2022-03-28T11:26:50Z</time>
      </trkpt>
      <trkpt lat="45.27367" lon="2.93482">
        <ele>1241.14</ele>
        <time>2022-03-28T11:26:54Z</time>
      </trkpt>
      <trkpt lat="45.27377" lon="2.93499">
        <ele>1241.39</ele>
        <time>2022-03-28T11:26:57Z</time>
      </trkpt>
      <trkpt lat="45.2741" lon="2.93535">
        <ele>1244</ele>
        <time>2022-03-28T11:27:01Z</time>
      </trkpt>
      <trkpt lat="45.27434" lon="2.93559">
        <ele>1245.64</ele>
        <time>2022-03-28T11:27:05Z</time>
      </trkpt>
      <trkpt lat="45.2745" lon="2.93583">
        <ele>1246.76</ele>
        <time>2022-03-28T11:27:09Z</time>
      </trkpt>
      <trkpt lat="45.27459" lon="2.93605">
        <ele>1246.82</ele>
        <time>2022-03-28T11:27:13Z</time>
      </trkpt>
      <trkpt lat="45.27487" lon="2.93705">
        <ele>1252</ele>
        <time>2022-03-28T11:27:16Z</time>
      </trkpt>
      <trkpt lat="45.27493" lon="2.93725">
        <ele>1252.06</ele>
        <time>2022-03-28T11:27:20Z</time>
      </trkpt>
      <trkpt lat="45.275" lon="2.93739">
        <ele>1251.6</ele>
        <time>2022-03-28T11:27:24Z</time>
      </trkpt>
      <trkpt lat="45.2754" lon="2.93791">
        <ele>1254.48</ele>
        <time>2022-03-28T11:27:28Z</time>
      </trkpt>
      <trkpt lat="45.27565" lon="2.93826">
        <ele>1254.99</ele>
        <time>2022-03-28T11:27:31Z</time>
      </trkpt>
      <trkpt lat="45.27662" lon="2.93989">
        <ele>1265.68</ele>
        <time>2022-03-28T11:27:35Z</time>
      </trkpt>
      <trkpt lat="45.27675" lon="2.94003">
        <ele>1266.14</ele>
        <time>2022-03-28T11:27:39Z</time>
      </trkpt>
      <trkpt lat="45.27689" lon="2.94014">
        <ele>1266.9</ele>
        <time>2022-03-28T11:27:43Z</time>
      </trkpt>
      <trkpt lat="45.27757" lon="2.94043">
        <ele>1270.55</ele>
        <time>2022-03-28T11:27:47Z</time>
      </trkpt>
      <trkpt lat="45.2777" lon="2.94055">
        <ele>1270.97</ele>
        <time>2022-03-28T11:27:50Z</time>
      </trkpt>
      <trkpt lat="45.27791" lon="2.94076">
        <ele>1272.93</ele>
        <time>2022-03-28T11:27:54Z</time>
      </trkpt>
      <trkpt lat="45.27882" lon="2.94186">
        <ele>1276.11</ele>
        <time>2022-03-28T11:27:58Z</time>
      </trkpt>
      <trkpt lat="45.2791" lon="2.94222">
        <ele>1276.24</ele>
        <time>2022-03-28T11:28:02Z</time>
      </trkpt>
      <trkpt lat="45.27933" lon="2.94258">
        <ele>1277.7</ele>
        <time>2022-03-28T11:28:06Z</time>
      </trkpt>
      <trkpt lat="45.27951" lon="2.94302">
        <ele>1278.67</ele>
        <time>2022-03-28T11:28:09Z</time>
      </trkpt>
      <trkpt lat="45.27968" lon="2.94367">
        <ele>1279.38</ele>
        <time>2022-03-28T11:28:13Z</time>
      </trkpt>
      <trkpt lat="45.27981" lon="2.94489">
        <ele>1278.01</ele>
        <time>2022-03-28T11:28:17Z</time>
      </trkpt>
      <trkpt lat="45.27994" lon="2.94528">
        <ele>1274.94</ele>
        <time>2022-03-28T11:28:21Z</time>
      </trkpt>
      <trkpt lat="45.28056" lon="2.94638">
        <ele>1269</ele>
        <time>2022-03-28T11:28:25Z</time>
      </trkpt>
      <trkpt lat="45.28074" lon="2.94656">
        <ele>1269.61</ele>
        <time>2022-03-28T11:28:28Z</time>
      </trkpt>
      <trkpt lat="45.28202" lon="2.94728">
        <ele>1265.72</ele>
        <time>2022-03-28T11:28:32Z</time>
      </trkpt>
      <trkpt lat="45.28294" lon="2.94819">
        <ele>1261.89</ele>
        <time>2022-03-28T11:28:36Z</time>
      </trkpt>
      <trkpt lat="45.2833" lon="2.94848">
        <ele>1259.09</ele>
        <time>2022-03-28T11:28:40Z</time>
      </trkpt>
      <trkpt lat="45.28365" lon="2.9485">
        <ele>1255.66</ele>
        <time>2022-03-28T11:28:44Z</time>
      </trkpt>
      <trkpt lat="45.2839" lon="2.94857">
        <ele>1255.01</ele>
        <time>2022-03-28T11:28:47Z</time>
      </trkpt>
      <trkpt lat="45.28404" lon="2.94871">
        <ele>1254.47</ele>
        <time>2022-03-28T11:28:51Z</time>
      </trkpt>
      <trkpt lat="45.28455" lon="2.94953">
        <ele>1249.53</ele>
        <time>2022-03-28T11:28:55Z</time>
      </trkpt>
      <trkpt lat="45.28482" lon="2.94977">
        <ele>1249.94</ele>
        <time>2022-03-28T11:28:59Z</time>
      </trkpt>
      <trkpt lat="45.28615" lon="2.95008">
        <ele>1243.67</ele>
        <time>2022-03-28T11:29:03Z</time>
      </trkpt>
      <trkpt lat="45.28671" lon="2.95039">
        <ele>1240.1</ele>
        <time>2022-03-28T11:29:06Z</time>
      </trkpt>
      <trkpt lat="45.28743" lon="2.9509">
        <ele>1235.76</ele>
        <time>2022-03-28T11:29:10Z</time>
      </trkpt>
      <trkpt lat="45.28757" lon="2.95114">
        <ele>1233.88</ele>
        <time>2022-03-28T11:29:14Z</time>
      </trkpt>
      <trkpt lat="45.28762" lon="2.95157">
        <ele>1233.66</ele>
        <time>2022-03-28T11:29:18Z</time>
      </trkpt>
      <trkpt lat="45.28758" lon="2.95182">
        <ele>1235.67</ele>
        <time>2022-03-28T11:29:22Z</time>
      </trkpt>
      <trkpt lat="45.28707" lon="2.9522">
        <ele>1236.16</ele>
        <time>2022-03-28T11:29:25Z</time>
      </trkpt>
      <trkpt lat="45.28655" lon="2.95271">
        <ele>1237.42</ele>
        <time>2022-03-28T11:29:29Z</time>
      </trkpt>
      <trkpt lat="45.2856" lon="2.95351">
        <ele>1236.72</ele>
        <time>2022-03-28T11:29:33Z</time>
      </trkpt>
      <trkpt lat="45.28552" lon="2.95383">
        <ele>1238.78</ele>
        <time>2022-03-28T11:29:37Z</time>
      </trkpt>
      <trkpt lat="45.28551" lon="2.95421">
        <ele>1241.19</ele>
        <time>2022-03-28T11:29:41Z</time>
      </trkpt>
      <trkpt lat="45.28571" lon="2.95514">
        <ele>1243.03</ele>
        <time>2022-03-28T11:29:44Z</time>
      </trkpt>
      <trkpt lat="45.2859" lon="2.95566">
        <ele>1245.68</ele>
        <time>2022-03-28T11:29:48Z</time>
      </trkpt>
      <trkpt lat="45.28608" lon="2.9567">
        <ele>1246.52</ele>
        <time>2022-03-28T11:29:52Z</time>
      </trkpt>
      <trkpt lat="45.28606" lon="2.95719">
        <ele>1248.43</ele>
        <time>2022-03-28T11:29:56Z</time>
      </trkpt>
      <trkpt lat="45.28578" lon="2.95855">
        <ele>1246.13</ele>
        <time>2022-03-28T11:30:00Z</time>
      </trkpt>
      <trkpt lat="45.28557" lon="2.95974">
        <ele>1245.16</ele>
        <time>2022-03-28T11:30:03Z</time>
      </trkpt>
      <trkpt lat="45.28554" lon="2.96062">
        <ele>1243.84</ele>
        <time>2022-03-28T11:30:07Z</time>
      </trkpt>
      <trkpt lat="45.2856" lon="2.96219">
        <ele>1245.47</ele>
        <time>2022-03-28T11:30:11Z</time>
      </trkpt>
      <trkpt lat="45.28567" lon="2.96261">
        <ele>1244.88</ele>
        <time>2022-03-28T11:30:15Z</time>
      </trkpt>
      <trkpt lat="45.28577" lon="2.96304">
        <ele>1245.3</ele>
        <time>2022-03-28T11:30:19Z</time>
      </trkpt>
      <trkpt lat="45.28578" lon="2.96328">
        <ele>1245.46</ele>
        <time>2022-03-28T11:30:22Z</time>
      </trkpt>
      <trkpt lat="45.28567" lon="2.96359">
        <ele>1245.53</ele>
        <time>2022-03-28T11:30:26Z</time>
      </trkpt>
      <trkpt lat="45.28538" lon="2.96427">
        <ele>1243.88</ele>
        <time>2022-03-28T11:30:30Z</time>
      </trkpt>
      <trkpt lat="45.28531" lon="2.96466">
        <ele>1242.42</ele>
        <time>2022-03-28T11:30:34Z</time>
      </trkpt>
      <trkpt lat="45.28532" lon="2.96499">
        <ele>1242.78</ele>
        <time>2022-03-28T11:30:38Z</time>
      </trkpt>
      <trkpt lat="45.28551" lon="2.9655">
        <ele>1245.84</ele>
        <time>2022-03-28T11:30:41Z</time>
      </trkpt>
      <trkpt lat="45.28578" lon="2.9659">
        <ele>1244.35</ele>
        <time>2022-03-28T11:30:45Z</time>
      </trkpt>
      <trkpt lat="45.28602" lon="2.96605">
        <ele>1244.8</ele>
        <time>2022-03-28T11:30:49Z</time>
      </trkpt>
      <trkpt lat="45.28636" lon="2.96619">
        <ele>1247.12</ele>
        <time>2022-03-28T11:30:53Z</time>
      </trkpt>
      <trkpt lat="45.28655" lon="2.96642">
        <ele>1247.05</ele>
        <time>2022-03-28T11:30:57Z</time>
      </trkpt>
      <trkpt lat="45.28678" lon="2.96696">
        <ele>1247.78</ele>
        <time>2022-03-28T11:31:00Z</time>
      </trkpt>
      <trkpt lat="45.28681" lon="2.9672">
        <ele>1248.06</ele>
        <time>2022-03-28T11:31:04Z</time>
      </trkpt>
      <trkpt lat="45.28679" lon="2.96746">
        <ele>1248.29</ele>
        <time>2022-03-28T11:31:08Z</time>
      </trkpt>
      <trkpt lat="45.28676" lon="2.96767">
        <ele>1249.02</ele>
        <time>2022-03-28T11:31:12Z</time>
      </trkpt>
      <trkpt lat="45.28665" lon="2.96789">
        <ele>1250.97</ele>
        <time>2022-03-28T11:31:16Z</time>
      </trkpt>
      <trkpt lat="45.28648" lon="2.96806">
        <ele>1252.64</ele>
        <time>2022-03-28T11:31:19Z</time>
      </trkpt>
      <trkpt lat="45.28631" lon="2.96825">
        <ele>1254.16</ele>
        <time>2022-03-28T11:31:23Z</time>
      </trkpt>
      <trkpt lat="45.28598" lon="2.96896">
        <ele>1257.3</ele>
        <time>2022-03-28T11:31:27Z</time>
      </trkpt>
      <trkpt lat="45.28586" lon="2.96944">
        <ele>1259.35</ele>
        <time>2022-03-28T11:31:31Z</time>
      </trkpt>
      <trkpt lat="45.28557" lon="2.97079">
        <ele>1262.04</ele>
        <time>2022-03-28T11:31:35Z</time>
      </trkpt>
      <trkpt lat="45.28558" lon="2.97115">
        <ele>1263.29</ele>
        <time>2022-03-28T11:31:38Z</time>
      </trkpt>
      <trkpt lat="45.28566" lon="2.97141">
        <ele>1264.98</ele>
        <time>2022-03-28T11:31:42Z</time>
      </trkpt>
      <trkpt lat="45.28617" lon="2.97273">
        <ele>1270.85</ele>
        <time>2022-03-28T11:31:46Z</time>
      </trkpt>
      <trkpt lat="45.28737" lon="2.97636">
        <ele>1267.61</ele>
        <time>2022-03-28T11:31:50Z</time>
      </trkpt>
      <trkpt lat="45.28759" lon="2.97668">
        <ele>1266.8</ele>
        <time>2022-03-28T11:31:54Z</time>
      </trkpt>
      <trkpt lat="45.28781" lon="2.97674">
        <ele>1268.6</ele>
        <time>2022-03-28T11:31:57Z</time>
      </trkpt>
      <trkpt lat="45.28815" lon="2.97675">
        <ele>1269.95</ele>
        <time>2022-03-28T11:32:01Z</time>
      </trkpt>
      <trkpt lat="45.28967" lon="2.97648">
        <ele>1274.79</ele>
        <time>2022-03-28T11:32:05Z</time>
      </trkpt>
      <trkpt lat="45.29075" lon="2.97686">
        <ele>1273.53</ele>
        <time>2022-03-28T11:32:09Z</time>
      </trkpt>
      <trkpt lat="45.29094" lon="2.97704">
        <ele>1273.85</ele>
        <time>2022-03-28T11:32:13Z</time>
      </trkpt>
      <trkpt lat="45.29189" lon="2.97914">
        <ele>1274.23</ele>
        <time>2022-03-28T11:32:16Z</time>
      </trkpt>
      <trkpt lat="45.2921" lon="2.98044">
        <ele>1270.14</ele>
        <time>2022-03-28T11:32:20Z</time>
      </trkpt>
      <trkpt lat="45.29227" lon="2.98085">
        <ele>1271.45</ele>
        <time>2022-03-28T11:32:24Z</time>
      </trkpt>
      <trkpt lat="45.29384" lon="2.98377">
        <ele>1272.31</ele>
        <time>2022-03-28T11:32:28Z</time>
      </trkpt>
      <trkpt lat="45.29399" lon="2.98383">
        <ele>1272.28</ele>
        <time>2022-03-28T11:32:32Z</time>
      </trkpt>
      <trkpt lat="45.29564" lon="2.98385">
        <ele>1270.46</ele>
        <time>2022-03-28T11:32:35Z</time>
      </trkpt>
      <trkpt lat="45.29728" lon="2.98349">
        <ele>1267</ele>
        <time>2022-03-28T11:32:39Z</time>
      </trkpt>
      <trkpt lat="45.29815" lon="2.98344">
        <ele>1260.99</ele>
        <time>2022-03-28T11:32:43Z</time>
      </trkpt>
      <trkpt lat="45.29828" lon="2.98346">
        <ele>1259.56</ele>
        <time>2022-03-28T11:32:47Z</time>
      </trkpt>
      <trkpt lat="45.2986" lon="2.98362">
        <ele>1259.91</ele>
        <time>2022-03-28T11:32:51Z</time>
      </trkpt>
      <trkpt lat="45.29871" lon="2.98376">
        <ele>1261.89</ele>
        <time>2022-03-28T11:32:54Z</time>
      </trkpt>
      <trkpt lat="45.29875" lon="2.98392">
        <ele>1263.05</ele>
        <time>2022-03-28T11:32:58Z</time>
      </trkpt>
      <trkpt lat="45.29875" lon="2.98412">
        <ele>1263</ele>
        <time>2022-03-28T11:33:02Z</time>
      </trkpt>
      <trkpt lat="45.29862" lon="2.98529">
        <ele>1262.5</ele>
        <time>2022-03-28T11:33:06Z</time>
      </trkpt>
      <trkpt lat="45.29855" lon="2.98616">
        <ele>1268.21</ele>
        <time>2022-03-28T11:33:10Z</time>
      </trkpt>
      <trkpt lat="45.29847" lon="2.98647">
        <ele>1269.33</ele>
        <time>2022-03-28T11:33:13Z</time>
      </trkpt>
      <trkpt lat="45.2983" lon="2.98669">
        <ele>1268.92</ele>
        <time>2022-03-28T11:33:17Z</time>
      </trkpt>
      <trkpt lat="45.2979" lon="2.98715">
        <ele>1268.09</ele>
        <time>2022-03-28T11:33:21Z</time>
      </trkpt>
      <trkpt lat="45.29744" lon="2.98808">
        <ele>1270.91</ele>
        <time>2022-03-28T11:33:25Z</time>
      </trkpt>
      <trkpt lat="45.29724" lon="2.98914">
        <ele>1274.88</ele>
        <time>2022-03-28T11:33:29Z</time>
      </trkpt>
      <trkpt lat="45.29704" lon="2.99036">
        <ele>1277.22</ele>
        <time>2022-03-28T11:33:32Z</time>
      </trkpt>
      <trkpt lat="45.29686" lon="2.99173">
        <ele>1279.36</ele>
        <time>2022-03-28T11:33:36Z</time>
      </trkpt>
      <trkpt lat="45.29669" lon="2.99214">
        <ele>1279.69</ele>
        <time>2022-03-28T11:33:40Z</time>
      </trkpt>
      <trkpt lat="45.29599" lon="2.99343">
        <ele>1285.69</ele>
        <time>2022-03-28T11:33:44Z</time>
      </trkpt>
      <trkpt lat="45.2959" lon="2.99373">
        <ele>1286.24</ele>
        <time>2022-03-28T11:33:48Z</time>
      </trkpt>
      <trkpt lat="45.29587" lon="2.99412">
        <ele>1287.48</ele>
        <time>2022-03-28T11:33:51Z</time>
      </trkpt>
      <trkpt lat="45.29592" lon="2.99457">
        <ele>1290.57</ele>
        <time>2022-03-28T11:33:55Z</time>
      </trkpt>
      <trkpt lat="45.29615" lon="2.99594">
        <ele>1294.26</ele>
        <time>2022-03-28T11:33:59Z</time>
      </trkpt>
      <trkpt lat="45.29654" lon="2.99824">
        <ele>1290.82</ele>
        <time>2022-03-28T11:34:03Z</time>
      </trkpt>
      <trkpt lat="45.2966" lon="2.99847">
        <ele>1290.22</ele>
        <time>2022-03-28T11:34:06Z</time>
      </trkpt>
      <trkpt lat="45.29674" lon="2.99871">
        <ele>1289.9</ele>
        <time>2022-03-28T11:34:10Z</time>
      </trkpt>
      <trkpt lat="45.2972" lon="2.9993">
        <ele>1287.11</ele>
        <time>2022-03-28T11:34:14Z</time>
      </trkpt>
      <trkpt lat="45.29731" lon="2.99949">
        <ele>1286.59</ele>
        <time>2022-03-28T11:34:18Z</time>
      </trkpt>
      <trkpt lat="45.29749" lon="3.00005">
        <ele>1286.03</ele>
        <time>2022-03-28T11:34:22Z</time>
      </trkpt>
      <trkpt lat="45.29761" lon="3.00023">
        <ele>1284.96</ele>
        <time>2022-03-28T11:34:25Z</time>
      </trkpt>
      <trkpt lat="45.2978" lon="3.00042">
        <ele>1281.75</ele>
        <time>2022-03-28T11:34:29Z</time>
      </trkpt>
      <trkpt lat="45.29822" lon="3.00079">
        <ele>1278</ele>
        <time>2022-03-28T11:34:33Z</time>
      </trkpt>
      <trkpt lat="45.29839" lon="3.00089">
        <ele>1277.3</ele>
        <time>2022-03-28T11:34:37Z</time>
      </trkpt>
      <trkpt lat="45.29857" lon="3.00092">
        <ele>1275.94</ele>
        <time>2022-03-28T11:34:41Z</time>
      </trkpt>
      <trkpt lat="45.29895" lon="3.00094">
        <ele>1273.16</ele>
        <time>2022-03-28T11:34:44Z</time>
      </trkpt>
      <trkpt lat="45.29919" lon="3.00104">
        <ele>1271.38</ele>
        <time>2022-03-28T11:34:48Z</time>
      </trkpt>
      <trkpt lat="45.30002" lon="3.00181">
        <ele>1262.25</ele>
        <time>2022-03-28T11:34:52Z</time>
      </trkpt>
      <trkpt lat="45.30014" lon="3.00185">
        <ele>1261.03</ele>
        <time>2022-03-28T11:34:56Z</time>
      </trkpt>
      <trkpt lat="45.30024" lon="3.0018">
        <ele>1259.95</ele>
        <time>2022-03-28T11:35:00Z</time>
      </trkpt>
      <trkpt lat="45.30032" lon="3.00168">
        <ele>1259.51</ele>
        <time>2022-03-28T11:35:03Z</time>
      </trkpt>
      <trkpt lat="45.3004" lon="3.00152">
        <ele>1258.89</ele>
        <time>2022-03-28T11:35:07Z</time>
      </trkpt>
      <trkpt lat="45.30074" lon="3.00047">
        <ele>1256.61</ele>
        <time>2022-03-28T11:35:11Z</time>
      </trkpt>
      <trkpt lat="45.30083" lon="3.00032">
        <ele>1256.63</ele>
        <time>2022-03-28T11:35:15Z</time>
      </trkpt>
      <trkpt lat="45.30102" lon="3.00022">
        <ele>1255.31</ele>
        <time>2022-03-28T11:35:19Z</time>
      </trkpt>
      <trkpt lat="45.30123" lon="3.00017">
        <ele>1253.96</ele>
        <time>2022-03-28T11:35:22Z</time>
      </trkpt>
      <trkpt lat="45.30142" lon="3.00023">
        <ele>1253.18</ele>
        <time>2022-03-28T11:35:26Z</time>
      </trkpt>
      <trkpt lat="45.30162" lon="3.00045">
        <ele>1252.89</ele>
        <time>2022-03-28T11:35:30Z</time>
      </trkpt>
      <trkpt lat="45.30189" lon="3.001">
        <ele>1248.81</ele>
        <time>2022-03-28T11:35:34Z</time>
      </trkpt>
      <trkpt lat="45.3025" lon="3.00238">
        <ele>1240.87</ele>
        <time>2022-03-28T11:35:38Z</time>
      </trkpt>
      <trkpt lat="45.30275" lon="3.00278">
        <ele>1238.8</ele>
        <time>2022-03-28T11:35:41Z</time>
      </trkpt>
      <trkpt lat="45.30283" lon="3.00304">
        <ele>1237.72</ele>
        <time>2022-03-28T11:35:45Z</time>
      </trkpt>
      <trkpt lat="45.30286" lon="3.00333">
        <ele>1235.23</ele>
        <time>2022-03-28T11:35:49Z</time>
      </trkpt>
      <trkpt lat="45.30291" lon="3.00529">
        <ele>1226.63</ele>
        <time>2022-03-28T11:35:53Z</time>
      </trkpt>
      <trkpt lat="45.30295" lon="3.00588">
        <ele>1220.86</ele>
        <time>2022-03-28T11:35:57Z</time>
      </trkpt>
      <trkpt lat="45.30301" lon="3.00657">
        <ele>1218.41</ele>
        <time>2022-03-28T11:36:00Z</time>
      </trkpt>
      <trkpt lat="45.30312" lon="3.00712">
        <ele>1214.94</ele>
        <time>2022-03-28T11:36:04Z</time>
      </trkpt>
      <trkpt lat="45.30347" lon="3.00819">
        <ele>1215.96</ele>
        <time>2022-03-28T11:36:08Z</time>
      </trkpt>
      <trkpt lat="45.30349" lon="3.00846">
        <ele>1215.12</ele>
        <time>2022-03-28T11:36:12Z</time>
      </trkpt>
      <trkpt lat="45.30342" lon="3.0089">
        <ele>1212.4</ele>
        <time>2022-03-28T11:36:16Z</time>
      </trkpt>
      <trkpt lat="45.30329" lon="3.00935">
        <ele>1208.82</ele>
        <time>2022-03-28T11:36:19Z</time>
      </trkpt>
      <trkpt lat="45.3032" lon="3.00953">
        <ele>1206.93</ele>
        <time>2022-03-28T11:36:23Z</time>
      </trkpt>
      <trkpt lat="45.30299" lon="3.00978">
        <ele>1203.81</ele>
        <time>2022-03-28T11:36:27Z</time>
      </trkpt>
      <trkpt lat="45.30263" lon="3.01014">
        <ele>1199.3</ele>
        <time>2022-03-28T11:36:31Z</time>
      </trkpt>
      <trkpt lat="45.30249" lon="3.01043">
        <ele>1197.71</ele>
        <time>2022-03-28T11:36:35Z</time>
      </trkpt>
      <trkpt lat="45.30236" lon="3.01089">
        <ele>1194.78</ele>
        <time>2022-03-28T11:36:38Z</time>
      </trkpt>
      <trkpt lat="45.30233" lon="3.01123">
        <ele>1192.27</ele>
        <time>2022-03-28T11:36:42Z</time>
      </trkpt>
      <trkpt lat="45.30239" lon="3.01176">
        <ele>1188.37</ele>
        <time>2022-03-28T11:36:46Z</time>
      </trkpt>
      <trkpt lat="45.30254" lon="3.01226">
        <ele>1189.57</ele>
        <time>2022-03-28T11:36:50Z</time>
      </trkpt>
      <trkpt lat="45.30284" lon="3.01301">
        <ele>1186.67</ele>
        <time>2022-03-28T11:36:54Z</time>
      </trkpt>
      <trkpt lat="45.30293" lon="3.01331">
        <ele>1186.32</ele>
        <time>2022-03-28T11:36:57Z</time>
      </trkpt>
      <trkpt lat="45.30301" lon="3.01365">
        <ele>1183.36</ele>
        <time>2022-03-28T11:37:01Z</time>
      </trkpt>
      <trkpt lat="45.30317" lon="3.0145">
        <ele>1182.25</ele>
        <time>2022-03-28T11:37:05Z</time>
      </trkpt>
      <trkpt lat="45.30319" lon="3.01479">
        <ele>1180.88</ele>
        <time>2022-03-28T11:37:09Z</time>
      </trkpt>
      <trkpt lat="45.30317" lon="3.01505">
        <ele>1178.52</ele>
        <time>2022-03-28T11:37:13Z</time>
      </trkpt>
      <trkpt lat="45.30312" lon="3.01526">
        <ele>1175.85</ele>
        <time>2022-03-28T11:37:16Z</time>
      </trkpt>
      <trkpt lat="45.30312" lon="3.01526">
        <ele>1175.85</ele>
        <time>2022-03-28T11:37:16Z</time>
      </trkpt>
      <trkpt lat="45.30312" lon="3.01525">
        <ele>1176.25</ele>
        <time>2022-03-28T11:37:17Z</time>
      </trkpt>
      <trkpt lat="45.30297" lon="3.01435">
        <ele>1176.78</ele>
        <time>2022-03-28T11:37:21Z</time>
      </trkpt>
      <trkpt lat="45.30286" lon="3.01398">
        <ele>1175.14</ele>
        <time>2022-03-28T11:37:26Z</time>
      </trkpt>
      <trkpt lat="45.30274" lon="3.01375">
        <ele>1175.13</ele>
        <time>2022-03-28T11:37:31Z</time>
      </trkpt>
      <trkpt lat="45.30197" lon="3.01239">
        <ele>1171.46</ele>
        <time>2022-03-28T11:37:35Z</time>
      </trkpt>
      <trkpt lat="45.30175" lon="3.01187">
        <ele>1168.85</ele>
        <time>2022-03-28T11:37:40Z</time>
      </trkpt>
      <trkpt lat="45.30161" lon="3.01133">
        <ele>1166.23</ele>
        <time>2022-03-28T11:37:45Z</time>
      </trkpt>
      <trkpt lat="45.30144" lon="3.01046">
        <ele>1163.81</ele>
        <time>2022-03-28T11:37:49Z</time>
      </trkpt>
      <trkpt lat="45.30135" lon="3.01029">
        <ele>1163.62</ele>
        <time>2022-03-28T11:37:54Z</time>
      </trkpt>
      <trkpt lat="45.30128" lon="3.01024">
        <ele>1163.59</ele>
        <time>2022-03-28T11:37:59Z</time>
      </trkpt>
      <trkpt lat="45.30117" lon="3.01023">
        <ele>1162.95</ele>
        <time>2022-03-28T11:38:03Z</time>
      </trkpt>
      <trkpt lat="45.30112" lon="3.01026">
        <ele>1162.23</ele>
        <time>2022-03-28T11:38:08Z</time>
      </trkpt>
      <trkpt lat="45.30048" lon="3.01102">
        <ele>1163.34</ele>
        <time>2022-03-28T11:38:13Z</time>
      </trkpt>
      <trkpt lat="45.29988" lon="3.01154">
        <ele>1169.15</ele>
        <time>2022-03-28T11:38:17Z</time>
      </trkpt>
      <trkpt lat="45.2996" lon="3.01172">
        <ele>1169.25</ele>
        <time>2022-03-28T11:38:22Z</time>
      </trkpt>
      <trkpt lat="45.29901" lon="3.01196">
        <ele>1172.54</ele>
        <time>2022-03-28T11:38:27Z</time>
      </trkpt>
      <trkpt lat="45.29873" lon="3.01204">
        <ele>1174.78</ele>
        <time>2022-03-28T11:38:31Z</time>
      </trkpt>
      <trkpt lat="45.29683" lon="3.01216">
        <ele>1190.95</ele>
        <time>2022-03-28T11:38:36Z</time>
      </trkpt>
      <trkpt lat="45.29665" lon="3.01219">
        <ele>1190.5</ele>
        <time>2022-03-28T11:38:41Z</time>
      </trkpt>
      <trkpt lat="45.29647" lon="3.0123">
        <ele>1190.25</ele>
        <time>2022-03-28T11:38:45Z</time>
      </trkpt>
      <trkpt lat="45.29633" lon="3.0125">
        <ele>1190.81</ele>
        <time>2022-03-28T11:38:50Z</time>
      </trkpt>
      <trkpt lat="45.29625" lon="3.01276">
        <ele>1192.52</ele>
        <time>2022-03-28T11:38:55Z</time>
      </trkpt>
      <trkpt lat="45.29623" lon="3.0129">
        <ele>1194.38</ele>
        <time>2022-03-28T11:38:59Z</time>
      </trkpt>
      <trkpt lat="45.29626" lon="3.01319">
        <ele>1196.68</ele>
        <time>2022-03-28T11:39:04Z</time>
      </trkpt>
      <trkpt lat="45.29644" lon="3.01402">
        <ele>1198.53</ele>
        <time>2022-03-28T11:39:09Z</time>
      </trkpt>
      <trkpt lat="45.29648" lon="3.0143">
        <ele>1199.79</ele>
        <time>2022-03-28T11:39:13Z</time>
      </trkpt>
      <trkpt lat="45.29649" lon="3.01624">
        <ele>1207.35</ele>
        <time>2022-03-28T11:39:18Z</time>
      </trkpt>
      <trkpt lat="45.29653" lon="3.01649">
        <ele>1208.62</ele>
        <time>2022-03-28T11:39:23Z</time>
      </trkpt>
      <trkpt lat="45.29673" lon="3.01714">
        <ele>1212.6</ele>
        <time>2022-03-28T11:39:28Z</time>
      </trkpt>
      <trkpt lat="45.29682" lon="3.01733">
        <ele>1213.32</ele>
        <time>2022-03-28T11:39:32Z</time>
      </trkpt>
      <trkpt lat="45.29695" lon="3.01748">
        <ele>1212.71</ele>
        <time>2022-03-28T11:39:37Z</time>
      </trkpt>
      <trkpt lat="45.29738" lon="3.01778">
        <ele>1211.86</ele>
        <time>2022-03-28T11:39:42Z</time>
      </trkpt>
      <trkpt lat="45.29753" lon="3.01793">
        <ele>1211.54</ele>
        <time>2022-03-28T11:39:46Z</time>
      </trkpt>
      <trkpt lat="45.29758" lon="3.01816">
        <ele>1211.21</ele>
        <time>2022-03-28T11:39:51Z</time>
      </trkpt>
      <trkpt lat="45.29752" lon="3.01845">
        <ele>1212.55</ele>
        <time>2022-03-28T11:39:56Z</time>
      </trkpt>
      <trkpt lat="45.29718" lon="3.01916">
        <ele>1219.34</ele>
        <time>2022-03-28T11:40:00Z</time>
      </trkpt>
      <trkpt lat="45.29702" lon="3.01939">
        <ele>1220.04</ele>
        <time>2022-03-28T11:40:05Z</time>
      </trkpt>
      <trkpt lat="45.2969" lon="3.01948">
        <ele>1221.39</ele>
        <time>2022-03-28T11:40:10Z</time>
      </trkpt>
      <trkpt lat="45.29676" lon="3.01943">
        <ele>1223.03</ele>
        <time>2022-03-28T11:40:14Z</time>
      </trkpt>
      <trkpt lat="45.29594" lon="3.01848">
        <ele>1227.07</ele>
        <time>2022-03-28T11:40:19Z</time>
      </trkpt>
      <trkpt lat="45.29575" lon="3.01817">
        <ele>1229.89</ele>
        <time>2022-03-28T11:40:24Z</time>
      </trkpt>
      <trkpt lat="45.2948" lon="3.01648">
        <ele>1236.22</ele>
        <time>2022-03-28T11:40:28Z</time>
      </trkpt>
      <trkpt lat="45.29404" lon="3.01527">
        <ele>1241.84</ele>
        <time>2022-03-28T11:40:33Z</time>
      </trkpt>
      <trkpt lat="45.29254" lon="3.01372">
        <ele>1251.76</ele>
        <time>2022-03-28T11:40:38Z</time>
      </trkpt>
      <trkpt lat="45.29187" lon="3.01295">
        <ele>1252.43</ele>
        <time>2022-03-28T11:40:42Z</time>
      </trkpt>
      <trkpt lat="45.29164" lon="3.01273">
        <ele>1255.53</ele>
        <time>2022-03-28T11:40:47Z</time>
      </trkpt>
      <trkpt lat="45.29131" lon="3.01271">
        <ele>1257.79</ele>
        <time>2022-03-28T11:40:52Z</time>
      </trkpt>
      <trkpt lat="45.29064" lon="3.01293">
        <ele>1261.01</ele>
        <time>2022-03-28T11:40:56Z</time>
      </trkpt>
      <trkpt lat="45.28847" lon="3.01308">
        <ele>1262.39</ele>
        <time>2022-03-28T11:41:01Z</time>
      </trkpt>
      <trkpt lat="45.28543" lon="3.01326">
        <ele>1276.54</ele>
        <time>2022-03-28T11:41:06Z</time>
      </trkpt>
      <trkpt lat="45.2853" lon="3.01322">
        <ele>1276.07</ele>
        <time>2022-03-28T11:41:10Z</time>
      </trkpt>
      <trkpt lat="45.28516" lon="3.01308">
        <ele>1275.48</ele>
        <time>2022-03-28T11:41:15Z</time>
      </trkpt>
      <trkpt lat="45.28516" lon="3.01308">
        <ele>1275.48</ele>
        <time>2022-03-28T11:41:15Z</time>
      </trkpt>
      <trkpt lat="45.28512" lon="3.01303">
        <ele>1274.88</ele>
        <time>2022-03-28T11:41:18Z</time>
      </trkpt>
      <trkpt lat="45.28404" lon="3.0109">
        <ele>1260.53</ele>
        <time>2022-03-28T11:41:21Z</time>
      </trkpt>
      <trkpt lat="45.28323" lon="3.00995">
        <ele>1258.75</ele>
        <time>2022-03-28T11:41:25Z</time>
      </trkpt>
      <trkpt lat="45.28296" lon="3.00948">
        <ele>1254.64</ele>
        <time>2022-03-28T11:41:28Z</time>
      </trkpt>
      <trkpt lat="45.28287" lon="3.00918">
        <ele>1252.44</ele>
        <time>2022-03-28T11:41:31Z</time>
      </trkpt>
      <trkpt lat="45.28281" lon="3.00886">
        <ele>1249.97</ele>
        <time>2022-03-28T11:41:34Z</time>
      </trkpt>
      <trkpt lat="45.28266" lon="3.00787">
        <ele>1245.05</ele>
        <time>2022-03-28T11:41:37Z</time>
      </trkpt>
      <trkpt lat="45.28265" lon="3.00756">
        <ele>1244.16</ele>
        <time>2022-03-28T11:41:40Z</time>
      </trkpt>
      <trkpt lat="45.28276" lon="3.00574">
        <ele>1236.66</ele>
        <time>2022-03-28T11:41:44Z</time>
      </trkpt>
      <trkpt lat="45.28286" lon="3.00522">
        <ele>1233.67</ele>
        <time>2022-03-28T11:41:47Z</time>
      </trkpt>
      <trkpt lat="45.28306" lon="3.00446">
        <ele>1231.51</ele>
        <time>2022-03-28T11:41:50Z</time>
      </trkpt>
      <trkpt lat="45.28357" lon="3.00318">
        <ele>1222.74</ele>
        <time>2022-03-28T11:41:53Z</time>
      </trkpt>
      <trkpt lat="45.28364" lon="3.00286">
        <ele>1221.02</ele>
        <time>2022-03-28T11:41:56Z</time>
      </trkpt>
      <trkpt lat="45.28384" lon="3.00135">
        <ele>1207.45</ele>
        <time>2022-03-28T11:41:59Z</time>
      </trkpt>
      <trkpt lat="45.28388" lon="3.00074">
        <ele>1205.08</ele>
        <time>2022-03-28T11:42:03Z</time>
      </trkpt>
      <trkpt lat="45.28379" lon="3.0002">
        <ele>1205.41</ele>
        <time>2022-03-28T11:42:06Z</time>
      </trkpt>
      <trkpt lat="45.28346" lon="2.99979">
        <ele>1201.92</ele>
        <time>2022-03-28T11:42:09Z</time>
      </trkpt>
      <trkpt lat="45.28273" lon="2.99904">
        <ele>1194.16</ele>
        <time>2022-03-28T11:42:12Z</time>
      </trkpt>
      <trkpt lat="45.28262" lon="2.99895">
        <ele>1194.03</ele>
        <time>2022-03-28T11:42:15Z</time>
      </trkpt>
      <trkpt lat="45.28249" lon="2.99888">
        <ele>1193.14</ele>
        <time>2022-03-28T11:42:18Z</time>
      </trkpt>
      <trkpt lat="45.28235" lon="2.99885">
        <ele>1192.59</ele>
        <time>2022-03-28T11:42:21Z</time>
      </trkpt>
      <trkpt lat="45.28206" lon="2.99888">
        <ele>1189.58</ele>
        <time>2022-03-28T11:42:25Z</time>
      </trkpt>
      <trkpt lat="45.28151" lon="2.99915">
        <ele>1181.79</ele>
        <time>2022-03-28T11:42:28Z</time>
      </trkpt>
      <trkpt lat="45.2814" lon="2.99918">
        <ele>1180.9</ele>
        <time>2022-03-28T11:42:31Z</time>
      </trkpt>
      <trkpt lat="45.2813" lon="2.99916">
        <ele>1180.73</ele>
        <time>2022-03-28T11:42:34Z</time>
      </trkpt>
      <trkpt lat="45.28086" lon="2.99901">
        <ele>1179.99</ele>
        <time>2022-03-28T11:42:37Z</time>
      </trkpt>
      <trkpt lat="45.2805" lon="2.99884">
        <ele>1177.51</ele>
        <time>2022-03-28T11:42:40Z</time>
      </trkpt>
      <trkpt lat="45.27967" lon="2.99827">
        <ele>1168.56</ele>
        <time>2022-03-28T11:42:44Z</time>
      </trkpt>
      <trkpt lat="45.27905" lon="2.99797">
        <ele>1163.86</ele>
        <time>2022-03-28T11:42:47Z</time>
      </trkpt>
      <trkpt lat="45.27892" lon="2.99784">
        <ele>1163.18</ele>
        <time>2022-03-28T11:42:50Z</time>
      </trkpt>
      <trkpt lat="45.27886" lon="2.99771">
        <ele>1163.06</ele>
        <time>2022-03-28T11:42:53Z</time>
      </trkpt>
      <trkpt lat="45.27882" lon="2.99712">
        <ele>1164.13</ele>
        <time>2022-03-28T11:42:56Z</time>
      </trkpt>
      <trkpt lat="45.2787" lon="2.99621">
        <ele>1157.82</ele>
        <time>2022-03-28T11:42:59Z</time>
      </trkpt>
      <trkpt lat="45.27869" lon="2.99599">
        <ele>1155.45</ele>
        <time>2022-03-28T11:43:03Z</time>
      </trkpt>
      <trkpt lat="45.27874" lon="2.99562">
        <ele>1153.17</ele>
        <time>2022-03-28T11:43:06Z</time>
      </trkpt>
      <trkpt lat="45.27882" lon="2.99524">
        <ele>1152.26</ele>
        <time>2022-03-28T11:43:09Z</time>
      </trkpt>
      <trkpt lat="45.27882" lon="2.99485">
        <ele>1149.65</ele>
        <time>2022-03-28T11:43:12Z</time>
      </trkpt>
      <trkpt lat="45.27879" lon="2.99468">
        <ele>1147.94</ele>
        <time>2022-03-28T11:43:15Z</time>
      </trkpt>
      <trkpt lat="45.27879" lon="2.99451">
        <ele>1146.64</ele>
        <time>2022-03-28T11:43:18Z</time>
      </trkpt>
      <trkpt lat="45.27887" lon="2.99379">
        <ele>1141.52</ele>
        <time>2022-03-28T11:43:22Z</time>
      </trkpt>
      <trkpt lat="45.27893" lon="2.99352">
        <ele>1141.43</ele>
        <time>2022-03-28T11:43:25Z</time>
      </trkpt>
      <trkpt lat="45.27889" lon="2.99298">
        <ele>1140</ele>
        <time>2022-03-28T11:43:28Z</time>
      </trkpt>
      <trkpt lat="45.27889" lon="2.99283">
        <ele>1140.01</ele>
        <time>2022-03-28T11:43:31Z</time>
      </trkpt>
      <trkpt lat="45.27872" lon="2.99217">
        <ele>1132.98</ele>
        <time>2022-03-28T11:43:34Z</time>
      </trkpt>
      <trkpt lat="45.27874" lon="2.99195">
        <ele>1130.76</ele>
        <time>2022-03-28T11:43:37Z</time>
      </trkpt>
      <trkpt lat="45.27869" lon="2.99101">
        <ele>1126.43</ele>
        <time>2022-03-28T11:43:41Z</time>
      </trkpt>
      <trkpt lat="45.27875" lon="2.99062">
        <ele>1126.97</ele>
        <time>2022-03-28T11:43:44Z</time>
      </trkpt>
      <trkpt lat="45.27875" lon="2.99048">
        <ele>1127.71</ele>
        <time>2022-03-28T11:43:47Z</time>
      </trkpt>
      <trkpt lat="45.27872" lon="2.99039">
        <ele>1127.68</ele>
        <time>2022-03-28T11:43:50Z</time>
      </trkpt>
      <trkpt lat="45.27866" lon="2.99031">
        <ele>1126.81</ele>
        <time>2022-03-28T11:43:53Z</time>
      </trkpt>
      <trkpt lat="45.27859" lon="2.99028">
        <ele>1125.3</ele>
        <time>2022-03-28T11:43:56Z</time>
      </trkpt>
      <trkpt lat="45.278" lon="2.99036">
        <ele>1109.77</ele>
        <time>2022-03-28T11:43:59Z</time>
      </trkpt>
      <trkpt lat="45.27788" lon="2.99036">
        <ele>1108.3</ele>
        <time>2022-03-28T11:44:03Z</time>
      </trkpt>
      <trkpt lat="45.2778" lon="2.99031">
        <ele>1107.28</ele>
        <time>2022-03-28T11:44:06Z</time>
      </trkpt>
      <trkpt lat="45.27769" lon="2.99013">
        <ele>1106.78</ele>
        <time>2022-03-28T11:44:09Z</time>
      </trkpt>
      <trkpt lat="45.27737" lon="2.98946">
        <ele>1106.45</ele>
        <time>2022-03-28T11:44:12Z</time>
      </trkpt>
      <trkpt lat="45.27699" lon="2.98882">
        <ele>1103.65</ele>
        <time>2022-03-28T11:44:15Z</time>
      </trkpt>
      <trkpt lat="45.27672" lon="2.9886">
        <ele>1100.66</ele>
        <time>2022-03-28T11:44:18Z</time>
      </trkpt>
      <trkpt lat="45.27626" lon="2.98809">
        <ele>1094.82</ele>
        <time>2022-03-28T11:44:22Z</time>
      </trkpt>
      <trkpt lat="45.276" lon="2.98776">
        <ele>1088.94</ele>
        <time>2022-03-28T11:44:25Z</time>
      </trkpt>
      <trkpt lat="45.27588" lon="2.98743">
        <ele>1087.33</ele>
        <time>2022-03-28T11:44:28Z</time>
      </trkpt>
      <trkpt lat="45.2756" lon="2.98609">
        <ele>1073.33</ele>
        <time>2022-03-28T11:44:31Z</time>
      </trkpt>
      <trkpt lat="45.2756" lon="2.98559">
        <ele>1069.8</ele>
        <time>2022-03-28T11:44:34Z</time>
      </trkpt>
      <trkpt lat="45.27568" lon="2.98508">
        <ele>1067.77</ele>
        <time>2022-03-28T11:44:37Z</time>
      </trkpt>
      <trkpt lat="45.27621" lon="2.98386">
        <ele>1064.3</ele>
        <time>2022-03-28T11:44:41Z</time>
      </trkpt>
      <trkpt lat="45.27623" lon="2.98351">
        <ele>1061.05</ele>
        <time>2022-03-28T11:44:44Z</time>
      </trkpt>
      <trkpt lat="45.27616" lon="2.98296">
        <ele>1055.66</ele>
        <time>2022-03-28T11:44:47Z</time>
      </trkpt>
      <trkpt lat="45.27623" lon="2.98123">
        <ele>1036.54</ele>
        <time>2022-03-28T11:44:50Z</time>
      </trkpt>
      <trkpt lat="45.27625" lon="2.98103">
        <ele>1033.05</ele>
        <time>2022-03-28T11:44:53Z</time>
      </trkpt>
      <trkpt lat="45.27636" lon="2.98089">
        <ele>1032.36</ele>
        <time>2022-03-28T11:44:56Z</time>
      </trkpt>
      <trkpt lat="45.27652" lon="2.98079">
        <ele>1034.73</ele>
        <time>2022-03-28T11:45:00Z</time>
      </trkpt>
      <trkpt lat="45.27706" lon="2.9804">
        <ele>1036.48</ele>
        <time>2022-03-28T11:45:03Z</time>
      </trkpt>
      <trkpt lat="45.27727" lon="2.98014">
        <ele>1033.3</ele>
        <time>2022-03-28T11:45:06Z</time>
      </trkpt>
      <trkpt lat="45.27733" lon="2.97985">
        <ele>1027.35</ele>
        <time>2022-03-28T11:45:09Z</time>
      </trkpt>
      <trkpt lat="45.27722" lon="2.97958">
        <ele>1023.43</ele>
        <time>2022-03-28T11:45:12Z</time>
      </trkpt>
      <trkpt lat="45.27713" lon="2.97943">
        <ele>1022.91</ele>
        <time>2022-03-28T11:45:15Z</time>
      </trkpt>
      <trkpt lat="45.27715" lon="2.97939">
        <ele>1023.69</ele>
        <time>2022-03-28T11:45:16Z</time>
      </trkpt>
      <trkpt lat="45.27715" lon="2.97939">
        <ele>1023.69</ele>
        <time>2022-03-28T11:45:16Z</time>
      </trkpt>
      <trkpt lat="45.27713" lon="2.97943">
        <ele>1022.91</ele>
        <time>2022-03-28T11:45:16Z</time>
      </trkpt>
      <trkpt lat="45.27698" lon="2.97935">
        <ele>1023.34</ele>
        <time>2022-03-28T11:45:20Z</time>
      </trkpt>
      <trkpt lat="45.27533" lon="2.97894">
        <ele>1001.17</ele>
        <time>2022-03-28T11:45:24Z</time>
      </trkpt>
      <trkpt lat="45.27503" lon="2.97892">
        <ele>998.18</ele>
        <time>2022-03-28T11:45:28Z</time>
      </trkpt>
      <trkpt lat="45.27471" lon="2.97902">
        <ele>993.87</ele>
        <time>2022-03-28T11:45:32Z</time>
      </trkpt>
      <trkpt lat="45.27309" lon="2.97969">
        <ele>1009.49</ele>
        <time>2022-03-28T11:45:36Z</time>
      </trkpt>
      <trkpt lat="45.27287" lon="2.9799">
        <ele>1014.29</ele>
        <time>2022-03-28T11:45:40Z</time>
      </trkpt>
      <trkpt lat="45.27218" lon="2.9815">
        <ele>1026.2</ele>
        <time>2022-03-28T11:45:44Z</time>
      </trkpt>
      <trkpt lat="45.27207" lon="2.98197">
        <ele>1024.29</ele>
        <time>2022-03-28T11:45:48Z</time>
      </trkpt>
      <trkpt lat="45.27193" lon="2.98236">
        <ele>1022.79</ele>
        <time>2022-03-28T11:45:52Z</time>
      </trkpt>
      <trkpt lat="45.27166" lon="2.98266">
        <ele>1029.18</ele>
        <time>2022-03-28T11:45:56Z</time>
      </trkpt>
      <trkpt lat="45.27153" lon="2.98288">
        <ele>1031.53</ele>
        <time>2022-03-28T11:45:59Z</time>
      </trkpt>
      <trkpt lat="45.27138" lon="2.98325">
        <ele>1037.91</ele>
        <time>2022-03-28T11:46:03Z</time>
      </trkpt>
      <trkpt lat="45.27118" lon="2.98469">
        <ele>1033.08</ele>
        <time>2022-03-28T11:46:07Z</time>
      </trkpt>
      <trkpt lat="45.271" lon="2.98538">
        <ele>1035.02</ele>
        <time>2022-03-28T11:46:11Z</time>
      </trkpt>
      <trkpt lat="45.27092" lon="2.98615">
        <ele>1039.16</ele>
        <time>2022-03-28T11:46:15Z</time>
      </trkpt>
      <trkpt lat="45.27048" lon="2.98759">
        <ele>1057.92</ele>
        <time>2022-03-28T11:46:19Z</time>
      </trkpt>
      <trkpt lat="45.27023" lon="2.98881">
        <ele>1069.86</ele>
        <time>2022-03-28T11:46:23Z</time>
      </trkpt>
      <trkpt lat="45.2699" lon="2.98979">
        <ele>1074.49</ele>
        <time>2022-03-28T11:46:27Z</time>
      </trkpt>
      <trkpt lat="45.26971" lon="2.99042">
        <ele>1082.31</ele>
        <time>2022-03-28T11:46:31Z</time>
      </trkpt>
      <trkpt lat="45.26967" lon="2.99072">
        <ele>1081.69</ele>
        <time>2022-03-28T11:46:35Z</time>
      </trkpt>
      <trkpt lat="45.26958" lon="2.99128">
        <ele>1082.71</ele>
        <time>2022-03-28T11:46:39Z</time>
      </trkpt>
      <trkpt lat="45.26951" lon="2.9915">
        <ele>1084.51</ele>
        <time>2022-03-28T11:46:43Z</time>
      </trkpt>
      <trkpt lat="45.26904" lon="2.99253">
        <ele>1091.81</ele>
        <time>2022-03-28T11:46:47Z</time>
      </trkpt>
      <trkpt lat="45.26888" lon="2.99275">
        <ele>1094.48</ele>
        <time>2022-03-28T11:46:50Z</time>
      </trkpt>
      <trkpt lat="45.26879" lon="2.99281">
        <ele>1095.3</ele>
        <time>2022-03-28T11:46:54Z</time>
      </trkpt>
      <trkpt lat="45.26836" lon="2.99299">
        <ele>1100.83</ele>
        <time>2022-03-28T11:46:58Z</time>
      </trkpt>
      <trkpt lat="45.26803" lon="2.99318">
        <ele>1102.25</ele>
        <time>2022-03-28T11:47:02Z</time>
      </trkpt>
      <trkpt lat="45.26772" lon="2.99324">
        <ele>1101.45</ele>
        <time>2022-03-28T11:47:06Z</time>
      </trkpt>
      <trkpt lat="45.26766" lon="2.99328">
        <ele>1100.95</ele>
        <time>2022-03-28T11:47:10Z</time>
      </trkpt>
      <trkpt lat="45.26761" lon="2.99334">
        <ele>1100.29</ele>
        <time>2022-03-28T11:47:14Z</time>
      </trkpt>
      <trkpt lat="45.26733" lon="2.9939">
        <ele>1096.36</ele>
        <time>2022-03-28T11:47:18Z</time>
      </trkpt>
      <trkpt lat="45.26728" lon="2.99396">
        <ele>1096.84</ele>
        <time>2022-03-28T11:47:22Z</time>
      </trkpt>
      <trkpt lat="45.26716" lon="2.99398">
        <ele>1097.96</ele>
        <time>2022-03-28T11:47:26Z</time>
      </trkpt>
      <trkpt lat="45.26643" lon="2.99383">
        <ele>1093.14</ele>
        <time>2022-03-28T11:47:30Z</time>
      </trkpt>
      <trkpt lat="45.26638" lon="2.99376">
        <ele>1091.93</ele>
        <time>2022-03-28T11:47:34Z</time>
      </trkpt>
      <trkpt lat="45.26638" lon="2.99376">
        <ele>1091.93</ele>
        <time>2022-03-28T11:47:34Z</time>
      </trkpt>
      <trkpt lat="45.26632" lon="2.99368">
        <ele>1090.71</ele>
        <time>2022-03-28T11:47:36Z</time>
      </trkpt>
      <trkpt lat="45.26626" lon="2.99348">
        <ele>1089.11</ele>
        <time>2022-03-28T11:47:38Z</time>
      </trkpt>
      <trkpt lat="45.26629" lon="2.99326">
        <ele>1088.46</ele>
        <time>2022-03-28T11:47:41Z</time>
      </trkpt>
      <trkpt lat="45.26647" lon="2.99254">
        <ele>1086.2</ele>
        <time>2022-03-28T11:47:43Z</time>
      </trkpt>
      <trkpt lat="45.2665" lon="2.9923">
        <ele>1085.91</ele>
        <time>2022-03-28T11:47:45Z</time>
      </trkpt>
      <trkpt lat="45.26651" lon="2.99164">
        <ele>1087.9</ele>
        <time>2022-03-28T11:47:47Z</time>
      </trkpt>
      <trkpt lat="45.26649" lon="2.99133">
        <ele>1088.63</ele>
        <time>2022-03-28T11:47:50Z</time>
      </trkpt>
      <trkpt lat="45.26641" lon="2.99078">
        <ele>1092.02</ele>
        <time>2022-03-28T11:47:52Z</time>
      </trkpt>
      <trkpt lat="45.26627" lon="2.99018">
        <ele>1093.49</ele>
        <time>2022-03-28T11:47:54Z</time>
      </trkpt>
      <trkpt lat="45.26621" lon="2.98998">
        <ele>1092.97</ele>
        <time>2022-03-28T11:47:57Z</time>
      </trkpt>
      <trkpt lat="45.26613" lon="2.98979">
        <ele>1093.3</ele>
        <time>2022-03-28T11:47:59Z</time>
      </trkpt>
      <trkpt lat="45.26604" lon="2.98965">
        <ele>1093.29</ele>
        <time>2022-03-28T11:48:01Z</time>
      </trkpt>
      <trkpt lat="45.26596" lon="2.98954">
        <ele>1093.2</ele>
        <time>2022-03-28T11:48:03Z</time>
      </trkpt>
      <trkpt lat="45.26569" lon="2.98924">
        <ele>1092.49</ele>
        <time>2022-03-28T11:48:06Z</time>
      </trkpt>
      <trkpt lat="45.26563" lon="2.98914">
        <ele>1092.75</ele>
        <time>2022-03-28T11:48:08Z</time>
      </trkpt>
      <trkpt lat="45.26558" lon="2.98903">
        <ele>1093.09</ele>
        <time>2022-03-28T11:48:10Z</time>
      </trkpt>
      <trkpt lat="45.26553" lon="2.98871">
        <ele>1095.38</ele>
        <time>2022-03-28T11:48:13Z</time>
      </trkpt>
      <trkpt lat="45.26555" lon="2.98836">
        <ele>1096.94</ele>
        <time>2022-03-28T11:48:15Z</time>
      </trkpt>
      <trkpt lat="45.26564" lon="2.98791">
        <ele>1098.22</ele>
        <time>2022-03-28T11:48:17Z</time>
      </trkpt>
      <trkpt lat="45.26572" lon="2.98768">
        <ele>1098.99</ele>
        <time>2022-03-28T11:48:20Z</time>
      </trkpt>
      <trkpt lat="45.26608" lon="2.98699">
        <ele>1104.29</ele>
        <time>2022-03-28T11:48:22Z</time>
      </trkpt>
      <trkpt lat="45.26615" lon="2.98677">
        <ele>1105.78</ele>
        <time>2022-03-28T11:48:24Z</time>
      </trkpt>
      <trkpt lat="45.26623" lon="2.98634">
        <ele>1108.63</ele>
        <time>2022-03-28T11:48:26Z</time>
      </trkpt>
      <trkpt lat="45.26634" lon="2.98552">
        <ele>1111.16</ele>
        <time>2022-03-28T11:48:29Z</time>
      </trkpt>
      <trkpt lat="45.26638" lon="2.98467">
        <ele>1116.46</ele>
        <time>2022-03-28T11:48:31Z</time>
      </trkpt>
      <trkpt lat="45.26637" lon="2.9845">
        <ele>1118.18</ele>
        <time>2022-03-28T11:48:33Z</time>
      </trkpt>
      <trkpt lat="45.26635" lon="2.98435">
        <ele>1119.9</ele>
        <time>2022-03-28T11:48:36Z</time>
      </trkpt>
      <trkpt lat="45.26624" lon="2.98403">
        <ele>1123.01</ele>
        <time>2022-03-28T11:48:38Z</time>
      </trkpt>
      <trkpt lat="45.26614" lon="2.98383">
        <ele>1123.22</ele>
        <time>2022-03-28T11:48:40Z</time>
      </trkpt>
      <trkpt lat="45.26555" lon="2.98286">
        <ele>1130</ele>
        <time>2022-03-28T11:48:43Z</time>
      </trkpt>
      <trkpt lat="45.26544" lon="2.98263">
        <ele>1130.18</ele>
        <time>2022-03-28T11:48:45Z</time>
      </trkpt>
      <trkpt lat="45.26541" lon="2.98248">
        <ele>1130.19</ele>
        <time>2022-03-28T11:48:47Z</time>
      </trkpt>
      <trkpt lat="45.26537" lon="2.98181">
        <ele>1136.58</ele>
        <time>2022-03-28T11:48:49Z</time>
      </trkpt>
      <trkpt lat="45.26535" lon="2.98164">
        <ele>1138.97</ele>
        <time>2022-03-28T11:48:52Z</time>
      </trkpt>
      <trkpt lat="45.26532" lon="2.9815">
        <ele>1140.06</ele>
        <time>2022-03-28T11:48:54Z</time>
      </trkpt>
      <trkpt lat="45.26504" lon="2.98079">
        <ele>1140.55</ele>
        <time>2022-03-28T11:48:56Z</time>
      </trkpt>
      <trkpt lat="45.26496" lon="2.98034">
        <ele>1146.82</ele>
        <time>2022-03-28T11:48:59Z</time>
      </trkpt>
      <trkpt lat="45.26488" lon="2.9801">
        <ele>1148.43</ele>
        <time>2022-03-28T11:49:01Z</time>
      </trkpt>
      <trkpt lat="45.26482" lon="2.97996">
        <ele>1148.8</ele>
        <time>2022-03-28T11:49:03Z</time>
      </trkpt>
      <trkpt lat="45.26457" lon="2.97955">
        <ele>1148.34</ele>
        <time>2022-03-28T11:49:06Z</time>
      </trkpt>
      <trkpt lat="45.26451" lon="2.9794">
        <ele>1148.02</ele>
        <time>2022-03-28T11:49:08Z</time>
      </trkpt>
      <trkpt lat="45.26441" lon="2.97905">
        <ele>1148.83</ele>
        <time>2022-03-28T11:49:10Z</time>
      </trkpt>
      <trkpt lat="45.26428" lon="2.97847">
        <ele>1152.92</ele>
        <time>2022-03-28T11:49:12Z</time>
      </trkpt>
      <trkpt lat="45.26423" lon="2.97829">
        <ele>1154.66</ele>
        <time>2022-03-28T11:49:15Z</time>
      </trkpt>
      <trkpt lat="45.26411" lon="2.97805">
        <ele>1156.56</ele>
        <time>2022-03-28T11:49:17Z</time>
      </trkpt>
      <trkpt lat="45.26339" lon="2.97694">
        <ele>1161.71</ele>
        <time>2022-03-28T11:49:19Z</time>
      </trkpt>
      <trkpt lat="45.26322" lon="2.97661">
        <ele>1165.64</ele>
        <time>2022-03-28T11:49:22Z</time>
      </trkpt>
      <trkpt lat="45.2631" lon="2.9763">
        <ele>1169.43</ele>
        <time>2022-03-28T11:49:24Z</time>
      </trkpt>
      <trkpt lat="45.26303" lon="2.97618">
        <ele>1170.34</ele>
        <time>2022-03-28T11:49:26Z</time>
      </trkpt>
      <trkpt lat="45.26295" lon="2.97608">
        <ele>1170.89</ele>
        <time>2022-03-28T11:49:28Z</time>
      </trkpt>
      <trkpt lat="45.26285" lon="2.97599">
        <ele>1170.78</ele>
        <time>2022-03-28T11:49:31Z</time>
      </trkpt>
      <trkpt lat="45.26256" lon="2.97587">
        <ele>1169.73</ele>
        <time>2022-03-28T11:49:33Z</time>
      </trkpt>
      <trkpt lat="45.26228" lon="2.97568">
        <ele>1168.02</ele>
        <time>2022-03-28T11:49:35Z</time>
      </trkpt>
      <trkpt lat="45.26209" lon="2.97549">
        <ele>1166.82</ele>
        <time>2022-03-28T11:49:38Z</time>
      </trkpt>
      <trkpt lat="45.26204" lon="2.97539">
        <ele>1166.95</ele>
        <time>2022-03-28T11:49:40Z</time>
      </trkpt>
      <trkpt lat="45.262" lon="2.97526">
        <ele>1167.71</ele>
        <time>2022-03-28T11:49:42Z</time>
      </trkpt>
      <trkpt lat="45.26197" lon="2.97511">
        <ele>1168.49</ele>
        <time>2022-03-28T11:49:45Z</time>
      </trkpt>
      <trkpt lat="45.2619" lon="2.97421">
        <ele>1172.28</ele>
        <time>2022-03-28T11:49:47Z</time>
      </trkpt>
      <trkpt lat="45.26194" lon="2.97362">
        <ele>1174.89</ele>
        <time>2022-03-28T11:49:49Z</time>
      </trkpt>
      <trkpt lat="45.26192" lon="2.97325">
        <ele>1179.36</ele>
        <time>2022-03-28T11:49:51Z</time>
      </trkpt>
      <trkpt lat="45.26188" lon="2.9731">
        <ele>1180.07</ele>
        <time>2022-03-28T11:49:54Z</time>
      </trkpt>
      <trkpt lat="45.26168" lon="2.97263">
        <ele>1178.69</ele>
        <time>2022-03-28T11:49:56Z</time>
      </trkpt>
      <trkpt lat="45.26163" lon="2.97248">
        <ele>1178.92</ele>
        <time>2022-03-28T11:49:58Z</time>
      </trkpt>
      <trkpt lat="45.26149" lon="2.97163">
        <ele>1184.6</ele>
        <time>2022-03-28T11:50:01Z</time>
      </trkpt>
      <trkpt lat="45.26145" lon="2.97151">
        <ele>1185.23</ele>
        <time>2022-03-28T11:50:03Z</time>
      </trkpt>
      <trkpt lat="45.26137" lon="2.97139">
        <ele>1185.92</ele>
        <time>2022-03-28T11:50:05Z</time>
      </trkpt>
      <trkpt lat="45.26122" lon="2.97124">
        <ele>1186.28</ele>
        <time>2022-03-28T11:50:08Z</time>
      </trkpt>
      <trkpt lat="45.26105" lon="2.9711">
        <ele>1187.27</ele>
        <time>2022-03-28T11:50:10Z</time>
      </trkpt>
      <trkpt lat="45.26087" lon="2.97103">
        <ele>1189.29</ele>
        <time>2022-03-28T11:50:12Z</time>
      </trkpt>
      <trkpt lat="45.26087" lon="2.97103">
        <ele>1189.29</ele>
        <time>2022-03-28T11:50:12Z</time>
      </trkpt>
      <trkpt lat="45.26077" lon="2.97103">
        <ele>1189.9</ele>
        <time>2022-03-28T11:50:16Z</time>
      </trkpt>
      <trkpt lat="45.26063" lon="2.97107">
        <ele>1192.05</ele>
        <time>2022-03-28T11:50:19Z</time>
      </trkpt>
      <trkpt lat="45.2602" lon="2.97127">
        <ele>1198.25</ele>
        <time>2022-03-28T11:50:22Z</time>
      </trkpt>
      <trkpt lat="45.25998" lon="2.9714">
        <ele>1199.16</ele>
        <time>2022-03-28T11:50:26Z</time>
      </trkpt>
      <trkpt lat="45.25987" lon="2.97148">
        <ele>1199.52</ele>
        <time>2022-03-28T11:50:29Z</time>
      </trkpt>
      <trkpt lat="45.25978" lon="2.97159">
        <ele>1199.85</ele>
        <time>2022-03-28T11:50:33Z</time>
      </trkpt>
      <trkpt lat="45.25962" lon="2.97181">
        <ele>1200.97</ele>
        <time>2022-03-28T11:50:36Z</time>
      </trkpt>
      <trkpt lat="45.25911" lon="2.9727">
        <ele>1203.29</ele>
        <time>2022-03-28T11:50:40Z</time>
      </trkpt>
      <trkpt lat="45.25899" lon="2.97287">
        <ele>1204.83</ele>
        <time>2022-03-28T11:50:43Z</time>
      </trkpt>
      <trkpt lat="45.2585" lon="2.97347">
        <ele>1209.28</ele>
        <time>2022-03-28T11:50:47Z</time>
      </trkpt>
      <trkpt lat="45.25786" lon="2.97398">
        <ele>1214.97</ele>
        <time>2022-03-28T11:50:50Z</time>
      </trkpt>
      <trkpt lat="45.25737" lon="2.97451">
        <ele>1212.83</ele>
        <time>2022-03-28T11:50:53Z</time>
      </trkpt>
      <trkpt lat="45.25703" lon="2.97485">
        <ele>1218.02</ele>
        <time>2022-03-28T11:50:57Z</time>
      </trkpt>
      <trkpt lat="45.25676" lon="2.97508">
        <ele>1219.06</ele>
        <time>2022-03-28T11:51:00Z</time>
      </trkpt>
      <trkpt lat="45.25658" lon="2.97518">
        <ele>1218.24</ele>
        <time>2022-03-28T11:51:04Z</time>
      </trkpt>
      <trkpt lat="45.25639" lon="2.9752">
        <ele>1217.81</ele>
        <time>2022-03-28T11:51:07Z</time>
      </trkpt>
      <trkpt lat="45.25592" lon="2.97509">
        <ele>1223.83</ele>
        <time>2022-03-28T11:51:11Z</time>
      </trkpt>
      <trkpt lat="45.2557" lon="2.97498">
        <ele>1227.47</ele>
        <time>2022-03-28T11:51:14Z</time>
      </trkpt>
      <trkpt lat="45.25558" lon="2.97489">
        <ele>1229.19</ele>
        <time>2022-03-28T11:51:18Z</time>
      </trkpt>
      <trkpt lat="45.25421" lon="2.9734">
        <ele>1235.07</ele>
        <time>2022-03-28T11:51:21Z</time>
      </trkpt>
      <trkpt lat="45.25353" lon="2.97269">
        <ele>1233.48</ele>
        <time>2022-03-28T11:51:24Z</time>
      </trkpt>
      <trkpt lat="45.25332" lon="2.97256">
        <ele>1230.27</ele>
        <time>2022-03-28T11:51:28Z</time>
      </trkpt>
      <trkpt lat="45.2528" lon="2.9724">
        <ele>1221.28</ele>
        <time>2022-03-28T11:51:31Z</time>
      </trkpt>
      <trkpt lat="45.25222" lon="2.97229">
        <ele>1217.24</ele>
        <time>2022-03-28T11:51:35Z</time>
      </trkpt>
      <trkpt lat="45.25188" lon="2.97228">
        <ele>1214.88</ele>
        <time>2022-03-28T11:51:38Z</time>
      </trkpt>
      <trkpt lat="45.25159" lon="2.97236">
        <ele>1212.47</ele>
        <time>2022-03-28T11:51:42Z</time>
      </trkpt>
      <trkpt lat="45.25064" lon="2.97286">
        <ele>1208.82</ele>
        <time>2022-03-28T11:51:45Z</time>
      </trkpt>
      <trkpt lat="45.25043" lon="2.97291">
        <ele>1207.78</ele>
        <time>2022-03-28T11:51:48Z</time>
      </trkpt>
      <trkpt lat="45.25031" lon="2.97289">
        <ele>1206.7</ele>
        <time>2022-03-28T11:51:52Z</time>
      </trkpt>
      <trkpt lat="45.24858" lon="2.97224">
        <ele>1196.94</ele>
        <time>2022-03-28T11:51:55Z</time>
      </trkpt>
      <trkpt lat="45.2482" lon="2.97205">
        <ele>1194.85</ele>
        <time>2022-03-28T11:51:59Z</time>
      </trkpt>
      <trkpt lat="45.24801" lon="2.97187">
        <ele>1195.58</ele>
        <time>2022-03-28T11:52:02Z</time>
      </trkpt>
      <trkpt lat="45.24791" lon="2.97183">
        <ele>1196.27</ele>
        <time>2022-03-28T11:52:06Z</time>
      </trkpt>
      <trkpt lat="45.24786" lon="2.97205">
        <ele>1196.39</ele>
        <time>2022-03-28T11:52:10Z</time>
      </trkpt>
      <trkpt lat="45.24775" lon="2.9723">
        <ele>1197.09</ele>
        <time>2022-03-28T11:52:14Z</time>
      </trkpt>
      <trkpt lat="45.24673" lon="2.9741">
        <ele>1200.76</ele>
        <time>2022-03-28T11:52:18Z</time>
      </trkpt>
      <trkpt lat="45.24522" lon="2.97683">
        <ele>1204.6</ele>
        <time>2022-03-28T11:52:22Z</time>
      </trkpt>
      <trkpt lat="45.24511" lon="2.97704">
        <ele>1205.34</ele>
        <time>2022-03-28T11:52:26Z</time>
      </trkpt>
      <trkpt lat="45.24504" lon="2.97724">
        <ele>1206.01</ele>
        <time>2022-03-28T11:52:30Z</time>
      </trkpt>
      <trkpt lat="45.24491" lon="2.97783">
        <ele>1207</ele>
        <time>2022-03-28T11:52:34Z</time>
      </trkpt>
      <trkpt lat="45.24466" lon="2.97966">
        <ele>1201.47</ele>
        <time>2022-03-28T11:52:38Z</time>
      </trkpt>
      <trkpt lat="45.24407" lon="2.98416">
        <ele>1197.81</ele>
        <time>2022-03-28T11:52:42Z</time>
      </trkpt>
      <trkpt lat="45.24391" lon="2.98477">
        <ele>1192.83</ele>
        <time>2022-03-28T11:52:47Z</time>
      </trkpt>
      <trkpt lat="45.24369" lon="2.98529">
        <ele>1192.69</ele>
        <time>2022-03-28T11:52:51Z</time>
      </trkpt>
      <trkpt lat="45.24359" lon="2.98543">
        <ele>1192.57</ele>
        <time>2022-03-28T11:52:55Z</time>
      </trkpt>
      <trkpt lat="45.24335" lon="2.98568">
        <ele>1193.39</ele>
        <time>2022-03-28T11:52:59Z</time>
      </trkpt>
      <trkpt lat="45.24298" lon="2.98581">
        <ele>1194.19</ele>
        <time>2022-03-28T11:53:03Z</time>
      </trkpt>
      <trkpt lat="45.24247" lon="2.98564">
        <ele>1193.12</ele>
        <time>2022-03-28T11:53:07Z</time>
      </trkpt>
      <trkpt lat="45.2413" lon="2.98505">
        <ele>1189.81</ele>
        <time>2022-03-28T11:53:11Z</time>
      </trkpt>
      <trkpt lat="45.2409" lon="2.98487">
        <ele>1188.25</ele>
        <time>2022-03-28T11:53:15Z</time>
      </trkpt>
      <trkpt lat="45.23969" lon="2.98512">
        <ele>1180.65</ele>
        <time>2022-03-28T11:53:19Z</time>
      </trkpt>
      <trkpt lat="45.23945" lon="2.9853">
        <ele>1179.9</ele>
        <time>2022-03-28T11:53:23Z</time>
      </trkpt>
      <trkpt lat="45.23929" lon="2.98561">
        <ele>1179.88</ele>
        <time>2022-03-28T11:53:27Z</time>
      </trkpt>
      <trkpt lat="45.23878" lon="2.98874">
        <ele>1175.31</ele>
        <time>2022-03-28T11:53:31Z</time>
      </trkpt>
      <trkpt lat="45.23865" lon="2.98915">
        <ele>1175.39</ele>
        <time>2022-03-28T11:53:36Z</time>
      </trkpt>
      <trkpt lat="45.23832" lon="2.98983">
        <ele>1167.1</ele>
        <time>2022-03-28T11:53:40Z</time>
      </trkpt>
      <trkpt lat="45.23793" lon="2.99047">
        <ele>1168.3</ele>
        <time>2022-03-28T11:53:44Z</time>
      </trkpt>
      <trkpt lat="45.23758" lon="2.99087">
        <ele>1167.36</ele>
        <time>2022-03-28T11:53:48Z</time>
      </trkpt>
      <trkpt lat="45.23719" lon="2.99112">
        <ele>1164.74</ele>
        <time>2022-03-28T11:53:52Z</time>
      </trkpt>
      <trkpt lat="45.23676" lon="2.99119">
        <ele>1162.34</ele>
        <time>2022-03-28T11:53:56Z</time>
      </trkpt>
      <trkpt lat="45.236" lon="2.99121">
        <ele>1158.53</ele>
        <time>2022-03-28T11:54:00Z</time>
      </trkpt>
      <trkpt lat="45.2358" lon="2.99126">
        <ele>1156.7</ele>
        <time>2022-03-28T11:54:04Z</time>
      </trkpt>
      <trkpt lat="45.23564" lon="2.99133">
        <ele>1155.01</ele>
        <time>2022-03-28T11:54:08Z</time>
      </trkpt>
      <trkpt lat="45.23544" lon="2.99148">
        <ele>1154.09</ele>
        <time>2022-03-28T11:54:12Z</time>
      </trkpt>
      <trkpt lat="45.23524" lon="2.99171">
        <ele>1153.7</ele>
        <time>2022-03-28T11:54:16Z</time>
      </trkpt>
      <trkpt lat="45.23249" lon="2.99581">
        <ele>1147.07</ele>
        <time>2022-03-28T11:54:21Z</time>
      </trkpt>
      <trkpt lat="45.23227" lon="2.99621">
        <ele>1146.17</ele>
        <time>2022-03-28T11:54:25Z</time>
      </trkpt>
      <trkpt lat="45.23211" lon="2.99664">
        <ele>1144.83</ele>
        <time>2022-03-28T11:54:29Z</time>
      </trkpt>
      <trkpt lat="45.2318" lon="2.99785">
        <ele>1140.48</ele>
        <time>2022-03-28T11:54:33Z</time>
      </trkpt>
      <trkpt lat="45.23175" lon="2.99842">
        <ele>1139.77</ele>
        <time>2022-03-28T11:54:37Z</time>
      </trkpt>
      <trkpt lat="45.23172" lon="2.99906">
        <ele>1136.6</ele>
        <time>2022-03-28T11:54:41Z</time>
      </trkpt>
      <trkpt lat="45.23169" lon="2.99932">
        <ele>1136.04</ele>
        <time>2022-03-28T11:54:45Z</time>
      </trkpt>
      <trkpt lat="45.23159" lon="3.00005">
        <ele>1135.4</ele>
        <time>2022-03-28T11:54:49Z</time>
      </trkpt>
      <trkpt lat="45.23154" lon="3.00032">
        <ele>1134.92</ele>
        <time>2022-03-28T11:54:53Z</time>
      </trkpt>
      <trkpt lat="45.23146" lon="3.00061">
        <ele>1135.46</ele>
        <time>2022-03-28T11:54:57Z</time>
      </trkpt>
      <trkpt lat="45.2307" lon="3.00274">
        <ele>1140.47</ele>
        <time>2022-03-28T11:55:01Z</time>
      </trkpt>
      <trkpt lat="45.23061" lon="3.00296">
        <ele>1141.36</ele>
        <time>2022-03-28T11:55:05Z</time>
      </trkpt>
      <trkpt lat="45.23042" lon="3.00327">
        <ele>1141.5</ele>
        <time>2022-03-28T11:55:10Z</time>
      </trkpt>
      <trkpt lat="45.23024" lon="3.00345">
        <ele>1140.92</ele>
        <time>2022-03-28T11:55:14Z</time>
      </trkpt>
      <trkpt lat="45.22922" lon="3.00405">
        <ele>1140.54</ele>
        <time>2022-03-28T11:55:18Z</time>
      </trkpt>
      <trkpt lat="45.22754" lon="3.00491">
        <ele>1142.18</ele>
        <time>2022-03-28T11:55:22Z</time>
      </trkpt>
      <trkpt lat="45.22714" lon="3.00513">
        <ele>1142.36</ele>
        <time>2022-03-28T11:55:26Z</time>
      </trkpt>
      <trkpt lat="45.22683" lon="3.00539">
        <ele>1141.29</ele>
        <time>2022-03-28T11:55:30Z</time>
      </trkpt>
      <trkpt lat="45.2264" lon="3.00578">
        <ele>1142.22</ele>
        <time>2022-03-28T11:55:34Z</time>
      </trkpt>
      <trkpt lat="45.22585" lon="3.00634">
        <ele>1147.42</ele>
        <time>2022-03-28T11:55:38Z</time>
      </trkpt>
      <trkpt lat="45.2258" lon="3.00629">
        <ele>1146.19</ele>
        <time>2022-03-28T11:55:41Z</time>
      </trkpt>
      <trkpt lat="45.22573" lon="3.00632">
        <ele>1145.61</ele>
        <time>2022-03-28T11:55:43Z</time>
      </trkpt>
      <trkpt lat="45.22538" lon="3.00659">
        <ele>1144.46</ele>
        <time>2022-03-28T11:55:45Z</time>
      </trkpt>
      <trkpt lat="45.22527" lon="3.00662">
        <ele>1143.32</ele>
        <time>2022-03-28T11:55:48Z</time>
      </trkpt>
      <trkpt lat="45.22506" lon="3.00657">
        <ele>1139.75</ele>
        <time>2022-03-28T11:55:50Z</time>
      </trkpt>
      <trkpt lat="45.22495" lon="3.00659">
        <ele>1138.23</ele>
        <time>2022-03-28T11:55:53Z</time>
      </trkpt>
      <trkpt lat="45.22479" lon="3.00667">
        <ele>1136.26</ele>
        <time>2022-03-28T11:55:55Z</time>
      </trkpt>
      <trkpt lat="45.22426" lon="3.00701">
        <ele>1132.5</ele>
        <time>2022-03-28T11:55:58Z</time>
      </trkpt>
      <trkpt lat="45.2237" lon="3.00761">
        <ele>1128.35</ele>
        <time>2022-03-28T11:56:00Z</time>
      </trkpt>
      <trkpt lat="45.22342" lon="3.00776">
        <ele>1125.73</ele>
        <time>2022-03-28T11:56:02Z</time>
      </trkpt>
      <trkpt lat="45.22302" lon="3.0079">
        <ele>1122.17</ele>
        <time>2022-03-28T11:56:05Z</time>
      </trkpt>
      <trkpt lat="45.22269" lon="3.00808">
        <ele>1120.5</ele>
        <time>2022-03-28T11:56:07Z</time>
      </trkpt>
      <trkpt lat="45.22255" lon="3.00812">
        <ele>1119.75</ele>
        <time>2022-03-28T11:56:10Z</time>
      </trkpt>
      <trkpt lat="45.22235" lon="3.00811">
        <ele>1118.41</ele>
        <time>2022-03-28T11:56:12Z</time>
      </trkpt>
      <trkpt lat="45.22172" lon="3.00793">
        <ele>1110.96</ele>
        <time>2022-03-28T11:56:14Z</time>
      </trkpt>
      <trkpt lat="45.2211" lon="3.00783">
        <ele>1105.75</ele>
        <time>2022-03-28T11:56:17Z</time>
      </trkpt>
      <trkpt lat="45.22028" lon="3.00748">
        <ele>1101.71</ele>
        <time>2022-03-28T11:56:19Z</time>
      </trkpt>
      <trkpt lat="45.22007" lon="3.00743">
        <ele>1099.94</ele>
        <time>2022-03-28T11:56:22Z</time>
      </trkpt>
      <trkpt lat="45.21989" lon="3.00741">
        <ele>1098.34</ele>
        <time>2022-03-28T11:56:24Z</time>
      </trkpt>
      <trkpt lat="45.21927" lon="3.00742">
        <ele>1092.96</ele>
        <time>2022-03-28T11:56:27Z</time>
      </trkpt>
      <trkpt lat="45.21916" lon="3.00742">
        <ele>1092.08</ele>
        <time>2022-03-28T11:56:29Z</time>
      </trkpt>
      <trkpt lat="45.21907" lon="3.00746">
        <ele>1091.44</ele>
        <time>2022-03-28T11:56:31Z</time>
      </trkpt>
      <trkpt lat="45.21897" lon="3.00755">
        <ele>1091.35</ele>
        <time>2022-03-28T11:56:34Z</time>
      </trkpt>
      <trkpt lat="45.21879" lon="3.00781">
        <ele>1093.38</ele>
        <time>2022-03-28T11:56:36Z</time>
      </trkpt>
      <trkpt lat="45.21879" lon="3.00781">
        <ele>1093.38</ele>
        <time>2022-03-28T11:56:36Z</time>
      </trkpt>
      <trkpt lat="45.21897" lon="3.00755">
        <ele>1091.35</ele>
        <time>2022-03-28T11:56:39Z</time>
      </trkpt>
      <trkpt lat="45.21907" lon="3.00746">
        <ele>1091.44</ele>
        <time>2022-03-28T11:56:41Z</time>
      </trkpt>
      <trkpt lat="45.21916" lon="3.00742">
        <ele>1092.08</ele>
        <time>2022-03-28T11:56:44Z</time>
      </trkpt>
      <trkpt lat="45.21927" lon="3.00742">
        <ele>1092.96</ele>
        <time>2022-03-28T11:56:46Z</time>
      </trkpt>
      <trkpt lat="45.21989" lon="3.00741">
        <ele>1098.34</ele>
        <time>2022-03-28T11:56:48Z</time>
      </trkpt>
      <trkpt lat="45.22007" lon="3.00743">
        <ele>1099.94</ele>
        <time>2022-03-28T11:56:51Z</time>
      </trkpt>
      <trkpt lat="45.22028" lon="3.00748">
        <ele>1101.71</ele>
        <time>2022-03-28T11:56:53Z</time>
      </trkpt>
      <trkpt lat="45.2211" lon="3.00783">
        <ele>1105.75</ele>
        <time>2022-03-28T11:56:56Z</time>
      </trkpt>
      <trkpt lat="45.22172" lon="3.00793">
        <ele>1110.96</ele>
        <time>2022-03-28T11:56:58Z</time>
      </trkpt>
      <trkpt lat="45.22235" lon="3.00811">
        <ele>1118.41</ele>
        <time>2022-03-28T11:57:00Z</time>
      </trkpt>
      <trkpt lat="45.22255" lon="3.00812">
        <ele>1119.75</ele>
        <time>2022-03-28T11:57:03Z</time>
      </trkpt>
      <trkpt lat="45.22269" lon="3.00808">
        <ele>1120.5</ele>
        <time>2022-03-28T11:57:05Z</time>
      </trkpt>
      <trkpt lat="45.22302" lon="3.0079">
        <ele>1122.17</ele>
        <time>2022-03-28T11:57:08Z</time>
      </trkpt>
      <trkpt lat="45.22342" lon="3.00776">
        <ele>1125.73</ele>
        <time>2022-03-28T11:57:10Z</time>
      </trkpt>
      <trkpt lat="45.2237" lon="3.00761">
        <ele>1128.35</ele>
        <time>2022-03-28T11:57:13Z</time>
      </trkpt>
      <trkpt lat="45.22426" lon="3.00701">
        <ele>1132.5</ele>
        <time>2022-03-28T11:57:15Z</time>
      </trkpt>
      <trkpt lat="45.22479" lon="3.00667">
        <ele>1136.26</ele>
        <time>2022-03-28T11:57:17Z</time>
      </trkpt>
      <trkpt lat="45.22495" lon="3.00659">
        <ele>1138.23</ele>
        <time>2022-03-28T11:57:20Z</time>
      </trkpt>
      <trkpt lat="45.22506" lon="3.00657">
        <ele>1139.75</ele>
        <time>2022-03-28T11:57:22Z</time>
      </trkpt>
      <trkpt lat="45.22527" lon="3.00662">
        <ele>1143.32</ele>
        <time>2022-03-28T11:57:25Z</time>
      </trkpt>
      <trkpt lat="45.22538" lon="3.00659">
        <ele>1144.46</ele>
        <time>2022-03-28T11:57:27Z</time>
      </trkpt>
      <trkpt lat="45.22573" lon="3.00632">
        <ele>1145.61</ele>
        <time>2022-03-28T11:57:30Z</time>
      </trkpt>
      <trkpt lat="45.2258" lon="3.00629">
        <ele>1146.19</ele>
        <time>2022-03-28T11:57:32Z</time>
      </trkpt>
      <trkpt lat="45.22585" lon="3.00634">
        <ele>1147.42</ele>
        <time>2022-03-28T11:57:34Z</time>
      </trkpt>
      <trkpt lat="45.2264" lon="3.00578">
        <ele>1142.22</ele>
        <time>2022-03-28T11:57:38Z</time>
      </trkpt>
      <trkpt lat="45.22683" lon="3.00539">
        <ele>1141.29</ele>
        <time>2022-03-28T11:57:42Z</time>
      </trkpt>
      <trkpt lat="45.22714" lon="3.00513">
        <ele>1142.36</ele>
        <time>2022-03-28T11:57:45Z</time>
      </trkpt>
      <trkpt lat="45.22754" lon="3.00491">
        <ele>1142.18</ele>
        <time>2022-03-28T11:57:49Z</time>
      </trkpt>
      <trkpt lat="45.22922" lon="3.00405">
        <ele>1140.54</ele>
        <time>2022-03-28T11:57:53Z</time>
      </trkpt>
      <trkpt lat="45.23024" lon="3.00345">
        <ele>1140.92</ele>
        <time>2022-03-28T11:57:56Z</time>
      </trkpt>
      <trkpt lat="45.23042" lon="3.00327">
        <ele>1141.5</ele>
        <time>2022-03-28T11:58:00Z</time>
      </trkpt>
      <trkpt lat="45.23061" lon="3.00296">
        <ele>1141.36</ele>
        <time>2022-03-28T11:58:04Z</time>
      </trkpt>
      <trkpt lat="45.2307" lon="3.00274">
        <ele>1140.47</ele>
        <time>2022-03-28T11:58:07Z</time>
      </trkpt>
      <trkpt lat="45.23146" lon="3.00061">
        <ele>1135.46</ele>
        <time>2022-03-28T11:58:11Z</time>
      </trkpt>
      <trkpt lat="45.23154" lon="3.00032">
        <ele>1134.92</ele>
        <time>2022-03-28T11:58:15Z</time>
      </trkpt>
      <trkpt lat="45.23159" lon="3.00005">
        <ele>1135.4</ele>
        <time>2022-03-28T11:58:19Z</time>
      </trkpt>
      <trkpt lat="45.23169" lon="2.99932">
        <ele>1136.04</ele>
        <time>2022-03-28T11:58:22Z</time>
      </trkpt>
      <trkpt lat="45.23172" lon="2.99906">
        <ele>1136.6</ele>
        <time>2022-03-28T11:58:26Z</time>
      </trkpt>
      <trkpt lat="45.23175" lon="2.99842">
        <ele>1139.77</ele>
        <time>2022-03-28T11:58:30Z</time>
      </trkpt>
      <trkpt lat="45.2318" lon="2.99785">
        <ele>1140.48</ele>
        <time>2022-03-28T11:58:33Z</time>
      </trkpt>
      <trkpt lat="45.23211" lon="2.99664">
        <ele>1144.83</ele>
        <time>2022-03-28T11:58:37Z</time>
      </trkpt>
      <trkpt lat="45.23227" lon="2.99621">
        <ele>1146.17</ele>
        <time>2022-03-28T11:58:41Z</time>
      </trkpt>
      <trkpt lat="45.23249" lon="2.99581">
        <ele>1147.07</ele>
        <time>2022-03-28T11:58:44Z</time>
      </trkpt>
      <trkpt lat="45.23524" lon="2.99171">
        <ele>1153.7</ele>
        <time>2022-03-28T11:58:48Z</time>
      </trkpt>
      <trkpt lat="45.23544" lon="2.99148">
        <ele>1154.09</ele>
        <time>2022-03-28T11:58:52Z</time>
      </trkpt>
      <trkpt lat="45.23564" lon="2.99133">
        <ele>1155.01</ele>
        <time>2022-03-28T11:58:55Z</time>
      </trkpt>
      <trkpt lat="45.2358" lon="2.99126">
        <ele>1156.7</ele>
        <time>2022-03-28T11:58:59Z</time>
      </trkpt>
      <trkpt lat="45.236" lon="2.99121">
        <ele>1158.53</ele>
        <time>2022-03-28T11:59:03Z</time>
      </trkpt>
      <trkpt lat="45.23676" lon="2.99119">
        <ele>1162.34</ele>
        <time>2022-03-28T11:59:06Z</time>
      </trkpt>
      <trkpt lat="45.23719" lon="2.99112">
        <ele>1164.74</ele>
        <time>2022-03-28T11:59:10Z</time>
      </trkpt>
      <trkpt lat="45.23758" lon="2.99087">
        <ele>1167.36</ele>
        <time>2022-03-28T11:59:14Z</time>
      </trkpt>
      <trkpt lat="45.23793" lon="2.99047">
        <ele>1168.3</ele>
        <time>2022-03-28T11:59:17Z</time>
      </trkpt>
      <trkpt lat="45.23832" lon="2.98983">
        <ele>1167.1</ele>
        <time>2022-03-28T11:59:21Z</time>
      </trkpt>
      <trkpt lat="45.23865" lon="2.98915">
        <ele>1175.39</ele>
        <time>2022-03-28T11:59:25Z</time>
      </trkpt>
      <trkpt lat="45.23878" lon="2.98874">
        <ele>1175.31</ele>
        <time>2022-03-28T11:59:28Z</time>
      </trkpt>
      <trkpt lat="45.23929" lon="2.98561">
        <ele>1179.88</ele>
        <time>2022-03-28T11:59:32Z</time>
      </trkpt>
      <trkpt lat="45.23945" lon="2.9853">
        <ele>1179.9</ele>
        <time>2022-03-28T11:59:36Z</time>
      </trkpt>
      <trkpt lat="45.23969" lon="2.98512">
        <ele>1180.65</ele>
        <time>2022-03-28T11:59:40Z</time>
      </trkpt>
      <trkpt lat="45.2409" lon="2.98487">
        <ele>1188.25</ele>
        <time>2022-03-28T11:59:43Z</time>
      </trkpt>
      <trkpt lat="45.2413" lon="2.98505">
        <ele>1189.81</ele>
        <time>2022-03-28T11:59:47Z</time>
      </trkpt>
      <trkpt lat="45.24247" lon="2.98564">
        <ele>1193.12</ele>
        <time>2022-03-28T11:59:51Z</time>
      </trkpt>
      <trkpt lat="45.24298" lon="2.98581">
        <ele>1194.19</ele>
        <time>2022-03-28T11:59:54Z</time>
      </trkpt>
      <trkpt lat="45.24335" lon="2.98568">
        <ele>1193.39</ele>
        <time>2022-03-28T11:59:58Z</time>
      </trkpt>
      <trkpt lat="45.24359" lon="2.98543">
        <ele>1192.57</ele>
        <time>2022-03-28T12:00:02Z</time>
      </trkpt>
      <trkpt lat="45.24369" lon="2.98529">
        <ele>1192.69</ele>
        <time>2022-03-28T12:00:05Z</time>
      </trkpt>
      <trkpt lat="45.24391" lon="2.98477">
        <ele>1192.83</ele>
        <time>2022-03-28T12:00:09Z</time>
      </trkpt>
      <trkpt lat="45.24407" lon="2.98416">
        <ele>1197.81</ele>
        <time>2022-03-28T12:00:13Z</time>
      </trkpt>
      <trkpt lat="45.24466" lon="2.97966">
        <ele>1201.47</ele>
        <time>2022-03-28T12:00:16Z</time>
      </trkpt>
      <trkpt lat="45.24491" lon="2.97783">
        <ele>1207</ele>
        <time>2022-03-28T12:00:20Z</time>
      </trkpt>
      <trkpt lat="45.24504" lon="2.97724">
        <ele>1206.01</ele>
        <time>2022-03-28T12:00:24Z</time>
      </trkpt>
      <trkpt lat="45.24511" lon="2.97704">
        <ele>1205.34</ele>
        <time>2022-03-28T12:00:27Z</time>
      </trkpt>
      <trkpt lat="45.24522" lon="2.97683">
        <ele>1204.6</ele>
        <time>2022-03-28T12:00:31Z</time>
      </trkpt>
      <trkpt lat="45.24673" lon="2.9741">
        <ele>1200.76</ele>
        <time>2022-03-28T12:00:35Z</time>
      </trkpt>
      <trkpt lat="45.24775" lon="2.9723">
        <ele>1197.09</ele>
        <time>2022-03-28T12:00:38Z</time>
      </trkpt>
      <trkpt lat="45.24786" lon="2.97205">
        <ele>1196.39</ele>
        <time>2022-03-28T12:00:42Z</time>
      </trkpt>
      <trkpt lat="45.24791" lon="2.97183">
        <ele>1196.27</ele>
        <time>2022-03-28T12:00:46Z</time>
      </trkpt>
      <trkpt lat="45.24791" lon="2.97155">
        <ele>1196.32</ele>
        <time>2022-03-28T12:00:49Z</time>
      </trkpt>
      <trkpt lat="45.24787" lon="2.97126">
        <ele>1195.86</ele>
        <time>2022-03-28T12:00:53Z</time>
      </trkpt>
      <trkpt lat="45.24742" lon="2.9684">
        <ele>1190.41</ele>
        <time>2022-03-28T12:00:57Z</time>
      </trkpt>
      <trkpt lat="45.2472" lon="2.96472">
        <ele>1185.19</ele>
        <time>2022-03-28T12:01:00Z</time>
      </trkpt>
      <trkpt lat="45.24714" lon="2.96369">
        <ele>1183.61</ele>
        <time>2022-03-28T12:01:04Z</time>
      </trkpt>
      <trkpt lat="45.24709" lon="2.96308">
        <ele>1181.05</ele>
        <time>2022-03-28T12:01:08Z</time>
      </trkpt>
      <trkpt lat="45.24698" lon="2.96241">
        <ele>1177.94</ele>
        <time>2022-03-28T12:01:12Z</time>
      </trkpt>
      <trkpt lat="45.2468" lon="2.9616">
        <ele>1174.12</ele>
        <time>2022-03-28T12:01:15Z</time>
      </trkpt>
      <trkpt lat="45.24671" lon="2.9611">
        <ele>1171.35</ele>
        <time>2022-03-28T12:01:19Z</time>
      </trkpt>
      <trkpt lat="45.24668" lon="2.96059">
        <ele>1169.9</ele>
        <time>2022-03-28T12:01:23Z</time>
      </trkpt>
      <trkpt lat="45.24666" lon="2.95956">
        <ele>1169.99</ele>
        <time>2022-03-28T12:01:26Z</time>
      </trkpt>
      <trkpt lat="45.24668" lon="2.95916">
        <ele>1168.65</ele>
        <time>2022-03-28T12:01:30Z</time>
      </trkpt>
      <trkpt lat="45.24675" lon="2.95844">
        <ele>1165.04</ele>
        <time>2022-03-28T12:01:34Z</time>
      </trkpt>
      <trkpt lat="45.24677" lon="2.95775">
        <ele>1161.7</ele>
        <time>2022-03-28T12:01:37Z</time>
      </trkpt>
      <trkpt lat="45.24668" lon="2.95675">
        <ele>1153.12</ele>
        <time>2022-03-28T12:01:41Z</time>
      </trkpt>
      <trkpt lat="45.2466" lon="2.95626">
        <ele>1153.74</ele>
        <time>2022-03-28T12:01:45Z</time>
      </trkpt>
      <trkpt lat="45.24648" lon="2.95575">
        <ele>1154.95</ele>
        <time>2022-03-28T12:01:48Z</time>
      </trkpt>
      <trkpt lat="45.24636" lon="2.95545">
        <ele>1154.69</ele>
        <time>2022-03-28T12:01:52Z</time>
      </trkpt>
      <trkpt lat="45.24603" lon="2.95493">
        <ele>1153.43</ele>
        <time>2022-03-28T12:01:56Z</time>
      </trkpt>
      <trkpt lat="45.24588" lon="2.95455">
        <ele>1150.41</ele>
        <time>2022-03-28T12:01:59Z</time>
      </trkpt>
      <trkpt lat="45.24571" lon="2.95431">
        <ele>1148.63</ele>
        <time>2022-03-28T12:02:03Z</time>
      </trkpt>
      <trkpt lat="45.24505" lon="2.95357">
        <ele>1141.82</ele>
        <time>2022-03-28T12:02:07Z</time>
      </trkpt>
      <trkpt lat="45.24292" lon="2.95147">
        <ele>1124.05</ele>
        <time>2022-03-28T12:02:10Z</time>
      </trkpt>
      <trkpt lat="45.2427" lon="2.95123">
        <ele>1120.82</ele>
        <time>2022-03-28T12:02:14Z</time>
      </trkpt>
      <trkpt lat="45.24244" lon="2.95092">
        <ele>1117.97</ele>
        <time>2022-03-28T12:02:18Z</time>
      </trkpt>
      <trkpt lat="45.24218" lon="2.95056">
        <ele>1116.39</ele>
        <time>2022-03-28T12:02:21Z</time>
      </trkpt>
      <trkpt lat="45.24201" lon="2.95038">
        <ele>1115</ele>
        <time>2022-03-28T12:02:25Z</time>
      </trkpt>
      <trkpt lat="45.2419" lon="2.95031">
        <ele>1114.09</ele>
        <time>2022-03-28T12:02:29Z</time>
      </trkpt>
      <trkpt lat="45.24156" lon="2.95021">
        <ele>1109.81</ele>
        <time>2022-03-28T12:02:33Z</time>
      </trkpt>
      <trkpt lat="45.24141" lon="2.95019">
        <ele>1108</ele>
        <time>2022-03-28T12:02:36Z</time>
      </trkpt>
      <trkpt lat="45.24112" lon="2.95023">
        <ele>1106.58</ele>
        <time>2022-03-28T12:02:40Z</time>
      </trkpt>
      <trkpt lat="45.24068" lon="2.95043">
        <ele>1105.73</ele>
        <time>2022-03-28T12:02:44Z</time>
      </trkpt>
      <trkpt lat="45.2397" lon="2.95083">
        <ele>1098.62</ele>
        <time>2022-03-28T12:02:47Z</time>
      </trkpt>
      <trkpt lat="45.23947" lon="2.95088">
        <ele>1096.87</ele>
        <time>2022-03-28T12:02:51Z</time>
      </trkpt>
      <trkpt lat="45.23911" lon="2.95092">
        <ele>1093.69</ele>
        <time>2022-03-28T12:02:55Z</time>
      </trkpt>
      <trkpt lat="45.23889" lon="2.95092">
        <ele>1091.3</ele>
        <time>2022-03-28T12:02:58Z</time>
      </trkpt>
      <trkpt lat="45.23873" lon="2.95089">
        <ele>1091.15</ele>
        <time>2022-03-28T12:03:02Z</time>
      </trkpt>
      <trkpt lat="45.23851" lon="2.95074">
        <ele>1090.61</ele>
        <time>2022-03-28T12:03:06Z</time>
      </trkpt>
      <trkpt lat="45.23734" lon="2.94971">
        <ele>1080.94</ele>
        <time>2022-03-28T12:03:09Z</time>
      </trkpt>
      <trkpt lat="45.23714" lon="2.94952">
        <ele>1079.81</ele>
        <time>2022-03-28T12:03:13Z</time>
      </trkpt>
      <trkpt lat="45.23702" lon="2.94932">
        <ele>1079.1</ele>
        <time>2022-03-28T12:03:17Z</time>
      </trkpt>
      <trkpt lat="45.23685" lon="2.94885">
        <ele>1076.55</ele>
        <time>2022-03-28T12:03:20Z</time>
      </trkpt>
      <trkpt lat="45.23593" lon="2.94568">
        <ele>1059.2</ele>
        <time>2022-03-28T12:03:24Z</time>
      </trkpt>
      <trkpt lat="45.23562" lon="2.9439">
        <ele>1050.7</ele>
        <time>2022-03-28T12:03:28Z</time>
      </trkpt>
      <trkpt lat="45.23558" lon="2.9436">
        <ele>1048.8</ele>
        <time>2022-03-28T12:03:31Z</time>
      </trkpt>
      <trkpt lat="45.23556" lon="2.94331">
        <ele>1046.9</ele>
        <time>2022-03-28T12:03:35Z</time>
      </trkpt>
      <trkpt lat="45.23557" lon="2.9423">
        <ele>1041.59</ele>
        <time>2022-03-28T12:03:39Z</time>
      </trkpt>
      <trkpt lat="45.23545" lon="2.94071">
        <ele>1030.5</ele>
        <time>2022-03-28T12:03:42Z</time>
      </trkpt>
      <trkpt lat="45.23542" lon="2.94051">
        <ele>1029.73</ele>
        <time>2022-03-28T12:03:46Z</time>
      </trkpt>
      <trkpt lat="45.23536" lon="2.94036">
        <ele>1029.2</ele>
        <time>2022-03-28T12:03:50Z</time>
      </trkpt>
      <trkpt lat="45.2353" lon="2.94026">
        <ele>1028.77</ele>
        <time>2022-03-28T12:03:53Z</time>
      </trkpt>
      <trkpt lat="45.23462" lon="2.93946">
        <ele>1023.14</ele>
        <time>2022-03-28T12:03:57Z</time>
      </trkpt>
      <trkpt lat="45.23384" lon="2.93812">
        <ele>1014.47</ele>
        <time>2022-03-28T12:04:01Z</time>
      </trkpt>
      <trkpt lat="45.23367" lon="2.93792">
        <ele>1012.57</ele>
        <time>2022-03-28T12:04:05Z</time>
      </trkpt>
      <trkpt lat="45.23358" lon="2.93784">
        <ele>1011.58</ele>
        <time>2022-03-28T12:04:08Z</time>
      </trkpt>
      <trkpt lat="45.23324" lon="2.93762">
        <ele>1008.28</ele>
        <time>2022-03-28T12:04:12Z</time>
      </trkpt>
      <trkpt lat="45.23303" lon="2.93745">
        <ele>1006.23</ele>
        <time>2022-03-28T12:04:16Z</time>
      </trkpt>
      <trkpt lat="45.23284" lon="2.93726">
        <ele>1004.18</ele>
        <time>2022-03-28T12:04:19Z</time>
      </trkpt>
      <trkpt lat="45.23229" lon="2.93655">
        <ele>998.93</ele>
        <time>2022-03-28T12:04:23Z</time>
      </trkpt>
      <trkpt lat="45.23212" lon="2.93628">
        <ele>997.75</ele>
        <time>2022-03-28T12:04:27Z</time>
      </trkpt>
      <trkpt lat="45.23167" lon="2.9353">
        <ele>992.14</ele>
        <time>2022-03-28T12:04:30Z</time>
      </trkpt>
      <trkpt lat="45.2313" lon="2.93481">
        <ele>988.96</ele>
        <time>2022-03-28T12:04:34Z</time>
      </trkpt>
      <trkpt lat="45.23127" lon="2.93469">
        <ele>987.94</ele>
        <time>2022-03-28T12:04:38Z</time>
      </trkpt>
      <trkpt lat="45.23126" lon="2.93454">
        <ele>986.75</ele>
        <time>2022-03-28T12:04:41Z</time>
      </trkpt>
      <trkpt lat="45.23124" lon="2.93424">
        <ele>985.25</ele>
        <time>2022-03-28T12:04:45Z</time>
      </trkpt>
      <trkpt lat="45.23005" lon="2.93432">
        <ele>985.56</ele>
        <time>2022-03-28T12:04:51Z</time>
      </trkpt>
      <trkpt lat="45.22872" lon="2.93448">
        <ele>983.86</ele>
        <time>2022-03-28T12:04:58Z</time>
      </trkpt>
      <trkpt lat="45.22796" lon="2.93439">
        <ele>980.97</ele>
        <time>2022-03-28T12:05:04Z</time>
      </trkpt>
      <trkpt lat="45.22789" lon="2.93442">
        <ele>980.25</ele>
        <time>2022-03-28T12:05:10Z</time>
      </trkpt>
      <trkpt lat="45.22766" lon="2.93451">
        <ele>977.23</ele>
        <time>2022-03-28T12:05:16Z</time>
      </trkpt>
      <trkpt lat="45.22758" lon="2.93451">
        <ele>976.08</ele>
        <time>2022-03-28T12:05:23Z</time>
      </trkpt>
      <trkpt lat="45.22753" lon="2.93422">
        <ele>975.35</ele>
        <time>2022-03-28T12:05:26Z</time>
      </trkpt>
      <trkpt lat="45.22752" lon="2.93386">
        <ele>974.21</ele>
        <time>2022-03-28T12:05:29Z</time>
      </trkpt>
      <trkpt lat="45.22745" lon="2.93353">
        <ele>973.79</ele>
        <time>2022-03-28T12:05:32Z</time>
      </trkpt>
      <trkpt lat="45.22744" lon="2.93345">
        <ele>973.96</ele>
        <time>2022-03-28T12:05:35Z</time>
      </trkpt>
      <trkpt lat="45.22727" lon="2.93341">
        <ele>974.18</ele>
        <time>2022-03-28T12:05:38Z</time>
      </trkpt>
      <trkpt lat="45.22706" lon="2.93339">
        <ele>974.99</ele>
        <time>2022-03-28T12:05:42Z</time>
      </trkpt>
      <trkpt lat="45.22682" lon="2.93343">
        <ele>975.01</ele>
        <time>2022-03-28T12:05:45Z</time>
      </trkpt>
      <trkpt lat="45.22644" lon="2.93355">
        <ele>973.52</ele>
        <time>2022-03-28T12:05:49Z</time>
      </trkpt>
      <trkpt lat="45.22629" lon="2.93352">
        <ele>974.38</ele>
        <time>2022-03-28T12:05:52Z</time>
      </trkpt>
      <trkpt lat="45.22585" lon="2.93365">
        <ele>975.71</ele>
        <time>2022-03-28T12:05:56Z</time>
      </trkpt>
      <trkpt lat="45.22547" lon="2.93361">
        <ele>974.67</ele>
        <time>2022-03-28T12:05:59Z</time>
      </trkpt>
      <trkpt lat="45.22534" lon="2.93357">
        <ele>974.47</ele>
        <time>2022-03-28T12:06:03Z</time>
      </trkpt>
      <trkpt lat="45.22514" lon="2.93346">
        <ele>975.35</ele>
        <time>2022-03-28T12:06:06Z</time>
      </trkpt>
      <trkpt lat="45.22441" lon="2.93288">
        <ele>977.16</ele>
        <time>2022-03-28T12:06:10Z</time>
      </trkpt>
      <trkpt lat="45.22418" lon="2.93274">
        <ele>976.42</ele>
        <time>2022-03-28T12:06:13Z</time>
      </trkpt>
      <trkpt lat="45.22383" lon="2.93257">
        <ele>977.64</ele>
        <time>2022-03-28T12:06:17Z</time>
      </trkpt>
      <trkpt lat="45.22357" lon="2.93228">
        <ele>978.03</ele>
        <time>2022-03-28T12:06:20Z</time>
      </trkpt>
      <trkpt lat="45.223" lon="2.93181">
        <ele>978.61</ele>
        <time>2022-03-28T12:06:24Z</time>
      </trkpt>
      <trkpt lat="45.22277" lon="2.93156">
        <ele>978.59</ele>
        <time>2022-03-28T12:06:28Z</time>
      </trkpt>
      <trkpt lat="45.2226" lon="2.93123">
        <ele>978.98</ele>
        <time>2022-03-28T12:06:31Z</time>
      </trkpt>
      <trkpt lat="45.22255" lon="2.9311">
        <ele>979.71</ele>
        <time>2022-03-28T12:06:35Z</time>
      </trkpt>
      <trkpt lat="45.22252" lon="2.93096">
        <ele>980.91</ele>
        <time>2022-03-28T12:06:38Z</time>
      </trkpt>
      <trkpt lat="45.22249" lon="2.93078">
        <ele>982.49</ele>
        <time>2022-03-28T12:06:42Z</time>
      </trkpt>
      <trkpt lat="45.22249" lon="2.93049">
        <ele>984.6</ele>
        <time>2022-03-28T12:06:45Z</time>
      </trkpt>
      <trkpt lat="45.22272" lon="2.92768">
        <ele>994.72</ele>
        <time>2022-03-28T12:06:49Z</time>
      </trkpt>
      <trkpt lat="45.22272" lon="2.9274">
        <ele>994.6</ele>
        <time>2022-03-28T12:06:52Z</time>
      </trkpt>
      <trkpt lat="45.2227" lon="2.92704">
        <ele>995.14</ele>
        <time>2022-03-28T12:06:56Z</time>
      </trkpt>
      <trkpt lat="45.22261" lon="2.9266">
        <ele>1000.08</ele>
        <time>2022-03-28T12:06:59Z</time>
      </trkpt>
      <trkpt lat="45.22177" lon="2.92381">
        <ele>1014.25</ele>
        <time>2022-03-28T12:07:03Z</time>
      </trkpt>
      <trkpt lat="45.22175" lon="2.92361">
        <ele>1014.63</ele>
        <time>2022-03-28T12:07:06Z</time>
      </trkpt>
      <trkpt lat="45.2217" lon="2.92293">
        <ele>1017.53</ele>
        <time>2022-03-28T12:07:10Z</time>
      </trkpt>
      <trkpt lat="45.22162" lon="2.92244">
        <ele>1015.71</ele>
        <time>2022-03-28T12:07:13Z</time>
      </trkpt>
      <trkpt lat="45.22121" lon="2.92097">
        <ele>1028.1</ele>
        <time>2022-03-28T12:07:17Z</time>
      </trkpt>
      <trkpt lat="45.2211" lon="2.92045">
        <ele>1035.31</ele>
        <time>2022-03-28T12:07:21Z</time>
      </trkpt>
      <trkpt lat="45.22108" lon="2.91995">
        <ele>1034.21</ele>
        <time>2022-03-28T12:07:24Z</time>
      </trkpt>
      <trkpt lat="45.2211" lon="2.91947">
        <ele>1033.44</ele>
        <time>2022-03-28T12:07:28Z</time>
      </trkpt>
      <trkpt lat="45.22134" lon="2.91703">
        <ele>1043.23</ele>
        <time>2022-03-28T12:07:31Z</time>
      </trkpt>
      <trkpt lat="45.22134" lon="2.91669">
        <ele>1045.75</ele>
        <time>2022-03-28T12:07:35Z</time>
      </trkpt>
      <trkpt lat="45.22131" lon="2.91641">
        <ele>1048.66</ele>
        <time>2022-03-28T12:07:38Z</time>
      </trkpt>
      <trkpt lat="45.22127" lon="2.9161">
        <ele>1050.37</ele>
        <time>2022-03-28T12:07:42Z</time>
      </trkpt>
      <trkpt lat="45.22023" lon="2.91087">
        <ele>1074.21</ele>
        <time>2022-03-28T12:07:45Z</time>
      </trkpt>
      <trkpt lat="45.22014" lon="2.91053">
        <ele>1076.64</ele>
        <time>2022-03-28T12:07:49Z</time>
      </trkpt>
      <trkpt lat="45.2176" lon="2.90285">
        <ele>1106.9</ele>
        <time>2022-03-28T12:07:52Z</time>
      </trkpt>
      <trkpt lat="45.21753" lon="2.9026">
        <ele>1107.65</ele>
        <time>2022-03-28T12:07:56Z</time>
      </trkpt>
      <trkpt lat="45.21743" lon="2.90214">
        <ele>1109.28</ele>
        <time>2022-03-28T12:07:59Z</time>
      </trkpt>
      <trkpt lat="45.2174" lon="2.9018">
        <ele>1109.82</ele>
        <time>2022-03-28T12:08:03Z</time>
      </trkpt>
      <trkpt lat="45.21741" lon="2.90158">
        <ele>1109.46</ele>
        <time>2022-03-28T12:08:07Z</time>
      </trkpt>
      <trkpt lat="45.21744" lon="2.90128">
        <ele>1108.69</ele>
        <time>2022-03-28T12:08:10Z</time>
      </trkpt>
      <trkpt lat="45.21766" lon="2.9">
        <ele>1111.42</ele>
        <time>2022-03-28T12:08:14Z</time>
      </trkpt>
      <trkpt lat="45.2181" lon="2.89525">
        <ele>1116.84</ele>
        <time>2022-03-28T12:08:17Z</time>
      </trkpt>
      <trkpt lat="45.2181" lon="2.89497">
        <ele>1116.97</ele>
        <time>2022-03-28T12:08:21Z</time>
      </trkpt>
      <trkpt lat="45.21804" lon="2.89418">
        <ele>1119.96</ele>
        <time>2022-03-28T12:08:24Z</time>
      </trkpt>
      <trkpt lat="45.21792" lon="2.89332">
        <ele>1121.04</ele>
        <time>2022-03-28T12:08:28Z</time>
      </trkpt>
      <trkpt lat="45.21776" lon="2.89285">
        <ele>1122.29</ele>
        <time>2022-03-28T12:08:31Z</time>
      </trkpt>
      <trkpt lat="45.21766" lon="2.89267">
        <ele>1122.14</ele>
        <time>2022-03-28T12:08:35Z</time>
      </trkpt>
      <trkpt lat="45.21753" lon="2.89248">
        <ele>1121.43</ele>
        <time>2022-03-28T12:08:38Z</time>
      </trkpt>
      <trkpt lat="45.21739" lon="2.89231">
        <ele>1120.89</ele>
        <time>2022-03-28T12:08:42Z</time>
      </trkpt>
      <trkpt lat="45.21722" lon="2.89216">
        <ele>1119.99</ele>
        <time>2022-03-28T12:08:45Z</time>
      </trkpt>
      <trkpt lat="45.21649" lon="2.89172">
        <ele>1121.48</ele>
        <time>2022-03-28T12:08:49Z</time>
      </trkpt>
      <trkpt lat="45.21631" lon="2.89159">
        <ele>1121.31</ele>
        <time>2022-03-28T12:08:52Z</time>
      </trkpt>
      <trkpt lat="45.21604" lon="2.89133">
        <ele>1122.63</ele>
        <time>2022-03-28T12:08:56Z</time>
      </trkpt>
      <trkpt lat="45.21572" lon="2.89088">
        <ele>1123.55</ele>
        <time>2022-03-28T12:09:00Z</time>
      </trkpt>
      <trkpt lat="45.21556" lon="2.89057">
        <ele>1124.83</ele>
        <time>2022-03-28T12:09:03Z</time>
      </trkpt>
      <trkpt lat="45.2154" lon="2.89013">
        <ele>1125.87</ele>
        <time>2022-03-28T12:09:07Z</time>
      </trkpt>
      <trkpt lat="45.21501" lon="2.88894">
        <ele>1125.91</ele>
        <time>2022-03-28T12:09:10Z</time>
      </trkpt>
      <trkpt lat="45.21493" lon="2.88867">
        <ele>1125.77</ele>
        <time>2022-03-28T12:09:14Z</time>
      </trkpt>
      <trkpt lat="45.21489" lon="2.88845">
        <ele>1126.35</ele>
        <time>2022-03-28T12:09:17Z</time>
      </trkpt>
      <trkpt lat="45.21485" lon="2.88813">
        <ele>1127.46</ele>
        <time>2022-03-28T12:09:21Z</time>
      </trkpt>
      <trkpt lat="45.21484" lon="2.88784">
        <ele>1128.44</ele>
        <time>2022-03-28T12:09:24Z</time>
      </trkpt>
      <trkpt lat="45.21485" lon="2.88756">
        <ele>1129.26</ele>
        <time>2022-03-28T12:09:28Z</time>
      </trkpt>
      <trkpt lat="45.21493" lon="2.88688">
        <ele>1130.27</ele>
        <time>2022-03-28T12:09:31Z</time>
      </trkpt>
      <trkpt lat="45.21495" lon="2.88658">
        <ele>1129.57</ele>
        <time>2022-03-28T12:09:35Z</time>
      </trkpt>
      <trkpt lat="45.21494" lon="2.8863">
        <ele>1129.42</ele>
        <time>2022-03-28T12:09:38Z</time>
      </trkpt>
      <trkpt lat="45.2149" lon="2.88603">
        <ele>1129.48</ele>
        <time>2022-03-28T12:09:42Z</time>
      </trkpt>
      <trkpt lat="45.21485" lon="2.88577">
        <ele>1129.47</ele>
        <time>2022-03-28T12:09:45Z</time>
      </trkpt>
      <trkpt lat="45.21475" lon="2.88551">
        <ele>1129.47</ele>
        <time>2022-03-28T12:09:49Z</time>
      </trkpt>
      <trkpt lat="45.21463" lon="2.88527">
        <ele>1130.69</ele>
        <time>2022-03-28T12:09:53Z</time>
      </trkpt>
      <trkpt lat="45.21431" lon="2.88473">
        <ele>1129.51</ele>
        <time>2022-03-28T12:09:56Z</time>
      </trkpt>
      <trkpt lat="45.21413" lon="2.88436">
        <ele>1131.31</ele>
        <time>2022-03-28T12:10:00Z</time>
      </trkpt>
      <trkpt lat="45.21406" lon="2.88414">
        <ele>1132.11</ele>
        <time>2022-03-28T12:10:03Z</time>
      </trkpt>
      <trkpt lat="45.21313" lon="2.88">
        <ele>1133.25</ele>
        <time>2022-03-28T12:10:07Z</time>
      </trkpt>
      <trkpt lat="45.21308" lon="2.87947">
        <ele>1133.99</ele>
        <time>2022-03-28T12:10:10Z</time>
      </trkpt>
      <trkpt lat="45.21309" lon="2.87921">
        <ele>1134.13</ele>
        <time>2022-03-28T12:10:14Z</time>
      </trkpt>
      <trkpt lat="45.2132" lon="2.87874">
        <ele>1134.22</ele>
        <time>2022-03-28T12:10:17Z</time>
      </trkpt>
      <trkpt lat="45.21335" lon="2.87834">
        <ele>1133.07</ele>
        <time>2022-03-28T12:10:21Z</time>
      </trkpt>
      <trkpt lat="45.21459" lon="2.87555">
        <ele>1131.51</ele>
        <time>2022-03-28T12:10:24Z</time>
      </trkpt>
      <trkpt lat="45.21467" lon="2.87531">
        <ele>1131.83</ele>
        <time>2022-03-28T12:10:28Z</time>
      </trkpt>
      <trkpt lat="45.21474" lon="2.87507">
        <ele>1132.13</ele>
        <time>2022-03-28T12:10:31Z</time>
      </trkpt>
      <trkpt lat="45.2148" lon="2.8748">
        <ele>1132.52</ele>
        <time>2022-03-28T12:10:35Z</time>
      </trkpt>
      <trkpt lat="45.21481" lon="2.87453">
        <ele>1132.65</ele>
        <time>2022-03-28T12:10:38Z</time>
      </trkpt>
      <trkpt lat="45.21481" lon="2.87425">
        <ele>1133.13</ele>
        <time>2022-03-28T12:10:42Z</time>
      </trkpt>
      <trkpt lat="45.2148" lon="2.87398">
        <ele>1133.26</ele>
        <time>2022-03-28T12:10:46Z</time>
      </trkpt>
      <trkpt lat="45.21474" lon="2.87366">
        <ele>1133.93</ele>
        <time>2022-03-28T12:10:49Z</time>
      </trkpt>
      <trkpt lat="45.21367" lon="2.86904">
        <ele>1135.73</ele>
        <time>2022-03-28T12:10:53Z</time>
      </trkpt>
      <trkpt lat="45.21357" lon="2.86853">
        <ele>1135.92</ele>
        <time>2022-03-28T12:10:56Z</time>
      </trkpt>
      <trkpt lat="45.21328" lon="2.86661">
        <ele>1138.35</ele>
        <time>2022-03-28T12:11:00Z</time>
      </trkpt>
      <trkpt lat="45.21321" lon="2.86612">
        <ele>1137.3</ele>
        <time>2022-03-28T12:11:03Z</time>
      </trkpt>
      <trkpt lat="45.21307" lon="2.86389">
        <ele>1136.54</ele>
        <time>2022-03-28T12:11:07Z</time>
      </trkpt>
      <trkpt lat="45.21307" lon="2.86344">
        <ele>1136.95</ele>
        <time>2022-03-28T12:11:10Z</time>
      </trkpt>
      <trkpt lat="45.21311" lon="2.86234">
        <ele>1136.24</ele>
        <time>2022-03-28T12:11:14Z</time>
      </trkpt>
      <trkpt lat="45.2131" lon="2.86203">
        <ele>1136.27</ele>
        <time>2022-03-28T12:11:17Z</time>
      </trkpt>
      <trkpt lat="45.21302" lon="2.86142">
        <ele>1138.11</ele>
        <time>2022-03-28T12:11:21Z</time>
      </trkpt>
      <trkpt lat="45.21277" lon="2.85992">
        <ele>1137.3</ele>
        <time>2022-03-28T12:11:24Z</time>
      </trkpt>
      <trkpt lat="45.21268" lon="2.85955">
        <ele>1137.76</ele>
        <time>2022-03-28T12:11:28Z</time>
      </trkpt>
      <trkpt lat="45.21256" lon="2.85912">
        <ele>1138.51</ele>
        <time>2022-03-28T12:11:31Z</time>
      </trkpt>
      <trkpt lat="45.21171" lon="2.85647">
        <ele>1141.4</ele>
        <time>2022-03-28T12:11:35Z</time>
      </trkpt>
      <trkpt lat="45.21159" lon="2.85614">
        <ele>1138.66</ele>
        <time>2022-03-28T12:11:39Z</time>
      </trkpt>
      <trkpt lat="45.21146" lon="2.85587">
        <ele>1136.65</ele>
        <time>2022-03-28T12:11:42Z</time>
      </trkpt>
      <trkpt lat="45.21132" lon="2.85564">
        <ele>1136.38</ele>
        <time>2022-03-28T12:11:46Z</time>
      </trkpt>
      <trkpt lat="45.21019" lon="2.854">
        <ele>1139.59</ele>
        <time>2022-03-28T12:11:49Z</time>
      </trkpt>
      <trkpt lat="45.21019" lon="2.854">
        <ele>1139.59</ele>
        <time>2022-03-28T12:11:49Z</time>
      </trkpt>
      <trkpt lat="45.21132" lon="2.85564">
        <ele>1136.38</ele>
        <time>2022-03-28T12:11:53Z</time>
      </trkpt>
      <trkpt lat="45.21146" lon="2.85587">
        <ele>1136.65</ele>
        <time>2022-03-28T12:11:56Z</time>
      </trkpt>
      <trkpt lat="45.21159" lon="2.85614">
        <ele>1138.66</ele>
        <time>2022-03-28T12:11:59Z</time>
      </trkpt>
      <trkpt lat="45.21171" lon="2.85647">
        <ele>1141.4</ele>
        <time>2022-03-28T12:12:03Z</time>
      </trkpt>
      <trkpt lat="45.21256" lon="2.85912">
        <ele>1138.51</ele>
        <time>2022-03-28T12:12:06Z</time>
      </trkpt>
      <trkpt lat="45.21268" lon="2.85955">
        <ele>1137.76</ele>
        <time>2022-03-28T12:12:10Z</time>
      </trkpt>
      <trkpt lat="45.21277" lon="2.85992">
        <ele>1137.3</ele>
        <time>2022-03-28T12:12:13Z</time>
      </trkpt>
      <trkpt lat="45.21302" lon="2.86142">
        <ele>1138.11</ele>
        <time>2022-03-28T12:12:16Z</time>
      </trkpt>
      <trkpt lat="45.2131" lon="2.86203">
        <ele>1136.27</ele>
        <time>2022-03-28T12:12:20Z</time>
      </trkpt>
      <trkpt lat="45.21311" lon="2.86234">
        <ele>1136.24</ele>
        <time>2022-03-28T12:12:23Z</time>
      </trkpt>
      <trkpt lat="45.21307" lon="2.86344">
        <ele>1136.95</ele>
        <time>2022-03-28T12:12:27Z</time>
      </trkpt>
      <trkpt lat="45.21307" lon="2.86389">
        <ele>1136.54</ele>
        <time>2022-03-28T12:12:30Z</time>
      </trkpt>
      <trkpt lat="45.21321" lon="2.86612">
        <ele>1137.3</ele>
        <time>2022-03-28T12:12:33Z</time>
      </trkpt>
      <trkpt lat="45.21328" lon="2.86661">
        <ele>1138.35</ele>
        <time>2022-03-28T12:12:37Z</time>
      </trkpt>
      <trkpt lat="45.21357" lon="2.86853">
        <ele>1135.92</ele>
        <time>2022-03-28T12:12:40Z</time>
      </trkpt>
      <trkpt lat="45.21367" lon="2.86904">
        <ele>1135.73</ele>
        <time>2022-03-28T12:12:44Z</time>
      </trkpt>
      <trkpt lat="45.21474" lon="2.87366">
        <ele>1133.93</ele>
        <time>2022-03-28T12:12:47Z</time>
      </trkpt>
      <trkpt lat="45.2148" lon="2.87398">
        <ele>1133.26</ele>
        <time>2022-03-28T12:12:50Z</time>
      </trkpt>
      <trkpt lat="45.21481" lon="2.87425">
        <ele>1133.13</ele>
        <time>2022-03-28T12:12:54Z</time>
      </trkpt>
      <trkpt lat="45.21481" lon="2.87453">
        <ele>1132.65</ele>
        <time>2022-03-28T12:12:57Z</time>
      </trkpt>
      <trkpt lat="45.2148" lon="2.8748">
        <ele>1132.52</ele>
        <time>2022-03-28T12:13:01Z</time>
      </trkpt>
      <trkpt lat="45.21474" lon="2.87507">
        <ele>1132.13</ele>
        <time>2022-03-28T12:13:04Z</time>
      </trkpt>
      <trkpt lat="45.21467" lon="2.87531">
        <ele>1131.83</ele>
        <time>2022-03-28T12:13:07Z</time>
      </trkpt>
      <trkpt lat="45.21459" lon="2.87555">
        <ele>1131.51</ele>
        <time>2022-03-28T12:13:11Z</time>
      </trkpt>
      <trkpt lat="45.21335" lon="2.87834">
        <ele>1133.07</ele>
        <time>2022-03-28T12:13:14Z</time>
      </trkpt>
      <trkpt lat="45.2132" lon="2.87874">
        <ele>1134.22</ele>
        <time>2022-03-28T12:13:18Z</time>
      </trkpt>
      <trkpt lat="45.21309" lon="2.87921">
        <ele>1134.13</ele>
        <time>2022-03-28T12:13:21Z</time>
      </trkpt>
      <trkpt lat="45.21308" lon="2.87947">
        <ele>1133.99</ele>
        <time>2022-03-28T12:13:24Z</time>
      </trkpt>
      <trkpt lat="45.21313" lon="2.88">
        <ele>1133.25</ele>
        <time>2022-03-28T12:13:28Z</time>
      </trkpt>
      <trkpt lat="45.21406" lon="2.88414">
        <ele>1132.11</ele>
        <time>2022-03-28T12:13:31Z</time>
      </trkpt>
      <trkpt lat="45.21413" lon="2.88436">
        <ele>1131.31</ele>
        <time>2022-03-28T12:13:35Z</time>
      </trkpt>
      <trkpt lat="45.21431" lon="2.88473">
        <ele>1129.51</ele>
        <time>2022-03-28T12:13:38Z</time>
      </trkpt>
      <trkpt lat="45.21463" lon="2.88527">
        <ele>1130.69</ele>
        <time>2022-03-28T12:13:41Z</time>
      </trkpt>
      <trkpt lat="45.21475" lon="2.88551">
        <ele>1129.47</ele>
        <time>2022-03-28T12:13:45Z</time>
      </trkpt>
      <trkpt lat="45.21485" lon="2.88577">
        <ele>1129.47</ele>
        <time>2022-03-28T12:13:48Z</time>
      </trkpt>
      <trkpt lat="45.2149" lon="2.88603">
        <ele>1129.48</ele>
        <time>2022-03-28T12:13:52Z</time>
      </trkpt>
      <trkpt lat="45.21494" lon="2.8863">
        <ele>1129.42</ele>
        <time>2022-03-28T12:13:55Z</time>
      </trkpt>
      <trkpt lat="45.21495" lon="2.88658">
        <ele>1129.57</ele>
        <time>2022-03-28T12:13:58Z</time>
      </trkpt>
      <trkpt lat="45.21493" lon="2.88688">
        <ele>1130.27</ele>
        <time>2022-03-28T12:14:02Z</time>
      </trkpt>
      <trkpt lat="45.21485" lon="2.88756">
        <ele>1129.26</ele>
        <time>2022-03-28T12:14:05Z</time>
      </trkpt>
      <trkpt lat="45.21484" lon="2.88784">
        <ele>1128.44</ele>
        <time>2022-03-28T12:14:09Z</time>
      </trkpt>
      <trkpt lat="45.21485" lon="2.88813">
        <ele>1127.46</ele>
        <time>2022-03-28T12:14:12Z</time>
      </trkpt>
      <trkpt lat="45.21489" lon="2.88845">
        <ele>1126.35</ele>
        <time>2022-03-28T12:14:15Z</time>
      </trkpt>
      <trkpt lat="45.21493" lon="2.88867">
        <ele>1125.77</ele>
        <time>2022-03-28T12:14:19Z</time>
      </trkpt>
      <trkpt lat="45.21501" lon="2.88894">
        <ele>1125.91</ele>
        <time>2022-03-28T12:14:22Z</time>
      </trkpt>
      <trkpt lat="45.2154" lon="2.89013">
        <ele>1125.87</ele>
        <time>2022-03-28T12:14:26Z</time>
      </trkpt>
      <trkpt lat="45.21556" lon="2.89057">
        <ele>1124.83</ele>
        <time>2022-03-28T12:14:29Z</time>
      </trkpt>
      <trkpt lat="45.21572" lon="2.89088">
        <ele>1123.55</ele>
        <time>2022-03-28T12:14:32Z</time>
      </trkpt>
      <trkpt lat="45.21604" lon="2.89133">
        <ele>1122.63</ele>
        <time>2022-03-28T12:14:36Z</time>
      </trkpt>
      <trkpt lat="45.21631" lon="2.89159">
        <ele>1121.31</ele>
        <time>2022-03-28T12:14:39Z</time>
      </trkpt>
      <trkpt lat="45.21649" lon="2.89172">
        <ele>1121.48</ele>
        <time>2022-03-28T12:14:43Z</time>
      </trkpt>
      <trkpt lat="45.21722" lon="2.89216">
        <ele>1119.99</ele>
        <time>2022-03-28T12:14:46Z</time>
      </trkpt>
      <trkpt lat="45.21739" lon="2.89231">
        <ele>1120.89</ele>
        <time>2022-03-28T12:14:50Z</time>
      </trkpt>
      <trkpt lat="45.21753" lon="2.89248">
        <ele>1121.43</ele>
        <time>2022-03-28T12:14:53Z</time>
      </trkpt>
      <trkpt lat="45.21766" lon="2.89267">
        <ele>1122.14</ele>
        <time>2022-03-28T12:14:56Z</time>
      </trkpt>
      <trkpt lat="45.21776" lon="2.89285">
        <ele>1122.29</ele>
        <time>2022-03-28T12:15:00Z</time>
      </trkpt>
      <trkpt lat="45.21792" lon="2.89332">
        <ele>1121.04</ele>
        <time>2022-03-28T12:15:03Z</time>
      </trkpt>
      <trkpt lat="45.21804" lon="2.89418">
        <ele>1119.96</ele>
        <time>2022-03-28T12:15:07Z</time>
      </trkpt>
      <trkpt lat="45.2181" lon="2.89497">
        <ele>1116.97</ele>
        <time>2022-03-28T12:15:10Z</time>
      </trkpt>
      <trkpt lat="45.2181" lon="2.89525">
        <ele>1116.84</ele>
        <time>2022-03-28T12:15:13Z</time>
      </trkpt>
      <trkpt lat="45.21766" lon="2.9">
        <ele>1111.42</ele>
        <time>2022-03-28T12:15:17Z</time>
      </trkpt>
      <trkpt lat="45.21745" lon="2.90126">
        <ele>1110.06</ele>
        <time>2022-03-28T12:15:20Z</time>
      </trkpt>
      <trkpt lat="45.21745" lon="2.90126">
        <ele>1110.06</ele>
        <time>2022-03-28T12:15:20Z</time>
      </trkpt>
      <trkpt lat="45.21744" lon="2.90128">
        <ele>1108.69</ele>
        <time>2022-03-28T12:15:20Z</time>
      </trkpt>
      <trkpt lat="45.21722" lon="2.90124">
        <ele>1109</ele>
        <time>2022-03-28T12:15:29Z</time>
      </trkpt>
      <trkpt lat="45.21701" lon="2.9013">
        <ele>1109.76</ele>
        <time>2022-03-28T12:15:37Z</time>
      </trkpt>
      <trkpt lat="45.21376" lon="2.9025">
        <ele>1110.01</ele>
        <time>2022-03-28T12:15:46Z</time>
      </trkpt>
      <trkpt lat="45.21357" lon="2.90258">
        <ele>1109.62</ele>
        <time>2022-03-28T12:15:54Z</time>
      </trkpt>
      <trkpt lat="45.21334" lon="2.9027">
        <ele>1109.01</ele>
        <time>2022-03-28T12:16:03Z</time>
      </trkpt>
      <trkpt lat="45.21317" lon="2.90285">
        <ele>1109</ele>
        <time>2022-03-28T12:16:11Z</time>
      </trkpt>
      <trkpt lat="45.21307" lon="2.90296">
        <ele>1109</ele>
        <time>2022-03-28T12:16:19Z</time>
      </trkpt>
      <trkpt lat="45.21293" lon="2.90315">
        <ele>1108.55</ele>
        <time>2022-03-28T12:16:28Z</time>
      </trkpt>
      <trkpt lat="45.2118" lon="2.90498">
        <ele>1101.5</ele>
        <time>2022-03-28T12:16:36Z</time>
      </trkpt>
      <trkpt lat="45.2112" lon="2.90587">
        <ele>1097.1</ele>
        <time>2022-03-28T12:16:45Z</time>
      </trkpt>
      <trkpt lat="45.21102" lon="2.90606">
        <ele>1095.89</ele>
        <time>2022-03-28T12:16:48Z</time>
      </trkpt>
      <trkpt lat="45.21091" lon="2.90616">
        <ele>1094.81</ele>
        <time>2022-03-28T12:16:50Z</time>
      </trkpt>
      <trkpt lat="45.21078" lon="2.90623">
        <ele>1093.3</ele>
        <time>2022-03-28T12:16:53Z</time>
      </trkpt>
      <trkpt lat="45.21069" lon="2.90625">
        <ele>1092.2</ele>
        <time>2022-03-28T12:16:56Z</time>
      </trkpt>
      <trkpt lat="45.21055" lon="2.90624">
        <ele>1090.34</ele>
        <time>2022-03-28T12:16:59Z</time>
      </trkpt>
      <trkpt lat="45.21044" lon="2.90614">
        <ele>1088.14</ele>
        <time>2022-03-28T12:17:02Z</time>
      </trkpt>
      <trkpt lat="45.2104" lon="2.90602">
        <ele>1086.7</ele>
        <time>2022-03-28T12:17:04Z</time>
      </trkpt>
      <trkpt lat="45.21037" lon="2.90588">
        <ele>1085.26</ele>
        <time>2022-03-28T12:17:07Z</time>
      </trkpt>
      <trkpt lat="45.21033" lon="2.90525">
        <ele>1078.45</ele>
        <time>2022-03-28T12:17:10Z</time>
      </trkpt>
      <trkpt lat="45.21035" lon="2.90496">
        <ele>1076.28</ele>
        <time>2022-03-28T12:17:13Z</time>
      </trkpt>
      <trkpt lat="45.21043" lon="2.90434">
        <ele>1073.54</ele>
        <time>2022-03-28T12:17:16Z</time>
      </trkpt>
      <trkpt lat="45.21048" lon="2.9038">
        <ele>1072.84</ele>
        <time>2022-03-28T12:17:18Z</time>
      </trkpt>
      <trkpt lat="45.21041" lon="2.9029">
        <ele>1068.94</ele>
        <time>2022-03-28T12:17:21Z</time>
      </trkpt>
      <trkpt lat="45.21025" lon="2.90144">
        <ele>1065.74</ele>
        <time>2022-03-28T12:17:24Z</time>
      </trkpt>
      <trkpt lat="45.21009" lon="2.90069">
        <ele>1061.49</ele>
        <time>2022-03-28T12:17:27Z</time>
      </trkpt>
      <trkpt lat="45.21002" lon="2.90046">
        <ele>1058.63</ele>
        <time>2022-03-28T12:17:29Z</time>
      </trkpt>
      <trkpt lat="45.20992" lon="2.90025">
        <ele>1055.18</ele>
        <time>2022-03-28T12:17:32Z</time>
      </trkpt>
      <trkpt lat="45.20968" lon="2.89979">
        <ele>1049.04</ele>
        <time>2022-03-28T12:17:35Z</time>
      </trkpt>
      <trkpt lat="45.20963" lon="2.89965">
        <ele>1047.42</ele>
        <time>2022-03-28T12:17:38Z</time>
      </trkpt>
      <trkpt lat="45.20957" lon="2.89944">
        <ele>1045.51</ele>
        <time>2022-03-28T12:17:41Z</time>
      </trkpt>
      <trkpt lat="45.20948" lon="2.89901">
        <ele>1041.05</ele>
        <time>2022-03-28T12:17:43Z</time>
      </trkpt>
      <trkpt lat="45.20938" lon="2.89886">
        <ele>1039.29</ele>
        <time>2022-03-28T12:17:46Z</time>
      </trkpt>
      <trkpt lat="45.20912" lon="2.8987">
        <ele>1036.32</ele>
        <time>2022-03-28T12:17:49Z</time>
      </trkpt>
      <trkpt lat="45.20907" lon="2.89863">
        <ele>1036.22</ele>
        <time>2022-03-28T12:17:52Z</time>
      </trkpt>
      <trkpt lat="45.20884" lon="2.89816">
        <ele>1037.31</ele>
        <time>2022-03-28T12:17:55Z</time>
      </trkpt>
      <trkpt lat="45.20863" lon="2.89788">
        <ele>1035.58</ele>
        <time>2022-03-28T12:17:57Z</time>
      </trkpt>
      <trkpt lat="45.20858" lon="2.89786">
        <ele>1034.88</ele>
        <time>2022-03-28T12:18:00Z</time>
      </trkpt>
      <trkpt lat="45.20854" lon="2.89788">
        <ele>1033.89</ele>
        <time>2022-03-28T12:18:03Z</time>
      </trkpt>
      <trkpt lat="45.2082" lon="2.89848">
        <ele>1027.6</ele>
        <time>2022-03-28T12:18:06Z</time>
      </trkpt>
      <trkpt lat="45.20818" lon="2.89859">
        <ele>1027.37</ele>
        <time>2022-03-28T12:18:09Z</time>
      </trkpt>
      <trkpt lat="45.20817" lon="2.89891">
        <ele>1026.13</ele>
        <time>2022-03-28T12:18:11Z</time>
      </trkpt>
      <trkpt lat="45.20814" lon="2.89898">
        <ele>1025.48</ele>
        <time>2022-03-28T12:18:14Z</time>
      </trkpt>
      <trkpt lat="45.20809" lon="2.89903">
        <ele>1024.84</ele>
        <time>2022-03-28T12:18:17Z</time>
      </trkpt>
      <trkpt lat="45.20804" lon="2.89905">
        <ele>1024.33</ele>
        <time>2022-03-28T12:18:20Z</time>
      </trkpt>
      <trkpt lat="45.20784" lon="2.89904">
        <ele>1022.99</ele>
        <time>2022-03-28T12:18:23Z</time>
      </trkpt>
      <trkpt lat="45.20774" lon="2.89905">
        <ele>1023.01</ele>
        <time>2022-03-28T12:18:25Z</time>
      </trkpt>
      <trkpt lat="45.20758" lon="2.89952">
        <ele>1025.62</ele>
        <time>2022-03-28T12:18:30Z</time>
      </trkpt>
      <trkpt lat="45.20742" lon="2.89975">
        <ele>1028.6</ele>
        <time>2022-03-28T12:18:39Z</time>
      </trkpt>
      <trkpt lat="45.20711" lon="2.90091">
        <ele>1038.11</ele>
        <time>2022-03-28T12:18:48Z</time>
      </trkpt>
      <trkpt lat="45.2068" lon="2.90299">
        <ele>1054.56</ele>
        <time>2022-03-28T12:18:56Z</time>
      </trkpt>
      <trkpt lat="45.20668" lon="2.90334">
        <ele>1060.53</ele>
        <time>2022-03-28T12:19:05Z</time>
      </trkpt>
      <trkpt lat="45.20649" lon="2.90351">
        <ele>1064.13</ele>
        <time>2022-03-28T12:19:14Z</time>
      </trkpt>
      <trkpt lat="45.20596" lon="2.90389">
        <ele>1070.67</ele>
        <time>2022-03-28T12:19:23Z</time>
      </trkpt>
      <trkpt lat="45.20558" lon="2.90405">
        <ele>1076</ele>
        <time>2022-03-28T12:19:32Z</time>
      </trkpt>
      <trkpt lat="45.20487" lon="2.90459">
        <ele>1076.27</ele>
        <time>2022-03-28T12:19:41Z</time>
      </trkpt>
      <trkpt lat="45.20448" lon="2.90472">
        <ele>1079.49</ele>
        <time>2022-03-28T12:19:50Z</time>
      </trkpt>
      <trkpt lat="45.20421" lon="2.90467">
        <ele>1082.26</ele>
        <time>2022-03-28T12:19:59Z</time>
      </trkpt>
      <trkpt lat="45.20372" lon="2.90452">
        <ele>1087.78</ele>
        <time>2022-03-28T12:20:08Z</time>
      </trkpt>
      <trkpt lat="45.20316" lon="2.90453">
        <ele>1092.22</ele>
        <time>2022-03-28T12:20:17Z</time>
      </trkpt>
      <trkpt lat="45.20257" lon="2.90446">
        <ele>1096.41</ele>
        <time>2022-03-28T12:20:26Z</time>
      </trkpt>
      <trkpt lat="45.20177" lon="2.90425">
        <ele>1108.45</ele>
        <time>2022-03-28T12:20:35Z</time>
      </trkpt>
      <trkpt lat="45.20153" lon="2.90408">
        <ele>1110.27</ele>
        <time>2022-03-28T12:20:44Z</time>
      </trkpt>
      <trkpt lat="45.20133" lon="2.90359">
        <ele>1112.95</ele>
        <time>2022-03-28T12:20:53Z</time>
      </trkpt>
      <trkpt lat="45.2007" lon="2.90261">
        <ele>1115.42</ele>
        <time>2022-03-28T12:21:01Z</time>
      </trkpt>
      <trkpt lat="45.19978" lon="2.90181">
        <ele>1117.69</ele>
        <time>2022-03-28T12:21:10Z</time>
      </trkpt>
      <trkpt lat="45.19875" lon="2.90131">
        <ele>1124.73</ele>
        <time>2022-03-28T12:21:19Z</time>
      </trkpt>
      <trkpt lat="45.19821" lon="2.9011">
        <ele>1128.85</ele>
        <time>2022-03-28T12:21:28Z</time>
      </trkpt>
      <trkpt lat="45.19671" lon="2.90067">
        <ele>1138.95</ele>
        <time>2022-03-28T12:21:37Z</time>
      </trkpt>
      <trkpt lat="45.1933" lon="2.89939">
        <ele>1150.97</ele>
        <time>2022-03-28T12:21:46Z</time>
      </trkpt>
      <trkpt lat="45.19295" lon="2.89922">
        <ele>1150.08</ele>
        <time>2022-03-28T12:21:55Z</time>
      </trkpt>
      <trkpt lat="45.19295" lon="2.89922">
        <ele>1150.08</ele>
        <time>2022-03-28T12:21:55Z</time>
      </trkpt>
      <trkpt lat="45.19281" lon="2.89915">
        <ele>1149.18</ele>
        <time>2022-03-28T12:22:14Z</time>
      </trkpt>
      <trkpt lat="45.1926" lon="2.89898">
        <ele>1149.89</ele>
        <time>2022-03-28T12:22:32Z</time>
      </trkpt>
      <trkpt lat="45.18811" lon="2.89351">
        <ele>1142.2</ele>
        <time>2022-03-28T12:22:51Z</time>
      </trkpt>
      <trkpt lat="45.188" lon="2.89332">
        <ele>1142.05</ele>
        <time>2022-03-28T12:23:10Z</time>
      </trkpt>
      <trkpt lat="45.188" lon="2.8932">
        <ele>1142.46</ele>
        <time>2022-03-28T12:23:22Z</time>
      </trkpt>
      <trkpt lat="45.18862" lon="2.88986">
        <ele>1154.56</ele>
        <time>2022-03-28T12:23:34Z</time>
      </trkpt>
      <trkpt lat="45.18876" lon="2.8884">
        <ele>1159.39</ele>
        <time>2022-03-28T12:23:46Z</time>
      </trkpt>
      <trkpt lat="45.18876" lon="2.88772">
        <ele>1159.17</ele>
        <time>2022-03-28T12:23:58Z</time>
      </trkpt>
      <trkpt lat="45.18884" lon="2.88692">
        <ele>1162.59</ele>
        <time>2022-03-28T12:24:11Z</time>
      </trkpt>
      <trkpt lat="45.18932" lon="2.88454">
        <ele>1167.41</ele>
        <time>2022-03-28T12:24:23Z</time>
      </trkpt>
      <trkpt lat="45.18932" lon="2.88454">
        <ele>1167.41</ele>
        <time>2022-03-28T12:24:23Z</time>
      </trkpt>
      <trkpt lat="45.18884" lon="2.88692">
        <ele>1162.59</ele>
        <time>2022-03-28T12:24:35Z</time>
      </trkpt>
      <trkpt lat="45.18876" lon="2.88772">
        <ele>1159.17</ele>
        <time>2022-03-28T12:24:47Z</time>
      </trkpt>
      <trkpt lat="45.18876" lon="2.8884">
        <ele>1159.39</ele>
        <time>2022-03-28T12:24:59Z</time>
      </trkpt>
      <trkpt lat="45.18862" lon="2.88986">
        <ele>1154.56</ele>
        <time>2022-03-28T12:25:12Z</time>
      </trkpt>
      <trkpt lat="45.188" lon="2.8932">
        <ele>1142.46</ele>
        <time>2022-03-28T12:25:24Z</time>
      </trkpt>
      <trkpt lat="45.188" lon="2.89332">
        <ele>1142.05</ele>
        <time>2022-03-28T12:25:36Z</time>
      </trkpt>
      <trkpt lat="45.18811" lon="2.89351">
        <ele>1142.2</ele>
        <time>2022-03-28T12:25:52Z</time>
      </trkpt>
      <trkpt lat="45.19014" lon="2.89599">
        <ele>1143.72</ele>
        <time>2022-03-28T12:26:09Z</time>
      </trkpt>
      <trkpt lat="45.18903" lon="2.89758">
        <ele>1132</ele>
        <time>2022-03-28T12:26:14Z</time>
      </trkpt>
      <trkpt lat="45.18879" lon="2.89818">
        <ele>1131.34</ele>
        <time>2022-03-28T12:26:19Z</time>
      </trkpt>
      <trkpt lat="45.18865" lon="2.89891">
        <ele>1133.06</ele>
        <time>2022-03-28T12:26:24Z</time>
      </trkpt>
      <trkpt lat="45.18848" lon="2.90052">
        <ele>1133.94</ele>
        <time>2022-03-28T12:26:29Z</time>
      </trkpt>
      <trkpt lat="45.18847" lon="2.90218">
        <ele>1132.78</ele>
        <time>2022-03-28T12:26:35Z</time>
      </trkpt>
      <trkpt lat="45.18853" lon="2.90293">
        <ele>1135.39</ele>
        <time>2022-03-28T12:26:40Z</time>
      </trkpt>
      <trkpt lat="45.18862" lon="2.90357">
        <ele>1134.08</ele>
        <time>2022-03-28T12:26:45Z</time>
      </trkpt>
      <trkpt lat="45.18864" lon="2.90417">
        <ele>1132.69</ele>
        <time>2022-03-28T12:26:50Z</time>
      </trkpt>
      <trkpt lat="45.18865" lon="2.90505">
        <ele>1136.6</ele>
        <time>2022-03-28T12:26:55Z</time>
      </trkpt>
      <trkpt lat="45.18871" lon="2.90535">
        <ele>1136.7</ele>
        <time>2022-03-28T12:27:01Z</time>
      </trkpt>
      <trkpt lat="45.18895" lon="2.90569">
        <ele>1136.28</ele>
        <time>2022-03-28T12:27:06Z</time>
      </trkpt>
      <trkpt lat="45.18931" lon="2.90613">
        <ele>1136.69</ele>
        <time>2022-03-28T12:27:11Z</time>
      </trkpt>
      <trkpt lat="45.18945" lon="2.90641">
        <ele>1140.03</ele>
        <time>2022-03-28T12:27:16Z</time>
      </trkpt>
      <trkpt lat="45.18961" lon="2.90696">
        <ele>1141.89</ele>
        <time>2022-03-28T12:27:21Z</time>
      </trkpt>
      <trkpt lat="45.18966" lon="2.90738">
        <ele>1141.87</ele>
        <time>2022-03-28T12:27:26Z</time>
      </trkpt>
      <trkpt lat="45.18962" lon="2.90766">
        <ele>1141.51</ele>
        <time>2022-03-28T12:27:32Z</time>
      </trkpt>
      <trkpt lat="45.18908" lon="2.90863">
        <ele>1139.86</ele>
        <time>2022-03-28T12:27:37Z</time>
      </trkpt>
      <trkpt lat="45.18879" lon="2.90881">
        <ele>1139.79</ele>
        <time>2022-03-28T12:27:42Z</time>
      </trkpt>
      <trkpt lat="45.18845" lon="2.90898">
        <ele>1141.94</ele>
        <time>2022-03-28T12:27:47Z</time>
      </trkpt>
      <trkpt lat="45.18813" lon="2.90937">
        <ele>1140.16</ele>
        <time>2022-03-28T12:27:52Z</time>
      </trkpt>
      <trkpt lat="45.18784" lon="2.90982">
        <ele>1138.6</ele>
        <time>2022-03-28T12:27:57Z</time>
      </trkpt>
      <trkpt lat="45.18678" lon="2.91297">
        <ele>1131.85</ele>
        <time>2022-03-28T12:28:03Z</time>
      </trkpt>
      <trkpt lat="45.18642" lon="2.91412">
        <ele>1129.63</ele>
        <time>2022-03-28T12:28:08Z</time>
      </trkpt>
      <trkpt lat="45.1861" lon="2.91524">
        <ele>1127.76</ele>
        <time>2022-03-28T12:28:13Z</time>
      </trkpt>
      <trkpt lat="45.18591" lon="2.91578">
        <ele>1129.72</ele>
        <time>2022-03-28T12:28:18Z</time>
      </trkpt>
      <trkpt lat="45.1858" lon="2.91647">
        <ele>1130.04</ele>
        <time>2022-03-28T12:28:23Z</time>
      </trkpt>
      <trkpt lat="45.18571" lon="2.91725">
        <ele>1125.92</ele>
        <time>2022-03-28T12:28:28Z</time>
      </trkpt>
      <trkpt lat="45.18558" lon="2.91811">
        <ele>1124.92</ele>
        <time>2022-03-28T12:28:34Z</time>
      </trkpt>
      <trkpt lat="45.18538" lon="2.91887">
        <ele>1123.91</ele>
        <time>2022-03-28T12:28:39Z</time>
      </trkpt>
      <trkpt lat="45.1852" lon="2.91938">
        <ele>1123.04</ele>
        <time>2022-03-28T12:28:44Z</time>
      </trkpt>
      <trkpt lat="45.18497" lon="2.91973">
        <ele>1122.06</ele>
        <time>2022-03-28T12:28:49Z</time>
      </trkpt>
      <trkpt lat="45.18465" lon="2.92">
        <ele>1121.04</ele>
        <time>2022-03-28T12:28:54Z</time>
      </trkpt>
      <trkpt lat="45.18438" lon="2.92043">
        <ele>1118.71</ele>
        <time>2022-03-28T12:29:00Z</time>
      </trkpt>
      <trkpt lat="45.18432" lon="2.92077">
        <ele>1116.52</ele>
        <time>2022-03-28T12:29:05Z</time>
      </trkpt>
      <trkpt lat="45.18443" lon="2.92106">
        <ele>1114.36</ele>
        <time>2022-03-28T12:29:10Z</time>
      </trkpt>
      <trkpt lat="45.18462" lon="2.92111">
        <ele>1113.38</ele>
        <time>2022-03-28T12:29:15Z</time>
      </trkpt>
      <trkpt lat="45.18503" lon="2.92104">
        <ele>1113.64</ele>
        <time>2022-03-28T12:29:20Z</time>
      </trkpt>
      <trkpt lat="45.18532" lon="2.92112">
        <ele>1110.58</ele>
        <time>2022-03-28T12:29:25Z</time>
      </trkpt>
      <trkpt lat="45.18558" lon="2.92134">
        <ele>1106.46</ele>
        <time>2022-03-28T12:29:31Z</time>
      </trkpt>
      <trkpt lat="45.18565" lon="2.92177">
        <ele>1102.59</ele>
        <time>2022-03-28T12:29:36Z</time>
      </trkpt>
      <trkpt lat="45.18549" lon="2.92245">
        <ele>1097.46</ele>
        <time>2022-03-28T12:29:41Z</time>
      </trkpt>
      <trkpt lat="45.18546" lon="2.92285">
        <ele>1094.48</ele>
        <time>2022-03-28T12:29:46Z</time>
      </trkpt>
      <trkpt lat="45.18552" lon="2.92348">
        <ele>1089.1</ele>
        <time>2022-03-28T12:29:51Z</time>
      </trkpt>
      <trkpt lat="45.1856" lon="2.92395">
        <ele>1085.4</ele>
        <time>2022-03-28T12:29:56Z</time>
      </trkpt>
      <trkpt lat="45.18578" lon="2.92534">
        <ele>1080.77</ele>
        <time>2022-03-28T12:30:02Z</time>
      </trkpt>
      <trkpt lat="45.18579" lon="2.92572">
        <ele>1079.39</ele>
        <time>2022-03-28T12:30:07Z</time>
      </trkpt>
      <trkpt lat="45.1857" lon="2.92616">
        <ele>1078.4</ele>
        <time>2022-03-28T12:30:12Z</time>
      </trkpt>
      <trkpt lat="45.18556" lon="2.9267">
        <ele>1077.89</ele>
        <time>2022-03-28T12:30:17Z</time>
      </trkpt>
      <trkpt lat="45.18549" lon="2.92703">
        <ele>1076.69</ele>
        <time>2022-03-28T12:30:22Z</time>
      </trkpt>
      <trkpt lat="45.18539" lon="2.92768">
        <ele>1075.6</ele>
        <time>2022-03-28T12:30:27Z</time>
      </trkpt>
      <trkpt lat="45.18526" lon="2.92819">
        <ele>1076</ele>
        <time>2022-03-28T12:30:33Z</time>
      </trkpt>
      <trkpt lat="45.18506" lon="2.92877">
        <ele>1076</ele>
        <time>2022-03-28T12:30:38Z</time>
      </trkpt>
      <trkpt lat="45.18493" lon="2.92923">
        <ele>1074.84</ele>
        <time>2022-03-28T12:30:43Z</time>
      </trkpt>
      <trkpt lat="45.18476" lon="2.92975">
        <ele>1072.89</ele>
        <time>2022-03-28T12:30:48Z</time>
      </trkpt>
      <trkpt lat="45.1846" lon="2.93009">
        <ele>1072.11</ele>
        <time>2022-03-28T12:30:53Z</time>
      </trkpt>
      <trkpt lat="45.18436" lon="2.9305">
        <ele>1071.53</ele>
        <time>2022-03-28T12:30:58Z</time>
      </trkpt>
      <trkpt lat="45.18414" lon="2.93082">
        <ele>1071.15</ele>
        <time>2022-03-28T12:31:04Z</time>
      </trkpt>
      <trkpt lat="45.18414" lon="2.93082">
        <ele>1071.15</ele>
        <time>2022-03-28T12:31:04Z</time>
      </trkpt>
      <trkpt lat="45.18414" lon="2.93082">
        <ele>1071.15</ele>
        <time>2022-03-28T12:31:04Z</time>
      </trkpt>
      <trkpt lat="45.18425" lon="2.93077">
        <ele>1071.15</ele>
        <time>2022-03-28T12:31:06Z</time>
      </trkpt>
      <trkpt lat="45.18473" lon="2.9307">
        <ele>1070.48</ele>
        <time>2022-03-28T12:31:09Z</time>
      </trkpt>
      <trkpt lat="45.18494" lon="2.9307">
        <ele>1070.89</ele>
        <time>2022-03-28T12:31:12Z</time>
      </trkpt>
      <trkpt lat="45.18562" lon="2.93076">
        <ele>1073.26</ele>
        <time>2022-03-28T12:31:14Z</time>
      </trkpt>
      <trkpt lat="45.18617" lon="2.93068">
        <ele>1071.78</ele>
        <time>2022-03-28T12:31:17Z</time>
      </trkpt>
      <trkpt lat="45.18634" lon="2.93062">
        <ele>1071.17</ele>
        <time>2022-03-28T12:31:20Z</time>
      </trkpt>
      <trkpt lat="45.18648" lon="2.93053">
        <ele>1071.38</ele>
        <time>2022-03-28T12:31:22Z</time>
      </trkpt>
      <trkpt lat="45.18688" lon="2.93017">
        <ele>1070.96</ele>
        <time>2022-03-28T12:31:25Z</time>
      </trkpt>
      <trkpt lat="45.18702" lon="2.93007">
        <ele>1069.69</ele>
        <time>2022-03-28T12:31:28Z</time>
      </trkpt>
      <trkpt lat="45.18717" lon="2.93001">
        <ele>1068.36</ele>
        <time>2022-03-28T12:31:30Z</time>
      </trkpt>
      <trkpt lat="45.18732" lon="2.92998">
        <ele>1066.92</ele>
        <time>2022-03-28T12:31:33Z</time>
      </trkpt>
      <trkpt lat="45.18748" lon="2.92998">
        <ele>1065.21</ele>
        <time>2022-03-28T12:31:36Z</time>
      </trkpt>
      <trkpt lat="45.18906" lon="2.93036">
        <ele>1055.3</ele>
        <time>2022-03-28T12:31:38Z</time>
      </trkpt>
      <trkpt lat="45.18924" lon="2.93036">
        <ele>1053.63</ele>
        <time>2022-03-28T12:31:41Z</time>
      </trkpt>
      <trkpt lat="45.18961" lon="2.93031">
        <ele>1050.01</ele>
        <time>2022-03-28T12:31:44Z</time>
      </trkpt>
      <trkpt lat="45.18976" lon="2.93032">
        <ele>1048.57</ele>
        <time>2022-03-28T12:31:46Z</time>
      </trkpt>
      <trkpt lat="45.18991" lon="2.93038">
        <ele>1046.86</ele>
        <time>2022-03-28T12:31:49Z</time>
      </trkpt>
      <trkpt lat="45.19015" lon="2.93062">
        <ele>1045.89</ele>
        <time>2022-03-28T12:31:52Z</time>
      </trkpt>
      <trkpt lat="45.19023" lon="2.93065">
        <ele>1045.22</ele>
        <time>2022-03-28T12:31:54Z</time>
      </trkpt>
      <trkpt lat="45.19032" lon="2.93064">
        <ele>1044.09</ele>
        <time>2022-03-28T12:31:57Z</time>
      </trkpt>
      <trkpt lat="45.19036" lon="2.93057">
        <ele>1042.91</ele>
        <time>2022-03-28T12:32:00Z</time>
      </trkpt>
      <trkpt lat="45.19052" lon="2.93008">
        <ele>1039.29</ele>
        <time>2022-03-28T12:32:02Z</time>
      </trkpt>
      <trkpt lat="45.19059" lon="2.92995">
        <ele>1039.04</ele>
        <time>2022-03-28T12:32:05Z</time>
      </trkpt>
      <trkpt lat="45.19066" lon="2.9299">
        <ele>1038.96</ele>
        <time>2022-03-28T12:32:08Z</time>
      </trkpt>
      <trkpt lat="45.19076" lon="2.92989">
        <ele>1038.64</ele>
        <time>2022-03-28T12:32:10Z</time>
      </trkpt>
      <trkpt lat="45.19131" lon="2.92996">
        <ele>1038.71</ele>
        <time>2022-03-28T12:32:13Z</time>
      </trkpt>
      <trkpt lat="45.1914" lon="2.93004">
        <ele>1039.17</ele>
        <time>2022-03-28T12:32:16Z</time>
      </trkpt>
      <trkpt lat="45.19144" lon="2.93013">
        <ele>1039.59</ele>
        <time>2022-03-28T12:32:18Z</time>
      </trkpt>
      <trkpt lat="45.19148" lon="2.93047">
        <ele>1039.23</ele>
        <time>2022-03-28T12:32:21Z</time>
      </trkpt>
      <trkpt lat="45.19152" lon="2.93072">
        <ele>1039.06</ele>
        <time>2022-03-28T12:32:24Z</time>
      </trkpt>
      <trkpt lat="45.19159" lon="2.931">
        <ele>1038.88</ele>
        <time>2022-03-28T12:32:26Z</time>
      </trkpt>
      <trkpt lat="45.19167" lon="2.93121">
        <ele>1037.96</ele>
        <time>2022-03-28T12:32:29Z</time>
      </trkpt>
      <trkpt lat="45.19203" lon="2.93185">
        <ele>1033.83</ele>
        <time>2022-03-28T12:32:32Z</time>
      </trkpt>
      <trkpt lat="45.19211" lon="2.93203">
        <ele>1032.59</ele>
        <time>2022-03-28T12:32:34Z</time>
      </trkpt>
      <trkpt lat="45.19234" lon="2.93275">
        <ele>1029.52</ele>
        <time>2022-03-28T12:32:37Z</time>
      </trkpt>
      <trkpt lat="45.19242" lon="2.9329">
        <ele>1029.24</ele>
        <time>2022-03-28T12:32:40Z</time>
      </trkpt>
      <trkpt lat="45.19255" lon="2.93306">
        <ele>1029.68</ele>
        <time>2022-03-28T12:32:42Z</time>
      </trkpt>
      <trkpt lat="45.1927" lon="2.93316">
        <ele>1030.61</ele>
        <time>2022-03-28T12:32:45Z</time>
      </trkpt>
      <trkpt lat="45.1932" lon="2.93335">
        <ele>1028.66</ele>
        <time>2022-03-28T12:32:48Z</time>
      </trkpt>
      <trkpt lat="45.19389" lon="2.93369">
        <ele>1026.55</ele>
        <time>2022-03-28T12:32:50Z</time>
      </trkpt>
      <trkpt lat="45.19404" lon="2.93381">
        <ele>1025.34</ele>
        <time>2022-03-28T12:32:53Z</time>
      </trkpt>
      <trkpt lat="45.19454" lon="2.93432">
        <ele>1020.61</ele>
        <time>2022-03-28T12:32:56Z</time>
      </trkpt>
      <trkpt lat="45.19464" lon="2.9345">
        <ele>1020.15</ele>
        <time>2022-03-28T12:32:58Z</time>
      </trkpt>
      <trkpt lat="45.19497" lon="2.93492">
        <ele>1020.22</ele>
        <time>2022-03-28T12:33:01Z</time>
      </trkpt>
      <trkpt lat="45.19539" lon="2.93524">
        <ele>1015.31</ele>
        <time>2022-03-28T12:33:04Z</time>
      </trkpt>
      <trkpt lat="45.1958" lon="2.93537">
        <ele>1016.81</ele>
        <time>2022-03-28T12:33:06Z</time>
      </trkpt>
      <trkpt lat="45.19619" lon="2.93564">
        <ele>1008.24</ele>
        <time>2022-03-28T12:33:09Z</time>
      </trkpt>
      <trkpt lat="45.19642" lon="2.93569">
        <ele>1005.77</ele>
        <time>2022-03-28T12:33:12Z</time>
      </trkpt>
      <trkpt lat="45.19662" lon="2.93563">
        <ele>1006.15</ele>
        <time>2022-03-28T12:33:14Z</time>
      </trkpt>
      <trkpt lat="45.19706" lon="2.93537">
        <ele>1009.06</ele>
        <time>2022-03-28T12:33:17Z</time>
      </trkpt>
      <trkpt lat="45.19784" lon="2.93481">
        <ele>1013.65</ele>
        <time>2022-03-28T12:33:20Z</time>
      </trkpt>
      <trkpt lat="45.19902" lon="2.93415">
        <ele>1006.87</ele>
        <time>2022-03-28T12:33:22Z</time>
      </trkpt>
      <trkpt lat="45.19978" lon="2.93386">
        <ele>994.69</ele>
        <time>2022-03-28T12:33:25Z</time>
      </trkpt>
      <trkpt lat="45.20028" lon="2.93373">
        <ele>991.4</ele>
        <time>2022-03-28T12:33:28Z</time>
      </trkpt>
      <trkpt lat="45.2005" lon="2.93372">
        <ele>989.52</ele>
        <time>2022-03-28T12:33:30Z</time>
      </trkpt>
      <trkpt lat="45.20064" lon="2.93377">
        <ele>985.76</ele>
        <time>2022-03-28T12:33:33Z</time>
      </trkpt>
      <trkpt lat="45.20194" lon="2.93355">
        <ele>981.64</ele>
        <time>2022-03-28T12:33:36Z</time>
      </trkpt>
      <trkpt lat="45.20295" lon="2.93353">
        <ele>974.1</ele>
        <time>2022-03-28T12:33:38Z</time>
      </trkpt>
      <trkpt lat="45.20333" lon="2.93345">
        <ele>972.87</ele>
        <time>2022-03-28T12:33:41Z</time>
      </trkpt>
      <trkpt lat="45.20373" lon="2.93331">
        <ele>966.37</ele>
        <time>2022-03-28T12:33:44Z</time>
      </trkpt>
      <trkpt lat="45.20435" lon="2.93306">
        <ele>960.99</ele>
        <time>2022-03-28T12:33:46Z</time>
      </trkpt>
      <trkpt lat="45.20457" lon="2.93293">
        <ele>958.99</ele>
        <time>2022-03-28T12:33:49Z</time>
      </trkpt>
      <trkpt lat="45.20479" lon="2.93278">
        <ele>956.88</ele>
        <time>2022-03-28T12:33:52Z</time>
      </trkpt>
      <trkpt lat="45.20487" lon="2.93274">
        <ele>955.85</ele>
        <time>2022-03-28T12:33:54Z</time>
      </trkpt>
      <trkpt lat="45.20496" lon="2.93275">
        <ele>954.07</ele>
        <time>2022-03-28T12:33:57Z</time>
      </trkpt>
      <trkpt lat="45.20502" lon="2.93277">
        <ele>952.93</ele>
        <time>2022-03-28T12:34:00Z</time>
      </trkpt>
      <trkpt lat="45.20508" lon="2.93284">
        <ele>952.09</ele>
        <time>2022-03-28T12:34:02Z</time>
      </trkpt>
      <trkpt lat="45.20521" lon="2.93301">
        <ele>951.08</ele>
        <time>2022-03-28T12:34:05Z</time>
      </trkpt>
      <trkpt lat="45.20531" lon="2.93308">
        <ele>951</ele>
        <time>2022-03-28T12:34:08Z</time>
      </trkpt>
      <trkpt lat="45.20544" lon="2.93314">
        <ele>951.12</ele>
        <time>2022-03-28T12:34:10Z</time>
      </trkpt>
      <trkpt lat="45.2063" lon="2.93333">
        <ele>949.08</ele>
        <time>2022-03-28T12:34:13Z</time>
      </trkpt>
      <trkpt lat="45.20706" lon="2.93344">
        <ele>951.83</ele>
        <time>2022-03-28T12:34:16Z</time>
      </trkpt>
      <trkpt lat="45.20739" lon="2.93355">
        <ele>954.5</ele>
        <time>2022-03-28T12:34:18Z</time>
      </trkpt>
      <trkpt lat="45.20794" lon="2.93379">
        <ele>962.44</ele>
        <time>2022-03-28T12:34:21Z</time>
      </trkpt>
      <trkpt lat="45.20812" lon="2.9339">
        <ele>963.08</ele>
        <time>2022-03-28T12:34:24Z</time>
      </trkpt>
      <trkpt lat="45.20869" lon="2.93436">
        <ele>955.35</ele>
        <time>2022-03-28T12:34:26Z</time>
      </trkpt>
      <trkpt lat="45.20898" lon="2.93455">
        <ele>954.1</ele>
        <time>2022-03-28T12:34:29Z</time>
      </trkpt>
      <trkpt lat="45.2093" lon="2.93473">
        <ele>955.4</ele>
        <time>2022-03-28T12:34:32Z</time>
      </trkpt>
      <trkpt lat="45.20979" lon="2.93492">
        <ele>956.56</ele>
        <time>2022-03-28T12:34:34Z</time>
      </trkpt>
      <trkpt lat="45.21021" lon="2.93501">
        <ele>955.13</ele>
        <time>2022-03-28T12:34:37Z</time>
      </trkpt>
      <trkpt lat="45.21047" lon="2.935">
        <ele>953.65</ele>
        <time>2022-03-28T12:34:40Z</time>
      </trkpt>
      <trkpt lat="45.21078" lon="2.93491">
        <ele>954.72</ele>
        <time>2022-03-28T12:34:42Z</time>
      </trkpt>
      <trkpt lat="45.21104" lon="2.93475">
        <ele>956.18</ele>
        <time>2022-03-28T12:34:45Z</time>
      </trkpt>
      <trkpt lat="45.21113" lon="2.93473">
        <ele>955.68</ele>
        <time>2022-03-28T12:34:48Z</time>
      </trkpt>
      <trkpt lat="45.21123" lon="2.93477">
        <ele>954.06</ele>
        <time>2022-03-28T12:34:50Z</time>
      </trkpt>
      <trkpt lat="45.21132" lon="2.93512">
        <ele>950.14</ele>
        <time>2022-03-28T12:34:53Z</time>
      </trkpt>
      <trkpt lat="45.21175" lon="2.93574">
        <ele>950.96</ele>
        <time>2022-03-28T12:34:56Z</time>
      </trkpt>
      <trkpt lat="45.21186" lon="2.93587">
        <ele>951.95</ele>
        <time>2022-03-28T12:34:58Z</time>
      </trkpt>
      <trkpt lat="45.21203" lon="2.93597">
        <ele>953.72</ele>
        <time>2022-03-28T12:35:01Z</time>
      </trkpt>
      <trkpt lat="45.21239" lon="2.93612">
        <ele>958.33</ele>
        <time>2022-03-28T12:35:04Z</time>
      </trkpt>
      <trkpt lat="45.21252" lon="2.93621">
        <ele>960.26</ele>
        <time>2022-03-28T12:35:06Z</time>
      </trkpt>
      <trkpt lat="45.21252" lon="2.93624">
        <ele>960.71</ele>
        <time>2022-03-28T12:35:09Z</time>
      </trkpt>
      <trkpt lat="45.21279" lon="2.9363">
        <ele>959.94</ele>
        <time>2022-03-28T12:35:13Z</time>
      </trkpt>
      <trkpt lat="45.21343" lon="2.9365">
        <ele>956.81</ele>
        <time>2022-03-28T12:35:16Z</time>
      </trkpt>
      <trkpt lat="45.21386" lon="2.9366">
        <ele>958.45</ele>
        <time>2022-03-28T12:35:20Z</time>
      </trkpt>
      <trkpt lat="45.21509" lon="2.93671">
        <ele>960.72</ele>
        <time>2022-03-28T12:35:23Z</time>
      </trkpt>
      <trkpt lat="45.21534" lon="2.93677">
        <ele>961.59</ele>
        <time>2022-03-28T12:35:27Z</time>
      </trkpt>
      <trkpt lat="45.21569" lon="2.93693">
        <ele>961.44</ele>
        <time>2022-03-28T12:35:30Z</time>
      </trkpt>
      <trkpt lat="45.21589" lon="2.93713">
        <ele>961.47</ele>
        <time>2022-03-28T12:35:34Z</time>
      </trkpt>
      <trkpt lat="45.21612" lon="2.93728">
        <ele>962.31</ele>
        <time>2022-03-28T12:35:37Z</time>
      </trkpt>
      <trkpt lat="45.2165" lon="2.93743">
        <ele>962.76</ele>
        <time>2022-03-28T12:35:41Z</time>
      </trkpt>
      <trkpt lat="45.21739" lon="2.93769">
        <ele>959.26</ele>
        <time>2022-03-28T12:35:44Z</time>
      </trkpt>
      <trkpt lat="45.21914" lon="2.93825">
        <ele>958.72</ele>
        <time>2022-03-28T12:35:48Z</time>
      </trkpt>
      <trkpt lat="45.2193" lon="2.93829">
        <ele>959.25</ele>
        <time>2022-03-28T12:35:51Z</time>
      </trkpt>
      <trkpt lat="45.21942" lon="2.93833">
        <ele>959.86</ele>
        <time>2022-03-28T12:35:55Z</time>
      </trkpt>
      <trkpt lat="45.21965" lon="2.93834">
        <ele>960.05</ele>
        <time>2022-03-28T12:35:58Z</time>
      </trkpt>
      <trkpt lat="45.22025" lon="2.93829">
        <ele>961.65</ele>
        <time>2022-03-28T12:36:02Z</time>
      </trkpt>
      <trkpt lat="45.22142" lon="2.93847">
        <ele>965.01</ele>
        <time>2022-03-28T12:36:06Z</time>
      </trkpt>
      <trkpt lat="45.22163" lon="2.93846">
        <ele>965.38</ele>
        <time>2022-03-28T12:36:09Z</time>
      </trkpt>
      <trkpt lat="45.22326" lon="2.93767">
        <ele>966.62</ele>
        <time>2022-03-28T12:36:13Z</time>
      </trkpt>
      <trkpt lat="45.22442" lon="2.93752">
        <ele>970.99</ele>
        <time>2022-03-28T12:36:16Z</time>
      </trkpt>
      <trkpt lat="45.2247" lon="2.93736">
        <ele>970.92</ele>
        <time>2022-03-28T12:36:20Z</time>
      </trkpt>
      <trkpt lat="45.22499" lon="2.93711">
        <ele>971.52</ele>
        <time>2022-03-28T12:36:23Z</time>
      </trkpt>
      <trkpt lat="45.22543" lon="2.93665">
        <ele>971.99</ele>
        <time>2022-03-28T12:36:27Z</time>
      </trkpt>
      <trkpt lat="45.22572" lon="2.93644">
        <ele>973.14</ele>
        <time>2022-03-28T12:36:30Z</time>
      </trkpt>
      <trkpt lat="45.22595" lon="2.93633">
        <ele>973.79</ele>
        <time>2022-03-28T12:36:34Z</time>
      </trkpt>
      <trkpt lat="45.22626" lon="2.93625">
        <ele>973.73</ele>
        <time>2022-03-28T12:36:37Z</time>
      </trkpt>
      <trkpt lat="45.22663" lon="2.93619">
        <ele>973.75</ele>
        <time>2022-03-28T12:36:41Z</time>
      </trkpt>
      <trkpt lat="45.22672" lon="2.93615">
        <ele>973.6</ele>
        <time>2022-03-28T12:36:44Z</time>
      </trkpt>
      <trkpt lat="45.22693" lon="2.93589">
        <ele>971.59</ele>
        <time>2022-03-28T12:36:48Z</time>
      </trkpt>
      <trkpt lat="45.22715" lon="2.93556">
        <ele>971.74</ele>
        <time>2022-03-28T12:36:51Z</time>
      </trkpt>
      <trkpt lat="45.22719" lon="2.93544">
        <ele>972.24</ele>
        <time>2022-03-28T12:36:55Z</time>
      </trkpt>
      <trkpt lat="45.22723" lon="2.93486">
        <ele>973.06</ele>
        <time>2022-03-28T12:36:59Z</time>
      </trkpt>
      <trkpt lat="45.22727" lon="2.93476">
        <ele>973.31</ele>
        <time>2022-03-28T12:37:02Z</time>
      </trkpt>
      <trkpt lat="45.22732" lon="2.93468">
        <ele>973.69</ele>
        <time>2022-03-28T12:37:06Z</time>
      </trkpt>
      <trkpt lat="45.22744" lon="2.93458">
        <ele>974.57</ele>
        <time>2022-03-28T12:37:09Z</time>
      </trkpt>
      <trkpt lat="45.22758" lon="2.93451">
        <ele>976.08</ele>
        <time>2022-03-28T12:37:13Z</time>
      </trkpt>
      <trkpt lat="45.22766" lon="2.93451">
        <ele>977.23</ele>
        <time>2022-03-28T12:37:16Z</time>
      </trkpt>
      <trkpt lat="45.22778" lon="2.93447">
        <ele>978.96</ele>
        <time>2022-03-28T12:37:20Z</time>
      </trkpt>
      <trkpt lat="45.22792" lon="2.93458">
        <ele>980.27</ele>
        <time>2022-03-28T12:37:23Z</time>
      </trkpt>
      <trkpt lat="45.22806" lon="2.93469">
        <ele>981.13</ele>
        <time>2022-03-28T12:37:27Z</time>
      </trkpt>
      <trkpt lat="45.22832" lon="2.93495">
        <ele>978.55</ele>
        <time>2022-03-28T12:37:30Z</time>
      </trkpt>
      <trkpt lat="45.23013" lon="2.93473">
        <ele>985</ele>
        <time>2022-03-28T12:37:34Z</time>
      </trkpt>
      <trkpt lat="45.23044" lon="2.93465">
        <ele>985.68</ele>
        <time>2022-03-28T12:37:37Z</time>
      </trkpt>
      <trkpt lat="45.23126" lon="2.93454">
        <ele>986.75</ele>
        <time>2022-03-28T12:37:41Z</time>
      </trkpt>
      <trkpt lat="45.23126" lon="2.93454">
        <ele>987.35</ele>
        <time>2022-03-28T12:37:41Z</time>
      </trkpt>
      <trkpt lat="45.23126" lon="2.93454">
        <ele>987.35</ele>
        <time>2022-03-28T12:37:41Z</time>
      </trkpt>
      <trkpt lat="45.23127" lon="2.93469">
        <ele>987.94</ele>
        <time>2022-03-28T12:37:44Z</time>
      </trkpt>
      <trkpt lat="45.2313" lon="2.93481">
        <ele>988.96</ele>
        <time>2022-03-28T12:37:48Z</time>
      </trkpt>
      <trkpt lat="45.23167" lon="2.9353">
        <ele>992.14</ele>
        <time>2022-03-28T12:37:51Z</time>
      </trkpt>
      <trkpt lat="45.23212" lon="2.93628">
        <ele>997.75</ele>
        <time>2022-03-28T12:37:55Z</time>
      </trkpt>
      <trkpt lat="45.23229" lon="2.93655">
        <ele>998.93</ele>
        <time>2022-03-28T12:37:58Z</time>
      </trkpt>
      <trkpt lat="45.23284" lon="2.93726">
        <ele>1004.18</ele>
        <time>2022-03-28T12:38:01Z</time>
      </trkpt>
      <trkpt lat="45.23303" lon="2.93745">
        <ele>1006.23</ele>
        <time>2022-03-28T12:38:05Z</time>
      </trkpt>
      <trkpt lat="45.23324" lon="2.93762">
        <ele>1008.28</ele>
        <time>2022-03-28T12:38:08Z</time>
      </trkpt>
      <trkpt lat="45.23358" lon="2.93784">
        <ele>1011.58</ele>
        <time>2022-03-28T12:38:11Z</time>
      </trkpt>
      <trkpt lat="45.23367" lon="2.93792">
        <ele>1012.57</ele>
        <time>2022-03-28T12:38:15Z</time>
      </trkpt>
      <trkpt lat="45.23384" lon="2.93812">
        <ele>1014.47</ele>
        <time>2022-03-28T12:38:18Z</time>
      </trkpt>
      <trkpt lat="45.23462" lon="2.93946">
        <ele>1023.14</ele>
        <time>2022-03-28T12:38:22Z</time>
      </trkpt>
      <trkpt lat="45.2353" lon="2.94026">
        <ele>1028.77</ele>
        <time>2022-03-28T12:38:25Z</time>
      </trkpt>
      <trkpt lat="45.23536" lon="2.94036">
        <ele>1029.2</ele>
        <time>2022-03-28T12:38:28Z</time>
      </trkpt>
      <trkpt lat="45.23542" lon="2.94051">
        <ele>1029.73</ele>
        <time>2022-03-28T12:38:32Z</time>
      </trkpt>
      <trkpt lat="45.23545" lon="2.94071">
        <ele>1030.5</ele>
        <time>2022-03-28T12:38:35Z</time>
      </trkpt>
      <trkpt lat="45.23557" lon="2.9423">
        <ele>1041.59</ele>
        <time>2022-03-28T12:38:38Z</time>
      </trkpt>
      <trkpt lat="45.23556" lon="2.94331">
        <ele>1046.9</ele>
        <time>2022-03-28T12:38:42Z</time>
      </trkpt>
      <trkpt lat="45.23558" lon="2.9436">
        <ele>1048.8</ele>
        <time>2022-03-28T12:38:45Z</time>
      </trkpt>
      <trkpt lat="45.23562" lon="2.9439">
        <ele>1050.7</ele>
        <time>2022-03-28T12:38:49Z</time>
      </trkpt>
      <trkpt lat="45.23593" lon="2.94568">
        <ele>1059.2</ele>
        <time>2022-03-28T12:38:52Z</time>
      </trkpt>
      <trkpt lat="45.23685" lon="2.94885">
        <ele>1076.55</ele>
        <time>2022-03-28T12:38:55Z</time>
      </trkpt>
      <trkpt lat="45.23702" lon="2.94932">
        <ele>1079.1</ele>
        <time>2022-03-28T12:38:59Z</time>
      </trkpt>
      <trkpt lat="45.23714" lon="2.94952">
        <ele>1079.81</ele>
        <time>2022-03-28T12:39:02Z</time>
      </trkpt>
      <trkpt lat="45.23734" lon="2.94971">
        <ele>1080.94</ele>
        <time>2022-03-28T12:39:05Z</time>
      </trkpt>
      <trkpt lat="45.23851" lon="2.95074">
        <ele>1090.61</ele>
        <time>2022-03-28T12:39:09Z</time>
      </trkpt>
      <trkpt lat="45.23873" lon="2.95089">
        <ele>1091.15</ele>
        <time>2022-03-28T12:39:12Z</time>
      </trkpt>
      <trkpt lat="45.23889" lon="2.95092">
        <ele>1091.3</ele>
        <time>2022-03-28T12:39:16Z</time>
      </trkpt>
      <trkpt lat="45.23911" lon="2.95092">
        <ele>1093.69</ele>
        <time>2022-03-28T12:39:19Z</time>
      </trkpt>
      <trkpt lat="45.23947" lon="2.95088">
        <ele>1096.87</ele>
        <time>2022-03-28T12:39:22Z</time>
      </trkpt>
      <trkpt lat="45.2397" lon="2.95083">
        <ele>1098.62</ele>
        <time>2022-03-28T12:39:26Z</time>
      </trkpt>
      <trkpt lat="45.24068" lon="2.95043">
        <ele>1105.73</ele>
        <time>2022-03-28T12:39:29Z</time>
      </trkpt>
      <trkpt lat="45.24112" lon="2.95023">
        <ele>1106.58</ele>
        <time>2022-03-28T12:39:32Z</time>
      </trkpt>
      <trkpt lat="45.24141" lon="2.95019">
        <ele>1108</ele>
        <time>2022-03-28T12:39:36Z</time>
      </trkpt>
      <trkpt lat="45.24156" lon="2.95021">
        <ele>1109.81</ele>
        <time>2022-03-28T12:39:39Z</time>
      </trkpt>
      <trkpt lat="45.2419" lon="2.95031">
        <ele>1114.09</ele>
        <time>2022-03-28T12:39:43Z</time>
      </trkpt>
      <trkpt lat="45.24201" lon="2.95038">
        <ele>1115</ele>
        <time>2022-03-28T12:39:46Z</time>
      </trkpt>
      <trkpt lat="45.24218" lon="2.95056">
        <ele>1116.39</ele>
        <time>2022-03-28T12:39:49Z</time>
      </trkpt>
      <trkpt lat="45.24244" lon="2.95092">
        <ele>1117.97</ele>
        <time>2022-03-28T12:39:53Z</time>
      </trkpt>
      <trkpt lat="45.2427" lon="2.95123">
        <ele>1120.82</ele>
        <time>2022-03-28T12:39:56Z</time>
      </trkpt>
      <trkpt lat="45.24292" lon="2.95147">
        <ele>1124.05</ele>
        <time>2022-03-28T12:39:59Z</time>
      </trkpt>
      <trkpt lat="45.24505" lon="2.95357">
        <ele>1141.82</ele>
        <time>2022-03-28T12:40:03Z</time>
      </trkpt>
      <trkpt lat="45.24571" lon="2.95431">
        <ele>1148.63</ele>
        <time>2022-03-28T12:40:06Z</time>
      </trkpt>
      <trkpt lat="45.24588" lon="2.95455">
        <ele>1150.41</ele>
        <time>2022-03-28T12:40:10Z</time>
      </trkpt>
      <trkpt lat="45.24603" lon="2.95493">
        <ele>1153.43</ele>
        <time>2022-03-28T12:40:13Z</time>
      </trkpt>
      <trkpt lat="45.24636" lon="2.95545">
        <ele>1154.69</ele>
        <time>2022-03-28T12:40:16Z</time>
      </trkpt>
      <trkpt lat="45.24648" lon="2.95575">
        <ele>1154.95</ele>
        <time>2022-03-28T12:40:20Z</time>
      </trkpt>
      <trkpt lat="45.2466" lon="2.95626">
        <ele>1153.74</ele>
        <time>2022-03-28T12:40:23Z</time>
      </trkpt>
      <trkpt lat="45.24668" lon="2.95675">
        <ele>1153.12</ele>
        <time>2022-03-28T12:40:26Z</time>
      </trkpt>
      <trkpt lat="45.24677" lon="2.95775">
        <ele>1161.7</ele>
        <time>2022-03-28T12:40:30Z</time>
      </trkpt>
      <trkpt lat="45.24675" lon="2.95844">
        <ele>1165.04</ele>
        <time>2022-03-28T12:40:33Z</time>
      </trkpt>
      <trkpt lat="45.24668" lon="2.95916">
        <ele>1168.65</ele>
        <time>2022-03-28T12:40:37Z</time>
      </trkpt>
      <trkpt lat="45.24666" lon="2.95956">
        <ele>1169.99</ele>
        <time>2022-03-28T12:40:40Z</time>
      </trkpt>
      <trkpt lat="45.24668" lon="2.96059">
        <ele>1169.9</ele>
        <time>2022-03-28T12:40:43Z</time>
      </trkpt>
      <trkpt lat="45.24671" lon="2.9611">
        <ele>1171.35</ele>
        <time>2022-03-28T12:40:47Z</time>
      </trkpt>
      <trkpt lat="45.2468" lon="2.9616">
        <ele>1174.12</ele>
        <time>2022-03-28T12:40:50Z</time>
      </trkpt>
      <trkpt lat="45.24698" lon="2.96241">
        <ele>1177.94</ele>
        <time>2022-03-28T12:40:53Z</time>
      </trkpt>
      <trkpt lat="45.24709" lon="2.96308">
        <ele>1181.05</ele>
        <time>2022-03-28T12:40:57Z</time>
      </trkpt>
      <trkpt lat="45.24714" lon="2.96369">
        <ele>1183.61</ele>
        <time>2022-03-28T12:41:00Z</time>
      </trkpt>
      <trkpt lat="45.2472" lon="2.96472">
        <ele>1185.19</ele>
        <time>2022-03-28T12:41:04Z</time>
      </trkpt>
      <trkpt lat="45.24742" lon="2.9684">
        <ele>1190.41</ele>
        <time>2022-03-28T12:41:07Z</time>
      </trkpt>
      <trkpt lat="45.24787" lon="2.97126">
        <ele>1195.86</ele>
        <time>2022-03-28T12:41:10Z</time>
      </trkpt>
      <trkpt lat="45.24791" lon="2.97155">
        <ele>1196.32</ele>
        <time>2022-03-28T12:41:14Z</time>
      </trkpt>
      <trkpt lat="45.24791" lon="2.97183">
        <ele>1196.27</ele>
        <time>2022-03-28T12:41:17Z</time>
      </trkpt>
      <trkpt lat="45.24791" lon="2.97183">
        <ele>1195.92</ele>
        <time>2022-03-28T12:41:17Z</time>
      </trkpt>
      <trkpt lat="45.24791" lon="2.97183">
        <ele>1195.92</ele>
        <time>2022-03-28T12:41:17Z</time>
      </trkpt>
      <trkpt lat="45.24801" lon="2.97187">
        <ele>1195.58</ele>
        <time>2022-03-28T12:41:20Z</time>
      </trkpt>
      <trkpt lat="45.2482" lon="2.97205">
        <ele>1194.85</ele>
        <time>2022-03-28T12:41:24Z</time>
      </trkpt>
      <trkpt lat="45.24858" lon="2.97224">
        <ele>1196.94</ele>
        <time>2022-03-28T12:41:27Z</time>
      </trkpt>
      <trkpt lat="45.25031" lon="2.97289">
        <ele>1206.7</ele>
        <time>2022-03-28T12:41:30Z</time>
      </trkpt>
      <trkpt lat="45.25043" lon="2.97291">
        <ele>1207.78</ele>
        <time>2022-03-28T12:41:34Z</time>
      </trkpt>
      <trkpt lat="45.25064" lon="2.97286">
        <ele>1208.82</ele>
        <time>2022-03-28T12:41:37Z</time>
      </trkpt>
      <trkpt lat="45.25159" lon="2.97236">
        <ele>1212.47</ele>
        <time>2022-03-28T12:41:40Z</time>
      </trkpt>
      <trkpt lat="45.25188" lon="2.97228">
        <ele>1214.88</ele>
        <time>2022-03-28T12:41:44Z</time>
      </trkpt>
      <trkpt lat="45.25222" lon="2.97229">
        <ele>1217.24</ele>
        <time>2022-03-28T12:41:47Z</time>
      </trkpt>
      <trkpt lat="45.2528" lon="2.9724">
        <ele>1221.28</ele>
        <time>2022-03-28T12:41:50Z</time>
      </trkpt>
      <trkpt lat="45.25332" lon="2.97256">
        <ele>1230.27</ele>
        <time>2022-03-28T12:41:53Z</time>
      </trkpt>
      <trkpt lat="45.25353" lon="2.97269">
        <ele>1233.48</ele>
        <time>2022-03-28T12:41:57Z</time>
      </trkpt>
      <trkpt lat="45.25421" lon="2.9734">
        <ele>1235.07</ele>
        <time>2022-03-28T12:42:00Z</time>
      </trkpt>
      <trkpt lat="45.25558" lon="2.97489">
        <ele>1229.19</ele>
        <time>2022-03-28T12:42:03Z</time>
      </trkpt>
      <trkpt lat="45.2557" lon="2.97498">
        <ele>1227.47</ele>
        <time>2022-03-28T12:42:07Z</time>
      </trkpt>
      <trkpt lat="45.25592" lon="2.97509">
        <ele>1223.83</ele>
        <time>2022-03-28T12:42:10Z</time>
      </trkpt>
      <trkpt lat="45.25639" lon="2.9752">
        <ele>1217.81</ele>
        <time>2022-03-28T12:42:13Z</time>
      </trkpt>
      <trkpt lat="45.25658" lon="2.97518">
        <ele>1218.24</ele>
        <time>2022-03-28T12:42:17Z</time>
      </trkpt>
      <trkpt lat="45.25676" lon="2.97508">
        <ele>1219.06</ele>
        <time>2022-03-28T12:42:20Z</time>
      </trkpt>
      <trkpt lat="45.25703" lon="2.97485">
        <ele>1218.02</ele>
        <time>2022-03-28T12:42:23Z</time>
      </trkpt>
      <trkpt lat="45.25737" lon="2.97451">
        <ele>1212.83</ele>
        <time>2022-03-28T12:42:26Z</time>
      </trkpt>
      <trkpt lat="45.25786" lon="2.97398">
        <ele>1214.97</ele>
        <time>2022-03-28T12:42:30Z</time>
      </trkpt>
      <trkpt lat="45.2585" lon="2.97347">
        <ele>1209.28</ele>
        <time>2022-03-28T12:42:33Z</time>
      </trkpt>
      <trkpt lat="45.25899" lon="2.97287">
        <ele>1204.83</ele>
        <time>2022-03-28T12:42:36Z</time>
      </trkpt>
      <trkpt lat="45.25911" lon="2.9727">
        <ele>1203.29</ele>
        <time>2022-03-28T12:42:40Z</time>
      </trkpt>
      <trkpt lat="45.25962" lon="2.97181">
        <ele>1200.97</ele>
        <time>2022-03-28T12:42:43Z</time>
      </trkpt>
      <trkpt lat="45.25978" lon="2.97159">
        <ele>1199.85</ele>
        <time>2022-03-28T12:42:46Z</time>
      </trkpt>
      <trkpt lat="45.25998" lon="2.9714">
        <ele>1199.16</ele>
        <time>2022-03-28T12:42:49Z</time>
      </trkpt>
      <trkpt lat="45.2602" lon="2.97127">
        <ele>1198.25</ele>
        <time>2022-03-28T12:42:53Z</time>
      </trkpt>
      <trkpt lat="45.26063" lon="2.97107">
        <ele>1192.05</ele>
        <time>2022-03-28T12:42:56Z</time>
      </trkpt>
      <trkpt lat="45.26077" lon="2.97103">
        <ele>1189.9</ele>
        <time>2022-03-28T12:42:59Z</time>
      </trkpt>
      <trkpt lat="45.26087" lon="2.97103">
        <ele>1188.68</ele>
        <time>2022-03-28T12:43:03Z</time>
      </trkpt>
      <trkpt lat="45.26105" lon="2.9711">
        <ele>1187.27</ele>
        <time>2022-03-28T12:43:06Z</time>
      </trkpt>
      <trkpt lat="45.26122" lon="2.97124">
        <ele>1186.28</ele>
        <time>2022-03-28T12:43:09Z</time>
      </trkpt>
      <trkpt lat="45.26137" lon="2.97139">
        <ele>1185.92</ele>
        <time>2022-03-28T12:43:13Z</time>
      </trkpt>
      <trkpt lat="45.26145" lon="2.97151">
        <ele>1184.92</ele>
        <time>2022-03-28T12:43:16Z</time>
      </trkpt>
      <trkpt lat="45.26145" lon="2.97151">
        <ele>1184.92</ele>
        <time>2022-03-28T12:43:16Z</time>
      </trkpt>
      <trkpt lat="45.26149" lon="2.97163">
        <ele>1184.6</ele>
        <time>2022-03-28T12:43:18Z</time>
      </trkpt>
      <trkpt lat="45.26163" lon="2.97248">
        <ele>1178.92</ele>
        <time>2022-03-28T12:43:21Z</time>
      </trkpt>
      <trkpt lat="45.26168" lon="2.97263">
        <ele>1178.69</ele>
        <time>2022-03-28T12:43:23Z</time>
      </trkpt>
      <trkpt lat="45.26188" lon="2.9731">
        <ele>1180.07</ele>
        <time>2022-03-28T12:43:25Z</time>
      </trkpt>
      <trkpt lat="45.26192" lon="2.97325">
        <ele>1179.36</ele>
        <time>2022-03-28T12:43:28Z</time>
      </trkpt>
      <trkpt lat="45.26194" lon="2.97362">
        <ele>1174.89</ele>
        <time>2022-03-28T12:43:30Z</time>
      </trkpt>
      <trkpt lat="45.2619" lon="2.97421">
        <ele>1172.28</ele>
        <time>2022-03-28T12:43:32Z</time>
      </trkpt>
      <trkpt lat="45.26197" lon="2.97511">
        <ele>1168.49</ele>
        <time>2022-03-28T12:43:35Z</time>
      </trkpt>
      <trkpt lat="45.262" lon="2.97526">
        <ele>1167.71</ele>
        <time>2022-03-28T12:43:37Z</time>
      </trkpt>
      <trkpt lat="45.26204" lon="2.97539">
        <ele>1166.95</ele>
        <time>2022-03-28T12:43:40Z</time>
      </trkpt>
      <trkpt lat="45.26209" lon="2.97549">
        <ele>1166.82</ele>
        <time>2022-03-28T12:43:42Z</time>
      </trkpt>
      <trkpt lat="45.26228" lon="2.97568">
        <ele>1168.02</ele>
        <time>2022-03-28T12:43:44Z</time>
      </trkpt>
      <trkpt lat="45.26256" lon="2.97587">
        <ele>1169.73</ele>
        <time>2022-03-28T12:43:47Z</time>
      </trkpt>
      <trkpt lat="45.26285" lon="2.97599">
        <ele>1170.78</ele>
        <time>2022-03-28T12:43:49Z</time>
      </trkpt>
      <trkpt lat="45.26295" lon="2.97608">
        <ele>1170.89</ele>
        <time>2022-03-28T12:43:51Z</time>
      </trkpt>
      <trkpt lat="45.26303" lon="2.97618">
        <ele>1170.34</ele>
        <time>2022-03-28T12:43:54Z</time>
      </trkpt>
      <trkpt lat="45.2631" lon="2.9763">
        <ele>1169.43</ele>
        <time>2022-03-28T12:43:56Z</time>
      </trkpt>
      <trkpt lat="45.26322" lon="2.97661">
        <ele>1165.64</ele>
        <time>2022-03-28T12:43:58Z</time>
      </trkpt>
      <trkpt lat="45.26339" lon="2.97694">
        <ele>1161.71</ele>
        <time>2022-03-28T12:44:01Z</time>
      </trkpt>
      <trkpt lat="45.26411" lon="2.97805">
        <ele>1156.56</ele>
        <time>2022-03-28T12:44:03Z</time>
      </trkpt>
      <trkpt lat="45.26423" lon="2.97829">
        <ele>1154.66</ele>
        <time>2022-03-28T12:44:06Z</time>
      </trkpt>
      <trkpt lat="45.26428" lon="2.97847">
        <ele>1152.92</ele>
        <time>2022-03-28T12:44:08Z</time>
      </trkpt>
      <trkpt lat="45.26441" lon="2.97905">
        <ele>1148.83</ele>
        <time>2022-03-28T12:44:10Z</time>
      </trkpt>
      <trkpt lat="45.26451" lon="2.9794">
        <ele>1148.02</ele>
        <time>2022-03-28T12:44:13Z</time>
      </trkpt>
      <trkpt lat="45.26457" lon="2.97955">
        <ele>1148.34</ele>
        <time>2022-03-28T12:44:15Z</time>
      </trkpt>
      <trkpt lat="45.26482" lon="2.97996">
        <ele>1148.8</ele>
        <time>2022-03-28T12:44:17Z</time>
      </trkpt>
      <trkpt lat="45.26488" lon="2.9801">
        <ele>1148.43</ele>
        <time>2022-03-28T12:44:20Z</time>
      </trkpt>
      <trkpt lat="45.26496" lon="2.98034">
        <ele>1146.82</ele>
        <time>2022-03-28T12:44:22Z</time>
      </trkpt>
      <trkpt lat="45.26504" lon="2.98079">
        <ele>1140.55</ele>
        <time>2022-03-28T12:44:25Z</time>
      </trkpt>
      <trkpt lat="45.26532" lon="2.9815">
        <ele>1140.06</ele>
        <time>2022-03-28T12:44:27Z</time>
      </trkpt>
      <trkpt lat="45.26535" lon="2.98164">
        <ele>1138.97</ele>
        <time>2022-03-28T12:44:29Z</time>
      </trkpt>
      <trkpt lat="45.26537" lon="2.98181">
        <ele>1136.58</ele>
        <time>2022-03-28T12:44:32Z</time>
      </trkpt>
      <trkpt lat="45.26541" lon="2.98248">
        <ele>1130.19</ele>
        <time>2022-03-28T12:44:34Z</time>
      </trkpt>
      <trkpt lat="45.26544" lon="2.98263">
        <ele>1130.18</ele>
        <time>2022-03-28T12:44:36Z</time>
      </trkpt>
      <trkpt lat="45.26555" lon="2.98286">
        <ele>1130</ele>
        <time>2022-03-28T12:44:39Z</time>
      </trkpt>
      <trkpt lat="45.26614" lon="2.98383">
        <ele>1123.22</ele>
        <time>2022-03-28T12:44:41Z</time>
      </trkpt>
      <trkpt lat="45.26624" lon="2.98403">
        <ele>1123.01</ele>
        <time>2022-03-28T12:44:43Z</time>
      </trkpt>
      <trkpt lat="45.26635" lon="2.98435">
        <ele>1119.9</ele>
        <time>2022-03-28T12:44:46Z</time>
      </trkpt>
      <trkpt lat="45.26637" lon="2.9845">
        <ele>1118.18</ele>
        <time>2022-03-28T12:44:48Z</time>
      </trkpt>
      <trkpt lat="45.26638" lon="2.98467">
        <ele>1116.46</ele>
        <time>2022-03-28T12:44:51Z</time>
      </trkpt>
      <trkpt lat="45.26634" lon="2.98552">
        <ele>1111.16</ele>
        <time>2022-03-28T12:44:53Z</time>
      </trkpt>
      <trkpt lat="45.26623" lon="2.98634">
        <ele>1108.63</ele>
        <time>2022-03-28T12:44:55Z</time>
      </trkpt>
      <trkpt lat="45.26615" lon="2.98677">
        <ele>1105.78</ele>
        <time>2022-03-28T12:44:58Z</time>
      </trkpt>
      <trkpt lat="45.26608" lon="2.98699">
        <ele>1104.29</ele>
        <time>2022-03-28T12:45:00Z</time>
      </trkpt>
      <trkpt lat="45.26572" lon="2.98768">
        <ele>1098.99</ele>
        <time>2022-03-28T12:45:02Z</time>
      </trkpt>
      <trkpt lat="45.26564" lon="2.98791">
        <ele>1098.22</ele>
        <time>2022-03-28T12:45:05Z</time>
      </trkpt>
      <trkpt lat="45.26555" lon="2.98836">
        <ele>1096.94</ele>
        <time>2022-03-28T12:45:07Z</time>
      </trkpt>
      <trkpt lat="45.26553" lon="2.98871">
        <ele>1095.38</ele>
        <time>2022-03-28T12:45:09Z</time>
      </trkpt>
      <trkpt lat="45.26558" lon="2.98903">
        <ele>1093.09</ele>
        <time>2022-03-28T12:45:12Z</time>
      </trkpt>
      <trkpt lat="45.26563" lon="2.98914">
        <ele>1092.75</ele>
        <time>2022-03-28T12:45:14Z</time>
      </trkpt>
      <trkpt lat="45.26569" lon="2.98924">
        <ele>1092.49</ele>
        <time>2022-03-28T12:45:17Z</time>
      </trkpt>
      <trkpt lat="45.26596" lon="2.98954">
        <ele>1093.2</ele>
        <time>2022-03-28T12:45:19Z</time>
      </trkpt>
      <trkpt lat="45.26604" lon="2.98965">
        <ele>1093.29</ele>
        <time>2022-03-28T12:45:21Z</time>
      </trkpt>
      <trkpt lat="45.26613" lon="2.98979">
        <ele>1093.3</ele>
        <time>2022-03-28T12:45:24Z</time>
      </trkpt>
      <trkpt lat="45.26621" lon="2.98998">
        <ele>1092.97</ele>
        <time>2022-03-28T12:45:26Z</time>
      </trkpt>
      <trkpt lat="45.26627" lon="2.99018">
        <ele>1093.49</ele>
        <time>2022-03-28T12:45:28Z</time>
      </trkpt>
      <trkpt lat="45.26641" lon="2.99078">
        <ele>1092.02</ele>
        <time>2022-03-28T12:45:31Z</time>
      </trkpt>
      <trkpt lat="45.26649" lon="2.99133">
        <ele>1088.63</ele>
        <time>2022-03-28T12:45:33Z</time>
      </trkpt>
      <trkpt lat="45.26651" lon="2.99164">
        <ele>1087.9</ele>
        <time>2022-03-28T12:45:35Z</time>
      </trkpt>
      <trkpt lat="45.2665" lon="2.9923">
        <ele>1085.91</ele>
        <time>2022-03-28T12:45:38Z</time>
      </trkpt>
      <trkpt lat="45.26636" lon="2.99265">
        <ele>1083.95</ele>
        <time>2022-03-28T12:45:41Z</time>
      </trkpt>
      <trkpt lat="45.26615" lon="2.99294">
        <ele>1083.44</ele>
        <time>2022-03-28T12:45:43Z</time>
      </trkpt>
      <trkpt lat="45.26586" lon="2.99315">
        <ele>1079.47</ele>
        <time>2022-03-28T12:45:46Z</time>
      </trkpt>
      <trkpt lat="45.26575" lon="2.99331">
        <ele>1078.29</ele>
        <time>2022-03-28T12:45:49Z</time>
      </trkpt>
      <trkpt lat="45.26544" lon="2.99484">
        <ele>1077.89</ele>
        <time>2022-03-28T12:45:51Z</time>
      </trkpt>
      <trkpt lat="45.26531" lon="2.99599">
        <ele>1069.74</ele>
        <time>2022-03-28T12:45:54Z</time>
      </trkpt>
      <trkpt lat="45.26521" lon="2.99636">
        <ele>1067.39</ele>
        <time>2022-03-28T12:45:57Z</time>
      </trkpt>
      <trkpt lat="45.26507" lon="2.99663">
        <ele>1065.96</ele>
        <time>2022-03-28T12:45:59Z</time>
      </trkpt>
      <trkpt lat="45.26459" lon="2.99724">
        <ele>1058.27</ele>
        <time>2022-03-28T12:46:02Z</time>
      </trkpt>
      <trkpt lat="45.26448" lon="2.99745">
        <ele>1055.79</ele>
        <time>2022-03-28T12:46:05Z</time>
      </trkpt>
      <trkpt lat="45.26444" lon="2.99769">
        <ele>1053.51</ele>
        <time>2022-03-28T12:46:07Z</time>
      </trkpt>
      <trkpt lat="45.26447" lon="2.99796">
        <ele>1050.14</ele>
        <time>2022-03-28T12:46:10Z</time>
      </trkpt>
      <trkpt lat="45.26455" lon="2.99827">
        <ele>1046.66</ele>
        <time>2022-03-28T12:46:13Z</time>
      </trkpt>
      <trkpt lat="45.26465" lon="2.99851">
        <ele>1045.97</ele>
        <time>2022-03-28T12:46:15Z</time>
      </trkpt>
      <trkpt lat="45.26477" lon="2.99891">
        <ele>1041.05</ele>
        <time>2022-03-28T12:46:18Z</time>
      </trkpt>
      <trkpt lat="45.26485" lon="2.99902">
        <ele>1043.58</ele>
        <time>2022-03-28T12:46:21Z</time>
      </trkpt>
      <trkpt lat="45.26501" lon="2.99918">
        <ele>1049.23</ele>
        <time>2022-03-28T12:46:24Z</time>
      </trkpt>
      <trkpt lat="45.26507" lon="2.99929">
        <ele>1049.59</ele>
        <time>2022-03-28T12:46:26Z</time>
      </trkpt>
      <trkpt lat="45.26513" lon="2.99958">
        <ele>1046.86</ele>
        <time>2022-03-28T12:46:29Z</time>
      </trkpt>
      <trkpt lat="45.26528" lon="2.99998">
        <ele>1047.15</ele>
        <time>2022-03-28T12:46:32Z</time>
      </trkpt>
      <trkpt lat="45.26532" lon="3.00018">
        <ele>1045.01</ele>
        <time>2022-03-28T12:46:34Z</time>
      </trkpt>
      <trkpt lat="45.26535" lon="3.00054">
        <ele>1041.11</ele>
        <time>2022-03-28T12:46:37Z</time>
      </trkpt>
      <trkpt lat="45.26535" lon="3.00112">
        <ele>1036.12</ele>
        <time>2022-03-28T12:46:40Z</time>
      </trkpt>
      <trkpt lat="45.26529" lon="3.00162">
        <ele>1032.64</ele>
        <time>2022-03-28T12:46:42Z</time>
      </trkpt>
      <trkpt lat="45.26518" lon="3.00204">
        <ele>1029.7</ele>
        <time>2022-03-28T12:46:45Z</time>
      </trkpt>
      <trkpt lat="45.26497" lon="3.00245">
        <ele>1025.06</ele>
        <time>2022-03-28T12:46:48Z</time>
      </trkpt>
      <trkpt lat="45.26476" lon="3.0028">
        <ele>1020.54</ele>
        <time>2022-03-28T12:46:50Z</time>
      </trkpt>
      <trkpt lat="45.26464" lon="3.0031">
        <ele>1016.36</ele>
        <time>2022-03-28T12:46:53Z</time>
      </trkpt>
      <trkpt lat="45.26438" lon="3.00409">
        <ele>1013.6</ele>
        <time>2022-03-28T12:46:56Z</time>
      </trkpt>
      <trkpt lat="45.26428" lon="3.00435">
        <ele>1012.62</ele>
        <time>2022-03-28T12:46:58Z</time>
      </trkpt>
      <trkpt lat="45.26406" lon="3.00457">
        <ele>1009.18</ele>
        <time>2022-03-28T12:47:01Z</time>
      </trkpt>
      <trkpt lat="45.26367" lon="3.00479">
        <ele>1005.24</ele>
        <time>2022-03-28T12:47:04Z</time>
      </trkpt>
      <trkpt lat="45.26134" lon="3.00575">
        <ele>982.29</ele>
        <time>2022-03-28T12:47:07Z</time>
      </trkpt>
      <trkpt lat="45.2612" lon="3.00588">
        <ele>978.72</ele>
        <time>2022-03-28T12:47:09Z</time>
      </trkpt>
      <trkpt lat="45.26115" lon="3.00623">
        <ele>978.56</ele>
        <time>2022-03-28T12:47:12Z</time>
      </trkpt>
      <trkpt lat="45.26113" lon="3.00706">
        <ele>978.18</ele>
        <time>2022-03-28T12:47:15Z</time>
      </trkpt>
      <trkpt lat="45.26121" lon="3.00721">
        <ele>975.58</ele>
        <time>2022-03-28T12:47:17Z</time>
      </trkpt>
      <trkpt lat="45.2613" lon="3.00719">
        <ele>974.37</ele>
        <time>2022-03-28T12:47:20Z</time>
      </trkpt>
      <trkpt lat="45.26163" lon="3.00696">
        <ele>978.79</ele>
        <time>2022-03-28T12:47:23Z</time>
      </trkpt>
      <trkpt lat="45.26181" lon="3.00694">
        <ele>977.34</ele>
        <time>2022-03-28T12:47:25Z</time>
      </trkpt>
      <trkpt lat="45.26193" lon="3.00694">
        <ele>975.32</ele>
        <time>2022-03-28T12:47:28Z</time>
      </trkpt>
      <trkpt lat="45.26212" lon="3.00703">
        <ele>967.21</ele>
        <time>2022-03-28T12:47:31Z</time>
      </trkpt>
      <trkpt lat="45.26232" lon="3.00704">
        <ele>960.4</ele>
        <time>2022-03-28T12:47:33Z</time>
      </trkpt>
      <trkpt lat="45.26255" lon="3.00701">
        <ele>954.09</ele>
        <time>2022-03-28T12:47:36Z</time>
      </trkpt>
      <trkpt lat="45.2627" lon="3.0069">
        <ele>958.78</ele>
        <time>2022-03-28T12:47:39Z</time>
      </trkpt>
      <trkpt lat="45.26275" lon="3.00676">
        <ele>966.81</ele>
        <time>2022-03-28T12:47:41Z</time>
      </trkpt>
      <trkpt lat="45.26278" lon="3.00654">
        <ele>978.98</ele>
        <time>2022-03-28T12:47:44Z</time>
      </trkpt>
      <trkpt lat="45.26297" lon="3.0064">
        <ele>979.71</ele>
        <time>2022-03-28T12:47:47Z</time>
      </trkpt>
      <trkpt lat="45.26344" lon="3.00622">
        <ele>971.38</ele>
        <time>2022-03-28T12:47:49Z</time>
      </trkpt>
      <trkpt lat="45.26426" lon="3.00612">
        <ele>967.26</ele>
        <time>2022-03-28T12:47:52Z</time>
      </trkpt>
      <trkpt lat="45.26509" lon="3.00619">
        <ele>961.35</ele>
        <time>2022-03-28T12:47:55Z</time>
      </trkpt>
      <trkpt lat="45.26593" lon="3.0062">
        <ele>946.91</ele>
        <time>2022-03-28T12:47:58Z</time>
      </trkpt>
      <trkpt lat="45.26616" lon="3.00617">
        <ele>941.53</ele>
        <time>2022-03-28T12:48:00Z</time>
      </trkpt>
      <trkpt lat="45.26641" lon="3.00627">
        <ele>933.28</ele>
        <time>2022-03-28T12:48:03Z</time>
      </trkpt>
      <trkpt lat="45.26674" lon="3.0062">
        <ele>935.5</ele>
        <time>2022-03-28T12:48:06Z</time>
      </trkpt>
      <trkpt lat="45.26696" lon="3.00606">
        <ele>941.37</ele>
        <time>2022-03-28T12:48:08Z</time>
      </trkpt>
      <trkpt lat="45.26711" lon="3.00576">
        <ele>952.46</ele>
        <time>2022-03-28T12:48:11Z</time>
      </trkpt>
      <trkpt lat="45.26735" lon="3.00562">
        <ele>952.35</ele>
        <time>2022-03-28T12:48:14Z</time>
      </trkpt>
      <trkpt lat="45.26811" lon="3.00572">
        <ele>937.64</ele>
        <time>2022-03-28T12:48:16Z</time>
      </trkpt>
      <trkpt lat="45.26831" lon="3.00577">
        <ele>934.37</ele>
        <time>2022-03-28T12:48:19Z</time>
      </trkpt>
      <trkpt lat="45.26836" lon="3.00585">
        <ele>933.78</ele>
        <time>2022-03-28T12:48:22Z</time>
      </trkpt>
      <trkpt lat="45.2684" lon="3.00601">
        <ele>932.76</ele>
        <time>2022-03-28T12:48:24Z</time>
      </trkpt>
      <trkpt lat="45.26838" lon="3.00611">
        <ele>932.58</ele>
        <time>2022-03-28T12:48:27Z</time>
      </trkpt>
      <trkpt lat="45.26838" lon="3.00611">
        <ele>932.58</ele>
        <time>2022-03-28T12:48:27Z</time>
      </trkpt>
      <trkpt lat="45.26828" lon="3.00621">
        <ele>932.87</ele>
        <time>2022-03-28T12:48:30Z</time>
      </trkpt>
      <trkpt lat="45.26775" lon="3.00626">
        <ele>928.03</ele>
        <time>2022-03-28T12:48:32Z</time>
      </trkpt>
      <trkpt lat="45.2676" lon="3.0062">
        <ele>925.8</ele>
        <time>2022-03-28T12:48:34Z</time>
      </trkpt>
      <trkpt lat="45.26751" lon="3.00623">
        <ele>924.04</ele>
        <time>2022-03-28T12:48:37Z</time>
      </trkpt>
      <trkpt lat="45.26746" lon="3.00628">
        <ele>923.48</ele>
        <time>2022-03-28T12:48:39Z</time>
      </trkpt>
      <trkpt lat="45.26721" lon="3.00683">
        <ele>919.78</ele>
        <time>2022-03-28T12:48:41Z</time>
      </trkpt>
      <trkpt lat="45.26699" lon="3.0071">
        <ele>918</ele>
        <time>2022-03-28T12:48:44Z</time>
      </trkpt>
      <trkpt lat="45.26681" lon="3.0074">
        <ele>915.36</ele>
        <time>2022-03-28T12:48:46Z</time>
      </trkpt>
      <trkpt lat="45.26668" lon="3.00749">
        <ele>911.48</ele>
        <time>2022-03-28T12:48:49Z</time>
      </trkpt>
      <trkpt lat="45.26655" lon="3.00773">
        <ele>914.06</ele>
        <time>2022-03-28T12:48:51Z</time>
      </trkpt>
      <trkpt lat="45.26648" lon="3.00774">
        <ele>913.05</ele>
        <time>2022-03-28T12:48:53Z</time>
      </trkpt>
      <trkpt lat="45.26632" lon="3.00771">
        <ele>910.89</ele>
        <time>2022-03-28T12:48:56Z</time>
      </trkpt>
      <trkpt lat="45.26602" lon="3.0078">
        <ele>911.62</ele>
        <time>2022-03-28T12:48:58Z</time>
      </trkpt>
      <trkpt lat="45.26567" lon="3.00793">
        <ele>912.32</ele>
        <time>2022-03-28T12:49:01Z</time>
      </trkpt>
      <trkpt lat="45.26546" lon="3.00803">
        <ele>911.33</ele>
        <time>2022-03-28T12:49:03Z</time>
      </trkpt>
      <trkpt lat="45.26528" lon="3.00819">
        <ele>912.66</ele>
        <time>2022-03-28T12:49:05Z</time>
      </trkpt>
      <trkpt lat="45.26481" lon="3.00817">
        <ele>906.51</ele>
        <time>2022-03-28T12:49:08Z</time>
      </trkpt>
      <trkpt lat="45.26433" lon="3.00846">
        <ele>911</ele>
        <time>2022-03-28T12:49:10Z</time>
      </trkpt>
      <trkpt lat="45.26416" lon="3.00845">
        <ele>906.37</ele>
        <time>2022-03-28T12:49:13Z</time>
      </trkpt>
      <trkpt lat="45.26401" lon="3.00856">
        <ele>909.11</ele>
        <time>2022-03-28T12:49:15Z</time>
      </trkpt>
      <trkpt lat="45.26374" lon="3.00851">
        <ele>906.26</ele>
        <time>2022-03-28T12:49:17Z</time>
      </trkpt>
      <trkpt lat="45.26353" lon="3.0085">
        <ele>905.94</ele>
        <time>2022-03-28T12:49:20Z</time>
      </trkpt>
      <trkpt lat="45.26327" lon="3.00854">
        <ele>902.95</ele>
        <time>2022-03-28T12:49:22Z</time>
      </trkpt>
      <trkpt lat="45.26267" lon="3.0089">
        <ele>898.97</ele>
        <time>2022-03-28T12:49:25Z</time>
      </trkpt>
      <trkpt lat="45.26159" lon="3.00951">
        <ele>896.05</ele>
        <time>2022-03-28T12:49:27Z</time>
      </trkpt>
      <trkpt lat="45.26111" lon="3.00983">
        <ele>893.27</ele>
        <time>2022-03-28T12:49:29Z</time>
      </trkpt>
      <trkpt lat="45.261" lon="3.01">
        <ele>890.09</ele>
        <time>2022-03-28T12:49:32Z</time>
      </trkpt>
      <trkpt lat="45.2609" lon="3.01035">
        <ele>888.06</ele>
        <time>2022-03-28T12:49:34Z</time>
      </trkpt>
      <trkpt lat="45.26074" lon="3.01105">
        <ele>890.06</ele>
        <time>2022-03-28T12:49:37Z</time>
      </trkpt>
      <trkpt lat="45.26075" lon="3.01121">
        <ele>892.85</ele>
        <time>2022-03-28T12:49:39Z</time>
      </trkpt>
      <trkpt lat="45.26077" lon="3.01143">
        <ele>897.56</ele>
        <time>2022-03-28T12:49:41Z</time>
      </trkpt>
      <trkpt lat="45.26074" lon="3.01151">
        <ele>897.93</ele>
        <time>2022-03-28T12:49:44Z</time>
      </trkpt>
      <trkpt lat="45.26065" lon="3.01154">
        <ele>895.44</ele>
        <time>2022-03-28T12:49:46Z</time>
      </trkpt>
      <trkpt lat="45.26051" lon="3.01146">
        <ele>889.58</ele>
        <time>2022-03-28T12:49:48Z</time>
      </trkpt>
      <trkpt lat="45.26029" lon="3.01146">
        <ele>885.5</ele>
        <time>2022-03-28T12:49:51Z</time>
      </trkpt>
      <trkpt lat="45.25993" lon="3.0116">
        <ele>888.29</ele>
        <time>2022-03-28T12:49:53Z</time>
      </trkpt>
      <trkpt lat="45.25973" lon="3.01155">
        <ele>884.53</ele>
        <time>2022-03-28T12:49:56Z</time>
      </trkpt>
      <trkpt lat="45.25942" lon="3.0116">
        <ele>878.8</ele>
        <time>2022-03-28T12:49:58Z</time>
      </trkpt>
      <trkpt lat="45.25934" lon="3.01165">
        <ele>877.79</ele>
        <time>2022-03-28T12:50:00Z</time>
      </trkpt>
      <trkpt lat="45.25921" lon="3.01186">
        <ele>879.24</ele>
        <time>2022-03-28T12:50:03Z</time>
      </trkpt>
      <trkpt lat="45.25912" lon="3.01208">
        <ele>881.78</ele>
        <time>2022-03-28T12:50:05Z</time>
      </trkpt>
      <trkpt lat="45.25897" lon="3.01223">
        <ele>879.11</ele>
        <time>2022-03-28T12:50:08Z</time>
      </trkpt>
      <trkpt lat="45.25883" lon="3.01231">
        <ele>874.48</ele>
        <time>2022-03-28T12:50:10Z</time>
      </trkpt>
      <trkpt lat="45.2587" lon="3.01247">
        <ele>870.04</ele>
        <time>2022-03-28T12:50:12Z</time>
      </trkpt>
      <trkpt lat="45.25863" lon="3.01272">
        <ele>870.64</ele>
        <time>2022-03-28T12:50:15Z</time>
      </trkpt>
      <trkpt lat="45.25839" lon="3.01327">
        <ele>876.04</ele>
        <time>2022-03-28T12:50:17Z</time>
      </trkpt>
      <trkpt lat="45.25817" lon="3.01365">
        <ele>875.74</ele>
        <time>2022-03-28T12:50:20Z</time>
      </trkpt>
      <trkpt lat="45.25772" lon="3.01414">
        <ele>867.02</ele>
        <time>2022-03-28T12:50:22Z</time>
      </trkpt>
      <trkpt lat="45.25761" lon="3.01436">
        <ele>864.7</ele>
        <time>2022-03-28T12:50:24Z</time>
      </trkpt>
      <trkpt lat="45.2575" lon="3.01501">
        <ele>866.13</ele>
        <time>2022-03-28T12:50:27Z</time>
      </trkpt>
      <trkpt lat="45.25734" lon="3.01555">
        <ele>867.87</ele>
        <time>2022-03-28T12:50:29Z</time>
      </trkpt>
      <trkpt lat="45.25724" lon="3.01579">
        <ele>868.95</ele>
        <time>2022-03-28T12:50:32Z</time>
      </trkpt>
      <trkpt lat="45.257" lon="3.01608">
        <ele>860.49</ele>
        <time>2022-03-28T12:50:34Z</time>
      </trkpt>
      <trkpt lat="45.25669" lon="3.0165">
        <ele>857.61</ele>
        <time>2022-03-28T12:50:36Z</time>
      </trkpt>
      <trkpt lat="45.25657" lon="3.01672">
        <ele>858.82</ele>
        <time>2022-03-28T12:50:39Z</time>
      </trkpt>
      <trkpt lat="45.25652" lon="3.01698">
        <ele>858.98</ele>
        <time>2022-03-28T12:50:41Z</time>
      </trkpt>
      <trkpt lat="45.25653" lon="3.0173">
        <ele>858.04</ele>
        <time>2022-03-28T12:50:44Z</time>
      </trkpt>
      <trkpt lat="45.25658" lon="3.01753">
        <ele>858.31</ele>
        <time>2022-03-28T12:50:46Z</time>
      </trkpt>
      <trkpt lat="45.25657" lon="3.01786">
        <ele>856.46</ele>
        <time>2022-03-28T12:50:48Z</time>
      </trkpt>
      <trkpt lat="45.25648" lon="3.01811">
        <ele>854.37</ele>
        <time>2022-03-28T12:50:51Z</time>
      </trkpt>
      <trkpt lat="45.25642" lon="3.01854">
        <ele>854.55</ele>
        <time>2022-03-28T12:50:53Z</time>
      </trkpt>
      <trkpt lat="45.25628" lon="3.01906">
        <ele>850.1</ele>
        <time>2022-03-28T12:50:55Z</time>
      </trkpt>
      <trkpt lat="45.25617" lon="3.01939">
        <ele>849.65</ele>
        <time>2022-03-28T12:50:58Z</time>
      </trkpt>
      <trkpt lat="45.25603" lon="3.01972">
        <ele>851.33</ele>
        <time>2022-03-28T12:51:00Z</time>
      </trkpt>
      <trkpt lat="45.25585" lon="3.02004">
        <ele>850.35</ele>
        <time>2022-03-28T12:51:03Z</time>
      </trkpt>
      <trkpt lat="45.25576" lon="3.02041">
        <ele>851.63</ele>
        <time>2022-03-28T12:51:05Z</time>
      </trkpt>
      <trkpt lat="45.25568" lon="3.02063">
        <ele>849.77</ele>
        <time>2022-03-28T12:51:07Z</time>
      </trkpt>
      <trkpt lat="45.25532" lon="3.02143">
        <ele>839.12</ele>
        <time>2022-03-28T12:51:10Z</time>
      </trkpt>
      <trkpt lat="45.25529" lon="3.02154">
        <ele>839.8</ele>
        <time>2022-03-28T12:51:12Z</time>
      </trkpt>
      <trkpt lat="45.25529" lon="3.02175">
        <ele>843.72</ele>
        <time>2022-03-28T12:51:15Z</time>
      </trkpt>
      <trkpt lat="45.25527" lon="3.02184">
        <ele>846.52</ele>
        <time>2022-03-28T12:51:17Z</time>
      </trkpt>
      <trkpt lat="45.25522" lon="3.02191">
        <ele>847.24</ele>
        <time>2022-03-28T12:51:19Z</time>
      </trkpt>
      <trkpt lat="45.25482" lon="3.02207">
        <ele>842.38</ele>
        <time>2022-03-28T12:51:22Z</time>
      </trkpt>
      <trkpt lat="45.25415" lon="3.02267">
        <ele>844.07</ele>
        <time>2022-03-28T12:51:24Z</time>
      </trkpt>
      <trkpt lat="45.25386" lon="3.02299">
        <ele>847.46</ele>
        <time>2022-03-28T12:51:27Z</time>
      </trkpt>
      <trkpt lat="45.25337" lon="3.02363">
        <ele>842.55</ele>
        <time>2022-03-28T12:51:29Z</time>
      </trkpt>
      <trkpt lat="45.25334" lon="3.02404">
        <ele>844.3</ele>
        <time>2022-03-28T12:51:31Z</time>
      </trkpt>
      <trkpt lat="45.25326" lon="3.02448">
        <ele>844.7</ele>
        <time>2022-03-28T12:51:34Z</time>
      </trkpt>
      <trkpt lat="45.25305" lon="3.02503">
        <ele>844.16</ele>
        <time>2022-03-28T12:51:36Z</time>
      </trkpt>
      <trkpt lat="45.253" lon="3.02529">
        <ele>846.88</ele>
        <time>2022-03-28T12:51:39Z</time>
      </trkpt>
      <trkpt lat="45.2526" lon="3.02547">
        <ele>840.24</ele>
        <time>2022-03-28T12:51:41Z</time>
      </trkpt>
      <trkpt lat="45.25228" lon="3.02566">
        <ele>840.26</ele>
        <time>2022-03-28T12:51:43Z</time>
      </trkpt>
      <trkpt lat="45.2521" lon="3.02582">
        <ele>838.96</ele>
        <time>2022-03-28T12:51:46Z</time>
      </trkpt>
      <trkpt lat="45.2518" lon="3.02628">
        <ele>838.07</ele>
        <time>2022-03-28T12:51:48Z</time>
      </trkpt>
      <trkpt lat="45.25136" lon="3.02688">
        <ele>838.61</ele>
        <time>2022-03-28T12:51:51Z</time>
      </trkpt>
      <trkpt lat="45.25121" lon="3.02692">
        <ele>833.73</ele>
        <time>2022-03-28T12:51:53Z</time>
      </trkpt>
      <trkpt lat="45.25078" lon="3.02719">
        <ele>827.92</ele>
        <time>2022-03-28T12:51:55Z</time>
      </trkpt>
      <trkpt lat="45.25062" lon="3.02733">
        <ele>826.47</ele>
        <time>2022-03-28T12:51:58Z</time>
      </trkpt>
      <trkpt lat="45.25052" lon="3.02751">
        <ele>826.38</ele>
        <time>2022-03-28T12:52:00Z</time>
      </trkpt>
      <trkpt lat="45.2504" lon="3.02797">
        <ele>833.11</ele>
        <time>2022-03-28T12:52:02Z</time>
      </trkpt>
      <trkpt lat="45.25023" lon="3.02811">
        <ele>831.14</ele>
        <time>2022-03-28T12:52:05Z</time>
      </trkpt>
      <trkpt lat="45.2501" lon="3.02829">
        <ele>829.6</ele>
        <time>2022-03-28T12:52:07Z</time>
      </trkpt>
      <trkpt lat="45.24965" lon="3.02873">
        <ele>828.42</ele>
        <time>2022-03-28T12:52:10Z</time>
      </trkpt>
      <trkpt lat="45.24948" lon="3.02883">
        <ele>826.74</ele>
        <time>2022-03-28T12:52:12Z</time>
      </trkpt>
      <trkpt lat="45.24926" lon="3.02889">
        <ele>823.01</ele>
        <time>2022-03-28T12:52:14Z</time>
      </trkpt>
      <trkpt lat="45.24885" lon="3.02917">
        <ele>822.39</ele>
        <time>2022-03-28T12:52:17Z</time>
      </trkpt>
      <trkpt lat="45.24862" lon="3.02975">
        <ele>825.71</ele>
        <time>2022-03-28T12:52:19Z</time>
      </trkpt>
      <trkpt lat="45.24777" lon="3.03107">
        <ele>811.75</ele>
        <time>2022-03-28T12:52:22Z</time>
      </trkpt>
      <trkpt lat="45.24768" lon="3.03125">
        <ele>812.67</ele>
        <time>2022-03-28T12:52:24Z</time>
      </trkpt>
      <trkpt lat="45.24761" lon="3.03182">
        <ele>815.92</ele>
        <time>2022-03-28T12:52:26Z</time>
      </trkpt>
      <trkpt lat="45.24748" lon="3.03267">
        <ele>813.79</ele>
        <time>2022-03-28T12:52:29Z</time>
      </trkpt>
      <trkpt lat="45.24738" lon="3.03299">
        <ele>810.05</ele>
        <time>2022-03-28T12:52:31Z</time>
      </trkpt>
      <trkpt lat="45.24702" lon="3.03391">
        <ele>801.77</ele>
        <time>2022-03-28T12:52:34Z</time>
      </trkpt>
      <trkpt lat="45.24672" lon="3.03481">
        <ele>804.32</ele>
        <time>2022-03-28T12:52:36Z</time>
      </trkpt>
      <trkpt lat="45.24643" lon="3.03512">
        <ele>799.13</ele>
        <time>2022-03-28T12:52:38Z</time>
      </trkpt>
      <trkpt lat="45.24638" lon="3.03532">
        <ele>799.09</ele>
        <time>2022-03-28T12:52:41Z</time>
      </trkpt>
      <trkpt lat="45.24636" lon="3.03578">
        <ele>799.18</ele>
        <time>2022-03-28T12:52:43Z</time>
      </trkpt>
      <trkpt lat="45.24639" lon="3.03598">
        <ele>799.92</ele>
        <time>2022-03-28T12:52:46Z</time>
      </trkpt>
      <trkpt lat="45.24643" lon="3.03613">
        <ele>801.71</ele>
        <time>2022-03-28T12:52:48Z</time>
      </trkpt>
      <trkpt lat="45.24641" lon="3.03628">
        <ele>800.32</ele>
        <time>2022-03-28T12:52:50Z</time>
      </trkpt>
      <trkpt lat="45.24602" lon="3.03706">
        <ele>789.02</ele>
        <time>2022-03-28T12:52:53Z</time>
      </trkpt>
      <trkpt lat="45.24601" lon="3.03745">
        <ele>789.2</ele>
        <time>2022-03-28T12:52:55Z</time>
      </trkpt>
      <trkpt lat="45.24594" lon="3.03775">
        <ele>789.13</ele>
        <time>2022-03-28T12:52:58Z</time>
      </trkpt>
      <trkpt lat="45.24594" lon="3.03775">
        <ele>789.13</ele>
        <time>2022-03-28T12:52:58Z</time>
      </trkpt>
      <trkpt lat="45.24592" lon="3.03808">
        <ele>789.41</ele>
        <time>2022-03-28T12:53:00Z</time>
      </trkpt>
      <trkpt lat="45.24592" lon="3.03872">
        <ele>788.86</ele>
        <time>2022-03-28T12:53:03Z</time>
      </trkpt>
      <trkpt lat="45.24599" lon="3.03899">
        <ele>791.42</ele>
        <time>2022-03-28T12:53:05Z</time>
      </trkpt>
      <trkpt lat="45.24598" lon="3.03918">
        <ele>790.77</ele>
        <time>2022-03-28T12:53:08Z</time>
      </trkpt>
      <trkpt lat="45.24593" lon="3.03954">
        <ele>787.73</ele>
        <time>2022-03-28T12:53:11Z</time>
      </trkpt>
      <trkpt lat="45.24594" lon="3.03976">
        <ele>787.1</ele>
        <time>2022-03-28T12:53:13Z</time>
      </trkpt>
      <trkpt lat="45.24603" lon="3.0399">
        <ele>787.02</ele>
        <time>2022-03-28T12:53:16Z</time>
      </trkpt>
      <trkpt lat="45.24621" lon="3.04001">
        <ele>786.01</ele>
        <time>2022-03-28T12:53:18Z</time>
      </trkpt>
      <trkpt lat="45.24644" lon="3.04">
        <ele>787.18</ele>
        <time>2022-03-28T12:53:21Z</time>
      </trkpt>
      <trkpt lat="45.24694" lon="3.03991">
        <ele>791.02</ele>
        <time>2022-03-28T12:53:24Z</time>
      </trkpt>
      <trkpt lat="45.2471" lon="3.04002">
        <ele>791.6</ele>
        <time>2022-03-28T12:53:26Z</time>
      </trkpt>
      <trkpt lat="45.24719" lon="3.04017">
        <ele>791.94</ele>
        <time>2022-03-28T12:53:29Z</time>
      </trkpt>
      <trkpt lat="45.2472" lon="3.04087">
        <ele>784.13</ele>
        <time>2022-03-28T12:53:31Z</time>
      </trkpt>
      <trkpt lat="45.24723" lon="3.04128">
        <ele>781.16</ele>
        <time>2022-03-28T12:53:34Z</time>
      </trkpt>
      <trkpt lat="45.24728" lon="3.04151">
        <ele>781.92</ele>
        <time>2022-03-28T12:53:37Z</time>
      </trkpt>
      <trkpt lat="45.24764" lon="3.04238">
        <ele>788.31</ele>
        <time>2022-03-28T12:53:39Z</time>
      </trkpt>
      <trkpt lat="45.24772" lon="3.04267">
        <ele>788.83</ele>
        <time>2022-03-28T12:53:42Z</time>
      </trkpt>
      <trkpt lat="45.24774" lon="3.04311">
        <ele>780.2</ele>
        <time>2022-03-28T12:53:45Z</time>
      </trkpt>
      <trkpt lat="45.24784" lon="3.04368">
        <ele>779.37</ele>
        <time>2022-03-28T12:53:47Z</time>
      </trkpt>
      <trkpt lat="45.24791" lon="3.04438">
        <ele>779.33</ele>
        <time>2022-03-28T12:53:50Z</time>
      </trkpt>
      <trkpt lat="45.24801" lon="3.04478">
        <ele>779.28</ele>
        <time>2022-03-28T12:53:52Z</time>
      </trkpt>
      <trkpt lat="45.24805" lon="3.04579">
        <ele>778.1</ele>
        <time>2022-03-28T12:53:55Z</time>
      </trkpt>
      <trkpt lat="45.24815" lon="3.04627">
        <ele>780.56</ele>
        <time>2022-03-28T12:53:58Z</time>
      </trkpt>
      <trkpt lat="45.24816" lon="3.04646">
        <ele>779.9</ele>
        <time>2022-03-28T12:54:00Z</time>
      </trkpt>
      <trkpt lat="45.24806" lon="3.04678">
        <ele>776.6</ele>
        <time>2022-03-28T12:54:03Z</time>
      </trkpt>
      <trkpt lat="45.24807" lon="3.04695">
        <ele>777.29</ele>
        <time>2022-03-28T12:54:05Z</time>
      </trkpt>
      <trkpt lat="45.24821" lon="3.04713">
        <ele>781.14</ele>
        <time>2022-03-28T12:54:08Z</time>
      </trkpt>
      <trkpt lat="45.24828" lon="3.04717">
        <ele>782.71</ele>
        <time>2022-03-28T12:54:11Z</time>
      </trkpt>
      <trkpt lat="45.24834" lon="3.0471">
        <ele>784.63</ele>
        <time>2022-03-28T12:54:13Z</time>
      </trkpt>
      <trkpt lat="45.2484" lon="3.04713">
        <ele>787.21</ele>
        <time>2022-03-28T12:54:16Z</time>
      </trkpt>
      <trkpt lat="45.24838" lon="3.04744">
        <ele>783.11</ele>
        <time>2022-03-28T12:54:19Z</time>
      </trkpt>
      <trkpt lat="45.24853" lon="3.04801">
        <ele>781.97</ele>
        <time>2022-03-28T12:54:21Z</time>
      </trkpt>
      <trkpt lat="45.24853" lon="3.04862">
        <ele>777.56</ele>
        <time>2022-03-28T12:54:24Z</time>
      </trkpt>
      <trkpt lat="45.2487" lon="3.04918">
        <ele>779.95</ele>
        <time>2022-03-28T12:54:26Z</time>
      </trkpt>
      <trkpt lat="45.24875" lon="3.04951">
        <ele>775.91</ele>
        <time>2022-03-28T12:54:29Z</time>
      </trkpt>
      <trkpt lat="45.24882" lon="3.04963">
        <ele>775.12</ele>
        <time>2022-03-28T12:54:32Z</time>
      </trkpt>
      <trkpt lat="45.2491" lon="3.04968">
        <ele>782.15</ele>
        <time>2022-03-28T12:54:34Z</time>
      </trkpt>
      <trkpt lat="45.24937" lon="3.04987">
        <ele>782.67</ele>
        <time>2022-03-28T12:54:37Z</time>
      </trkpt>
      <trkpt lat="45.24964" lon="3.04997">
        <ele>784.5</ele>
        <time>2022-03-28T12:54:39Z</time>
      </trkpt>
      <trkpt lat="45.24974" lon="3.05009">
        <ele>781.8</ele>
        <time>2022-03-28T12:54:42Z</time>
      </trkpt>
      <trkpt lat="45.25032" lon="3.05101">
        <ele>772.49</ele>
        <time>2022-03-28T12:54:45Z</time>
      </trkpt>
      <trkpt lat="45.25066" lon="3.05186">
        <ele>770.93</ele>
        <time>2022-03-28T12:54:47Z</time>
      </trkpt>
      <trkpt lat="45.25081" lon="3.05233">
        <ele>770.5</ele>
        <time>2022-03-28T12:54:50Z</time>
      </trkpt>
      <trkpt lat="45.25086" lon="3.05281">
        <ele>766.26</ele>
        <time>2022-03-28T12:54:53Z</time>
      </trkpt>
      <trkpt lat="45.251" lon="3.05338">
        <ele>762.71</ele>
        <time>2022-03-28T12:54:55Z</time>
      </trkpt>
      <trkpt lat="45.25161" lon="3.05431">
        <ele>761.05</ele>
        <time>2022-03-28T12:54:58Z</time>
      </trkpt>
      <trkpt lat="45.25165" lon="3.0546">
        <ele>756.86</ele>
        <time>2022-03-28T12:55:00Z</time>
      </trkpt>
      <trkpt lat="45.25169" lon="3.05475">
        <ele>754.83</ele>
        <time>2022-03-28T12:55:03Z</time>
      </trkpt>
      <trkpt lat="45.2522" lon="3.05535">
        <ele>749.68</ele>
        <time>2022-03-28T12:55:06Z</time>
      </trkpt>
      <trkpt lat="45.2523" lon="3.05539">
        <ele>750.47</ele>
        <time>2022-03-28T12:55:08Z</time>
      </trkpt>
      <trkpt lat="45.25251" lon="3.05521">
        <ele>757.51</ele>
        <time>2022-03-28T12:55:11Z</time>
      </trkpt>
      <trkpt lat="45.25256" lon="3.05521">
        <ele>758.66</ele>
        <time>2022-03-28T12:55:13Z</time>
      </trkpt>
      <trkpt lat="45.25267" lon="3.0553">
        <ele>759.9</ele>
        <time>2022-03-28T12:55:16Z</time>
      </trkpt>
      <trkpt lat="45.25271" lon="3.05542">
        <ele>758.95</ele>
        <time>2022-03-28T12:55:19Z</time>
      </trkpt>
      <trkpt lat="45.25271" lon="3.05557">
        <ele>756.65</ele>
        <time>2022-03-28T12:55:21Z</time>
      </trkpt>
      <trkpt lat="45.25275" lon="3.05575">
        <ele>754.79</ele>
        <time>2022-03-28T12:55:24Z</time>
      </trkpt>
      <trkpt lat="45.25292" lon="3.05606">
        <ele>755.04</ele>
        <time>2022-03-28T12:55:26Z</time>
      </trkpt>
      <trkpt lat="45.25314" lon="3.0564">
        <ele>753.52</ele>
        <time>2022-03-28T12:55:29Z</time>
      </trkpt>
      <trkpt lat="45.25328" lon="3.05671">
        <ele>753.06</ele>
        <time>2022-03-28T12:55:32Z</time>
      </trkpt>
      <trkpt lat="45.25335" lon="3.05702">
        <ele>749.92</ele>
        <time>2022-03-28T12:55:34Z</time>
      </trkpt>
      <trkpt lat="45.25341" lon="3.05717">
        <ele>749.8</ele>
        <time>2022-03-28T12:55:37Z</time>
      </trkpt>
      <trkpt lat="45.25369" lon="3.05761">
        <ele>749.52</ele>
        <time>2022-03-28T12:55:40Z</time>
      </trkpt>
      <trkpt lat="45.25387" lon="3.05797">
        <ele>747.45</ele>
        <time>2022-03-28T12:55:42Z</time>
      </trkpt>
      <trkpt lat="45.25398" lon="3.05848">
        <ele>747.87</ele>
        <time>2022-03-28T12:55:45Z</time>
      </trkpt>
      <trkpt lat="45.25411" lon="3.05923">
        <ele>741.12</ele>
        <time>2022-03-28T12:55:47Z</time>
      </trkpt>
      <trkpt lat="45.25418" lon="3.05946">
        <ele>741.57</ele>
        <time>2022-03-28T12:55:50Z</time>
      </trkpt>
      <trkpt lat="45.25438" lon="3.0599">
        <ele>746.79</ele>
        <time>2022-03-28T12:55:53Z</time>
      </trkpt>
      <trkpt lat="45.25459" lon="3.06071">
        <ele>740.82</ele>
        <time>2022-03-28T12:55:55Z</time>
      </trkpt>
      <trkpt lat="45.25464" lon="3.0611">
        <ele>737.68</ele>
        <time>2022-03-28T12:55:58Z</time>
      </trkpt>
      <trkpt lat="45.2546" lon="3.06152">
        <ele>735.3</ele>
        <time>2022-03-28T12:56:00Z</time>
      </trkpt>
      <trkpt lat="45.25448" lon="3.062">
        <ele>733.11</ele>
        <time>2022-03-28T12:56:03Z</time>
      </trkpt>
      <trkpt lat="45.25431" lon="3.06248">
        <ele>729.6</ele>
        <time>2022-03-28T12:56:06Z</time>
      </trkpt>
      <trkpt lat="45.25427" lon="3.0628">
        <ele>729.07</ele>
        <time>2022-03-28T12:56:08Z</time>
      </trkpt>
      <trkpt lat="45.2544" lon="3.06377">
        <ele>728.36</ele>
        <time>2022-03-28T12:56:11Z</time>
      </trkpt>
      <trkpt lat="45.25436" lon="3.0641">
        <ele>729.48</ele>
        <time>2022-03-28T12:56:14Z</time>
      </trkpt>
      <trkpt lat="45.25441" lon="3.0646">
        <ele>730.38</ele>
        <time>2022-03-28T12:56:16Z</time>
      </trkpt>
      <trkpt lat="45.2544" lon="3.06502">
        <ele>733.22</ele>
        <time>2022-03-28T12:56:19Z</time>
      </trkpt>
      <trkpt lat="45.25427" lon="3.0654">
        <ele>731.41</ele>
        <time>2022-03-28T12:56:21Z</time>
      </trkpt>
      <trkpt lat="45.25407" lon="3.06623">
        <ele>725.58</ele>
        <time>2022-03-28T12:56:24Z</time>
      </trkpt>
      <trkpt lat="45.25397" lon="3.06722">
        <ele>722.76</ele>
        <time>2022-03-28T12:56:27Z</time>
      </trkpt>
      <trkpt lat="45.254" lon="3.06764">
        <ele>724.75</ele>
        <time>2022-03-28T12:56:29Z</time>
      </trkpt>
      <trkpt lat="45.25396" lon="3.06793">
        <ele>724.74</ele>
        <time>2022-03-28T12:56:32Z</time>
      </trkpt>
      <trkpt lat="45.25382" lon="3.06824">
        <ele>724.15</ele>
        <time>2022-03-28T12:56:34Z</time>
      </trkpt>
      <trkpt lat="45.25373" lon="3.06877">
        <ele>724.4</ele>
        <time>2022-03-28T12:56:37Z</time>
      </trkpt>
      <trkpt lat="45.25376" lon="3.06893">
        <ele>725.44</ele>
        <time>2022-03-28T12:56:40Z</time>
      </trkpt>
      <trkpt lat="45.25362" lon="3.06968">
        <ele>728.56</ele>
        <time>2022-03-28T12:56:42Z</time>
      </trkpt>
      <trkpt lat="45.25333" lon="3.07033">
        <ele>722.93</ele>
        <time>2022-03-28T12:56:45Z</time>
      </trkpt>
      <trkpt lat="45.25333" lon="3.07077">
        <ele>722.26</ele>
        <time>2022-03-28T12:56:47Z</time>
      </trkpt>
      <trkpt lat="45.25344" lon="3.07122">
        <ele>720.28</ele>
        <time>2022-03-28T12:56:50Z</time>
      </trkpt>
      <trkpt lat="45.25358" lon="3.07146">
        <ele>719.15</ele>
        <time>2022-03-28T12:56:53Z</time>
      </trkpt>
      <trkpt lat="45.25373" lon="3.07183">
        <ele>720.51</ele>
        <time>2022-03-28T12:56:55Z</time>
      </trkpt>
      <trkpt lat="45.25378" lon="3.07242">
        <ele>720.52</ele>
        <time>2022-03-28T12:56:58Z</time>
      </trkpt>
      <trkpt lat="45.25376" lon="3.07293">
        <ele>718.34</ele>
        <time>2022-03-28T12:57:01Z</time>
      </trkpt>
      <trkpt lat="45.25357" lon="3.07366">
        <ele>712.54</ele>
        <time>2022-03-28T12:57:03Z</time>
      </trkpt>
      <trkpt lat="45.2534" lon="3.07402">
        <ele>709.46</ele>
        <time>2022-03-28T12:57:06Z</time>
      </trkpt>
      <trkpt lat="45.25322" lon="3.07421">
        <ele>706.93</ele>
        <time>2022-03-28T12:57:08Z</time>
      </trkpt>
      <trkpt lat="45.253" lon="3.07479">
        <ele>706.99</ele>
        <time>2022-03-28T12:57:11Z</time>
      </trkpt>
      <trkpt lat="45.25281" lon="3.07547">
        <ele>708.03</ele>
        <time>2022-03-28T12:57:14Z</time>
      </trkpt>
      <trkpt lat="45.25289" lon="3.07612">
        <ele>704.94</ele>
        <time>2022-03-28T12:57:16Z</time>
      </trkpt>
      <trkpt lat="45.25289" lon="3.0763">
        <ele>702.82</ele>
        <time>2022-03-28T12:57:19Z</time>
      </trkpt>
      <trkpt lat="45.25285" lon="3.07654">
        <ele>701</ele>
        <time>2022-03-28T12:57:21Z</time>
      </trkpt>
      <trkpt lat="45.25285" lon="3.07686">
        <ele>700.69</ele>
        <time>2022-03-28T12:57:24Z</time>
      </trkpt>
      <trkpt lat="45.25301" lon="3.07742">
        <ele>703.02</ele>
        <time>2022-03-28T12:57:27Z</time>
      </trkpt>
      <trkpt lat="45.25344" lon="3.07859">
        <ele>703.97</ele>
        <time>2022-03-28T12:57:29Z</time>
      </trkpt>
      <trkpt lat="45.25361" lon="3.07937">
        <ele>701.26</ele>
        <time>2022-03-28T12:57:32Z</time>
      </trkpt>
      <trkpt lat="45.25361" lon="3.07994">
        <ele>700.38</ele>
        <time>2022-03-28T12:57:35Z</time>
      </trkpt>
      <trkpt lat="45.25353" lon="3.0805">
        <ele>698.38</ele>
        <time>2022-03-28T12:57:37Z</time>
      </trkpt>
      <trkpt lat="45.25369" lon="3.08122">
        <ele>693.22</ele>
        <time>2022-03-28T12:57:40Z</time>
      </trkpt>
      <trkpt lat="45.25416" lon="3.08275">
        <ele>696.24</ele>
        <time>2022-03-28T12:57:42Z</time>
      </trkpt>
      <trkpt lat="45.25423" lon="3.08337">
        <ele>696.08</ele>
        <time>2022-03-28T12:57:45Z</time>
      </trkpt>
      <trkpt lat="45.25413" lon="3.08397">
        <ele>689.25</ele>
        <time>2022-03-28T12:57:48Z</time>
      </trkpt>
      <trkpt lat="45.25414" lon="3.08416">
        <ele>688.14</ele>
        <time>2022-03-28T12:57:50Z</time>
      </trkpt>
      <trkpt lat="45.25414" lon="3.08416">
        <ele>688.14</ele>
        <time>2022-03-28T12:57:50Z</time>
      </trkpt>
      <trkpt lat="45.25431" lon="3.08428">
        <ele>688.41</ele>
        <time>2022-03-28T12:57:53Z</time>
      </trkpt>
      <trkpt lat="45.25461" lon="3.08435">
        <ele>689.74</ele>
        <time>2022-03-28T12:57:56Z</time>
      </trkpt>
      <trkpt lat="45.25502" lon="3.08451">
        <ele>691.47</ele>
        <time>2022-03-28T12:57:59Z</time>
      </trkpt>
      <trkpt lat="45.2552" lon="3.08468">
        <ele>694.18</ele>
        <time>2022-03-28T12:58:03Z</time>
      </trkpt>
      <trkpt lat="45.25523" lon="3.085">
        <ele>693.56</ele>
        <time>2022-03-28T12:58:06Z</time>
      </trkpt>
      <trkpt lat="45.25522" lon="3.08529">
        <ele>690.76</ele>
        <time>2022-03-28T12:58:09Z</time>
      </trkpt>
      <trkpt lat="45.25558" lon="3.086">
        <ele>687.03</ele>
        <time>2022-03-28T12:58:12Z</time>
      </trkpt>
      <trkpt lat="45.25598" lon="3.08639">
        <ele>690.55</ele>
        <time>2022-03-28T12:58:15Z</time>
      </trkpt>
      <trkpt lat="45.25615" lon="3.08674">
        <ele>690.35</ele>
        <time>2022-03-28T12:58:18Z</time>
      </trkpt>
      <trkpt lat="45.25641" lon="3.08703">
        <ele>691.27</ele>
        <time>2022-03-28T12:58:21Z</time>
      </trkpt>
      <trkpt lat="45.25673" lon="3.08766">
        <ele>688.22</ele>
        <time>2022-03-28T12:58:24Z</time>
      </trkpt>
      <trkpt lat="45.25692" lon="3.08828">
        <ele>682.27</ele>
        <time>2022-03-28T12:58:27Z</time>
      </trkpt>
      <trkpt lat="45.25705" lon="3.08867">
        <ele>681.19</ele>
        <time>2022-03-28T12:58:30Z</time>
      </trkpt>
      <trkpt lat="45.25712" lon="3.08882">
        <ele>681.57</ele>
        <time>2022-03-28T12:58:33Z</time>
      </trkpt>
      <trkpt lat="45.25723" lon="3.08894">
        <ele>682.15</ele>
        <time>2022-03-28T12:58:36Z</time>
      </trkpt>
      <trkpt lat="45.25754" lon="3.08915">
        <ele>687.84</ele>
        <time>2022-03-28T12:58:40Z</time>
      </trkpt>
      <trkpt lat="45.25776" lon="3.08943">
        <ele>688.56</ele>
        <time>2022-03-28T12:58:43Z</time>
      </trkpt>
      <trkpt lat="45.2582" lon="3.09023">
        <ele>688.95</ele>
        <time>2022-03-28T12:58:46Z</time>
      </trkpt>
      <trkpt lat="45.25836" lon="3.09058">
        <ele>686.76</ele>
        <time>2022-03-28T12:58:49Z</time>
      </trkpt>
      <trkpt lat="45.25857" lon="3.09096">
        <ele>684.39</ele>
        <time>2022-03-28T12:58:52Z</time>
      </trkpt>
      <trkpt lat="45.25879" lon="3.09132">
        <ele>680.5</ele>
        <time>2022-03-28T12:58:55Z</time>
      </trkpt>
      <trkpt lat="45.25904" lon="3.0917">
        <ele>674.99</ele>
        <time>2022-03-28T12:58:58Z</time>
      </trkpt>
      <trkpt lat="45.25927" lon="3.09192">
        <ele>675.03</ele>
        <time>2022-03-28T12:59:01Z</time>
      </trkpt>
      <trkpt lat="45.25955" lon="3.09214">
        <ele>677.69</ele>
        <time>2022-03-28T12:59:04Z</time>
      </trkpt>
      <trkpt lat="45.25973" lon="3.09241">
        <ele>672.39</ele>
        <time>2022-03-28T12:59:07Z</time>
      </trkpt>
      <trkpt lat="45.25993" lon="3.09265">
        <ele>672.34</ele>
        <time>2022-03-28T12:59:10Z</time>
      </trkpt>
      <trkpt lat="45.26012" lon="3.09308">
        <ele>672.07</ele>
        <time>2022-03-28T12:59:13Z</time>
      </trkpt>
      <trkpt lat="45.26029" lon="3.09353">
        <ele>668.84</ele>
        <time>2022-03-28T12:59:17Z</time>
      </trkpt>
      <trkpt lat="45.26033" lon="3.09377">
        <ele>665.91</ele>
        <time>2022-03-28T12:59:20Z</time>
      </trkpt>
      <trkpt lat="45.26035" lon="3.09404">
        <ele>662.4</ele>
        <time>2022-03-28T12:59:23Z</time>
      </trkpt>
      <trkpt lat="45.26029" lon="3.09466">
        <ele>656.17</ele>
        <time>2022-03-28T12:59:26Z</time>
      </trkpt>
      <trkpt lat="45.26029" lon="3.09514">
        <ele>656.19</ele>
        <time>2022-03-28T12:59:29Z</time>
      </trkpt>
      <trkpt lat="45.26041" lon="3.0956">
        <ele>659.3</ele>
        <time>2022-03-28T12:59:32Z</time>
      </trkpt>
      <trkpt lat="45.26043" lon="3.09585">
        <ele>662.11</ele>
        <time>2022-03-28T12:59:35Z</time>
      </trkpt>
      <trkpt lat="45.26043" lon="3.09613">
        <ele>664.79</ele>
        <time>2022-03-28T12:59:38Z</time>
      </trkpt>
      <trkpt lat="45.26049" lon="3.09661">
        <ele>664.4</ele>
        <time>2022-03-28T12:59:41Z</time>
      </trkpt>
      <trkpt lat="45.26068" lon="3.09728">
        <ele>664.8</ele>
        <time>2022-03-28T12:59:44Z</time>
      </trkpt>
      <trkpt lat="45.26072" lon="3.09762">
        <ele>663.13</ele>
        <time>2022-03-28T12:59:47Z</time>
      </trkpt>
      <trkpt lat="45.26072" lon="3.09783">
        <ele>661.03</ele>
        <time>2022-03-28T12:59:50Z</time>
      </trkpt>
      <trkpt lat="45.26067" lon="3.09809">
        <ele>656.11</ele>
        <time>2022-03-28T12:59:54Z</time>
      </trkpt>
      <trkpt lat="45.26065" lon="3.0983">
        <ele>654.09</ele>
        <time>2022-03-28T12:59:57Z</time>
      </trkpt>
      <trkpt lat="45.26068" lon="3.0985">
        <ele>653.14</ele>
        <time>2022-03-28T13:00:00Z</time>
      </trkpt>
      <trkpt lat="45.26077" lon="3.09868">
        <ele>653.56</ele>
        <time>2022-03-28T13:00:03Z</time>
      </trkpt>
      <trkpt lat="45.2609" lon="3.09879">
        <ele>654.61</ele>
        <time>2022-03-28T13:00:06Z</time>
      </trkpt>
      <trkpt lat="45.26104" lon="3.09879">
        <ele>656.33</ele>
        <time>2022-03-28T13:00:09Z</time>
      </trkpt>
      <trkpt lat="45.26123" lon="3.09888">
        <ele>657.2</ele>
        <time>2022-03-28T13:00:12Z</time>
      </trkpt>
      <trkpt lat="45.26159" lon="3.0992">
        <ele>660.49</ele>
        <time>2022-03-28T13:00:15Z</time>
      </trkpt>
      <trkpt lat="45.26173" lon="3.09938">
        <ele>661.02</ele>
        <time>2022-03-28T13:00:18Z</time>
      </trkpt>
      <trkpt lat="45.26183" lon="3.09962">
        <ele>659.29</ele>
        <time>2022-03-28T13:00:21Z</time>
      </trkpt>
      <trkpt lat="45.26184" lon="3.09986">
        <ele>656.38</ele>
        <time>2022-03-28T13:00:24Z</time>
      </trkpt>
      <trkpt lat="45.26177" lon="3.10013">
        <ele>652.7</ele>
        <time>2022-03-28T13:00:27Z</time>
      </trkpt>
      <trkpt lat="45.26176" lon="3.10026">
        <ele>652.48</ele>
        <time>2022-03-28T13:00:31Z</time>
      </trkpt>
      <trkpt lat="45.26179" lon="3.1004">
        <ele>654.17</ele>
        <time>2022-03-28T13:00:34Z</time>
      </trkpt>
      <trkpt lat="45.26205" lon="3.10082">
        <ele>658.59</ele>
        <time>2022-03-28T13:00:37Z</time>
      </trkpt>
      <trkpt lat="45.26217" lon="3.10108">
        <ele>657.86</ele>
        <time>2022-03-28T13:00:40Z</time>
      </trkpt>
      <trkpt lat="45.26233" lon="3.1015">
        <ele>654.97</ele>
        <time>2022-03-28T13:00:43Z</time>
      </trkpt>
      <trkpt lat="45.26245" lon="3.10201">
        <ele>649.55</ele>
        <time>2022-03-28T13:00:46Z</time>
      </trkpt>
      <trkpt lat="45.26389" lon="3.10348">
        <ele>657.17</ele>
        <time>2022-03-28T13:00:49Z</time>
      </trkpt>
      <trkpt lat="45.26451" lon="3.10405">
        <ele>651.79</ele>
        <time>2022-03-28T13:00:52Z</time>
      </trkpt>
      <trkpt lat="45.26495" lon="3.10443">
        <ele>657.73</ele>
        <time>2022-03-28T13:00:55Z</time>
      </trkpt>
      <trkpt lat="45.2656" lon="3.10518">
        <ele>644.23</ele>
        <time>2022-03-28T13:00:58Z</time>
      </trkpt>
      <trkpt lat="45.26585" lon="3.10543">
        <ele>642.4</ele>
        <time>2022-03-28T13:01:01Z</time>
      </trkpt>
      <trkpt lat="45.26616" lon="3.1057">
        <ele>647.34</ele>
        <time>2022-03-28T13:01:04Z</time>
      </trkpt>
      <trkpt lat="45.26634" lon="3.10589">
        <ele>646.98</ele>
        <time>2022-03-28T13:01:08Z</time>
      </trkpt>
      <trkpt lat="45.26643" lon="3.10604">
        <ele>645.4</ele>
        <time>2022-03-28T13:01:11Z</time>
      </trkpt>
      <trkpt lat="45.26651" lon="3.10624">
        <ele>642.78</ele>
        <time>2022-03-28T13:01:14Z</time>
      </trkpt>
      <trkpt lat="45.26676" lon="3.10777">
        <ele>637.65</ele>
        <time>2022-03-28T13:01:17Z</time>
      </trkpt>
      <trkpt lat="45.26683" lon="3.10808">
        <ele>634.81</ele>
        <time>2022-03-28T13:01:20Z</time>
      </trkpt>
      <trkpt lat="45.26734" lon="3.10942">
        <ele>634.65</ele>
        <time>2022-03-28T13:01:23Z</time>
      </trkpt>
      <trkpt lat="45.26738" lon="3.10958">
        <ele>635.79</ele>
        <time>2022-03-28T13:01:26Z</time>
      </trkpt>
      <trkpt lat="45.26743" lon="3.10994">
        <ele>636.54</ele>
        <time>2022-03-28T13:01:29Z</time>
      </trkpt>
      <trkpt lat="45.2675" lon="3.11018">
        <ele>636.79</ele>
        <time>2022-03-28T13:01:32Z</time>
      </trkpt>
      <trkpt lat="45.2679" lon="3.11125">
        <ele>637.46</ele>
        <time>2022-03-28T13:01:35Z</time>
      </trkpt>
      <trkpt lat="45.26802" lon="3.11178">
        <ele>632.81</ele>
        <time>2022-03-28T13:01:38Z</time>
      </trkpt>
      <trkpt lat="45.26805" lon="3.11209">
        <ele>632.37</ele>
        <time>2022-03-28T13:01:41Z</time>
      </trkpt>
      <trkpt lat="45.26806" lon="3.11236">
        <ele>633.06</ele>
        <time>2022-03-28T13:01:45Z</time>
      </trkpt>
      <trkpt lat="45.268" lon="3.1146">
        <ele>629.16</ele>
        <time>2022-03-28T13:01:48Z</time>
      </trkpt>
      <trkpt lat="45.26794" lon="3.11526">
        <ele>625.76</ele>
        <time>2022-03-28T13:01:51Z</time>
      </trkpt>
      <trkpt lat="45.26791" lon="3.11554">
        <ele>625.03</ele>
        <time>2022-03-28T13:01:54Z</time>
      </trkpt>
      <trkpt lat="45.26768" lon="3.11624">
        <ele>613.17</ele>
        <time>2022-03-28T13:01:57Z</time>
      </trkpt>
      <trkpt lat="45.26768" lon="3.11649">
        <ele>612.43</ele>
        <time>2022-03-28T13:02:00Z</time>
      </trkpt>
      <trkpt lat="45.26774" lon="3.11699">
        <ele>612.98</ele>
        <time>2022-03-28T13:02:03Z</time>
      </trkpt>
      <trkpt lat="45.26775" lon="3.11729">
        <ele>611.62</ele>
        <time>2022-03-28T13:02:06Z</time>
      </trkpt>
      <trkpt lat="45.26773" lon="3.11779">
        <ele>609.2</ele>
        <time>2022-03-28T13:02:09Z</time>
      </trkpt>
      <trkpt lat="45.26774" lon="3.11829">
        <ele>608.27</ele>
        <time>2022-03-28T13:02:12Z</time>
      </trkpt>
      <trkpt lat="45.26762" lon="3.11918">
        <ele>606.84</ele>
        <time>2022-03-28T13:02:15Z</time>
      </trkpt>
      <trkpt lat="45.2676" lon="3.11964">
        <ele>606.18</ele>
        <time>2022-03-28T13:02:18Z</time>
      </trkpt>
      <trkpt lat="45.26764" lon="3.12009">
        <ele>606.5</ele>
        <time>2022-03-28T13:02:22Z</time>
      </trkpt>
      <trkpt lat="45.26778" lon="3.12047">
        <ele>606.68</ele>
        <time>2022-03-28T13:02:25Z</time>
      </trkpt>
      <trkpt lat="45.26782" lon="3.12069">
        <ele>607.24</ele>
        <time>2022-03-28T13:02:28Z</time>
      </trkpt>
      <trkpt lat="45.2678" lon="3.12099">
        <ele>605.26</ele>
        <time>2022-03-28T13:02:31Z</time>
      </trkpt>
      <trkpt lat="45.26767" lon="3.12136">
        <ele>602.74</ele>
        <time>2022-03-28T13:02:34Z</time>
      </trkpt>
      <trkpt lat="45.26745" lon="3.12181">
        <ele>602.82</ele>
        <time>2022-03-28T13:02:37Z</time>
      </trkpt>
      <trkpt lat="45.26722" lon="3.12245">
        <ele>601.2</ele>
        <time>2022-03-28T13:02:40Z</time>
      </trkpt>
      <trkpt lat="45.26715" lon="3.12273">
        <ele>602.28</ele>
        <time>2022-03-28T13:02:43Z</time>
      </trkpt>
      <trkpt lat="45.26712" lon="3.12296">
        <ele>602.53</ele>
        <time>2022-03-28T13:02:46Z</time>
      </trkpt>
      <trkpt lat="45.26715" lon="3.1232">
        <ele>602.59</ele>
        <time>2022-03-28T13:02:49Z</time>
      </trkpt>
      <trkpt lat="45.26714" lon="3.12345">
        <ele>601.86</ele>
        <time>2022-03-28T13:02:52Z</time>
      </trkpt>
      <trkpt lat="45.26698" lon="3.12396">
        <ele>597.74</ele>
        <time>2022-03-28T13:02:55Z</time>
      </trkpt>
      <trkpt lat="45.2669" lon="3.12451">
        <ele>598.78</ele>
        <time>2022-03-28T13:02:58Z</time>
      </trkpt>
      <trkpt lat="45.26677" lon="3.12495">
        <ele>597.25</ele>
        <time>2022-03-28T13:03:02Z</time>
      </trkpt>
      <trkpt lat="45.26672" lon="3.12523">
        <ele>596.45</ele>
        <time>2022-03-28T13:03:05Z</time>
      </trkpt>
      <trkpt lat="45.26671" lon="3.12582">
        <ele>600.38</ele>
        <time>2022-03-28T13:03:08Z</time>
      </trkpt>
      <trkpt lat="45.2667" lon="3.12598">
        <ele>600.64</ele>
        <time>2022-03-28T13:03:11Z</time>
      </trkpt>
      <trkpt lat="45.26662" lon="3.12641">
        <ele>599.71</ele>
        <time>2022-03-28T13:03:14Z</time>
      </trkpt>
      <trkpt lat="45.26658" lon="3.1267">
        <ele>600.24</ele>
        <time>2022-03-28T13:03:17Z</time>
      </trkpt>
      <trkpt lat="45.26657" lon="3.127">
        <ele>601.8</ele>
        <time>2022-03-28T13:03:20Z</time>
      </trkpt>
      <trkpt lat="45.26651" lon="3.12734">
        <ele>603.01</ele>
        <time>2022-03-28T13:03:23Z</time>
      </trkpt>
      <trkpt lat="45.26633" lon="3.12795">
        <ele>601.92</ele>
        <time>2022-03-28T13:03:26Z</time>
      </trkpt>
      <trkpt lat="45.26627" lon="3.12831">
        <ele>601.59</ele>
        <time>2022-03-28T13:03:29Z</time>
      </trkpt>
      <trkpt lat="45.26618" lon="3.12917">
        <ele>602.16</ele>
        <time>2022-03-28T13:03:32Z</time>
      </trkpt>
      <trkpt lat="45.2662" lon="3.1295">
        <ele>602.08</ele>
        <time>2022-03-28T13:03:35Z</time>
      </trkpt>
      <trkpt lat="45.26629" lon="3.12991">
        <ele>604.49</ele>
        <time>2022-03-28T13:03:39Z</time>
      </trkpt>
      <trkpt lat="45.26638" lon="3.1302">
        <ele>602.94</ele>
        <time>2022-03-28T13:03:42Z</time>
      </trkpt>
      <trkpt lat="45.26653" lon="3.13062">
        <ele>603.75</ele>
        <time>2022-03-28T13:03:45Z</time>
      </trkpt>
      <trkpt lat="45.26664" lon="3.1308">
        <ele>603.21</ele>
        <time>2022-03-28T13:03:48Z</time>
      </trkpt>
      <trkpt lat="45.26677" lon="3.13111">
        <ele>599.01</ele>
        <time>2022-03-28T13:03:51Z</time>
      </trkpt>
      <trkpt lat="45.26689" lon="3.13147">
        <ele>597.8</ele>
        <time>2022-03-28T13:03:54Z</time>
      </trkpt>
      <trkpt lat="45.26732" lon="3.13289">
        <ele>589.72</ele>
        <time>2022-03-28T13:03:57Z</time>
      </trkpt>
      <trkpt lat="45.26765" lon="3.13373">
        <ele>590.55</ele>
        <time>2022-03-28T13:04:00Z</time>
      </trkpt>
      <trkpt lat="45.26822" lon="3.13561">
        <ele>591.05</ele>
        <time>2022-03-28T13:04:03Z</time>
      </trkpt>
      <trkpt lat="45.26849" lon="3.13623">
        <ele>588.46</ele>
        <time>2022-03-28T13:04:06Z</time>
      </trkpt>
      <trkpt lat="45.26875" lon="3.1371">
        <ele>583.75</ele>
        <time>2022-03-28T13:04:09Z</time>
      </trkpt>
      <trkpt lat="45.26886" lon="3.13735">
        <ele>583.44</ele>
        <time>2022-03-28T13:04:12Z</time>
      </trkpt>
      <trkpt lat="45.2699" lon="3.13909">
        <ele>583.12</ele>
        <time>2022-03-28T13:04:16Z</time>
      </trkpt>
      <trkpt lat="45.27" lon="3.13937">
        <ele>583.52</ele>
        <time>2022-03-28T13:04:19Z</time>
      </trkpt>
      <trkpt lat="45.27007" lon="3.13967">
        <ele>582.43</ele>
        <time>2022-03-28T13:04:22Z</time>
      </trkpt>
      <trkpt lat="45.27012" lon="3.14009">
        <ele>576.55</ele>
        <time>2022-03-28T13:04:25Z</time>
      </trkpt>
      <trkpt lat="45.27017" lon="3.14037">
        <ele>572.89</ele>
        <time>2022-03-28T13:04:28Z</time>
      </trkpt>
      <trkpt lat="45.2703" lon="3.14068">
        <ele>571.66</ele>
        <time>2022-03-28T13:04:31Z</time>
      </trkpt>
      <trkpt lat="45.27129" lon="3.1421">
        <ele>575.61</ele>
        <time>2022-03-28T13:04:34Z</time>
      </trkpt>
      <trkpt lat="45.27143" lon="3.14233">
        <ele>572.04</ele>
        <time>2022-03-28T13:04:37Z</time>
      </trkpt>
      <trkpt lat="45.27155" lon="3.14261">
        <ele>569.72</ele>
        <time>2022-03-28T13:04:40Z</time>
      </trkpt>
      <trkpt lat="45.27188" lon="3.14363">
        <ele>569.39</ele>
        <time>2022-03-28T13:04:43Z</time>
      </trkpt>
      <trkpt lat="45.2721" lon="3.14389">
        <ele>569.29</ele>
        <time>2022-03-28T13:04:46Z</time>
      </trkpt>
      <trkpt lat="45.27278" lon="3.14456">
        <ele>565.22</ele>
        <time>2022-03-28T13:04:49Z</time>
      </trkpt>
      <trkpt lat="45.27332" lon="3.14497">
        <ele>571.22</ele>
        <time>2022-03-28T13:04:53Z</time>
      </trkpt>
      <trkpt lat="45.27416" lon="3.14586">
        <ele>579.89</ele>
        <time>2022-03-28T13:04:56Z</time>
      </trkpt>
      <trkpt lat="45.27478" lon="3.14639">
        <ele>581.79</ele>
        <time>2022-03-28T13:04:59Z</time>
      </trkpt>
      <trkpt lat="45.27544" lon="3.14728">
        <ele>585.01</ele>
        <time>2022-03-28T13:05:02Z</time>
      </trkpt>
      <trkpt lat="45.27556" lon="3.14755">
        <ele>583.03</ele>
        <time>2022-03-28T13:05:05Z</time>
      </trkpt>
      <trkpt lat="45.27628" lon="3.15014">
        <ele>571.94</ele>
        <time>2022-03-28T13:05:08Z</time>
      </trkpt>
      <trkpt lat="45.27642" lon="3.15058">
        <ele>569.69</ele>
        <time>2022-03-28T13:05:11Z</time>
      </trkpt>
      <trkpt lat="45.27695" lon="3.15187">
        <ele>567.44</ele>
        <time>2022-03-28T13:05:14Z</time>
      </trkpt>
      <trkpt lat="45.2773" lon="3.15248">
        <ele>568.91</ele>
        <time>2022-03-28T13:05:17Z</time>
      </trkpt>
      <trkpt lat="45.2774" lon="3.15276">
        <ele>567.26</ele>
        <time>2022-03-28T13:05:20Z</time>
      </trkpt>
      <trkpt lat="45.2776" lon="3.15357">
        <ele>563.53</ele>
        <time>2022-03-28T13:05:23Z</time>
      </trkpt>
      <trkpt lat="45.27789" lon="3.1541">
        <ele>566.99</ele>
        <time>2022-03-28T13:05:26Z</time>
      </trkpt>
      <trkpt lat="45.27802" lon="3.1545">
        <ele>566.11</ele>
        <time>2022-03-28T13:05:30Z</time>
      </trkpt>
      <trkpt lat="45.27804" lon="3.15468">
        <ele>564.18</ele>
        <time>2022-03-28T13:05:33Z</time>
      </trkpt>
      <trkpt lat="45.27804" lon="3.15536">
        <ele>557.01</ele>
        <time>2022-03-28T13:05:36Z</time>
      </trkpt>
      <trkpt lat="45.27809" lon="3.15555">
        <ele>555.45</ele>
        <time>2022-03-28T13:05:39Z</time>
      </trkpt>
      <trkpt lat="45.27817" lon="3.15574">
        <ele>555.53</ele>
        <time>2022-03-28T13:05:42Z</time>
      </trkpt>
      <trkpt lat="45.27817" lon="3.15574">
        <ele>555.53</ele>
        <time>2022-03-28T13:05:42Z</time>
      </trkpt>
      <trkpt lat="45.27827" lon="3.15589">
        <ele>556.38</ele>
        <time>2022-03-28T13:05:46Z</time>
      </trkpt>
      <trkpt lat="45.27896" lon="3.15648">
        <ele>559.67</ele>
        <time>2022-03-28T13:05:50Z</time>
      </trkpt>
      <trkpt lat="45.27921" lon="3.15679">
        <ele>560.67</ele>
        <time>2022-03-28T13:05:54Z</time>
      </trkpt>
      <trkpt lat="45.27989" lon="3.15793">
        <ele>560.08</ele>
        <time>2022-03-28T13:05:59Z</time>
      </trkpt>
      <trkpt lat="45.28004" lon="3.15802">
        <ele>561.05</ele>
        <time>2022-03-28T13:06:03Z</time>
      </trkpt>
      <trkpt lat="45.28065" lon="3.15824">
        <ele>564.03</ele>
        <time>2022-03-28T13:06:07Z</time>
      </trkpt>
      <trkpt lat="45.28095" lon="3.1584">
        <ele>566.11</ele>
        <time>2022-03-28T13:06:11Z</time>
      </trkpt>
      <trkpt lat="45.28113" lon="3.15857">
        <ele>565.35</ele>
        <time>2022-03-28T13:06:15Z</time>
      </trkpt>
      <trkpt lat="45.28145" lon="3.15896">
        <ele>561.82</ele>
        <time>2022-03-28T13:06:20Z</time>
      </trkpt>
      <trkpt lat="45.28183" lon="3.15922">
        <ele>562.28</ele>
        <time>2022-03-28T13:06:24Z</time>
      </trkpt>
      <trkpt lat="45.28277" lon="3.16018">
        <ele>564.56</ele>
        <time>2022-03-28T13:06:28Z</time>
      </trkpt>
      <trkpt lat="45.28343" lon="3.16071">
        <ele>558.95</ele>
        <time>2022-03-28T13:06:32Z</time>
      </trkpt>
      <trkpt lat="45.28363" lon="3.16091">
        <ele>554.57</ele>
        <time>2022-03-28T13:06:36Z</time>
      </trkpt>
      <trkpt lat="45.28401" lon="3.16149">
        <ele>558.32</ele>
        <time>2022-03-28T13:06:41Z</time>
      </trkpt>
      <trkpt lat="45.28433" lon="3.16193">
        <ele>561</ele>
        <time>2022-03-28T13:06:45Z</time>
      </trkpt>
      <trkpt lat="45.28469" lon="3.16235">
        <ele>562.11</ele>
        <time>2022-03-28T13:06:49Z</time>
      </trkpt>
      <trkpt lat="45.28502" lon="3.16279">
        <ele>558.22</ele>
        <time>2022-03-28T13:06:53Z</time>
      </trkpt>
      <trkpt lat="45.28555" lon="3.16336">
        <ele>551.27</ele>
        <time>2022-03-28T13:06:57Z</time>
      </trkpt>
      <trkpt lat="45.28575" lon="3.1635">
        <ele>550.99</ele>
        <time>2022-03-28T13:07:01Z</time>
      </trkpt>
      <trkpt lat="45.28641" lon="3.16377">
        <ele>556.85</ele>
        <time>2022-03-28T13:07:06Z</time>
      </trkpt>
      <trkpt lat="45.2868" lon="3.16408">
        <ele>555.94</ele>
        <time>2022-03-28T13:07:10Z</time>
      </trkpt>
      <trkpt lat="45.28725" lon="3.16465">
        <ele>545.36</ele>
        <time>2022-03-28T13:07:14Z</time>
      </trkpt>
      <trkpt lat="45.28832" lon="3.16552">
        <ele>549.05</ele>
        <time>2022-03-28T13:07:18Z</time>
      </trkpt>
      <trkpt lat="45.28926" lon="3.16646">
        <ele>547.81</ele>
        <time>2022-03-28T13:07:22Z</time>
      </trkpt>
      <trkpt lat="45.28941" lon="3.16668">
        <ele>544.1</ele>
        <time>2022-03-28T13:07:27Z</time>
      </trkpt>
      <trkpt lat="45.28999" lon="3.16793">
        <ele>533.28</ele>
        <time>2022-03-28T13:07:31Z</time>
      </trkpt>
      <trkpt lat="45.29014" lon="3.16817">
        <ele>533.45</ele>
        <time>2022-03-28T13:07:35Z</time>
      </trkpt>
      <trkpt lat="45.29033" lon="3.16837">
        <ele>533.53</ele>
        <time>2022-03-28T13:07:39Z</time>
      </trkpt>
      <trkpt lat="45.29092" lon="3.1689">
        <ele>534.59</ele>
        <time>2022-03-28T13:07:43Z</time>
      </trkpt>
      <trkpt lat="45.29114" lon="3.16901">
        <ele>535.79</ele>
        <time>2022-03-28T13:07:48Z</time>
      </trkpt>
      <trkpt lat="45.29169" lon="3.16917">
        <ele>537.08</ele>
        <time>2022-03-28T13:07:52Z</time>
      </trkpt>
      <trkpt lat="45.29196" lon="3.16934">
        <ele>536.65</ele>
        <time>2022-03-28T13:07:56Z</time>
      </trkpt>
      <trkpt lat="45.29223" lon="3.1697">
        <ele>533.45</ele>
        <time>2022-03-28T13:08:00Z</time>
      </trkpt>
      <trkpt lat="45.29242" lon="3.16983">
        <ele>532.77</ele>
        <time>2022-03-28T13:08:04Z</time>
      </trkpt>
      <trkpt lat="45.29286" lon="3.16997">
        <ele>531.97</ele>
        <time>2022-03-28T13:08:09Z</time>
      </trkpt>
      <trkpt lat="45.29315" lon="3.17017">
        <ele>532.71</ele>
        <time>2022-03-28T13:08:13Z</time>
      </trkpt>
      <trkpt lat="45.29428" lon="3.17137">
        <ele>542.97</ele>
        <time>2022-03-28T13:08:17Z</time>
      </trkpt>
      <trkpt lat="45.29474" lon="3.17168">
        <ele>537.12</ele>
        <time>2022-03-28T13:08:21Z</time>
      </trkpt>
      <trkpt lat="45.29506" lon="3.17183">
        <ele>538.52</ele>
        <time>2022-03-28T13:08:25Z</time>
      </trkpt>
      <trkpt lat="45.2953" lon="3.17185">
        <ele>537.15</ele>
        <time>2022-03-28T13:08:29Z</time>
      </trkpt>
      <trkpt lat="45.29687" lon="3.1717">
        <ele>528.86</ele>
        <time>2022-03-28T13:08:34Z</time>
      </trkpt>
      <trkpt lat="45.29727" lon="3.17162">
        <ele>526.21</ele>
        <time>2022-03-28T13:08:38Z</time>
      </trkpt>
      <trkpt lat="45.29756" lon="3.17152">
        <ele>528.42</ele>
        <time>2022-03-28T13:08:42Z</time>
      </trkpt>
      <trkpt lat="45.298" lon="3.17126">
        <ele>528.1</ele>
        <time>2022-03-28T13:08:46Z</time>
      </trkpt>
      <trkpt lat="45.29836" lon="3.17113">
        <ele>525.46</ele>
        <time>2022-03-28T13:08:50Z</time>
      </trkpt>
      <trkpt lat="45.29911" lon="3.17092">
        <ele>530.5</ele>
        <time>2022-03-28T13:08:55Z</time>
      </trkpt>
      <trkpt lat="45.29943" lon="3.17088">
        <ele>528.97</ele>
        <time>2022-03-28T13:08:59Z</time>
      </trkpt>
      <trkpt lat="45.30017" lon="3.17088">
        <ele>525.32</ele>
        <time>2022-03-28T13:09:03Z</time>
      </trkpt>
      <trkpt lat="45.30105" lon="3.17101">
        <ele>525.31</ele>
        <time>2022-03-28T13:09:07Z</time>
      </trkpt>
      <trkpt lat="45.30203" lon="3.17126">
        <ele>526.38</ele>
        <time>2022-03-28T13:09:11Z</time>
      </trkpt>
      <trkpt lat="45.30342" lon="3.17146">
        <ele>526.6</ele>
        <time>2022-03-28T13:09:16Z</time>
      </trkpt>
      <trkpt lat="45.30389" lon="3.17146">
        <ele>523.05</ele>
        <time>2022-03-28T13:09:20Z</time>
      </trkpt>
      <trkpt lat="45.3045" lon="3.1714">
        <ele>520.57</ele>
        <time>2022-03-28T13:09:24Z</time>
      </trkpt>
      <trkpt lat="45.30629" lon="3.17092">
        <ele>522.11</ele>
        <time>2022-03-28T13:09:28Z</time>
      </trkpt>
      <trkpt lat="45.30649" lon="3.17099">
        <ele>521.42</ele>
        <time>2022-03-28T13:09:32Z</time>
      </trkpt>
      <trkpt lat="45.30751" lon="3.17148">
        <ele>520.95</ele>
        <time>2022-03-28T13:09:36Z</time>
      </trkpt>
      <trkpt lat="45.30796" lon="3.17162">
        <ele>518.56</ele>
        <time>2022-03-28T13:09:41Z</time>
      </trkpt>
      <trkpt lat="45.30837" lon="3.17164">
        <ele>517.49</ele>
        <time>2022-03-28T13:09:45Z</time>
      </trkpt>
      <trkpt lat="45.30898" lon="3.17162">
        <ele>522.38</ele>
        <time>2022-03-28T13:09:49Z</time>
      </trkpt>
      <trkpt lat="45.31007" lon="3.1715">
        <ele>516.83</ele>
        <time>2022-03-28T13:09:53Z</time>
      </trkpt>
      <trkpt lat="45.31028" lon="3.17158">
        <ele>515.36</ele>
        <time>2022-03-28T13:09:57Z</time>
      </trkpt>
      <trkpt lat="45.31078" lon="3.17193">
        <ele>513.7</ele>
        <time>2022-03-28T13:10:02Z</time>
      </trkpt>
      <trkpt lat="45.31124" lon="3.17251">
        <ele>517.58</ele>
        <time>2022-03-28T13:10:06Z</time>
      </trkpt>
      <trkpt lat="45.31202" lon="3.17365">
        <ele>514.56</ele>
        <time>2022-03-28T13:10:10Z</time>
      </trkpt>
      <trkpt lat="45.31208" lon="3.17379">
        <ele>512.26</ele>
        <time>2022-03-28T13:10:14Z</time>
      </trkpt>
      <trkpt lat="45.3121" lon="3.17393">
        <ele>511.21</ele>
        <time>2022-03-28T13:10:18Z</time>
      </trkpt>
      <trkpt lat="45.31208" lon="3.17412">
        <ele>511.64</ele>
        <time>2022-03-28T13:10:23Z</time>
      </trkpt>
      <trkpt lat="45.31206" lon="3.17431">
        <ele>513.68</ele>
        <time>2022-03-28T13:10:27Z</time>
      </trkpt>
      <trkpt lat="45.31198" lon="3.17471">
        <ele>520.72</ele>
        <time>2022-03-28T13:10:31Z</time>
      </trkpt>
      <trkpt lat="45.31193" lon="3.17534">
        <ele>517.76</ele>
        <time>2022-03-28T13:10:35Z</time>
      </trkpt>
      <trkpt lat="45.31195" lon="3.17584">
        <ele>520.66</ele>
        <time>2022-03-28T13:10:39Z</time>
      </trkpt>
      <trkpt lat="45.31204" lon="3.17633">
        <ele>517.88</ele>
        <time>2022-03-28T13:10:43Z</time>
      </trkpt>
      <trkpt lat="45.31209" lon="3.17687">
        <ele>517.57</ele>
        <time>2022-03-28T13:10:48Z</time>
      </trkpt>
      <trkpt lat="45.3121" lon="3.17737">
        <ele>516.58</ele>
        <time>2022-03-28T13:10:52Z</time>
      </trkpt>
      <trkpt lat="45.31208" lon="3.17933">
        <ele>507.16</ele>
        <time>2022-03-28T13:10:56Z</time>
      </trkpt>
      <trkpt lat="45.3121" lon="3.17969">
        <ele>501.94</ele>
        <time>2022-03-28T13:11:00Z</time>
      </trkpt>
      <trkpt lat="45.31218" lon="3.18001">
        <ele>499.52</ele>
        <time>2022-03-28T13:11:04Z</time>
      </trkpt>
      <trkpt lat="45.31236" lon="3.18046">
        <ele>498.19</ele>
        <time>2022-03-28T13:11:09Z</time>
      </trkpt>
      <trkpt lat="45.31239" lon="3.18059">
        <ele>498.15</ele>
        <time>2022-03-28T13:11:13Z</time>
      </trkpt>
      <trkpt lat="45.3124" lon="3.18073">
        <ele>497.89</ele>
        <time>2022-03-28T13:11:17Z</time>
      </trkpt>
      <trkpt lat="45.31222" lon="3.18082">
        <ele>497</ele>
        <time>2022-03-28T13:11:19Z</time>
      </trkpt>
      <trkpt lat="45.31186" lon="3.18128">
        <ele>499.75</ele>
        <time>2022-03-28T13:11:21Z</time>
      </trkpt>
    </trkseg>
  </trk>
</gpx>